Wetterdaten: Sonntag, 11.02.2018
Datum Zeit Temp. A. Pool Temp. Feuchte A. Luftdruck Regen Wind Richtung Richtung Sonnenschein ET UV Solar Taupunkt Windchill Windben Empfang
11.02.2018 00:00 0,1 C 3,9 C 87 % 1015,8 hPa 0,0 l/m 5,4 km/h (1 Bft) S-SW 201 0 min 0,000 mm 0,0 UV-I 0 W/m -1,8 C 0,1 C 6,4 km/h (2 Bft) 100,00 %
11.02.2018 00:01 0,1 C 3,9 C 87 % 1015,8 hPa 0,0 l/m 4,4 km/h (1 Bft) S-SW 213 0 min 0,000 mm 0,0 UV-I 0 W/m -1,8 C 0,1 C 6,4 km/h (2 Bft) 100,00 %
11.02.2018 00:02 0,1 C 3,9 C 87 % 1015,8 hPa 0,0 l/m 4,7 km/h (1 Bft) W-SW 240 0 min 0,000 mm 0,0 UV-I 0 W/m -1,8 C 0,1 C 6,4 km/h (2 Bft) 100,00 %
11.02.2018 00:03 0,0 C 3,9 C 87 % 1015,8 hPa 0,0 l/m 3,5 km/h (1 Bft) W-SW 238 0 min 0,000 mm 0,0 UV-I 0 W/m -1,9 C 0,0 C 4,8 km/h (1 Bft) 100,00 %
11.02.2018 00:04 0,0 C 3,9 C 87 % 1015,7 hPa 0,0 l/m 3,4 km/h (1 Bft) W-SW 238 0 min 0,000 mm 0,0 UV-I 0 W/m -1,9 C 0,0 C 4,8 km/h (1 Bft) 100,00 %
11.02.2018 00:05 0,0 C 3,9 C 87 % 1015,7 hPa 0,0 l/m 2,9 km/h (1 Bft) W-SW 238 0 min 0,000 mm 0,0 UV-I 0 W/m -1,9 C 0,0 C 3,2 km/h (1 Bft) 100,00 %
11.02.2018 00:06 0,0 C 3,9 C 87 % 1015,8 hPa 0,0 l/m 3,2 km/h (1 Bft) W-SW 238 0 min 0,000 mm 0,0 UV-I 0 W/m -1,9 C 0,0 C 4,8 km/h (1 Bft) 100,00 %
11.02.2018 00:07 0,0 C 3,9 C 87 % 1015,8 hPa 0,0 l/m 3,7 km/h (1 Bft) SW 235 0 min 0,000 mm 0,0 UV-I 0 W/m -1,9 C 0,0 C 4,8 km/h (1 Bft) 100,00 %
11.02.2018 00:08 0,0 C 3,9 C 88 % 1015,8 hPa 0,0 l/m 3,0 km/h (1 Bft) SW 235 0 min 0,000 mm 0,0 UV-I 0 W/m -1,7 C 0,0 C 4,8 km/h (1 Bft) 96,30 %
11.02.2018 00:09 0,0 C 3,9 C 88 % 1015,8 hPa 0,0 l/m 3,1 km/h (1 Bft) SW 235 0 min 0,000 mm 0,0 UV-I 0 W/m -1,7 C 0,0 C 4,8 km/h (1 Bft) 96,15 %
11.02.2018 00:10 0,0 C 3,9 C 88 % 1015,8 hPa 0,0 l/m 4,7 km/h (1 Bft) SW 235 0 min 0,000 mm 0,0 UV-I 0 W/m -1,7 C 0,0 C 6,4 km/h (2 Bft) 100,00 %
11.02.2018 00:11 0,0 C 3,9 C 88 % 1015,8 hPa 0,0 l/m 4,4 km/h (1 Bft) W-SW 251 0 min 0,000 mm 0,0 UV-I 0 W/m -1,7 C 0,0 C 6,4 km/h (2 Bft) 100,00 %
11.02.2018 00:12 0,0 C 3,9 C 88 % 1015,8 hPa 0,0 l/m 4,0 km/h (1 Bft) W-SW 248 0 min 0,000 mm 0,0 UV-I 0 W/m -1,7 C 0,0 C 6,4 km/h (2 Bft) 100,00 %
11.02.2018 00:13 0,0 C 3,9 C 88 % 1015,7 hPa 0,0 l/m 2,9 km/h (1 Bft) W-SW 248 0 min 0,000 mm 0,0 UV-I 0 W/m -1,7 C 0,0 C 3,2 km/h (1 Bft) 100,00 %
11.02.2018 00:14 0,0 C 3,9 C 88 % 1015,7 hPa 0,0 l/m 3,6 km/h (1 Bft) W-SW 248 0 min 0,000 mm 0,0 UV-I 0 W/m -1,7 C 0,0 C 4,8 km/h (1 Bft) 100,00 %
11.02.2018 00:15 0,0 C 3,9 C 88 % 1015,7 hPa 0,0 l/m 4,1 km/h (1 Bft) W-SW 247 0 min 0,000 mm 0,0 UV-I 0 W/m -1,7 C 0,0 C 4,8 km/h (1 Bft) 100,00 %
11.02.2018 00:16 0,0 C 3,9 C 88 % 1015,7 hPa 0,0 l/m 4,1 km/h (1 Bft) W-SW 247 0 min 0,000 mm 0,0 UV-I 0 W/m -1,7 C 0,0 C 4,8 km/h (1 Bft) 95,83 %
11.02.2018 00:17 0,0 C 3,9 C 88 % 1015,7 hPa 0,0 l/m 4,0 km/h (1 Bft) S-SW 211 0 min 0,000 mm 0,0 UV-I 0 W/m -1,7 C 0,0 C 6,4 km/h (2 Bft) 100,00 %
11.02.2018 00:18 0,0 C 3,9 C 88 % 1015,7 hPa 0,0 l/m 4,5 km/h (1 Bft) SW 227 0 min 0,000 mm 0,0 UV-I 0 W/m -1,7 C 0,0 C 6,4 km/h (2 Bft) 91,67 %
11.02.2018 00:19 0,0 C 3,9 C 88 % 1015,7 hPa 0,0 l/m 4,5 km/h (1 Bft) SW 217 0 min 0,000 mm 0,0 UV-I 0 W/m -1,7 C 0,0 C 6,4 km/h (2 Bft) 91,30 %
11.02.2018 00:20 0,0 C 3,9 C 88 % 1015,7 hPa 0,0 l/m 4,8 km/h (1 Bft) S-SW 212 0 min 0,000 mm 0,0 UV-I 0 W/m -1,7 C 0,0 C 8,0 km/h (2 Bft) 100,00 %
11.02.2018 00:21 0,0 C 3,9 C 88 % 1015,7 hPa 0,0 l/m 4,5 km/h (1 Bft) S-SW 213 0 min 0,000 mm 0,0 UV-I 0 W/m -1,7 C 0,0 C 6,4 km/h (2 Bft) 95,65 %
11.02.2018 00:22 0,0 C 3,9 C 88 % 1015,7 hPa 0,0 l/m 4,6 km/h (1 Bft) S-SW 213 0 min 0,000 mm 0,0 UV-I 0 W/m -1,7 C 0,0 C 6,4 km/h (2 Bft) 100,00 %
11.02.2018 00:23 0,1 C 3,9 C 88 % 1015,7 hPa 0,0 l/m 4,2 km/h (1 Bft) S-SW 213 0 min 0,000 mm 0,0 UV-I 0 W/m -1,6 C 0,1 C 4,8 km/h (1 Bft) 95,83 %
11.02.2018 00:24 0,1 C 3,9 C 87 % 1015,6 hPa 0,0 l/m 5,2 km/h (1 Bft) S-SW 212 0 min 0,000 mm 0,0 UV-I 0 W/m -1,8 C 0,1 C 6,4 km/h (2 Bft) 95,65 %
11.02.2018 00:25 0,1 C 3,9 C 87 % 1015,6 hPa 0,0 l/m 5,8 km/h (2 Bft) S-SW 210 0 min 0,000 mm 0,0 UV-I 0 W/m -1,8 C 0,1 C 8,0 km/h (2 Bft) 91,67 %
11.02.2018 00:26 0,1 C 3,9 C 87 % 1015,6 hPa 0,0 l/m 5,8 km/h (2 Bft) S-SW 207 0 min 0,000 mm 0,0 UV-I 0 W/m -1,8 C 0,1 C 8,0 km/h (2 Bft) 100,00 %
11.02.2018 00:27 0,1 C 3,9 C 87 % 1015,6 hPa 0,0 l/m 4,5 km/h (1 Bft) SW 232 0 min 0,000 mm 0,0 UV-I 0 W/m -1,8 C 0,1 C 6,4 km/h (2 Bft) 95,83 %
11.02.2018 00:28 0,1 C 3,9 C 87 % 1015,6 hPa 0,0 l/m 4,3 km/h (1 Bft) SW 231 0 min 0,000 mm 0,0 UV-I 0 W/m -1,8 C 0,1 C 6,4 km/h (2 Bft) 96,15 %
11.02.2018 00:29 0,1 C 3,9 C 87 % 1015,6 hPa 0,0 l/m 3,9 km/h (1 Bft) SW 227 0 min 0,000 mm 0,0 UV-I 0 W/m -1,8 C 0,1 C 4,8 km/h (1 Bft) 100,00 %
11.02.2018 00:30 0,1 C 3,9 C 87 % 1015,6 hPa 0,0 l/m 3,8 km/h (1 Bft) SW 223 0 min 0,000 mm 0,0 UV-I 0 W/m -1,8 C 0,1 C 4,8 km/h (1 Bft) 95,65 %
11.02.2018 00:31 0,1 C 3,9 C 87 % 1015,5 hPa 0,0 l/m 4,1 km/h (1 Bft) SW 223 0 min 0,000 mm 0,0 UV-I 0 W/m -1,8 C 0,1 C 4,8 km/h (1 Bft) 100,00 %
11.02.2018 00:32 0,1 C 3,9 C 87 % 1015,5 hPa 0,0 l/m 3,6 km/h (1 Bft) SW 223 0 min 0,000 mm 0,0 UV-I 0 W/m -1,8 C 0,1 C 4,8 km/h (1 Bft) 95,65 %
11.02.2018 00:33 0,1 C 3,9 C 87 % 1015,5 hPa 0,0 l/m 3,8 km/h (1 Bft) SW 223 0 min 0,000 mm 0,0 UV-I 0 W/m -1,8 C 0,1 C 4,8 km/h (1 Bft) 100,00 %
11.02.2018 00:34 0,1 C 3,9 C 87 % 1015,5 hPa 0,0 l/m 4,6 km/h (1 Bft) SW 232 0 min 0,000 mm 0,0 UV-I 0 W/m -1,8 C 0,1 C 6,4 km/h (2 Bft) 90,91 %
11.02.2018 00:35 0,1 C 3,9 C 87 % 1015,5 hPa 0,0 l/m 5,3 km/h (1 Bft) SW 232 0 min 0,000 mm 0,0 UV-I 0 W/m -1,8 C 0,1 C 6,4 km/h (2 Bft) 100,00 %
11.02.2018 00:36 0,1 C 3,9 C 87 % 1015,5 hPa 0,0 l/m 3,7 km/h (1 Bft) SW 235 0 min 0,000 mm 0,0 UV-I 0 W/m -1,8 C 0,1 C 6,4 km/h (2 Bft) 95,65 %
11.02.2018 00:37 0,1 C 3,9 C 87 % 1015,5 hPa 0,0 l/m 3,9 km/h (1 Bft) SW 235 0 min 0,000 mm 0,0 UV-I 0 W/m -1,8 C 0,1 C 4,8 km/h (1 Bft) 96,30 %
11.02.2018 00:38 0,1 C 3,9 C 87 % 1015,5 hPa 0,0 l/m 4,7 km/h (1 Bft) W-SW 241 0 min 0,000 mm 0,0 UV-I 0 W/m -1,8 C 0,1 C 6,4 km/h (2 Bft) 96,15 %
11.02.2018 00:39 0,1 C 3,9 C 87 % 1015,5 hPa 0,0 l/m 4,2 km/h (1 Bft) W-SW 241 0 min 0,000 mm 0,0 UV-I 0 W/m -1,8 C 0,1 C 4,8 km/h (1 Bft) 93,33 %
11.02.2018 00:40 0,1 C 3,9 C 87 % 1015,4 hPa 0,0 l/m 3,3 km/h (1 Bft) W-SW 241 0 min 0,000 mm 0,0 UV-I 0 W/m -1,8 C 0,1 C 4,8 km/h (1 Bft) 100,00 %
11.02.2018 00:41 0,1 C 3,9 C 87 % 1015,4 hPa 0,0 l/m 5,0 km/h (1 Bft) SW 216 0 min 0,000 mm 0,0 UV-I 0 W/m -1,8 C 0,1 C 6,4 km/h (2 Bft) 95,65 %
11.02.2018 00:42 0,1 C 3,9 C 87 % 1015,4 hPa 0,0 l/m 3,5 km/h (1 Bft) SW 222 0 min 0,000 mm 0,0 UV-I 0 W/m -1,8 C 0,1 C 4,8 km/h (1 Bft) 100,00 %
11.02.2018 00:43 0,0 C 3,9 C 87 % 1015,5 hPa 0,0 l/m 5,2 km/h (1 Bft) S-SW 211 0 min 0,000 mm 0,0 UV-I 0 W/m -1,9 C 0,0 C 8,0 km/h (2 Bft) 95,65 %
11.02.2018 00:44 0,0 C 3,9 C 87 % 1015,5 hPa 0,0 l/m 4,2 km/h (1 Bft) S-SW 211 0 min 0,000 mm 0,0 UV-I 0 W/m -1,9 C 0,0 C 4,8 km/h (1 Bft) 96,30 %
11.02.2018 00:45 0,0 C 3,9 C 87 % 1015,5 hPa 0,0 l/m 4,9 km/h (1 Bft) S-SW 210 0 min 0,000 mm 0,0 UV-I 0 W/m -1,9 C 0,0 C 6,4 km/h (2 Bft) 100,00 %
11.02.2018 00:46 0,1 C 3,9 C 87 % 1015,5 hPa 0,0 l/m 4,8 km/h (1 Bft) SW 222 0 min 0,000 mm 0,0 UV-I 0 W/m -1,8 C 0,1 C 6,4 km/h (2 Bft) 100,00 %
11.02.2018 00:47 0,0 C 3,9 C 87 % 1015,4 hPa 0,0 l/m 3,9 km/h (1 Bft) S-SW 200 0 min 0,000 mm 0,0 UV-I 0 W/m -1,9 C 0,0 C 4,8 km/h (1 Bft) 96,15 %
11.02.2018 00:48 0,1 C 3,9 C 87 % 1015,4 hPa 0,0 l/m 3,2 km/h (1 Bft) SW 236 0 min 0,000 mm 0,0 UV-I 0 W/m -1,8 C 0,1 C 4,8 km/h (1 Bft) 95,83 %
11.02.2018 00:49 0,1 C 3,9 C 87 % 1015,4 hPa 0,0 l/m 4,1 km/h (1 Bft) SW 232 0 min 0,000 mm 0,0 UV-I 0 W/m -1,8 C 0,1 C 4,8 km/h (1 Bft) 100,00 %
11.02.2018 00:50 0,1 C 3,9 C 87 % 1015,4 hPa 0,0 l/m 5,6 km/h (1 Bft) SW 229 0 min 0,000 mm 0,0 UV-I 0 W/m -1,8 C 0,1 C 8,0 km/h (2 Bft) 95,83 %
11.02.2018 00:51 0,1 C 3,9 C 87 % 1015,4 hPa 0,0 l/m 4,8 km/h (1 Bft) SW 236 0 min 0,000 mm 0,0 UV-I 0 W/m -1,8 C 0,1 C 6,4 km/h (2 Bft) 100,00 %
11.02.2018 00:52 0,1 C 3,9 C 87 % 1015,4 hPa 0,0 l/m 4,5 km/h (1 Bft) SW 222 0 min 0,000 mm 0,0 UV-I 0 W/m -1,8 C 0,1 C 6,4 km/h (2 Bft) 97,37 %
11.02.2018 00:53 0,0 C 3,9 C 87 % 1015,4 hPa 0,0 l/m 5,7 km/h (1 Bft) SW 231 0 min 0,000 mm 0,0 UV-I 0 W/m -1,9 C 0,0 C 8,0 km/h (2 Bft) 100,00 %
11.02.2018 00:54 0,0 C 3,9 C 87 % 1015,4 hPa 0,0 l/m 5,4 km/h (1 Bft) SW 228 0 min 0,000 mm 0,0 UV-I 0 W/m -1,9 C 0,0 C 8,0 km/h (2 Bft) 100,00 %
11.02.2018 00:55 0,0 C 3,9 C 87 % 1015,4 hPa 0,0 l/m 3,1 km/h (1 Bft) SW 228 0 min 0,000 mm 0,0 UV-I 0 W/m -1,9 C 0,0 C 4,8 km/h (1 Bft) 100,00 %
11.02.2018 00:56 0,0 C 3,9 C 87 % 1015,3 hPa 0,0 l/m 4,7 km/h (1 Bft) SW 224 0 min 0,000 mm 0,0 UV-I 0 W/m -1,9 C 0,0 C 8,0 km/h (2 Bft) 100,00 %
11.02.2018 00:57 0,0 C 3,9 C 88 % 1015,3 hPa 0,0 l/m 4,1 km/h (1 Bft) W-SW 243 0 min 0,000 mm 0,0 UV-I 0 W/m -1,7 C 0,0 C 8,0 km/h (2 Bft) 100,00 %
11.02.2018 00:58 0,0 C 3,9 C 87 % 1015,3 hPa 0,0 l/m 5,8 km/h (2 Bft) W-SW 240 0 min 0,000 mm 0,0 UV-I 0 W/m -1,9 C 0,0 C 6,4 km/h (2 Bft) 97,97 %
11.02.2018 00:59 0,1 C 3,9 C 87 % 1015,3 hPa 0,0 l/m 5,6 km/h (1 Bft) W-SW 248 0 min 0,000 mm 0,0 UV-I 0 W/m -1,8 C 0,1 C 8,0 km/h (2 Bft) 97,78 %
11.02.2018 01:00 0,1 C 3,9 C 87 % 1015,3 hPa 0,0 l/m 6,2 km/h (2 Bft) SW 232 0 min 0,000 mm 0,0 UV-I 0 W/m -1,8 C 0,1 C 9,7 km/h (2 Bft) 95,65 %
11.02.2018 01:01 0,1 C 3,9 C 87 % 1015,3 hPa 0,0 l/m 7,0 km/h (2 Bft) SW 229 0 min 0,000 mm 0,0 UV-I 0 W/m -1,8 C -0,5 C 9,7 km/h (2 Bft) 100,00 %
11.02.2018 01:02 0,1 C 3,9 C 87 % 1015,2 hPa 0,0 l/m 7,9 km/h (2 Bft) SW 221 0 min 0,000 mm 0,0 UV-I 0 W/m -1,8 C -1,4 C 9,7 km/h (2 Bft) 100,00 %
11.02.2018 01:03 0,1 C 3,9 C 87 % 1015,3 hPa 0,0 l/m 6,7 km/h (2 Bft) SW 233 0 min 0,000 mm 0,0 UV-I 0 W/m -1,8 C -0,2 C 8,0 km/h (2 Bft) 100,00 %
11.02.2018 01:04 0,1 C 3,9 C 87 % 1015,3 hPa 0,0 l/m 7,5 km/h (2 Bft) SW 228 0 min 0,000 mm 0,0 UV-I 0 W/m -1,8 C -1,0 C 9,7 km/h (2 Bft) 100,00 %
11.02.2018 01:05 0,1 C 3,9 C 87 % 1015,3 hPa 0,0 l/m 8,8 km/h (2 Bft) SW 228 0 min 0,000 mm 0,0 UV-I 0 W/m -1,8 C -2,3 C 11,3 km/h (2 Bft) 100,00 %
11.02.2018 01:06 0,1 C 3,9 C 87 % 1015,2 hPa 0,0 l/m 8,8 km/h (2 Bft) W-SW 240 0 min 0,000 mm 0,0 UV-I 0 W/m -1,8 C -2,3 C 11,3 km/h (2 Bft) 100,00 %
11.02.2018 01:07 0,1 C 3,9 C 87 % 1015,2 hPa 0,0 l/m 8,9 km/h (2 Bft) SW 232 0 min 0,000 mm 0,0 UV-I 0 W/m -1,8 C -2,4 C 11,3 km/h (2 Bft) 100,00 %
11.02.2018 01:08 0,1 C 3,9 C 87 % 1015,2 hPa 0,0 l/m 7,6 km/h (2 Bft) W-SW 238 0 min 0,000 mm 0,0 UV-I 0 W/m -1,8 C -1,1 C 9,7 km/h (2 Bft) 100,00 %
11.02.2018 01:09 0,1 C 3,9 C 87 % 1015,2 hPa 0,0 l/m 7,3 km/h (2 Bft) SW 236 0 min 0,000 mm 0,0 UV-I 0 W/m -1,8 C -0,8 C 8,0 km/h (2 Bft) 100,00 %
11.02.2018 01:10 0,1 C 3,9 C 87 % 1015,2 hPa 0,0 l/m 6,6 km/h (2 Bft) SW 223 0 min 0,000 mm 0,0 UV-I 0 W/m -1,8 C -0,1 C 8,0 km/h (2 Bft) 100,00 %
11.02.2018 01:11 0,1 C 3,9 C 87 % 1015,2 hPa 0,0 l/m 6,0 km/h (2 Bft) SW 229 0 min 0,000 mm 0,0 UV-I 0 W/m -1,8 C 0,1 C 8,0 km/h (2 Bft) 100,00 %
11.02.2018 01:12 0,1 C 3,9 C 88 % 1015,2 hPa 0,0 l/m 6,2 km/h (2 Bft) W-SW 237 0 min 0,000 mm 0,0 UV-I 0 W/m -1,6 C 0,1 C 8,0 km/h (2 Bft) 96,15 %
11.02.2018 01:13 0,1 C 3,9 C 88 % 1015,2 hPa 0,0 l/m 6,4 km/h (2 Bft) W-SW 244 0 min 0,000 mm 0,0 UV-I 0 W/m -1,6 C 0,1 C 8,0 km/h (2 Bft) 100,00 %
11.02.2018 01:14 0,1 C 3,9 C 88 % 1015,2 hPa 0,0 l/m 6,9 km/h (2 Bft) W-SW 242 0 min 0,000 mm 0,0 UV-I 0 W/m -1,6 C -0,4 C 8,0 km/h (2 Bft) 100,00 %
11.02.2018 01:15 0,0 C 3,9 C 88 % 1015,2 hPa 0,0 l/m 5,4 km/h (1 Bft) SW 223 0 min 0,000 mm 0,0 UV-I 0 W/m -1,7 C 0,0 C 6,4 km/h (2 Bft) 100,00 %
11.02.2018 01:16 0,1 C 3,9 C 88 % 1015,2 hPa 0,0 l/m 5,0 km/h (1 Bft) SW 225 0 min 0,000 mm 0,0 UV-I 0 W/m -1,6 C 0,1 C 6,4 km/h (2 Bft) 95,83 %
11.02.2018 01:17 0,1 C 3,9 C 88 % 1015,1 hPa 0,0 l/m 4,9 km/h (1 Bft) W-SW 238 0 min 0,000 mm 0,0 UV-I 0 W/m -1,6 C 0,1 C 8,0 km/h (2 Bft) 100,00 %
11.02.2018 01:18 0,1 C 3,9 C 88 % 1015,1 hPa 0,0 l/m 4,7 km/h (1 Bft) SW 222 0 min 0,000 mm 0,0 UV-I 0 W/m -1,6 C 0,1 C 6,4 km/h (2 Bft) 100,00 %
11.02.2018 01:19 0,1 C 3,9 C 88 % 1015,2 hPa 0,0 l/m 6,2 km/h (2 Bft) SW 236 0 min 0,000 mm 0,0 UV-I 0 W/m -1,6 C 0,1 C 9,7 km/h (2 Bft) 100,00 %
11.02.2018 01:20 0,1 C 3,9 C 88 % 1015,2 hPa 0,0 l/m 5,8 km/h (2 Bft) SW 230 0 min 0,000 mm 0,0 UV-I 0 W/m -1,6 C 0,1 C 8,0 km/h (2 Bft) 100,00 %
11.02.2018 01:21 0,1 C 3,9 C 88 % 1015,2 hPa 0,0 l/m 5,8 km/h (2 Bft) W-SW 239 0 min 0,000 mm 0,0 UV-I 0 W/m -1,6 C 0,1 C 8,0 km/h (2 Bft) 100,00 %
11.02.2018 01:22 0,1 C 3,9 C 88 % 1015,2 hPa 0,0 l/m 4,2 km/h (1 Bft) SW 233 0 min 0,000 mm 0,0 UV-I 0 W/m -1,6 C 0,1 C 6,4 km/h (2 Bft) 100,00 %
11.02.2018 01:23 0,1 C 3,9 C 88 % 1015,1 hPa 0,0 l/m 4,1 km/h (1 Bft) W-SW 237 0 min 0,000 mm 0,0 UV-I 0 W/m -1,6 C 0,1 C 6,4 km/h (2 Bft) 100,00 %
11.02.2018 01:24 0,1 C 3,9 C 88 % 1015,1 hPa 0,0 l/m 4,6 km/h (1 Bft) SW 226 0 min 0,000 mm 0,0 UV-I 0 W/m -1,6 C 0,1 C 6,4 km/h (2 Bft) 91,67 %
11.02.2018 01:25 0,1 C 3,9 C 88 % 1015,1 hPa 0,0 l/m 4,7 km/h (1 Bft) S-SW 207 0 min 0,000 mm 0,0 UV-I 0 W/m -1,6 C 0,1 C 6,4 km/h (2 Bft) 100,00 %
11.02.2018 01:26 0,1 C 3,9 C 88 % 1015,1 hPa 0,0 l/m 5,7 km/h (1 Bft) SW 226 0 min 0,000 mm 0,0 UV-I 0 W/m -1,6 C 0,1 C 8,0 km/h (2 Bft) 100,00 %
11.02.2018 01:27 0,1 C 3,9 C 88 % 1015,1 hPa 0,0 l/m 6,2 km/h (2 Bft) W-SW 240 0 min 0,000 mm 0,0 UV-I 0 W/m -1,6 C 0,1 C 9,7 km/h (2 Bft) 100,00 %
11.02.2018 01:28 0,1 C 3,9 C 88 % 1015,1 hPa 0,0 l/m 5,2 km/h (1 Bft) SW 221 0 min 0,000 mm 0,0 UV-I 0 W/m -1,6 C 0,1 C 8,0 km/h (2 Bft) 91,67 %
11.02.2018 01:29 0,1 C 3,9 C 87 % 1015,1 hPa 0,0 l/m 5,6 km/h (1 Bft) SW 219 0 min 0,000 mm 0,0 UV-I 0 W/m -1,8 C 0,1 C 6,4 km/h (2 Bft) 100,00 %
11.02.2018 01:30 0,1 C 3,9 C 87 % 1015,1 hPa 0,0 l/m 6,8 km/h (2 Bft) W-SW 240 0 min 0,000 mm 0,0 UV-I 0 W/m -1,8 C -0,3 C 9,7 km/h (2 Bft) 100,00 %
11.02.2018 01:31 0,1 C 3,9 C 87 % 1015,1 hPa 0,0 l/m 6,8 km/h (2 Bft) W-SW 240 0 min 0,000 mm 0,0 UV-I 0 W/m -1,8 C -0,3 C 11,3 km/h (2 Bft) 91,30 %
11.02.2018 01:32 0,1 C 3,9 C 87 % 1015,1 hPa 0,0 l/m 6,3 km/h (2 Bft) W-SW 244 0 min 0,000 mm 0,0 UV-I 0 W/m -1,8 C 0,1 C 8,0 km/h (2 Bft) 100,00 %
11.02.2018 01:33 0,1 C 3,9 C 87 % 1015,1 hPa 0,0 l/m 6,6 km/h (2 Bft) SW 221 0 min 0,000 mm 0,0 UV-I 0 W/m -1,8 C -0,1 C 8,0 km/h (2 Bft) 100,00 %
11.02.2018 01:34 0,1 C 3,9 C 87 % 1015,1 hPa 0,0 l/m 5,7 km/h (1 Bft) SW 220 0 min 0,000 mm 0,0 UV-I 0 W/m -1,8 C 0,1 C 8,0 km/h (2 Bft) 100,00 %
11.02.2018 01:35 0,1 C 3,9 C 88 % 1015,1 hPa 0,0 l/m 4,2 km/h (1 Bft) S-SW 211 0 min 0,000 mm 0,0 UV-I 0 W/m -1,6 C 0,1 C 6,4 km/h (2 Bft) 100,00 %
11.02.2018 01:36 0,1 C 3,9 C 88 % 1015,1 hPa 0,0 l/m 6,6 km/h (2 Bft) SW 224 0 min 0,000 mm 0,0 UV-I 0 W/m -1,6 C -0,1 C 9,7 km/h (2 Bft) 100,00 %
11.02.2018 01:37 0,1 C 3,9 C 88 % 1015,0 hPa 0,0 l/m 7,4 km/h (2 Bft) S-SW 205 0 min 0,000 mm 0,0 UV-I 0 W/m -1,6 C -0,9 C 9,7 km/h (2 Bft) 100,00 %
11.02.2018 01:38 0,1 C 3,9 C 88 % 1015,0 hPa 0,0 l/m 8,6 km/h (2 Bft) W-SW 243 0 min 0,000 mm 0,0 UV-I 0 W/m -1,6 C -2,1 C 11,3 km/h (2 Bft) 100,00 %
11.02.2018 01:39 0,1 C 3,9 C 88 % 1015,0 hPa 0,0 l/m 6,0 km/h (2 Bft) S-SW 208 0 min 0,000 mm 0,0 UV-I 0 W/m -1,6 C 0,1 C 8,0 km/h (2 Bft) 100,00 %
11.02.2018 01:40 0,1 C 3,9 C 88 % 1015,0 hPa 0,0 l/m 5,1 km/h (1 Bft) SW 218 0 min 0,000 mm 0,0 UV-I 0 W/m -1,6 C 0,1 C 8,0 km/h (2 Bft) 100,00 %
11.02.2018 01:41 0,1 C 3,9 C 88 % 1015,0 hPa 0,0 l/m 4,6 km/h (1 Bft) S-SW 206 0 min 0,000 mm 0,0 UV-I 0 W/m -1,6 C 0,1 C 6,4 km/h (2 Bft) 100,00 %
11.02.2018 01:42 0,1 C 3,9 C 88 % 1015,0 hPa 0,0 l/m 6,7 km/h (2 Bft) S-SW 212 0 min 0,000 mm 0,0 UV-I 0 W/m -1,6 C -0,2 C 8,0 km/h (2 Bft) 100,00 %
11.02.2018 01:43 0,1 C 3,9 C 88 % 1014,9 hPa 0,0 l/m 5,0 km/h (1 Bft) S-SW 197 0 min 0,000 mm 0,0 UV-I 0 W/m -1,6 C 0,1 C 6,4 km/h (2 Bft) 100,00 %
11.02.2018 01:44 0,1 C 3,9 C 88 % 1014,9 hPa 0,0 l/m 5,3 km/h (1 Bft) S-SW 210 0 min 0,000 mm 0,0 UV-I 0 W/m -1,6 C 0,1 C 8,0 km/h (2 Bft) 100,00 %
11.02.2018 01:45 0,1 C 3,9 C 88 % 1014,9 hPa 0,0 l/m 6,0 km/h (2 Bft) S-SW 211 0 min 0,000 mm 0,0 UV-I 0 W/m -1,6 C 0,1 C 6,4 km/h (2 Bft) 100,00 %
11.02.2018 01:46 0,1 C 3,9 C 88 % 1014,9 hPa 0,0 l/m 4,4 km/h (1 Bft) S-SW 199 0 min 0,000 mm 0,0 UV-I 0 W/m -1,6 C 0,1 C 8,0 km/h (2 Bft) 96,15 %
11.02.2018 01:47 0,1 C 3,9 C 88 % 1014,9 hPa 0,0 l/m 7,0 km/h (2 Bft) S-SW 199 0 min 0,000 mm 0,0 UV-I 0 W/m -1,6 C -0,5 C 9,7 km/h (2 Bft) 100,00 %
11.02.2018 01:48 0,1 C 3,9 C 88 % 1014,9 hPa 0,0 l/m 4,5 km/h (1 Bft) S-SW 209 0 min 0,000 mm 0,0 UV-I 0 W/m -1,6 C 0,1 C 4,8 km/h (1 Bft) 100,00 %
11.02.2018 01:49 0,1 C 3,9 C 88 % 1014,9 hPa 0,0 l/m 5,1 km/h (1 Bft) S-SW 209 0 min 0,000 mm 0,0 UV-I 0 W/m -1,6 C 0,1 C 8,0 km/h (2 Bft) 100,00 %
11.02.2018 01:50 0,1 C 3,9 C 88 % 1014,9 hPa 0,0 l/m 7,5 km/h (2 Bft) S-SW 208 0 min 0,000 mm 0,0 UV-I 0 W/m -1,6 C -1,0 C 9,7 km/h (2 Bft) 100,00 %
11.02.2018 01:51 0,1 C 3,9 C 88 % 1014,9 hPa 0,0 l/m 7,8 km/h (2 Bft) SW 235 0 min 0,000 mm 0,0 UV-I 0 W/m -1,6 C -1,3 C 9,7 km/h (2 Bft) 100,00 %
11.02.2018 01:52 0,1 C 3,9 C 88 % 1014,9 hPa 0,0 l/m 4,4 km/h (1 Bft) S-SW 210 0 min 0,000 mm 0,0 UV-I 0 W/m -1,6 C 0,1 C 6,4 km/h (2 Bft) 100,00 %
11.02.2018 01:53 0,1 C 3,9 C 88 % 1014,9 hPa 0,0 l/m 4,9 km/h (1 Bft) S-SW 204 0 min 0,000 mm 0,0 UV-I 0 W/m -1,6 C 0,1 C 6,4 km/h (2 Bft) 100,00 %
11.02.2018 01:54 0,1 C 3,9 C 88 % 1014,9 hPa 0,0 l/m 4,7 km/h (1 Bft) SW 219 0 min 0,000 mm 0,0 UV-I 0 W/m -1,6 C 0,1 C 6,4 km/h (2 Bft) 100,00 %
11.02.2018 01:55 0,1 C 3,9 C 88 % 1014,8 hPa 0,0 l/m 6,2 km/h (2 Bft) SW 229 0 min 0,000 mm 0,0 UV-I 0 W/m -1,6 C 0,1 C 8,0 km/h (2 Bft) 97,14 %
11.02.2018 01:56 0,1 C 3,9 C 88 % 1014,8 hPa 0,0 l/m 4,5 km/h (1 Bft) SW 224 0 min 0,000 mm 0,0 UV-I 0 W/m -1,6 C 0,1 C 6,4 km/h (2 Bft) 100,00 %
11.02.2018 01:57 0,1 C 3,9 C 88 % 1014,8 hPa 0,0 l/m 3,5 km/h (1 Bft) S-SW 196 0 min 0,000 mm 0,0 UV-I 0 W/m -1,6 C 0,1 C 4,8 km/h (1 Bft) 100,00 %
11.02.2018 01:58 0,1 C 3,9 C 88 % 1014,8 hPa 0,0 l/m 4,5 km/h (1 Bft) SW 232 0 min 0,000 mm 0,0 UV-I 0 W/m -1,6 C 0,1 C 6,4 km/h (2 Bft) 100,00 %
11.02.2018 01:59 0,1 C 3,9 C 88 % 1014,8 hPa 0,0 l/m 4,9 km/h (1 Bft) S-SW 208 0 min 0,000 mm 0,0 UV-I 0 W/m -1,6 C 0,1 C 6,4 km/h (2 Bft) 100,00 %
11.02.2018 02:00 0,1 C 3,9 C 88 % 1014,8 hPa 0,0 l/m 3,9 km/h (1 Bft) SW 233 0 min 0,000 mm 0,0 UV-I 0 W/m -1,6 C 0,1 C 4,8 km/h (1 Bft) 100,00 %
11.02.2018 02:01 0,1 C 3,9 C 88 % 1014,8 hPa 0,0 l/m 4,0 km/h (1 Bft) SW 234 0 min 0,000 mm 0,0 UV-I 0 W/m -1,6 C 0,1 C 4,8 km/h (1 Bft) 100,00 %
11.02.2018 02:02 0,1 C 3,9 C 88 % 1014,8 hPa 0,0 l/m 4,8 km/h (1 Bft) SW 223 0 min 0,000 mm 0,0 UV-I 0 W/m -1,6 C 0,1 C 8,0 km/h (2 Bft) 100,00 %
11.02.2018 02:03 0,1 C 3,9 C 88 % 1014,8 hPa 0,0 l/m 4,2 km/h (1 Bft) S-SW 205 0 min 0,000 mm 0,0 UV-I 0 W/m -1,6 C 0,1 C 6,4 km/h (2 Bft) 92,86 %
11.02.2018 02:04 0,2 C 3,9 C 88 % 1014,8 hPa 0,0 l/m 6,4 km/h (2 Bft) SW 227 0 min 0,000 mm 0,0 UV-I 0 W/m -1,5 C 0,2 C 8,0 km/h (2 Bft) 100,00 %
11.02.2018 02:05 0,1 C 3,9 C 88 % 1014,8 hPa 0,0 l/m 4,2 km/h (1 Bft) SW 227 0 min 0,000 mm 0,0 UV-I 0 W/m -1,6 C 0,1 C 8,0 km/h (2 Bft) 100,00 %
11.02.2018 02:06 0,2 C 3,9 C 88 % 1014,8 hPa 0,0 l/m 6,1 km/h (2 Bft) SW 214 0 min 0,000 mm 0,0 UV-I 0 W/m -1,5 C 0,2 C 8,0 km/h (2 Bft) 96,30 %
11.02.2018 02:07 0,2 C 3,9 C 88 % 1014,8 hPa 0,0 l/m 5,4 km/h (1 Bft) SW 219 0 min 0,000 mm 0,0 UV-I 0 W/m -1,5 C 0,2 C 8,0 km/h (2 Bft) 100,00 %
11.02.2018 02:08 0,2 C 3,9 C 88 % 1014,8 hPa 0,0 l/m 5,1 km/h (1 Bft) S-SW 200 0 min 0,000 mm 0,0 UV-I 0 W/m -1,5 C 0,2 C 6,4 km/h (2 Bft) 100,00 %
11.02.2018 02:09 0,2 C 3,9 C 88 % 1014,7 hPa 0,0 l/m 7,0 km/h (2 Bft) SW 225 0 min 0,000 mm 0,0 UV-I 0 W/m -1,5 C -0,4 C 9,7 km/h (2 Bft) 92,86 %
11.02.2018 02:10 0,2 C 3,9 C 87 % 1014,7 hPa 0,0 l/m 4,4 km/h (1 Bft) SW 230 0 min 0,000 mm 0,0 UV-I 0 W/m -1,7 C 0,2 C 8,0 km/h (2 Bft) 100,00 %
11.02.2018 02:11 0,2 C 3,9 C 87 % 1014,7 hPa 0,0 l/m 4,9 km/h (1 Bft) SW 235 0 min 0,000 mm 0,0 UV-I 0 W/m -1,7 C 0,2 C 6,4 km/h (2 Bft) 96,55 %
11.02.2018 02:12 0,2 C 3,9 C 87 % 1014,7 hPa 0,0 l/m 5,6 km/h (1 Bft) W-SW 244 0 min 0,000 mm 0,0 UV-I 0 W/m -1,7 C 0,2 C 8,0 km/h (2 Bft) 100,00 %
11.02.2018 02:13 0,2 C 3,9 C 87 % 1014,7 hPa 0,0 l/m 5,6 km/h (1 Bft) S-SW 213 0 min 0,000 mm 0,0 UV-I 0 W/m -1,7 C 0,2 C 8,0 km/h (2 Bft) 95,83 %
11.02.2018 02:14 0,2 C 3,9 C 87 % 1014,7 hPa 0,0 l/m 5,9 km/h (2 Bft) SW 235 0 min 0,000 mm 0,0 UV-I 0 W/m -1,7 C 0,2 C 8,0 km/h (2 Bft) 100,00 %
11.02.2018 02:15 0,2 C 3,9 C 87 % 1014,6 hPa 0,0 l/m 7,5 km/h (2 Bft) S-SW 212 0 min 0,000 mm 0,0 UV-I 0 W/m -1,7 C -0,9 C 9,7 km/h (2 Bft) 93,33 %
11.02.2018 02:16 0,2 C 3,9 C 87 % 1014,6 hPa 0,0 l/m 5,7 km/h (1 Bft) W-SW 238 0 min 0,000 mm 0,0 UV-I 0 W/m -1,7 C 0,2 C 6,4 km/h (2 Bft) 100,00 %
11.02.2018 02:17 0,2 C 3,9 C 87 % 1014,6 hPa 0,0 l/m 6,2 km/h (2 Bft) SW 234 0 min 0,000 mm 0,0 UV-I 0 W/m -1,7 C 0,2 C 8,0 km/h (2 Bft) 95,83 %
11.02.2018 02:18 0,2 C 3,9 C 87 % 1014,6 hPa 0,0 l/m 5,5 km/h (1 Bft) SW 233 0 min 0,000 mm 0,0 UV-I 0 W/m -1,7 C 0,2 C 6,4 km/h (2 Bft) 100,00 %
11.02.2018 02:19 0,2 C 3,9 C 87 % 1014,6 hPa 0,0 l/m 5,8 km/h (2 Bft) W-SW 241 0 min 0,000 mm 0,0 UV-I 0 W/m -1,7 C 0,2 C 8,0 km/h (2 Bft) 96,30 %
11.02.2018 02:20 0,2 C 3,9 C 87 % 1014,5 hPa 0,0 l/m 5,1 km/h (1 Bft) SW 228 0 min 0,000 mm 0,0 UV-I 0 W/m -1,7 C 0,2 C 8,0 km/h (2 Bft) 96,55 %
11.02.2018 02:21 0,2 C 3,9 C 87 % 1014,5 hPa 0,0 l/m 7,5 km/h (2 Bft) SW 216 0 min 0,000 mm 0,0 UV-I 0 W/m -1,7 C -0,9 C 9,7 km/h (2 Bft) 100,00 %
11.02.2018 02:22 0,2 C 3,9 C 87 % 1014,5 hPa 0,0 l/m 6,3 km/h (2 Bft) SW 236 0 min 0,000 mm 0,0 UV-I 0 W/m -1,7 C 0,2 C 8,0 km/h (2 Bft) 96,15 %
11.02.2018 02:23 0,2 C 3,9 C 88 % 1014,6 hPa 0,0 l/m 4,7 km/h (1 Bft) W-SW 238 0 min 0,000 mm 0,0 UV-I 0 W/m -1,5 C 0,2 C 4,8 km/h (1 Bft) 95,83 %
11.02.2018 02:24 0,2 C 3,9 C 88 % 1014,5 hPa 0,0 l/m 5,8 km/h (2 Bft) S-SW 211 0 min 0,000 mm 0,0 UV-I 0 W/m -1,5 C 0,2 C 8,0 km/h (2 Bft) 95,65 %
11.02.2018 02:25 0,2 C 3,9 C 88 % 1014,5 hPa 0,0 l/m 6,4 km/h (2 Bft) SW 224 0 min 0,000 mm 0,0 UV-I 0 W/m -1,5 C 0,2 C 6,4 km/h (2 Bft) 95,83 %
11.02.2018 02:26 0,2 C 3,9 C 88 % 1014,5 hPa 0,0 l/m 6,0 km/h (2 Bft) SW 227 0 min 0,000 mm 0,0 UV-I 0 W/m -1,5 C 0,2 C 8,0 km/h (2 Bft) 96,15 %
11.02.2018 02:27 0,2 C 3,9 C 88 % 1014,5 hPa 0,0 l/m 6,9 km/h (2 Bft) W-SW 242 0 min 0,000 mm 0,0 UV-I 0 W/m -1,5 C -0,3 C 11,3 km/h (2 Bft) 92,59 %
11.02.2018 02:28 0,2 C 3,9 C 88 % 1014,5 hPa 0,0 l/m 7,0 km/h (2 Bft) SW 229 0 min 0,000 mm 0,0 UV-I 0 W/m -1,5 C -0,4 C 8,0 km/h (2 Bft) 98,43 %
11.02.2018 02:29 0,2 C 3,9 C 88 % 1014,5 hPa 0,0 l/m 7,4 km/h (2 Bft) SW 236 0 min 0,000 mm 0,0 UV-I 0 W/m -1,5 C -0,8 C 9,7 km/h (2 Bft) 97,37 %
11.02.2018 02:30 0,2 C 3,9 C 88 % 1014,5 hPa 0,0 l/m 7,0 km/h (2 Bft) W-SW 242 0 min 0,000 mm 0,0 UV-I 0 W/m -1,5 C -0,4 C 8,0 km/h (2 Bft) 93,10 %
11.02.2018 02:31 0,2 C 3,9 C 88 % 1014,5 hPa 0,0 l/m 5,2 km/h (1 Bft) SW 233 0 min 0,000 mm 0,0 UV-I 0 W/m -1,5 C 0,2 C 9,7 km/h (2 Bft) 96,30 %
11.02.2018 02:32 0,2 C 3,9 C 88 % 1014,5 hPa 0,0 l/m 5,1 km/h (1 Bft) SW 228 0 min 0,000 mm 0,0 UV-I 0 W/m -1,5 C 0,2 C 8,0 km/h (2 Bft) 100,00 %
11.02.2018 02:33 0,2 C 3,9 C 88 % 1014,5 hPa 0,0 l/m 5,6 km/h (1 Bft) SW 218 0 min 0,000 mm 0,0 UV-I 0 W/m -1,5 C 0,2 C 8,0 km/h (2 Bft) 93,10 %
11.02.2018 02:34 0,2 C 3,9 C 88 % 1014,5 hPa 0,0 l/m 6,0 km/h (2 Bft) S-SW 211 0 min 0,000 mm 0,0 UV-I 0 W/m -1,5 C 0,2 C 8,0 km/h (2 Bft) 95,83 %
11.02.2018 02:35 0,2 C 3,9 C 88 % 1014,5 hPa 0,0 l/m 5,8 km/h (2 Bft) W-SW 254 0 min 0,000 mm 0,0 UV-I 0 W/m -1,5 C 0,2 C 8,0 km/h (2 Bft) 96,15 %
11.02.2018 02:36 0,2 C 3,9 C 88 % 1014,5 hPa 0,0 l/m 6,1 km/h (2 Bft) SW 232 0 min 0,000 mm 0,0 UV-I 0 W/m -1,5 C 0,2 C 9,7 km/h (2 Bft) 83,33 %
11.02.2018 02:37 0,2 C 3,9 C 88 % 1014,4 hPa 0,0 l/m 6,4 km/h (2 Bft) S-SW 204 0 min 0,000 mm 0,0 UV-I 0 W/m -1,5 C 0,2 C 8,0 km/h (2 Bft) 96,88 %
11.02.2018 02:38 0,2 C 3,9 C 88 % 1014,4 hPa 0,0 l/m 4,4 km/h (1 Bft) SW 217 0 min 0,000 mm 0,0 UV-I 0 W/m -1,5 C 0,2 C 6,4 km/h (2 Bft) 95,83 %
11.02.2018 02:39 0,2 C 3,9 C 88 % 1014,4 hPa 0,0 l/m 6,3 km/h (2 Bft) SW 232 0 min 0,000 mm 0,0 UV-I 0 W/m -1,5 C 0,2 C 9,7 km/h (2 Bft) 92,31 %
11.02.2018 02:40 0,2 C 3,9 C 88 % 1014,4 hPa 0,0 l/m 8,6 km/h (2 Bft) W-SW 241 0 min 0,000 mm 0,0 UV-I 0 W/m -1,5 C -2,0 C 11,3 km/h (2 Bft) 100,00 %
11.02.2018 02:41 0,2 C 3,9 C 88 % 1014,4 hPa 0,0 l/m 5,5 km/h (1 Bft) SW 224 0 min 0,000 mm 0,0 UV-I 0 W/m -1,5 C 0,2 C 8,0 km/h (2 Bft) 93,10 %
11.02.2018 02:42 0,2 C 3,9 C 88 % 1014,4 hPa 0,0 l/m 4,7 km/h (1 Bft) W-SW 237 0 min 0,000 mm 0,0 UV-I 0 W/m -1,5 C 0,2 C 6,4 km/h (2 Bft) 92,59 %
11.02.2018 02:43 0,2 C 3,9 C 88 % 1014,4 hPa 0,0 l/m 6,6 km/h (2 Bft) SW 234 0 min 0,000 mm 0,0 UV-I 0 W/m -1,5 C 0,0 C 9,7 km/h (2 Bft) 92,86 %
11.02.2018 02:44 0,2 C 3,9 C 88 % 1014,4 hPa 0,0 l/m 5,8 km/h (2 Bft) SW 235 0 min 0,000 mm 0,0 UV-I 0 W/m -1,5 C 0,2 C 8,0 km/h (2 Bft) 96,30 %
11.02.2018 02:45 0,2 C 3,9 C 88 % 1014,4 hPa 0,0 l/m 5,9 km/h (2 Bft) S-SW 207 0 min 0,000 mm 0,0 UV-I 0 W/m -1,5 C 0,2 C 8,0 km/h (2 Bft) 95,65 %
11.02.2018 02:46 0,2 C 3,9 C 88 % 1014,3 hPa 0,0 l/m 6,2 km/h (2 Bft) SW 224 0 min 0,000 mm 0,0 UV-I 0 W/m -1,5 C 0,2 C 8,0 km/h (2 Bft) 90,00 %
11.02.2018 02:47 0,2 C 3,9 C 88 % 1014,3 hPa 0,0 l/m 6,7 km/h (2 Bft) W-SW 246 0 min 0,000 mm 0,0 UV-I 0 W/m -1,5 C -0,1 C 11,3 km/h (2 Bft) 100,00 %
11.02.2018 02:48 0,2 C 3,9 C 87 % 1014,3 hPa 0,0 l/m 6,2 km/h (2 Bft) W-SW 258 0 min 0,000 mm 0,0 UV-I 0 W/m -1,7 C 0,2 C 9,7 km/h (2 Bft) 92,59 %
11.02.2018 02:49 0,2 C 3,9 C 87 % 1014,3 hPa 0,0 l/m 6,4 km/h (2 Bft) SW 234 0 min 0,000 mm 0,0 UV-I 0 W/m -1,7 C 0,2 C 8,0 km/h (2 Bft) 100,00 %
11.02.2018 02:50 0,2 C 3,9 C 87 % 1014,3 hPa 0,0 l/m 5,5 km/h (1 Bft) SW 227 0 min 0,000 mm 0,0 UV-I 0 W/m -1,7 C 0,2 C 11,3 km/h (2 Bft) 93,75 %
11.02.2018 02:51 0,2 C 3,9 C 87 % 1014,3 hPa 0,0 l/m 6,8 km/h (2 Bft) W-SW 250 0 min 0,000 mm 0,0 UV-I 0 W/m -1,7 C -0,2 C 11,3 km/h (2 Bft) 95,65 %
11.02.2018 02:52 0,2 C 3,9 C 87 % 1014,3 hPa 0,0 l/m 5,5 km/h (1 Bft) W-SW 238 0 min 0,000 mm 0,0 UV-I 0 W/m -1,7 C 0,2 C 8,0 km/h (2 Bft) 91,67 %
11.02.2018 02:53 0,2 C 3,9 C 87 % 1014,2 hPa 0,0 l/m 8,0 km/h (2 Bft) S-SW 213 0 min 0,000 mm 0,0 UV-I 0 W/m -1,7 C -1,4 C 12,9 km/h (3 Bft) 95,83 %
11.02.2018 02:54 0,2 C 3,9 C 87 % 1014,2 hPa 0,0 l/m 6,6 km/h (2 Bft) W-SW 237 0 min 0,000 mm 0,0 UV-I 0 W/m -1,7 C 0,0 C 9,7 km/h (2 Bft) 96,15 %
11.02.2018 02:55 0,2 C 3,9 C 87 % 1014,3 hPa 0,0 l/m 6,5 km/h (2 Bft) SW 229 0 min 0,000 mm 0,0 UV-I 0 W/m -1,7 C 0,1 C 11,3 km/h (2 Bft) 93,33 %
11.02.2018 02:56 0,2 C 3,9 C 87 % 1014,2 hPa 0,0 l/m 6,0 km/h (2 Bft) SW 225 0 min 0,000 mm 0,0 UV-I 0 W/m -1,7 C 0,2 C 8,0 km/h (2 Bft) 96,15 %
11.02.2018 02:57 0,2 C 3,9 C 87 % 1014,2 hPa 0,0 l/m 6,3 km/h (2 Bft) W-SW 240 0 min 0,000 mm 0,0 UV-I 0 W/m -1,7 C 0,2 C 8,0 km/h (2 Bft) 90,91 %
11.02.2018 02:58 0,2 C 3,9 C 87 % 1014,2 hPa 0,0 l/m 5,0 km/h (1 Bft) SW 220 0 min 0,000 mm 0,0 UV-I 0 W/m -1,7 C 0,2 C 8,0 km/h (2 Bft) 100,00 %
11.02.2018 02:59 0,2 C 3,9 C 87 % 1014,2 hPa 0,0 l/m 5,8 km/h (2 Bft) S-SW 207 0 min 0,000 mm 0,0 UV-I 0 W/m -1,7 C 0,2 C 8,0 km/h (2 Bft) 83,33 %
11.02.2018 03:00 0,2 C 3,9 C 87 % 1014,2 hPa 0,0 l/m 5,6 km/h (1 Bft) W-SW 248 0 min 0,000 mm 0,0 UV-I 0 W/m -1,7 C 0,2 C 8,0 km/h (2 Bft) 100,00 %
11.02.2018 03:01 0,2 C 3,9 C 87 % 1014,2 hPa 0,0 l/m 5,8 km/h (2 Bft) W-SW 241 0 min 0,000 mm 0,0 UV-I 0 W/m -1,7 C 0,2 C 8,0 km/h (2 Bft) 95,83 %
11.02.2018 03:02 0,2 C 3,9 C 87 % 1014,2 hPa 0,0 l/m 5,4 km/h (1 Bft) S-SW 204 0 min 0,000 mm 0,0 UV-I 0 W/m -1,7 C 0,2 C 8,0 km/h (2 Bft) 100,00 %
11.02.2018 03:03 0,2 C 3,9 C 88 % 1014,2 hPa 0,0 l/m 8,3 km/h (2 Bft) W-SW 242 0 min 0,000 mm 0,0 UV-I 0 W/m -1,5 C -1,7 C 11,3 km/h (2 Bft) 95,83 %
11.02.2018 03:04 0,2 C 3,9 C 88 % 1014,1 hPa 0,0 l/m 5,7 km/h (1 Bft) SW 225 0 min 0,000 mm 0,0 UV-I 0 W/m -1,5 C 0,2 C 8,0 km/h (2 Bft) 96,15 %
11.02.2018 03:05 0,1 C 3,9 C 88 % 1014,1 hPa 0,0 l/m 6,1 km/h (2 Bft) S-SW 205 0 min 0,000 mm 0,0 UV-I 0 W/m -1,6 C 0,1 C 8,0 km/h (2 Bft) 95,83 %
11.02.2018 03:06 0,2 C 3,9 C 88 % 1014,1 hPa 0,0 l/m 6,6 km/h (2 Bft) SW 214 0 min 0,000 mm 0,0 UV-I 0 W/m -1,5 C 0,0 C 9,7 km/h (2 Bft) 95,65 %
11.02.2018 03:07 0,2 C 3,9 C 88 % 1014,1 hPa 0,0 l/m 7,8 km/h (2 Bft) SW 219 0 min 0,000 mm 0,0 UV-I 0 W/m -1,5 C -1,2 C 11,3 km/h (2 Bft) 95,83 %
11.02.2018 03:08 0,2 C 3,9 C 88 % 1014,1 hPa 0,0 l/m 9,5 km/h (2 Bft) W-SW 239 0 min 0,000 mm 0,0 UV-I 0 W/m -1,5 C -2,8 C 11,3 km/h (2 Bft) 96,15 %
11.02.2018 03:09 0,1 C 3,9 C 88 % 1014,1 hPa 0,0 l/m 7,7 km/h (2 Bft) W-SW 244 0 min 0,000 mm 0,0 UV-I 0 W/m -1,6 C -1,2 C 11,3 km/h (2 Bft) 93,33 %
11.02.2018 03:10 0,2 C 3,9 C 88 % 1014,1 hPa 0,0 l/m 8,5 km/h (2 Bft) SW 226 0 min 0,000 mm 0,0 UV-I 0 W/m -1,5 C -1,9 C 12,9 km/h (3 Bft) 96,55 %
11.02.2018 03:11 0,2 C 3,9 C 88 % 1014,0 hPa 0,0 l/m 8,2 km/h (2 Bft) W-SW 242 0 min 0,000 mm 0,0 UV-I 0 W/m -1,5 C -1,6 C 12,9 km/h (3 Bft) 100,00 %
11.02.2018 03:12 0,1 C 3,9 C 88 % 1014,0 hPa 0,0 l/m 9,0 km/h (2 Bft) SW 217 0 min 0,000 mm 0,0 UV-I 0 W/m -1,6 C -2,5 C 12,9 km/h (3 Bft) 93,33 %
11.02.2018 03:13 0,2 C 3,9 C 88 % 1014,0 hPa 0,0 l/m 9,3 km/h (2 Bft) SW 230 0 min 0,000 mm 0,0 UV-I 0 W/m -1,5 C -2,6 C 12,9 km/h (3 Bft) 100,00 %
11.02.2018 03:14 0,2 C 3,9 C 88 % 1014,0 hPa 0,0 l/m 8,6 km/h (2 Bft) SW 234 0 min 0,000 mm 0,0 UV-I 0 W/m -1,5 C -2,0 C 12,9 km/h (3 Bft) 96,30 %
11.02.2018 03:15 0,2 C 3,9 C 88 % 1014,0 hPa 0,0 l/m 5,5 km/h (1 Bft) W-SW 250 0 min 0,000 mm 0,0 UV-I 0 W/m -1,5 C 0,2 C 8,0 km/h (2 Bft) 96,15 %
11.02.2018 03:16 0,2 C 3,9 C 88 % 1014,0 hPa 0,0 l/m 8,9 km/h (2 Bft) W 264 0 min 0,000 mm 0,0 UV-I 0 W/m -1,5 C -2,3 C 12,9 km/h (3 Bft) 100,00 %
11.02.2018 03:17 0,2 C 3,9 C 88 % 1014,0 hPa 0,0 l/m 7,6 km/h (2 Bft) SW 233 0 min 0,000 mm 0,0 UV-I 0 W/m -1,5 C -1,0 C 9,7 km/h (2 Bft) 96,15 %
11.02.2018 03:18 0,2 C 3,9 C 88 % 1013,9 hPa 0,0 l/m 7,0 km/h (2 Bft) SW 231 0 min 0,000 mm 0,0 UV-I 0 W/m -1,5 C -0,4 C 9,7 km/h (2 Bft) 100,00 %
11.02.2018 03:19 0,2 C 3,9 C 88 % 1013,9 hPa 0,0 l/m 8,0 km/h (2 Bft) S-SW 210 0 min 0,000 mm 0,0 UV-I 0 W/m -1,5 C -1,4 C 12,9 km/h (3 Bft) 91,30 %
11.02.2018 03:20 0,2 C 3,9 C 88 % 1014,0 hPa 0,0 l/m 6,4 km/h (2 Bft) SW 215 0 min 0,000 mm 0,0 UV-I 0 W/m -1,5 C 0,2 C 8,0 km/h (2 Bft) 95,83 %
11.02.2018 03:21 0,2 C 3,9 C 88 % 1013,9 hPa 0,0 l/m 8,1 km/h (2 Bft) W-SW 242 0 min 0,000 mm 0,0 UV-I 0 W/m -1,5 C -1,5 C 12,9 km/h (3 Bft) 86,96 %
11.02.2018 03:22 0,2 C 3,9 C 88 % 1013,9 hPa 0,0 l/m 9,1 km/h (2 Bft) W-SW 256 0 min 0,000 mm 0,0 UV-I 0 W/m -1,5 C -2,5 C 12,9 km/h (3 Bft) 100,00 %
11.02.2018 03:23 0,2 C 3,9 C 88 % 1013,9 hPa 0,0 l/m 9,4 km/h (2 Bft) SW 233 0 min 0,000 mm 0,0 UV-I 0 W/m -1,5 C -2,7 C 12,9 km/h (3 Bft) 100,00 %
11.02.2018 03:24 0,2 C 3,9 C 88 % 1013,9 hPa 0,0 l/m 10,4 km/h (2 Bft) W-SW 243 0 min 0,000 mm 0,0 UV-I 0 W/m -1,5 C -3,6 C 12,9 km/h (3 Bft) 100,00 %
11.02.2018 03:25 0,2 C 3,9 C 88 % 1013,9 hPa 0,0 l/m 8,3 km/h (2 Bft) W-SW 239 0 min 0,000 mm 0,0 UV-I 0 W/m -1,5 C -1,7 C 11,3 km/h (2 Bft) 100,00 %
11.02.2018 03:26 0,2 C 3,9 C 88 % 1013,8 hPa 0,0 l/m 9,0 km/h (2 Bft) S-SW 194 0 min 0,000 mm 0,0 UV-I 0 W/m -1,5 C -2,4 C 12,9 km/h (3 Bft) 92,31 %
11.02.2018 03:27 0,2 C 3,9 C 88 % 1013,8 hPa 0,0 l/m 8,0 km/h (2 Bft) W-SW 242 0 min 0,000 mm 0,0 UV-I 0 W/m -1,5 C -1,4 C 11,3 km/h (2 Bft) 100,00 %
11.02.2018 03:28 0,2 C 3,9 C 88 % 1013,8 hPa 0,0 l/m 7,9 km/h (2 Bft) W-SW 243 0 min 0,000 mm 0,0 UV-I 0 W/m -1,5 C -1,3 C 9,7 km/h (2 Bft) 96,67 %
11.02.2018 03:29 0,2 C 3,9 C 88 % 1013,9 hPa 0,0 l/m 6,3 km/h (2 Bft) W-SW 243 0 min 0,000 mm 0,0 UV-I 0 W/m -1,5 C 0,2 C 8,0 km/h (2 Bft) 97,62 %
11.02.2018 03:30 0,2 C 3,9 C 88 % 1013,8 hPa 0,0 l/m 6,6 km/h (2 Bft) S-SW 204 0 min 0,000 mm 0,0 UV-I 0 W/m -1,5 C 0,0 C 9,7 km/h (2 Bft) 97,56 %
11.02.2018 03:31 0,2 C 3,9 C 88 % 1013,8 hPa 0,0 l/m 5,7 km/h (1 Bft) W-SW 257 0 min 0,000 mm 0,0 UV-I 0 W/m -1,5 C 0,2 C 8,0 km/h (2 Bft) 100,00 %
11.02.2018 03:32 0,2 C 3,9 C 88 % 1013,8 hPa 0,0 l/m 5,1 km/h (1 Bft) SW 229 0 min 0,000 mm 0,0 UV-I 0 W/m -1,5 C 0,2 C 8,0 km/h (2 Bft) 100,00 %
11.02.2018 03:33 0,2 C 3,9 C 88 % 1013,8 hPa 0,0 l/m 6,8 km/h (2 Bft) SW 229 0 min 0,000 mm 0,0 UV-I 0 W/m -1,5 C -0,2 C 9,7 km/h (2 Bft) 100,00 %
11.02.2018 03:34 0,2 C 3,9 C 88 % 1013,8 hPa 0,0 l/m 8,0 km/h (2 Bft) S-SW 205 0 min 0,000 mm 0,0 UV-I 0 W/m -1,5 C -1,4 C 14,5 km/h (3 Bft) 95,65 %
11.02.2018 03:35 0,3 C 3,9 C 88 % 1013,7 hPa 0,0 l/m 5,4 km/h (1 Bft) W-SW 246 0 min 0,000 mm 0,0 UV-I 0 W/m -1,4 C 0,3 C 6,4 km/h (2 Bft) 100,00 %
11.02.2018 03:36 0,3 C 3,9 C 88 % 1013,7 hPa 0,0 l/m 6,2 km/h (2 Bft) SW 236 0 min 0,000 mm 0,0 UV-I 0 W/m -1,4 C 0,3 C 9,7 km/h (2 Bft) 100,00 %
11.02.2018 03:37 0,3 C 3,9 C 88 % 1013,7 hPa 0,0 l/m 8,4 km/h (2 Bft) W-SW 242 0 min 0,000 mm 0,0 UV-I 0 W/m -1,4 C -1,7 C 11,3 km/h (2 Bft) 100,00 %
11.02.2018 03:38 0,3 C 3,9 C 89 % 1013,7 hPa 0,0 l/m 6,6 km/h (2 Bft) SW 218 0 min 0,000 mm 0,0 UV-I 0 W/m -1,3 C 0,1 C 9,7 km/h (2 Bft) 100,00 %
11.02.2018 03:39 0,3 C 3,9 C 88 % 1013,7 hPa 0,0 l/m 7,3 km/h (2 Bft) SW 227 0 min 0,000 mm 0,0 UV-I 0 W/m -1,4 C -0,6 C 9,7 km/h (2 Bft) 100,00 %
11.02.2018 03:40 0,3 C 3,9 C 89 % 1013,7 hPa 0,0 l/m 6,4 km/h (2 Bft) W-SW 240 0 min 0,000 mm 0,0 UV-I 0 W/m -1,3 C 0,3 C 8,0 km/h (2 Bft) 100,00 %
11.02.2018 03:41 0,3 C 3,9 C 89 % 1013,7 hPa 0,0 l/m 5,8 km/h (2 Bft) W-SW 239 0 min 0,000 mm 0,0 UV-I 0 W/m -1,3 C 0,3 C 8,0 km/h (2 Bft) 100,00 %
11.02.2018 03:42 0,3 C 3,9 C 89 % 1013,7 hPa 0,0 l/m 5,8 km/h (2 Bft) W-SW 240 0 min 0,000 mm 0,0 UV-I 0 W/m -1,3 C 0,3 C 8,0 km/h (2 Bft) 95,65 %
11.02.2018 03:43 0,3 C 3,9 C 89 % 1013,7 hPa 0,0 l/m 7,1 km/h (2 Bft) SW 225 0 min 0,000 mm 0,0 UV-I 0 W/m -1,3 C -0,4 C 8,0 km/h (2 Bft) 100,00 %
11.02.2018 03:44 0,3 C 3,9 C 89 % 1013,7 hPa 0,0 l/m 5,0 km/h (1 Bft) W-SW 252 0 min 0,000 mm 0,0 UV-I 0 W/m -1,3 C 0,3 C 6,4 km/h (2 Bft) 100,00 %
11.02.2018 03:45 0,3 C 3,9 C 89 % 1013,7 hPa 0,0 l/m 5,2 km/h (1 Bft) W-SW 243 0 min 0,000 mm 0,0 UV-I 0 W/m -1,3 C 0,3 C 6,4 km/h (2 Bft) 100,00 %
11.02.2018 03:46 0,3 C 3,9 C 89 % 1013,6 hPa 0,0 l/m 6,7 km/h (2 Bft) W-SW 238 0 min 0,000 mm 0,0 UV-I 0 W/m -1,3 C 0,0 C 8,0 km/h (2 Bft) 100,00 %
11.02.2018 03:47 0,3 C 3,9 C 89 % 1013,7 hPa 0,0 l/m 5,4 km/h (1 Bft) W-SW 238 0 min 0,000 mm 0,0 UV-I 0 W/m -1,3 C 0,3 C 8,0 km/h (2 Bft) 100,00 %
11.02.2018 03:48 0,3 C 3,9 C 89 % 1013,6 hPa 0,0 l/m 6,8 km/h (2 Bft) W-SW 237 0 min 0,000 mm 0,0 UV-I 0 W/m -1,3 C -0,1 C 8,0 km/h (2 Bft) 96,15 %
11.02.2018 03:49 0,3 C 3,9 C 89 % 1013,6 hPa 0,0 l/m 5,1 km/h (1 Bft) W-SW 243 0 min 0,000 mm 0,0 UV-I 0 W/m -1,3 C 0,3 C 6,4 km/h (2 Bft) 100,00 %
11.02.2018 03:50 0,3 C 3,9 C 89 % 1013,7 hPa 0,0 l/m 4,6 km/h (1 Bft) SW 221 0 min 0,000 mm 0,0 UV-I 0 W/m -1,3 C 0,3 C 6,4 km/h (2 Bft) 100,00 %
11.02.2018 03:51 0,3 C 3,9 C 89 % 1013,6 hPa 0,0 l/m 5,4 km/h (1 Bft) SW 229 0 min 0,000 mm 0,0 UV-I 0 W/m -1,3 C 0,3 C 6,4 km/h (2 Bft) 100,00 %
11.02.2018 03:52 0,3 C 3,9 C 89 % 1013,6 hPa 0,0 l/m 5,6 km/h (1 Bft) SW 224 0 min 0,000 mm 0,0 UV-I 0 W/m -1,3 C 0,3 C 8,0 km/h (2 Bft) 100,00 %
11.02.2018 03:53 0,3 C 3,9 C 89 % 1013,6 hPa 0,0 l/m 6,6 km/h (2 Bft) W-SW 244 0 min 0,000 mm 0,0 UV-I 0 W/m -1,3 C 0,1 C 9,7 km/h (2 Bft) 100,00 %
11.02.2018 03:54 0,3 C 3,9 C 89 % 1013,6 hPa 0,0 l/m 5,8 km/h (2 Bft) SW 230 0 min 0,000 mm 0,0 UV-I 0 W/m -1,3 C 0,3 C 9,7 km/h (2 Bft) 100,00 %
11.02.2018 03:55 0,3 C 3,9 C 89 % 1013,6 hPa 0,0 l/m 5,2 km/h (1 Bft) SW 233 0 min 0,000 mm 0,0 UV-I 0 W/m -1,3 C 0,3 C 6,4 km/h (2 Bft) 100,00 %
11.02.2018 03:56 0,3 C 3,9 C 89 % 1013,6 hPa 0,0 l/m 5,5 km/h (1 Bft) W-SW 248 0 min 0,000 mm 0,0 UV-I 0 W/m -1,3 C 0,3 C 6,4 km/h (2 Bft) 100,00 %
11.02.2018 03:57 0,3 C 3,9 C 89 % 1013,6 hPa 0,0 l/m 6,1 km/h (2 Bft) W 275 0 min 0,000 mm 0,0 UV-I 0 W/m -1,3 C 0,3 C 8,0 km/h (2 Bft) 96,55 %
11.02.2018 03:58 0,3 C 3,9 C 89 % 1013,6 hPa 0,0 l/m 5,5 km/h (1 Bft) W-SW 258 0 min 0,000 mm 0,0 UV-I 0 W/m -1,3 C 0,3 C 11,3 km/h (2 Bft) 100,00 %
11.02.2018 03:59 0,3 C 3,9 C 89 % 1013,6 hPa 0,0 l/m 7,0 km/h (2 Bft) W-SW 256 0 min 0,000 mm 0,0 UV-I 0 W/m -1,3 C -0,3 C 9,7 km/h (2 Bft) 92,86 %
11.02.2018 04:00 0,3 C 3,9 C 89 % 1013,6 hPa 0,0 l/m 5,7 km/h (1 Bft) SW 229 0 min 0,000 mm 0,0 UV-I 0 W/m -1,3 C 0,3 C 11,3 km/h (2 Bft) 100,00 %
11.02.2018 04:02 0,4 C 3,9 C 89 % 1013,5 hPa 0,0 l/m 6,7 km/h (2 Bft) W 275 0 min 0,000 mm 0,0 UV-I 0 W/m -1,2 C 0,1 C 9,7 km/h (2 Bft) 100,00 %
11.02.2018 04:03 0,4 C 3,9 C 89 % 1013,5 hPa 0,0 l/m 6,3 km/h (2 Bft) SW 221 0 min 0,000 mm 0,0 UV-I 0 W/m -1,2 C 0,4 C 9,7 km/h (2 Bft) 100,00 %
11.02.2018 04:04 0,4 C 3,9 C 89 % 1013,5 hPa 0,0 l/m 6,8 km/h (2 Bft) W-SW 250 0 min 0,000 mm 0,0 UV-I 0 W/m -1,2 C 0,0 C 8,0 km/h (2 Bft) 100,00 %
11.02.2018 04:05 0,4 C 3,9 C 89 % 1013,5 hPa 0,0 l/m 6,0 km/h (2 Bft) SW 234 0 min 0,000 mm 0,0 UV-I 0 W/m -1,2 C 0,4 C 8,0 km/h (2 Bft) 100,00 %
11.02.2018 04:06 0,4 C 3,9 C 89 % 1013,5 hPa 0,0 l/m 5,1 km/h (1 Bft) SW 226 0 min 0,000 mm 0,0 UV-I 0 W/m -1,2 C 0,4 C 6,4 km/h (2 Bft) 95,65 %
11.02.2018 04:07 0,4 C 3,9 C 90 % 1013,5 hPa 0,0 l/m 5,8 km/h (2 Bft) W-SW 252 0 min 0,000 mm 0,0 UV-I 0 W/m -1,0 C 0,4 C 9,7 km/h (2 Bft) 100,00 %
11.02.2018 04:08 0,4 C 3,9 C 89 % 1013,5 hPa 0,0 l/m 5,4 km/h (1 Bft) SW 233 0 min 0,000 mm 0,0 UV-I 0 W/m -1,2 C 0,4 C 9,7 km/h (2 Bft) 100,00 %
11.02.2018 04:09 0,4 C 3,9 C 89 % 1013,5 hPa 0,0 l/m 5,8 km/h (2 Bft) SW 236 0 min 0,000 mm 0,0 UV-I 0 W/m -1,2 C 0,4 C 8,0 km/h (2 Bft) 100,00 %
11.02.2018 04:10 0,4 C 3,9 C 90 % 1013,5 hPa 0,0 l/m 4,6 km/h (1 Bft) SW 236 0 min 0,000 mm 0,0 UV-I 0 W/m -1,0 C 0,4 C 6,4 km/h (2 Bft) 100,00 %
11.02.2018 04:11 0,4 C 3,9 C 90 % 1013,4 hPa 0,0 l/m 4,9 km/h (1 Bft) W-SW 241 0 min 0,000 mm 0,0 UV-I 0 W/m -1,0 C 0,4 C 6,4 km/h (2 Bft) 100,00 %
11.02.2018 04:12 0,4 C 3,9 C 90 % 1013,4 hPa 0,0 l/m 4,3 km/h (1 Bft) W 272 0 min 0,000 mm 0,0 UV-I 0 W/m -1,0 C 0,4 C 6,4 km/h (2 Bft) 100,00 %
11.02.2018 04:13 0,4 C 3,9 C 90 % 1013,4 hPa 0,0 l/m 4,7 km/h (1 Bft) W-SW 240 0 min 0,000 mm 0,0 UV-I 0 W/m -1,0 C 0,4 C 6,4 km/h (2 Bft) 100,00 %
11.02.2018 04:14 0,4 C 3,9 C 89 % 1013,4 hPa 0,0 l/m 5,4 km/h (1 Bft) SW 224 0 min 0,000 mm 0,0 UV-I 0 W/m -1,2 C 0,4 C 8,0 km/h (2 Bft) 100,00 %
11.02.2018 04:15 0,4 C 3,9 C 90 % 1013,4 hPa 0,0 l/m 6,7 km/h (2 Bft) SW 221 0 min 0,000 mm 0,0 UV-I 0 W/m -1,0 C 0,1 C 8,0 km/h (2 Bft) 100,00 %
11.02.2018 04:16 0,4 C 3,9 C 89 % 1013,4 hPa 0,0 l/m 7,2 km/h (2 Bft) W-SW 240 0 min 0,000 mm 0,0 UV-I 0 W/m -1,2 C -0,4 C 11,3 km/h (2 Bft) 100,00 %
11.02.2018 04:17 0,4 C 3,9 C 89 % 1013,4 hPa 0,0 l/m 5,7 km/h (1 Bft) W-SW 250 0 min 0,000 mm 0,0 UV-I 0 W/m -1,2 C 0,4 C 8,0 km/h (2 Bft) 95,83 %
11.02.2018 04:18 0,4 C 3,9 C 89 % 1013,4 hPa 0,0 l/m 5,0 km/h (1 Bft) W-SW 241 0 min 0,000 mm 0,0 UV-I 0 W/m -1,2 C 0,4 C 6,4 km/h (2 Bft) 100,00 %
11.02.2018 04:19 0,4 C 3,9 C 89 % 1013,4 hPa 0,0 l/m 6,3 km/h (2 Bft) W-SW 244 0 min 0,000 mm 0,0 UV-I 0 W/m -1,2 C 0,4 C 9,7 km/h (2 Bft) 100,00 %
11.02.2018 04:20 0,4 C 3,9 C 89 % 1013,4 hPa 0,0 l/m 4,2 km/h (1 Bft) W-SW 248 0 min 0,000 mm 0,0 UV-I 0 W/m -1,2 C 0,4 C 6,4 km/h (2 Bft) 100,00 %
11.02.2018 04:21 0,4 C 3,9 C 89 % 1013,4 hPa 0,0 l/m 5,6 km/h (1 Bft) SW 222 0 min 0,000 mm 0,0 UV-I 0 W/m -1,2 C 0,4 C 8,0 km/h (2 Bft) 96,30 %
11.02.2018 04:22 0,4 C 3,9 C 89 % 1013,4 hPa 0,0 l/m 5,4 km/h (1 Bft) SW 229 0 min 0,000 mm 0,0 UV-I 0 W/m -1,2 C 0,4 C 6,4 km/h (2 Bft) 100,00 %
11.02.2018 04:23 0,4 C 3,9 C 89 % 1013,4 hPa 0,0 l/m 6,6 km/h (2 Bft) SW 234 0 min 0,000 mm 0,0 UV-I 0 W/m -1,2 C 0,2 C 8,0 km/h (2 Bft) 100,00 %
11.02.2018 04:24 0,4 C 3,9 C 90 % 1013,4 hPa 0,0 l/m 6,6 km/h (2 Bft) W-SW 239 0 min 0,000 mm 0,0 UV-I 0 W/m -1,0 C 0,2 C 8,0 km/h (2 Bft) 100,00 %
11.02.2018 04:25 0,4 C 3,9 C 89 % 1013,4 hPa 0,0 l/m 6,2 km/h (2 Bft) SW 236 0 min 0,000 mm 0,0 UV-I 0 W/m -1,2 C 0,4 C 8,0 km/h (2 Bft) 100,00 %
11.02.2018 04:26 0,4 C 3,9 C 89 % 1013,4 hPa 0,0 l/m 6,8 km/h (2 Bft) SW 219 0 min 0,000 mm 0,0 UV-I 0 W/m -1,2 C 0,0 C 8,0 km/h (2 Bft) 100,00 %
11.02.2018 04:27 0,5 C 3,9 C 89 % 1013,3 hPa 0,0 l/m 7,8 km/h (2 Bft) SW 227 0 min 0,000 mm 0,0 UV-I 0 W/m -1,1 C -0,9 C 9,7 km/h (2 Bft) 96,30 %
11.02.2018 04:28 0,4 C 3,9 C 89 % 1013,4 hPa 0,0 l/m 5,8 km/h (2 Bft) SW 236 0 min 0,000 mm 0,0 UV-I 0 W/m -1,2 C 0,4 C 6,4 km/h (2 Bft) 100,00 %
11.02.2018 04:29 0,5 C 3,9 C 89 % 1013,3 hPa 0,0 l/m 6,0 km/h (2 Bft) W-SW 244 0 min 0,000 mm 0,0 UV-I 0 W/m -1,1 C 0,5 C 8,0 km/h (2 Bft) 100,00 %
11.02.2018 04:30 0,5 C 3,9 C 89 % 1013,3 hPa 0,0 l/m 6,1 km/h (2 Bft) SW 236 0 min 0,000 mm 0,0 UV-I 0 W/m -1,1 C 0,5 C 8,0 km/h (2 Bft) 100,00 %
11.02.2018 04:31 0,4 C 3,9 C 90 % 1013,3 hPa 0,0 l/m 6,6 km/h (2 Bft) SW 230 0 min 0,000 mm 0,0 UV-I 0 W/m -1,0 C 0,2 C 8,0 km/h (2 Bft) 100,00 %
11.02.2018 04:32 0,4 C 3,9 C 90 % 1013,3 hPa 0,0 l/m 4,8 km/h (1 Bft) SW 219 0 min 0,000 mm 0,0 UV-I 0 W/m -1,0 C 0,4 C 6,4 km/h (2 Bft) 100,00 %
11.02.2018 04:33 0,4 C 3,9 C 90 % 1013,3 hPa 0,0 l/m 6,4 km/h (2 Bft) W-SW 254 0 min 0,000 mm 0,0 UV-I 0 W/m -1,0 C 0,4 C 9,7 km/h (2 Bft) 95,65 %
11.02.2018 04:34 0,4 C 3,9 C 90 % 1013,3 hPa 0,0 l/m 6,6 km/h (2 Bft) SW 236 0 min 0,000 mm 0,0 UV-I 0 W/m -1,0 C 0,2 C 8,0 km/h (2 Bft) 96,30 %
11.02.2018 04:35 0,4 C 3,9 C 90 % 1013,3 hPa 0,0 l/m 5,9 km/h (2 Bft) SW 225 0 min 0,000 mm 0,0 UV-I 0 W/m -1,0 C 0,4 C 9,7 km/h (2 Bft) 96,55 %
11.02.2018 04:36 0,4 C 3,9 C 90 % 1013,3 hPa 0,0 l/m 6,0 km/h (2 Bft) W-SW 238 0 min 0,000 mm 0,0 UV-I 0 W/m -1,0 C 0,4 C 6,4 km/h (2 Bft) 95,83 %
11.02.2018 04:37 0,4 C 3,9 C 90 % 1013,2 hPa 0,0 l/m 6,2 km/h (2 Bft) SW 232 0 min 0,000 mm 0,0 UV-I 0 W/m -1,0 C 0,4 C 8,0 km/h (2 Bft) 90,91 %
11.02.2018 04:38 0,4 C 3,9 C 90 % 1013,3 hPa 0,0 l/m 8,2 km/h (2 Bft) SW 227 0 min 0,000 mm 0,0 UV-I 0 W/m -1,0 C -1,4 C 12,9 km/h (3 Bft) 96,30 %
11.02.2018 04:39 0,4 C 3,9 C 90 % 1013,2 hPa 0,0 l/m 7,6 km/h (2 Bft) W-SW 258 0 min 0,000 mm 0,0 UV-I 0 W/m -1,0 C -0,8 C 9,7 km/h (2 Bft) 95,65 %
11.02.2018 04:40 0,4 C 3,9 C 90 % 1013,3 hPa 0,0 l/m 5,7 km/h (1 Bft) S-SW 194 0 min 0,000 mm 0,0 UV-I 0 W/m -1,0 C 0,4 C 8,0 km/h (2 Bft) 96,67 %
11.02.2018 04:41 0,4 C 3,9 C 90 % 1013,2 hPa 0,0 l/m 5,4 km/h (1 Bft) W-SW 242 0 min 0,000 mm 0,0 UV-I 0 W/m -1,0 C 0,4 C 8,0 km/h (2 Bft) 96,15 %
11.02.2018 04:42 0,4 C 3,9 C 90 % 1013,2 hPa 0,0 l/m 4,7 km/h (1 Bft) W-SW 242 0 min 0,000 mm 0,0 UV-I 0 W/m -1,0 C 0,4 C 6,4 km/h (2 Bft) 100,00 %
11.02.2018 04:43 0,4 C 3,9 C 90 % 1013,2 hPa 0,0 l/m 6,8 km/h (2 Bft) SW 229 0 min 0,000 mm 0,0 UV-I 0 W/m -1,0 C 0,0 C 8,0 km/h (2 Bft) 96,55 %
11.02.2018 04:44 0,4 C 3,9 C 90 % 1013,2 hPa 0,0 l/m 5,4 km/h (1 Bft) W-SW 237 0 min 0,000 mm 0,0 UV-I 0 W/m -1,0 C 0,4 C 6,4 km/h (2 Bft) 100,00 %
11.02.2018 04:45 0,4 C 3,9 C 90 % 1013,2 hPa 0,0 l/m 7,2 km/h (2 Bft) SW 229 0 min 0,000 mm 0,0 UV-I 0 W/m -1,0 C -0,4 C 9,7 km/h (2 Bft) 86,67 %
11.02.2018 04:46 0,4 C 3,9 C 90 % 1013,2 hPa 0,0 l/m 5,9 km/h (2 Bft) W-SW 242 0 min 0,000 mm 0,0 UV-I 0 W/m -1,0 C 0,4 C 8,0 km/h (2 Bft) 100,00 %
11.02.2018 04:47 0,4 C 3,9 C 90 % 1013,2 hPa 0,0 l/m 6,9 km/h (2 Bft) S-SW 212 0 min 0,000 mm 0,0 UV-I 0 W/m -1,0 C -0,1 C 9,7 km/h (2 Bft) 95,83 %
11.02.2018 04:48 0,4 C 3,9 C 90 % 1013,1 hPa 0,0 l/m 6,7 km/h (2 Bft) SW 222 0 min 0,000 mm 0,0 UV-I 0 W/m -1,0 C 0,1 C 9,7 km/h (2 Bft) 93,10 %
11.02.2018 04:49 0,4 C 3,9 C 90 % 1013,1 hPa 0,0 l/m 6,3 km/h (2 Bft) SW 227 0 min 0,000 mm 0,0 UV-I 0 W/m -1,0 C 0,4 C 8,0 km/h (2 Bft) 100,00 %
11.02.2018 04:50 0,4 C 3,9 C 90 % 1013,2 hPa 0,0 l/m 6,4 km/h (2 Bft) W-SW 244 0 min 0,000 mm 0,0 UV-I 0 W/m -1,0 C 0,4 C 9,7 km/h (2 Bft) 96,15 %
11.02.2018 04:51 0,4 C 3,9 C 90 % 1013,2 hPa 0,0 l/m 6,4 km/h (2 Bft) SW 236 0 min 0,000 mm 0,0 UV-I 0 W/m -1,0 C 0,4 C 8,0 km/h (2 Bft) 100,00 %
11.02.2018 04:52 0,4 C 3,9 C 90 % 1013,2 hPa 0,0 l/m 5,2 km/h (1 Bft) SW 232 0 min 0,000 mm 0,0 UV-I 0 W/m -1,0 C 0,4 C 8,0 km/h (2 Bft) 91,30 %
11.02.2018 04:53 0,4 C 3,9 C 90 % 1013,2 hPa 0,0 l/m 5,8 km/h (2 Bft) W-SW 244 0 min 0,000 mm 0,0 UV-I 0 W/m -1,0 C 0,4 C 8,0 km/h (2 Bft) 100,00 %
11.02.2018 04:54 0,4 C 3,9 C 90 % 1013,1 hPa 0,0 l/m 4,7 km/h (1 Bft) SW 234 0 min 0,000 mm 0,0 UV-I 0 W/m -1,0 C 0,4 C 6,4 km/h (2 Bft) 91,30 %
11.02.2018 04:55 0,4 C 3,9 C 90 % 1013,1 hPa 0,0 l/m 5,8 km/h (2 Bft) SW 231 0 min 0,000 mm 0,0 UV-I 0 W/m -1,0 C 0,4 C 8,0 km/h (2 Bft) 100,00 %
11.02.2018 04:56 0,4 C 3,9 C 90 % 1013,1 hPa 0,0 l/m 4,9 km/h (1 Bft) SW 229 0 min 0,000 mm 0,0 UV-I 0 W/m -1,0 C 0,4 C 8,0 km/h (2 Bft) 92,86 %
11.02.2018 04:57 0,4 C 3,9 C 90 % 1013,1 hPa 0,0 l/m 3,9 km/h (1 Bft) SW 223 0 min 0,000 mm 0,0 UV-I 0 W/m -1,0 C 0,4 C 4,8 km/h (1 Bft) 96,30 %
11.02.2018 04:58 0,4 C 3,9 C 90 % 1013,1 hPa 0,0 l/m 4,2 km/h (1 Bft) SW 232 0 min 0,000 mm 0,0 UV-I 0 W/m -1,0 C 0,4 C 6,4 km/h (2 Bft) 96,15 %
11.02.2018 04:59 0,4 C 3,9 C 90 % 1013,1 hPa 0,0 l/m 5,8 km/h (2 Bft) SW 227 0 min 0,000 mm 0,0 UV-I 0 W/m -1,0 C 0,4 C 8,0 km/h (2 Bft) 92,59 %
11.02.2018 05:00 0,4 C 3,9 C 90 % 1013,1 hPa 0,0 l/m 6,7 km/h (2 Bft) W-SW 243 0 min 0,000 mm 0,0 UV-I 0 W/m -1,0 C 0,1 C 8,0 km/h (2 Bft) 92,86 %
11.02.2018 05:01 0,4 C 3,9 C 90 % 1013,1 hPa 0,0 l/m 6,2 km/h (2 Bft) SW 220 0 min 0,000 mm 0,0 UV-I 0 W/m -1,0 C 0,4 C 8,0 km/h (2 Bft) 95,83 %
11.02.2018 05:02 0,4 C 3,9 C 90 % 1013,0 hPa 0,0 l/m 4,4 km/h (1 Bft) W-SW 246 0 min 0,000 mm 0,0 UV-I 0 W/m -1,0 C 0,4 C 8,0 km/h (2 Bft) 100,00 %
11.02.2018 05:03 0,4 C 3,9 C 90 % 1013,0 hPa 0,0 l/m 5,7 km/h (1 Bft) W-SW 252 0 min 0,000 mm 0,0 UV-I 0 W/m -1,0 C 0,4 C 6,4 km/h (2 Bft) 91,67 %
11.02.2018 05:04 0,4 C 3,9 C 90 % 1013,0 hPa 0,0 l/m 5,1 km/h (1 Bft) SW 234 0 min 0,000 mm 0,0 UV-I 0 W/m -1,0 C 0,4 C 6,4 km/h (2 Bft) 100,00 %
11.02.2018 05:05 0,4 C 3,9 C 90 % 1013,0 hPa 0,0 l/m 5,9 km/h (2 Bft) W-SW 238 0 min 0,000 mm 0,0 UV-I 0 W/m -1,0 C 0,4 C 8,0 km/h (2 Bft) 91,67 %
11.02.2018 05:06 0,4 C 3,9 C 90 % 1013,0 hPa 0,0 l/m 3,6 km/h (1 Bft) SW 223 0 min 0,000 mm 0,0 UV-I 0 W/m -1,0 C 0,4 C 4,8 km/h (1 Bft) 100,00 %
11.02.2018 05:07 0,4 C 3,9 C 90 % 1013,0 hPa 0,0 l/m 4,4 km/h (1 Bft) SW 219 0 min 0,000 mm 0,0 UV-I 0 W/m -1,0 C 0,4 C 6,4 km/h (2 Bft) 91,30 %
11.02.2018 05:08 0,4 C 3,9 C 90 % 1013,0 hPa 0,0 l/m 4,6 km/h (1 Bft) SW 222 0 min 0,000 mm 0,0 UV-I 0 W/m -1,0 C 0,4 C 6,4 km/h (2 Bft) 96,30 %
11.02.2018 05:09 0,4 C 3,9 C 90 % 1013,0 hPa 0,0 l/m 5,2 km/h (1 Bft) SW 222 0 min 0,000 mm 0,0 UV-I 0 W/m -1,0 C 0,4 C 8,0 km/h (2 Bft) 100,00 %
11.02.2018 05:10 0,4 C 3,9 C 90 % 1013,0 hPa 0,0 l/m 6,8 km/h (2 Bft) SW 235 0 min 0,000 mm 0,0 UV-I 0 W/m -1,0 C 0,0 C 9,7 km/h (2 Bft) 91,67 %
11.02.2018 05:11 0,5 C 3,9 C 90 % 1012,9 hPa 0,0 l/m 7,1 km/h (2 Bft) S-SW 202 0 min 0,000 mm 0,0 UV-I 0 W/m -0,9 C -0,2 C 9,7 km/h (2 Bft) 100,00 %
11.02.2018 05:12 0,5 C 3,9 C 90 % 1013,0 hPa 0,0 l/m 8,0 km/h (2 Bft) SW 231 0 min 0,000 mm 0,0 UV-I 0 W/m -0,9 C -1,1 C 9,7 km/h (2 Bft) 100,00 %
11.02.2018 05:13 0,5 C 3,9 C 90 % 1013,0 hPa 0,0 l/m 4,0 km/h (1 Bft) SW 219 0 min 0,000 mm 0,0 UV-I 0 W/m -0,9 C 0,5 C 6,4 km/h (2 Bft) 100,00 %
11.02.2018 05:14 0,5 C 3,9 C 90 % 1012,9 hPa 0,0 l/m 5,8 km/h (2 Bft) SW 218 0 min 0,000 mm 0,0 UV-I 0 W/m -0,9 C 0,5 C 9,7 km/h (2 Bft) 100,00 %
11.02.2018 05:15 0,5 C 3,9 C 90 % 1012,9 hPa 0,0 l/m 5,4 km/h (1 Bft) W-SW 245 0 min 0,000 mm 0,0 UV-I 0 W/m -0,9 C 0,5 C 6,4 km/h (2 Bft) 100,00 %
11.02.2018 05:16 0,4 C 3,9 C 90 % 1013,0 hPa 0,0 l/m 7,5 km/h (2 Bft) W-SW 251 0 min 0,000 mm 0,0 UV-I 0 W/m -1,0 C -0,7 C 12,9 km/h (3 Bft) 95,83 %
11.02.2018 05:17 0,5 C 3,9 C 90 % 1013,0 hPa 0,0 l/m 7,1 km/h (2 Bft) SW 229 0 min 0,000 mm 0,0 UV-I 0 W/m -0,9 C -0,2 C 8,0 km/h (2 Bft) 100,00 %
11.02.2018 05:18 0,5 C 3,9 C 90 % 1013,0 hPa 0,0 l/m 5,6 km/h (1 Bft) SW 225 0 min 0,000 mm 0,0 UV-I 0 W/m -0,9 C 0,5 C 8,0 km/h (2 Bft) 96,30 %
11.02.2018 05:19 0,5 C 3,9 C 90 % 1013,0 hPa 0,0 l/m 7,9 km/h (2 Bft) W-SW 244 0 min 0,000 mm 0,0 UV-I 0 W/m -0,9 C -1,0 C 12,9 km/h (3 Bft) 93,33 %
11.02.2018 05:20 0,5 C 3,9 C 90 % 1013,0 hPa 0,0 l/m 8,2 km/h (2 Bft) SW 236 0 min 0,000 mm 0,0 UV-I 0 W/m -0,9 C -1,3 C 11,3 km/h (2 Bft) 100,00 %
11.02.2018 05:21 0,5 C 3,9 C 90 % 1012,9 hPa 0,0 l/m 7,2 km/h (2 Bft) W-SW 241 0 min 0,000 mm 0,0 UV-I 0 W/m -0,9 C -0,3 C 9,7 km/h (2 Bft) 96,55 %
11.02.2018 05:22 0,5 C 3,9 C 90 % 1013,0 hPa 0,0 l/m 6,3 km/h (2 Bft) SW 225 0 min 0,000 mm 0,0 UV-I 0 W/m -0,9 C 0,5 C 11,3 km/h (2 Bft) 93,33 %
11.02.2018 05:23 0,5 C 3,9 C 90 % 1012,9 hPa 0,0 l/m 8,8 km/h (2 Bft) SW 223 0 min 0,000 mm 0,0 UV-I 0 W/m -0,9 C -1,9 C 11,3 km/h (2 Bft) 100,00 %
11.02.2018 05:24 0,5 C 3,9 C 90 % 1012,9 hPa 0,0 l/m 6,1 km/h (2 Bft) SW 231 0 min 0,000 mm 0,0 UV-I 0 W/m -0,9 C 0,5 C 8,0 km/h (2 Bft) 100,00 %
11.02.2018 05:25 0,5 C 3,9 C 90 % 1012,9 hPa 0,0 l/m 7,3 km/h (2 Bft) W 260 0 min 0,000 mm 0,0 UV-I 0 W/m -0,9 C -0,4 C 11,3 km/h (2 Bft) 100,00 %
11.02.2018 05:26 0,5 C 3,9 C 90 % 1012,9 hPa 0,0 l/m 8,1 km/h (2 Bft) SW 226 0 min 0,000 mm 0,0 UV-I 0 W/m -0,9 C -1,2 C 12,9 km/h (3 Bft) 100,00 %
11.02.2018 05:27 0,5 C 3,9 C 90 % 1012,9 hPa 0,0 l/m 8,5 km/h (2 Bft) W-SW 247 0 min 0,000 mm 0,0 UV-I 0 W/m -0,9 C -1,6 C 11,3 km/h (2 Bft) 100,00 %
11.02.2018 05:28 0,5 C 3,9 C 90 % 1012,9 hPa 0,0 l/m 8,1 km/h (2 Bft) SW 233 0 min 0,000 mm 0,0 UV-I 0 W/m -0,9 C -1,2 C 11,3 km/h (2 Bft) 100,00 %
11.02.2018 05:29 0,5 C 3,9 C 90 % 1012,9 hPa 0,0 l/m 7,1 km/h (2 Bft) SW 230 0 min 0,000 mm 0,0 UV-I 0 W/m -0,9 C -0,2 C 9,7 km/h (2 Bft) 100,00 %
11.02.2018 05:30 0,5 C 3,9 C 90 % 1012,9 hPa 0,0 l/m 7,8 km/h (2 Bft) SW 227 0 min 0,000 mm 0,0 UV-I 0 W/m -0,9 C -0,9 C 9,7 km/h (2 Bft) 100,00 %
11.02.2018 05:31 0,5 C 3,9 C 90 % 1012,9 hPa 0,0 l/m 8,7 km/h (2 Bft) W-SW 241 0 min 0,000 mm 0,0 UV-I 0 W/m -0,9 C -1,8 C 11,3 km/h (2 Bft) 100,00 %
11.02.2018 05:32 0,5 C 3,9 C 90 % 1012,9 hPa 0,0 l/m 7,8 km/h (2 Bft) S-SW 209 0 min 0,000 mm 0,0 UV-I 0 W/m -0,9 C -0,9 C 11,3 km/h (2 Bft) 100,00 %
11.02.2018 05:33 0,5 C 3,9 C 90 % 1012,8 hPa 0,0 l/m 7,4 km/h (2 Bft) SW 229 0 min 0,000 mm 0,0 UV-I 0 W/m -0,9 C -0,5 C 9,7 km/h (2 Bft) 100,00 %
11.02.2018 05:34 0,5 C 3,9 C 90 % 1012,8 hPa 0,0 l/m 9,1 km/h (2 Bft) SW 232 0 min 0,000 mm 0,0 UV-I 0 W/m -0,9 C -2,1 C 11,3 km/h (2 Bft) 100,00 %
11.02.2018 05:35 0,5 C 3,9 C 90 % 1012,9 hPa 0,0 l/m 7,2 km/h (2 Bft) SW 234 0 min 0,000 mm 0,0 UV-I 0 W/m -0,9 C -0,3 C 9,7 km/h (2 Bft) 100,00 %
11.02.2018 05:36 0,5 C 3,9 C 90 % 1012,8 hPa 0,0 l/m 6,8 km/h (2 Bft) SW 233 0 min 0,000 mm 0,0 UV-I 0 W/m -0,9 C 0,1 C 8,0 km/h (2 Bft) 100,00 %
11.02.2018 05:37 0,5 C 3,9 C 90 % 1012,8 hPa 0,0 l/m 7,5 km/h (2 Bft) W-SW 242 0 min 0,000 mm 0,0 UV-I 0 W/m -0,9 C -0,6 C 9,7 km/h (2 Bft) 100,00 %
11.02.2018 05:38 0,5 C 3,9 C 90 % 1012,7 hPa 0,0 l/m 7,6 km/h (2 Bft) SW 226 0 min 0,000 mm 0,0 UV-I 0 W/m -0,9 C -0,7 C 11,3 km/h (2 Bft) 100,00 %
11.02.2018 05:39 0,5 C 3,9 C 90 % 1012,7 hPa 0,0 l/m 7,0 km/h (2 Bft) SW 226 0 min 0,000 mm 0,0 UV-I 0 W/m -0,9 C -0,1 C 9,7 km/h (2 Bft) 100,00 %
11.02.2018 05:40 0,5 C 3,9 C 90 % 1012,7 hPa 0,0 l/m 7,2 km/h (2 Bft) SW 229 0 min 0,000 mm 0,0 UV-I 0 W/m -0,9 C -0,3 C 8,0 km/h (2 Bft) 96,15 %
11.02.2018 05:41 0,5 C 3,9 C 90 % 1012,7 hPa 0,0 l/m 6,5 km/h (2 Bft) W-SW 242 0 min 0,000 mm 0,0 UV-I 0 W/m -0,9 C 0,4 C 9,7 km/h (2 Bft) 100,00 %
11.02.2018 05:42 0,5 C 3,9 C 90 % 1012,7 hPa 0,0 l/m 6,7 km/h (2 Bft) W-SW 238 0 min 0,000 mm 0,0 UV-I 0 W/m -0,9 C 0,2 C 8,0 km/h (2 Bft) 100,00 %
11.02.2018 05:43 0,5 C 3,9 C 90 % 1012,7 hPa 0,0 l/m 6,9 km/h (2 Bft) SW 231 0 min 0,000 mm 0,0 UV-I 0 W/m -0,9 C -0,0 C 8,0 km/h (2 Bft) 100,00 %
11.02.2018 05:44 0,5 C 3,9 C 90 % 1012,7 hPa 0,0 l/m 7,4 km/h (2 Bft) SW 228 0 min 0,000 mm 0,0 UV-I 0 W/m -0,9 C -0,5 C 9,7 km/h (2 Bft) 100,00 %
11.02.2018 05:45 0,5 C 3,9 C 90 % 1012,7 hPa 0,0 l/m 6,2 km/h (2 Bft) SW 232 0 min 0,000 mm 0,0 UV-I 0 W/m -0,9 C 0,5 C 8,0 km/h (2 Bft) 95,65 %
11.02.2018 05:46 0,5 C 3,9 C 90 % 1012,7 hPa 0,0 l/m 6,1 km/h (2 Bft) SW 229 0 min 0,000 mm 0,0 UV-I 0 W/m -0,9 C 0,5 C 8,0 km/h (2 Bft) 100,00 %
11.02.2018 05:47 0,5 C 3,9 C 90 % 1012,7 hPa 0,0 l/m 5,4 km/h (1 Bft) W-SW 244 0 min 0,000 mm 0,0 UV-I 0 W/m -0,9 C 0,5 C 8,0 km/h (2 Bft) 100,00 %
11.02.2018 05:48 0,4 C 3,9 C 90 % 1012,7 hPa 0,0 l/m 5,3 km/h (1 Bft) SW 230 0 min 0,000 mm 0,0 UV-I 0 W/m -1,0 C 0,4 C 8,0 km/h (2 Bft) 100,00 %
11.02.2018 05:49 0,5 C 3,9 C 90 % 1012,6 hPa 0,0 l/m 6,5 km/h (2 Bft) W-SW 238 0 min 0,000 mm 0,0 UV-I 0 W/m -0,9 C 0,4 C 8,0 km/h (2 Bft) 98,20 %
11.02.2018 05:50 0,5 C 3,9 C 90 % 1012,7 hPa 0,0 l/m 7,6 km/h (2 Bft) SW 229 0 min 0,000 mm 0,0 UV-I 0 W/m -0,9 C -0,7 C 9,7 km/h (2 Bft) 100,00 %
11.02.2018 05:51 0,5 C 3,9 C 90 % 1012,6 hPa 0,0 l/m 5,6 km/h (1 Bft) W 261 0 min 0,000 mm 0,0 UV-I 0 W/m -0,9 C 0,5 C 8,0 km/h (2 Bft) 100,00 %
11.02.2018 05:52 0,4 C 3,9 C 90 % 1012,6 hPa 0,0 l/m 5,2 km/h (1 Bft) W-SW 250 0 min 0,000 mm 0,0 UV-I 0 W/m -1,0 C 0,4 C 6,4 km/h (2 Bft) 100,00 %
11.02.2018 05:53 0,5 C 3,9 C 90 % 1012,6 hPa 0,0 l/m 5,2 km/h (1 Bft) SW 235 0 min 0,000 mm 0,0 UV-I 0 W/m -0,9 C 0,5 C 8,0 km/h (2 Bft) 95,65 %
11.02.2018 05:54 0,4 C 3,9 C 90 % 1012,6 hPa 0,0 l/m 4,8 km/h (1 Bft) SW 236 0 min 0,000 mm 0,0 UV-I 0 W/m -1,0 C 0,4 C 6,4 km/h (2 Bft) 100,00 %
11.02.2018 05:55 0,5 C 3,9 C 90 % 1012,6 hPa 0,0 l/m 3,2 km/h (1 Bft) W-SW 256 0 min 0,000 mm 0,0 UV-I 0 W/m -0,9 C 0,5 C 4,8 km/h (1 Bft) 100,00 %
11.02.2018 05:56 0,4 C 3,9 C 90 % 1012,6 hPa 0,0 l/m 3,5 km/h (1 Bft) W-SW 252 0 min 0,000 mm 0,0 UV-I 0 W/m -1,0 C 0,4 C 4,8 km/h (1 Bft) 100,00 %
11.02.2018 05:57 0,4 C 3,9 C 90 % 1012,5 hPa 0,0 l/m 4,8 km/h (1 Bft) W-SW 237 0 min 0,000 mm 0,0 UV-I 0 W/m -1,0 C 0,4 C 6,4 km/h (2 Bft) 95,65 %
11.02.2018 05:58 0,4 C 3,9 C 90 % 1012,5 hPa 0,0 l/m 5,9 km/h (2 Bft) SW 222 0 min 0,000 mm 0,0 UV-I 0 W/m -1,0 C 0,4 C 8,0 km/h (2 Bft) 100,00 %
11.02.2018 05:59 0,4 C 3,9 C 91 % 1012,6 hPa 0,0 l/m 6,5 km/h (2 Bft) SW 236 0 min 0,000 mm 0,0 UV-I 0 W/m -0,9 C 0,3 C 8,0 km/h (2 Bft) 100,00 %
11.02.2018 06:00 0,4 C 3,9 C 91 % 1012,5 hPa 0,0 l/m 6,1 km/h (2 Bft) W-SW 246 0 min 0,000 mm 0,0 UV-I 0 W/m -0,9 C 0,4 C 8,0 km/h (2 Bft) 100,00 %
11.02.2018 06:01 0,5 C 3,9 C 90 % 1012,5 hPa 0,0 l/m 5,2 km/h (1 Bft) SW 227 0 min 0,000 mm 0,0 UV-I 0 W/m -0,9 C 0,5 C 6,4 km/h (2 Bft) 100,00 %
11.02.2018 06:02 0,4 C 3,9 C 90 % 1012,5 hPa 0,0 l/m 3,8 km/h (1 Bft) W-SW 255 0 min 0,000 mm 0,0 UV-I 0 W/m -1,0 C 0,4 C 6,4 km/h (2 Bft) 96,15 %
11.02.2018 06:03 0,4 C 3,9 C 91 % 1012,5 hPa 0,0 l/m 4,8 km/h (1 Bft) W-SW 244 0 min 0,000 mm 0,0 UV-I 0 W/m -0,9 C 0,4 C 9,7 km/h (2 Bft) 100,00 %
11.02.2018 06:04 0,5 C 3,9 C 91 % 1012,5 hPa 0,0 l/m 5,7 km/h (1 Bft) W-SW 239 0 min 0,000 mm 0,0 UV-I 0 W/m -0,8 C 0,5 C 6,4 km/h (2 Bft) 100,00 %
11.02.2018 06:05 0,4 C 3,9 C 90 % 1012,4 hPa 0,0 l/m 3,9 km/h (1 Bft) W-SW 239 0 min 0,000 mm 0,0 UV-I 0 W/m -1,0 C 0,4 C 4,8 km/h (1 Bft) 100,00 %
11.02.2018 06:06 0,5 C 3,9 C 90 % 1012,4 hPa 0,0 l/m 3,2 km/h (1 Bft) W-SW 239 0 min 0,000 mm 0,0 UV-I 0 W/m -0,9 C 0,5 C 4,8 km/h (1 Bft) 100,00 %
11.02.2018 06:07 0,5 C 3,9 C 90 % 1012,4 hPa 0,0 l/m 3,5 km/h (1 Bft) W-SW 239 0 min 0,000 mm 0,0 UV-I 0 W/m -0,9 C 0,5 C 6,4 km/h (2 Bft) 100,00 %
11.02.2018 06:08 0,5 C 3,9 C 90 % 1012,5 hPa 0,0 l/m 3,1 km/h (1 Bft) W-SW 238 0 min 0,000 mm 0,0 UV-I 0 W/m -0,9 C 0,5 C 4,8 km/h (1 Bft) 100,00 %
11.02.2018 06:09 0,5 C 3,9 C 90 % 1012,4 hPa 0,0 l/m 3,6 km/h (1 Bft) W-SW 238 0 min 0,000 mm 0,0 UV-I 0 W/m -0,9 C 0,5 C 4,8 km/h (1 Bft) 100,00 %
11.02.2018 06:10 0,5 C 3,9 C 90 % 1012,4 hPa 0,0 l/m 2,5 km/h (1 Bft) SW 236 0 min 0,000 mm 0,0 UV-I 0 W/m -0,9 C 0,5 C 3,2 km/h (1 Bft) 100,00 %
11.02.2018 06:11 0,5 C 3,9 C 90 % 1012,4 hPa 0,0 l/m 3,2 km/h (1 Bft) SW 236 0 min 0,000 mm 0,0 UV-I 0 W/m -0,9 C 0,5 C 4,8 km/h (1 Bft) 100,00 %
11.02.2018 06:12 0,5 C 3,9 C 90 % 1012,4 hPa 0,0 l/m 5,1 km/h (1 Bft) SW 216 0 min 0,000 mm 0,0 UV-I 0 W/m -0,9 C 0,5 C 6,4 km/h (2 Bft) 100,00 %
11.02.2018 06:13 0,5 C 3,9 C 90 % 1012,4 hPa 0,0 l/m 5,1 km/h (1 Bft) SW 234 0 min 0,000 mm 0,0 UV-I 0 W/m -0,9 C 0,5 C 6,4 km/h (2 Bft) 100,00 %
11.02.2018 06:14 0,5 C 3,9 C 90 % 1012,4 hPa 0,0 l/m 4,2 km/h (1 Bft) SW 225 0 min 0,000 mm 0,0 UV-I 0 W/m -0,9 C 0,5 C 6,4 km/h (2 Bft) 100,00 %
11.02.2018 06:15 0,5 C 3,9 C 90 % 1012,4 hPa 0,0 l/m 3,8 km/h (1 Bft) SW 229 0 min 0,000 mm 0,0 UV-I 0 W/m -0,9 C 0,5 C 4,8 km/h (1 Bft) 100,00 %
11.02.2018 06:16 0,5 C 3,9 C 90 % 1012,4 hPa 0,0 l/m 3,7 km/h (1 Bft) SW 228 0 min 0,000 mm 0,0 UV-I 0 W/m -0,9 C 0,5 C 4,8 km/h (1 Bft) 96,15 %
11.02.2018 06:17 0,5 C 3,9 C 90 % 1012,4 hPa 0,0 l/m 3,5 km/h (1 Bft) SW 227 0 min 0,000 mm 0,0 UV-I 0 W/m -0,9 C 0,5 C 4,8 km/h (1 Bft) 100,00 %
11.02.2018 06:18 0,5 C 3,9 C 90 % 1012,4 hPa 0,0 l/m 3,1 km/h (1 Bft) SW 227 0 min 0,000 mm 0,0 UV-I 0 W/m -0,9 C 0,5 C 4,8 km/h (1 Bft) 96,15 %
11.02.2018 06:19 0,5 C 3,9 C 90 % 1012,4 hPa 0,0 l/m 3,7 km/h (1 Bft) S-SW 196 0 min 0,000 mm 0,0 UV-I 0 W/m -0,9 C 0,5 C 4,8 km/h (1 Bft) 100,00 %
11.02.2018 06:20 0,5 C 3,9 C 90 % 1012,4 hPa 0,0 l/m 4,0 km/h (1 Bft) S-SW 212 0 min 0,000 mm 0,0 UV-I 0 W/m -0,9 C 0,5 C 4,8 km/h (1 Bft) 100,00 %
11.02.2018 06:21 0,5 C 3,9 C 90 % 1012,4 hPa 0,0 l/m 3,9 km/h (1 Bft) S-SW 207 0 min 0,000 mm 0,0 UV-I 0 W/m -0,9 C 0,5 C 4,8 km/h (1 Bft) 93,10 %
11.02.2018 06:22 0,5 C 3,9 C 90 % 1012,3 hPa 0,0 l/m 4,3 km/h (1 Bft) S-SW 207 0 min 0,000 mm 0,0 UV-I 0 W/m -0,9 C 0,5 C 6,4 km/h (2 Bft) 100,00 %
11.02.2018 06:23 0,5 C 3,9 C 90 % 1012,3 hPa 0,0 l/m 4,6 km/h (1 Bft) S-SW 203 0 min 0,000 mm 0,0 UV-I 0 W/m -0,9 C 0,5 C 6,4 km/h (2 Bft) 100,00 %
11.02.2018 06:24 0,5 C 3,9 C 90 % 1012,3 hPa 0,0 l/m 3,8 km/h (1 Bft) S-SW 203 0 min 0,000 mm 0,0 UV-I 0 W/m -0,9 C 0,5 C 4,8 km/h (1 Bft) 100,00 %
11.02.2018 06:25 0,5 C 3,9 C 90 % 1012,3 hPa 0,0 l/m 4,2 km/h (1 Bft) SW 220 0 min 0,000 mm 0,0 UV-I 0 W/m -0,9 C 0,5 C 4,8 km/h (1 Bft) 100,00 %
11.02.2018 06:26 0,4 C 3,9 C 90 % 1012,3 hPa 0,0 l/m 5,6 km/h (1 Bft) S-SW 212 0 min 0,000 mm 0,0 UV-I 0 W/m -1,0 C 0,4 C 8,0 km/h (2 Bft) 100,00 %
11.02.2018 06:27 0,4 C 3,9 C 90 % 1012,3 hPa 0,0 l/m 6,4 km/h (2 Bft) S-SW 197 0 min 0,000 mm 0,0 UV-I 0 W/m -1,0 C 0,4 C 8,0 km/h (2 Bft) 95,65 %
11.02.2018 06:28 0,4 C 3,9 C 90 % 1012,3 hPa 0,0 l/m 4,8 km/h (1 Bft) SW 218 0 min 0,000 mm 0,0 UV-I 0 W/m -1,0 C 0,4 C 6,4 km/h (2 Bft) 100,00 %
11.02.2018 06:29 0,4 C 3,9 C 90 % 1012,3 hPa 0,0 l/m 6,1 km/h (2 Bft) SW 236 0 min 0,000 mm 0,0 UV-I 0 W/m -1,0 C 0,4 C 8,0 km/h (2 Bft) 95,65 %
11.02.2018 06:30 0,4 C 3,9 C 90 % 1012,3 hPa 0,0 l/m 3,1 km/h (1 Bft) SW 214 0 min 0,000 mm 0,0 UV-I 0 W/m -1,0 C 0,4 C 6,4 km/h (2 Bft) 100,00 %
11.02.2018 06:31 0,4 C 3,9 C 90 % 1012,3 hPa 0,0 l/m 7,1 km/h (2 Bft) SW 217 0 min 0,000 mm 0,0 UV-I 0 W/m -1,0 C -0,3 C 8,0 km/h (2 Bft) 97,14 %
11.02.2018 06:32 0,5 C 3,9 C 90 % 1012,3 hPa 0,0 l/m 3,9 km/h (1 Bft) SW 215 0 min 0,000 mm 0,0 UV-I 0 W/m -0,9 C 0,5 C 6,4 km/h (2 Bft) 100,00 %
11.02.2018 06:33 0,5 C 3,9 C 90 % 1012,4 hPa 0,0 l/m 3,5 km/h (1 Bft) SW 228 0 min 0,000 mm 0,0 UV-I 0 W/m -0,9 C 0,5 C 6,4 km/h (2 Bft) 96,15 %
11.02.2018 06:34 0,5 C 3,9 C 90 % 1012,4 hPa 0,0 l/m 4,5 km/h (1 Bft) SW 220 0 min 0,000 mm 0,0 UV-I 0 W/m -0,9 C 0,5 C 8,0 km/h (2 Bft) 95,83 %
11.02.2018 06:35 0,5 C 3,9 C 90 % 1012,4 hPa 0,0 l/m 7,8 km/h (2 Bft) W-SW 241 0 min 0,000 mm 0,0 UV-I 0 W/m -0,9 C -0,9 C 11,3 km/h (2 Bft) 95,65 %
11.02.2018 06:36 0,5 C 3,9 C 90 % 1012,4 hPa 0,0 l/m 7,1 km/h (2 Bft) SW 232 0 min 0,000 mm 0,0 UV-I 0 W/m -0,9 C -0,2 C 9,7 km/h (2 Bft) 96,30 %
11.02.2018 06:37 0,5 C 3,9 C 90 % 1012,3 hPa 0,0 l/m 4,7 km/h (1 Bft) S-SW 199 0 min 0,000 mm 0,0 UV-I 0 W/m -0,9 C 0,5 C 6,4 km/h (2 Bft) 100,00 %
11.02.2018 06:38 0,6 C 3,9 C 90 % 1012,4 hPa 0,0 l/m 5,0 km/h (1 Bft) SW 223 0 min 0,000 mm 0,0 UV-I 0 W/m -0,8 C 0,6 C 6,4 km/h (2 Bft) 96,15 %
11.02.2018 06:39 0,5 C 3,9 C 90 % 1012,3 hPa 0,0 l/m 4,8 km/h (1 Bft) SW 224 0 min 0,000 mm 0,0 UV-I 0 W/m -0,9 C 0,5 C 6,4 km/h (2 Bft) 96,55 %
11.02.2018 06:40 0,6 C 3,9 C 90 % 1012,3 hPa 0,0 l/m 3,6 km/h (1 Bft) S 176 0 min 0,000 mm 0,0 UV-I 0 W/m -0,8 C 0,6 C 4,8 km/h (1 Bft) 95,83 %
11.02.2018 06:41 0,6 C 3,9 C 90 % 1012,3 hPa 0,0 l/m 5,1 km/h (1 Bft) S-SW 209 0 min 0,000 mm 0,0 UV-I 0 W/m -0,8 C 0,6 C 8,0 km/h (2 Bft) 95,65 %
11.02.2018 06:42 0,6 C 3,9 C 90 % 1012,3 hPa 0,0 l/m 4,3 km/h (1 Bft) S-SW 211 0 min 0,000 mm 0,0 UV-I 0 W/m -0,8 C 0,6 C 6,4 km/h (2 Bft) 93,33 %
11.02.2018 06:43 0,6 C 3,9 C 90 % 1012,3 hPa 0,0 l/m 4,7 km/h (1 Bft) S-SW 209 0 min 0,000 mm 0,0 UV-I 0 W/m -0,8 C 0,6 C 8,0 km/h (2 Bft) 96,67 %
11.02.2018 06:44 0,5 C 3,9 C 90 % 1012,3 hPa 0,0 l/m 5,2 km/h (1 Bft) S-SW 210 0 min 0,000 mm 0,0 UV-I 0 W/m -0,9 C 0,5 C 6,4 km/h (2 Bft) 95,65 %
11.02.2018 06:45 0,5 C 3,9 C 90 % 1012,3 hPa 0,0 l/m 5,3 km/h (1 Bft) SW 222 0 min 0,000 mm 0,0 UV-I 0 W/m -0,9 C 0,5 C 8,0 km/h (2 Bft) 96,30 %
11.02.2018 06:46 0,5 C 3,9 C 90 % 1012,3 hPa 0,0 l/m 4,3 km/h (1 Bft) S-SW 210 0 min 0,000 mm 0,0 UV-I 0 W/m -0,9 C 0,5 C 6,4 km/h (2 Bft) 95,65 %
11.02.2018 06:47 0,5 C 3,9 C 90 % 1012,3 hPa 0,0 l/m 5,5 km/h (1 Bft) S-SW 209 0 min 0,000 mm 0,0 UV-I 0 W/m -0,9 C 0,5 C 6,4 km/h (2 Bft) 92,59 %
11.02.2018 06:48 0,5 C 3,9 C 90 % 1012,3 hPa 0,0 l/m 4,4 km/h (1 Bft) S-SW 208 0 min 0,000 mm 0,0 UV-I 0 W/m -0,9 C 0,5 C 6,4 km/h (2 Bft) 100,00 %
11.02.2018 06:49 0,5 C 3,9 C 90 % 1012,3 hPa 0,0 l/m 5,6 km/h (1 Bft) S 190 0 min 0,000 mm 0,0 UV-I 0 W/m -0,9 C 0,5 C 8,0 km/h (2 Bft) 92,59 %
11.02.2018 06:50 0,6 C 3,9 C 90 % 1012,3 hPa 0,0 l/m 4,1 km/h (1 Bft) S-SW 208 0 min 0,000 mm 0,0 UV-I 0 W/m -0,8 C 0,6 C 4,8 km/h (1 Bft) 96,15 %
11.02.2018 06:51 0,6 C 3,9 C 90 % 1012,3 hPa 0,0 l/m 3,7 km/h (1 Bft) S-SW 208 0 min 0,000 mm 0,0 UV-I 0 W/m -0,8 C 0,6 C 4,8 km/h (1 Bft) 96,30 %
11.02.2018 06:52 0,6 C 3,9 C 90 % 1012,3 hPa 0,0 l/m 4,3 km/h (1 Bft) S-SW 209 0 min 0,000 mm 0,0 UV-I 0 W/m -0,8 C 0,6 C 6,4 km/h (2 Bft) 92,86 %
11.02.2018 06:53 0,6 C 3,9 C 90 % 1012,2 hPa 0,0 l/m 4,9 km/h (1 Bft) S-SW 209 0 min 0,000 mm 0,0 UV-I 0 W/m -0,8 C 0,6 C 6,4 km/h (2 Bft) 96,30 %
11.02.2018 06:54 0,6 C 3,9 C 90 % 1012,3 hPa 0,0 l/m 4,8 km/h (1 Bft) SW 214 0 min 0,000 mm 0,0 UV-I 0 W/m -0,8 C 0,6 C 6,4 km/h (2 Bft) 96,15 %
11.02.2018 06:55 0,5 C 3,9 C 90 % 1012,3 hPa 0,0 l/m 4,0 km/h (1 Bft) SW 216 0 min 0,000 mm 0,0 UV-I 0 W/m -0,9 C 0,5 C 6,4 km/h (2 Bft) 95,83 %
11.02.2018 06:56 0,6 C 3,9 C 90 % 1012,3 hPa 0,0 l/m 5,6 km/h (1 Bft) SW 219 0 min 0,000 mm 0,0 UV-I 0 W/m -0,8 C 0,6 C 8,0 km/h (2 Bft) 92,86 %
11.02.2018 06:57 0,5 C 3,9 C 90 % 1012,2 hPa 0,0 l/m 5,2 km/h (1 Bft) SW 217 0 min 0,000 mm 0,0 UV-I 0 W/m -0,9 C 0,5 C 8,0 km/h (2 Bft) 92,59 %
11.02.2018 06:58 0,5 C 3,9 C 90 % 1012,2 hPa 0,0 l/m 6,3 km/h (2 Bft) S-SW 202 0 min 0,000 mm 0,0 UV-I 0 W/m -0,9 C 0,5 C 8,0 km/h (2 Bft) 96,15 %
11.02.2018 06:59 0,6 C 3,9 C 90 % 1012,2 hPa 0,0 l/m 6,6 km/h (2 Bft) S-SW 205 0 min 0,000 mm 0,0 UV-I 0 W/m -0,8 C 0,4 C 8,0 km/h (2 Bft) 91,67 %
11.02.2018 07:00 0,6 C 3,9 C 90 % 1012,2 hPa 0,0 l/m 5,4 km/h (1 Bft) S-SW 199 0 min 0,000 mm 0,0 UV-I 0 W/m -0,8 C 0,6 C 6,4 km/h (2 Bft) 95,65 %
11.02.2018 07:01 0,6 C 3,9 C 90 % 1012,2 hPa 0,0 l/m 6,1 km/h (2 Bft) SW 226 0 min 0,000 mm 0,0 UV-I 0 W/m -0,8 C 0,6 C 9,7 km/h (2 Bft) 95,83 %
11.02.2018 07:02 0,6 C 3,9 C 90 % 1012,2 hPa 0,0 l/m 5,7 km/h (1 Bft) S-SW 211 0 min 0,000 mm 0,0 UV-I 0 W/m -0,8 C 0,6 C 8,0 km/h (2 Bft) 96,15 %
11.02.2018 07:03 0,6 C 3,9 C 90 % 1012,2 hPa 0,0 l/m 5,2 km/h (1 Bft) S-SW 211 0 min 0,000 mm 0,0 UV-I 0 W/m -0,8 C 0,6 C 8,0 km/h (2 Bft) 95,83 %
11.02.2018 07:04 0,6 C 3,9 C 90 % 1012,2 hPa 0,0 l/m 3,5 km/h (1 Bft) S-SW 204 0 min 0,000 mm 0,0 UV-I 0 W/m -0,8 C 0,6 C 4,8 km/h (1 Bft) 93,33 %
11.02.2018 07:05 0,6 C 3,9 C 90 % 1012,2 hPa 0,0 l/m 4,0 km/h (1 Bft) S-SW 213 0 min 0,000 mm 0,0 UV-I 0 W/m -0,8 C 0,6 C 4,8 km/h (1 Bft) 92,31 %
11.02.2018 07:06 0,6 C 3,9 C 90 % 1012,2 hPa 0,0 l/m 7,4 km/h (2 Bft) S-SW 211 0 min 0,000 mm 0,0 UV-I 0 W/m -0,8 C -0,4 C 9,7 km/h (2 Bft) 96,30 %
11.02.2018 07:07 0,6 C 3,9 C 90 % 1012,2 hPa 0,0 l/m 4,9 km/h (1 Bft) SW 218 0 min 0,000 mm 0,0 UV-I 0 W/m -0,8 C 0,6 C 6,4 km/h (2 Bft) 91,30 %
11.02.2018 07:08 0,6 C 3,9 C 90 % 1012,2 hPa 0,0 l/m 4,3 km/h (1 Bft) SW 223 0 min 0,000 mm 0,0 UV-I 0 W/m -0,8 C 0,6 C 6,4 km/h (2 Bft) 91,67 %
11.02.2018 07:09 0,7 C 3,9 C 90 % 1012,3 hPa 0,0 l/m 4,7 km/h (1 Bft) SW 227 0 min 0,000 mm 0,0 UV-I 0 W/m -0,7 C 0,7 C 8,0 km/h (2 Bft) 100,00 %
11.02.2018 07:10 0,7 C 3,9 C 90 % 1012,3 hPa 0,0 l/m 4,5 km/h (1 Bft) SW 230 0 min 0,000 mm 0,0 UV-I 0 W/m -0,7 C 0,7 C 6,4 km/h (2 Bft) 92,59 %
11.02.2018 07:11 0,7 C 3,9 C 90 % 1012,2 hPa 0,0 l/m 5,0 km/h (1 Bft) SW 232 0 min 0,000 mm 0,0 UV-I 0 W/m -0,7 C 0,7 C 8,0 km/h (2 Bft) 90,62 %
11.02.2018 07:12 0,7 C 3,9 C 89 % 1012,3 hPa 0,0 l/m 5,6 km/h (1 Bft) SW 219 0 min 0,000 mm 0,0 UV-I 0 W/m -0,9 C 0,7 C 8,0 km/h (2 Bft) 96,30 %
11.02.2018 07:13 0,7 C 3,9 C 89 % 1012,2 hPa 0,0 l/m 4,7 km/h (1 Bft) SW 236 0 min 0,000 mm 0,0 UV-I 1 W/m -0,9 C 0,7 C 6,4 km/h (2 Bft) 100,00 %
11.02.2018 07:14 0,7 C 3,9 C 89 % 1012,3 hPa 0,0 l/m 5,7 km/h (1 Bft) SW 220 0 min 0,000 mm 0,0 UV-I 5 W/m -0,9 C 0,7 C 8,0 km/h (2 Bft) 92,59 %
11.02.2018 07:15 0,7 C 3,9 C 89 % 1012,3 hPa 0,0 l/m 6,0 km/h (2 Bft) W-SW 238 0 min 0,000 mm 0,0 UV-I 5 W/m -0,9 C 0,7 C 8,0 km/h (2 Bft) 93,10 %
11.02.2018 07:16 0,7 C 3,9 C 89 % 1012,3 hPa 0,0 l/m 4,3 km/h (1 Bft) W-SW 238 0 min 0,000 mm 0,0 UV-I 5 W/m -0,9 C 0,7 C 4,8 km/h (1 Bft) 95,83 %
11.02.2018 07:17 0,7 C 3,9 C 89 % 1012,3 hPa 0,0 l/m 5,8 km/h (2 Bft) W-SW 240 0 min 0,000 mm 0,0 UV-I 5 W/m -0,9 C 0,7 C 8,0 km/h (2 Bft) 95,65 %
11.02.2018 07:18 0,7 C 3,9 C 89 % 1012,3 hPa 0,0 l/m 4,3 km/h (1 Bft) SW 236 0 min 0,000 mm 0,0 UV-I 5 W/m -0,9 C 0,7 C 6,4 km/h (2 Bft) 96,30 %
11.02.2018 07:19 0,7 C 3,9 C 89 % 1012,3 hPa 0,0 l/m 6,5 km/h (2 Bft) SW 217 0 min 0,000 mm 0,0 UV-I 5 W/m -0,9 C 0,6 C 8,0 km/h (2 Bft) 100,00 %
11.02.2018 07:20 0,7 C 3,9 C 89 % 1012,3 hPa 0,0 l/m 5,6 km/h (1 Bft) SW 234 0 min 0,000 mm 0,0 UV-I 5 W/m -0,9 C 0,7 C 8,0 km/h (2 Bft) 96,15 %
11.02.2018 07:21 0,7 C 3,9 C 89 % 1012,3 hPa 0,0 l/m 6,0 km/h (2 Bft) S-SW 209 0 min 0,000 mm 0,0 UV-I 5 W/m -0,9 C 0,7 C 8,0 km/h (2 Bft) 95,83 %
11.02.2018 07:22 0,7 C 3,9 C 89 % 1012,3 hPa 0,0 l/m 6,4 km/h (2 Bft) SW 229 0 min 0,000 mm 0,0 UV-I 5 W/m -0,9 C 0,7 C 8,0 km/h (2 Bft) 96,15 %
11.02.2018 07:23 0,7 C 3,9 C 89 % 1012,3 hPa 0,0 l/m 6,2 km/h (2 Bft) W-SW 240 0 min 0,000 mm 0,0 UV-I 7 W/m -0,9 C 0,7 C 8,0 km/h (2 Bft) 100,00 %
11.02.2018 07:24 0,7 C 3,9 C 89 % 1012,3 hPa 0,0 l/m 5,8 km/h (2 Bft) W-SW 239 0 min 0,000 mm 0,0 UV-I 7 W/m -0,9 C 0,7 C 8,0 km/h (2 Bft) 100,00 %
11.02.2018 07:25 0,7 C 3,9 C 89 % 1012,3 hPa 0,0 l/m 5,0 km/h (1 Bft) W-SW 254 0 min 0,000 mm 0,0 UV-I 7 W/m -0,9 C 0,7 C 6,4 km/h (2 Bft) 92,59 %
11.02.2018 07:26 0,7 C 3,9 C 89 % 1012,3 hPa 0,0 l/m 5,7 km/h (1 Bft) SW 227 0 min 0,000 mm 0,0 UV-I 7 W/m -0,9 C 0,7 C 8,0 km/h (2 Bft) 95,65 %
11.02.2018 07:27 0,7 C 3,9 C 89 % 1012,3 hPa 0,0 l/m 6,9 km/h (2 Bft) SW 230 0 min 0,000 mm 0,0 UV-I 7 W/m -0,9 C 0,2 C 9,7 km/h (2 Bft) 100,00 %
11.02.2018 07:28 0,7 C 3,9 C 89 % 1012,3 hPa 0,0 l/m 6,4 km/h (2 Bft) W-SW 237 0 min 0,000 mm 0,0 UV-I 7 W/m -0,9 C 0,7 C 8,0 km/h (2 Bft) 95,65 %
11.02.2018 07:29 0,7 C 3,9 C 89 % 1012,3 hPa 0,0 l/m 5,2 km/h (1 Bft) W-SW 239 0 min 0,000 mm 0,0 UV-I 9 W/m -0,9 C 0,7 C 8,0 km/h (2 Bft) 100,00 %
11.02.2018 07:30 0,7 C 3,9 C 89 % 1012,3 hPa 0,0 l/m 4,8 km/h (1 Bft) W-SW 242 0 min 0,000 mm 0,0 UV-I 9 W/m -0,9 C 0,7 C 6,4 km/h (2 Bft) 95,65 %
11.02.2018 07:31 0,6 C 3,9 C 89 % 1012,3 hPa 0,0 l/m 4,2 km/h (1 Bft) SW 224 0 min 0,000 mm 0,0 UV-I 9 W/m -1,0 C 0,6 C 4,8 km/h (1 Bft) 100,00 %
11.02.2018 07:32 0,6 C 3,9 C 89 % 1012,3 hPa 0,0 l/m 3,6 km/h (1 Bft) SW 225 0 min 0,000 mm 0,0 UV-I 9 W/m -1,0 C 0,6 C 4,8 km/h (1 Bft) 91,30 %
11.02.2018 07:33 0,6 C 3,9 C 90 % 1012,3 hPa 0,0 l/m 4,4 km/h (1 Bft) SW 233 0 min 0,000 mm 0,0 UV-I 10 W/m -0,8 C 0,6 C 6,4 km/h (2 Bft) 95,83 %
11.02.2018 07:34 0,6 C 3,9 C 90 % 1012,3 hPa 0,0 l/m 4,5 km/h (1 Bft) SW 225 0 min 0,000 mm 0,0 UV-I 11 W/m -0,8 C 0,6 C 6,4 km/h (2 Bft) 100,00 %
11.02.2018 07:35 0,6 C 3,9 C 90 % 1012,3 hPa 0,0 l/m 4,9 km/h (1 Bft) W-SW 241 0 min 0,000 mm 0,0 UV-I 11 W/m -0,8 C 0,6 C 6,4 km/h (2 Bft) 96,30 %
11.02.2018 07:36 0,6 C 3,9 C 90 % 1012,3 hPa 0,0 l/m 4,7 km/h (1 Bft) W-SW 240 0 min 0,000 mm 0,0 UV-I 11 W/m -0,8 C 0,6 C 6,4 km/h (2 Bft) 100,00 %
11.02.2018 07:38 0,6 C 3,9 C 89 % 1012,3 hPa 0,0 l/m 3,6 km/h (1 Bft) S-SW 208 0 min 0,000 mm 0,0 UV-I 12 W/m -1,0 C 0,6 C 6,4 km/h (2 Bft) 97,62 %
11.02.2018 07:39 0,6 C 3,9 C 89 % 1012,3 hPa 0,0 l/m 4,4 km/h (1 Bft) W-SW 245 0 min 0,000 mm 0,0 UV-I 13 W/m -1,0 C 0,6 C 6,4 km/h (2 Bft) 91,30 %
11.02.2018 07:40 0,6 C 3,9 C 89 % 1012,3 hPa 0,0 l/m 3,2 km/h (1 Bft) W-SW 242 0 min 0,000 mm 0,0 UV-I 14 W/m -1,0 C 0,6 C 4,8 km/h (1 Bft) 100,00 %
11.02.2018 07:41 0,6 C 3,9 C 89 % 1012,3 hPa 0,0 l/m 3,9 km/h (1 Bft) W-SW 242 0 min 0,000 mm 0,0 UV-I 14 W/m -1,0 C 0,6 C 6,4 km/h (2 Bft) 96,15 %
11.02.2018 07:42 0,6 C 3,9 C 89 % 1012,3 hPa 0,0 l/m 4,6 km/h (1 Bft) W-SW 242 0 min 0,000 mm 0,0 UV-I 15 W/m -1,0 C 0,6 C 6,4 km/h (2 Bft) 100,00 %
11.02.2018 07:43 0,6 C 3,9 C 89 % 1012,3 hPa 0,0 l/m 5,5 km/h (1 Bft) SW 228 0 min 0,000 mm 0,0 UV-I 16 W/m -1,0 C 0,6 C 6,4 km/h (2 Bft) 96,15 %
11.02.2018 07:44 0,6 C 3,9 C 89 % 1012,3 hPa 0,0 l/m 5,3 km/h (1 Bft) SW 224 0 min 0,000 mm 0,0 UV-I 16 W/m -1,0 C 0,6 C 6,4 km/h (2 Bft) 100,00 %
11.02.2018 07:45 0,6 C 3,9 C 89 % 1012,3 hPa 0,0 l/m 4,8 km/h (1 Bft) SW 227 0 min 0,000 mm 0,0 UV-I 16 W/m -1,0 C 0,6 C 6,4 km/h (2 Bft) 100,00 %
11.02.2018 07:46 0,6 C 3,9 C 89 % 1012,2 hPa 0,0 l/m 5,2 km/h (1 Bft) SW 230 0 min 0,000 mm 0,0 UV-I 18 W/m -1,0 C 0,6 C 6,4 km/h (2 Bft) 100,00 %
11.02.2018 07:47 0,6 C 3,9 C 89 % 1012,3 hPa 0,0 l/m 4,8 km/h (1 Bft) W-SW 238 0 min 0,000 mm 0,0 UV-I 18 W/m -1,0 C 0,6 C 6,4 km/h (2 Bft) 96,15 %
11.02.2018 07:48 0,6 C 3,9 C 89 % 1012,3 hPa 0,0 l/m 3,7 km/h (1 Bft) W-SW 238 0 min 0,000 mm 0,0 UV-I 19 W/m -1,0 C 0,6 C 4,8 km/h (1 Bft) 100,00 %
11.02.2018 07:49 0,6 C 3,9 C 89 % 1012,3 hPa 0,0 l/m 3,1 km/h (1 Bft) W-SW 238 0 min 0,000 mm 0,0 UV-I 20 W/m -1,0 C 0,6 C 4,8 km/h (1 Bft) 95,65 %
11.02.2018 07:50 0,6 C 3,9 C 89 % 1012,2 hPa 0,0 l/m 3,6 km/h (1 Bft) W-SW 238 0 min 0,000 mm 0,0 UV-I 21 W/m -1,0 C 0,6 C 4,8 km/h (1 Bft) 100,00 %
11.02.2018 07:51 0,6 C 3,9 C 90 % 1012,2 hPa 0,0 l/m 4,2 km/h (1 Bft) W-SW 240 0 min 0,000 mm 0,0 UV-I 22 W/m -0,8 C 0,6 C 6,4 km/h (2 Bft) 95,65 %
11.02.2018 07:52 0,6 C 3,9 C 90 % 1012,2 hPa 0,0 l/m 3,4 km/h (1 Bft) W-SW 240 0 min 0,000 mm 0,0 UV-I 24 W/m -0,8 C 0,6 C 4,8 km/h (1 Bft) 100,00 %
11.02.2018 07:53 0,6 C 3,9 C 90 % 1012,2 hPa 0,0 l/m 4,0 km/h (1 Bft) W-SW 241 0 min 0,000 mm 0,0 UV-I 25 W/m -0,8 C 0,6 C 4,8 km/h (1 Bft) 100,00 %
11.02.2018 07:54 0,6 C 3,9 C 90 % 1012,3 hPa 0,0 l/m 3,6 km/h (1 Bft) W-SW 241 0 min 0,000 mm 0,0 UV-I 26 W/m -0,8 C 0,6 C 4,8 km/h (1 Bft) 100,00 %
11.02.2018 07:55 0,6 C 3,9 C 90 % 1012,3 hPa 0,0 l/m 4,4 km/h (1 Bft) W-SW 239 0 min 0,000 mm 0,0 UV-I 27 W/m -0,8 C 0,6 C 6,4 km/h (2 Bft) 100,00 %
11.02.2018 07:56 0,6 C 3,9 C 90 % 1012,3 hPa 0,0 l/m 4,3 km/h (1 Bft) W-SW 239 0 min 0,000 mm 0,0 UV-I 28 W/m -0,8 C 0,6 C 6,4 km/h (2 Bft) 100,00 %
11.02.2018 07:57 0,6 C 3,9 C 90 % 1012,3 hPa 0,0 l/m 4,0 km/h (1 Bft) W-SW 239 0 min 0,000 mm 0,0 UV-I 29 W/m -0,8 C 0,6 C 4,8 km/h (1 Bft) 100,00 %
11.02.2018 07:58 0,6 C 3,9 C 90 % 1012,2 hPa 0,0 l/m 5,1 km/h (1 Bft) W-SW 242 0 min 0,000 mm 0,0 UV-I 30 W/m -0,8 C 0,6 C 6,4 km/h (2 Bft) 100,00 %
11.02.2018 07:59 0,6 C 3,9 C 90 % 1012,3 hPa 0,0 l/m 4,7 km/h (1 Bft) W-SW 248 0 min 0,000 mm 0,0 UV-I 30 W/m -0,8 C 0,6 C 6,4 km/h (2 Bft) 100,00 %
11.02.2018 08:00 0,6 C 3,9 C 90 % 1012,3 hPa 0,0 l/m 4,0 km/h (1 Bft) W-SW 246 0 min 0,000 mm 0,0 UV-I 31 W/m -0,8 C 0,6 C 4,8 km/h (1 Bft) 100,00 %
11.02.2018 08:01 0,6 C 3,9 C 90 % 1012,3 hPa 0,0 l/m 4,5 km/h (1 Bft) W-SW 246 0 min 0,000 mm 0,0 UV-I 32 W/m -0,8 C 0,6 C 4,8 km/h (1 Bft) 95,83 %
11.02.2018 08:02 0,6 C 3,9 C 90 % 1012,3 hPa 0,0 l/m 3,6 km/h (1 Bft) W-SW 241 0 min 0,000 mm 0,0 UV-I 32 W/m -0,8 C 0,6 C 4,8 km/h (1 Bft) 100,00 %
11.02.2018 08:03 0,6 C 3,9 C 90 % 1012,3 hPa 0,0 l/m 2,8 km/h (1 Bft) W-SW 241 0 min 0,000 mm 0,0 UV-I 32 W/m -0,8 C 0,6 C 4,8 km/h (1 Bft) 100,00 %
11.02.2018 08:04 0,6 C 3,9 C 90 % 1012,3 hPa 0,0 l/m 4,2 km/h (1 Bft) W-SW 241 0 min 0,000 mm 0,0 UV-I 32 W/m -0,8 C 0,6 C 6,4 km/h (2 Bft) 100,00 %
11.02.2018 08:05 0,6 C 3,9 C 89 % 1012,3 hPa 0,0 l/m 3,5 km/h (1 Bft) W-SW 239 0 min 0,000 mm 0,0 UV-I 33 W/m -1,0 C 0,6 C 6,4 km/h (2 Bft) 100,00 %
11.02.2018 08:06 0,6 C 3,9 C 90 % 1012,3 hPa 0,0 l/m 4,0 km/h (1 Bft) W-SW 240 0 min 0,000 mm 0,0 UV-I 36 W/m -0,8 C 0,6 C 6,4 km/h (2 Bft) 100,00 %
11.02.2018 08:07 0,6 C 3,9 C 89 % 1012,3 hPa 0,0 l/m 4,4 km/h (1 Bft) SW 235 0 min 0,000 mm 0,0 UV-I 38 W/m -1,0 C 0,6 C 4,8 km/h (1 Bft) 100,00 %
11.02.2018 08:08 0,6 C 3,9 C 90 % 1012,3 hPa 0,0 l/m 4,0 km/h (1 Bft) SW 235 0 min 0,000 mm 0,0 UV-I 39 W/m -0,8 C 0,6 C 4,8 km/h (1 Bft) 100,00 %
11.02.2018 08:09 0,6 C 3,9 C 89 % 1012,3 hPa 0,0 l/m 4,1 km/h (1 Bft) SW 235 0 min 0,000 mm 0,0 UV-I 40 W/m -1,0 C 0,6 C 4,8 km/h (1 Bft) 100,00 %
11.02.2018 08:10 0,6 C 3,9 C 89 % 1012,3 hPa 0,0 l/m 4,4 km/h (1 Bft) SW 221 0 min 0,000 mm 0,0 UV-I 42 W/m -1,0 C 0,6 C 4,8 km/h (1 Bft) 100,00 %
11.02.2018 08:11 0,6 C 3,9 C 89 % 1012,3 hPa 0,0 l/m 3,4 km/h (1 Bft) SW 231 0 min 0,000 mm 0,0 UV-I 42 W/m -1,0 C 0,6 C 4,8 km/h (1 Bft) 100,00 %
11.02.2018 08:12 0,6 C 3,9 C 89 % 1012,3 hPa 0,0 l/m 4,1 km/h (1 Bft) SW 232 0 min 0,000 mm 0,0 UV-I 42 W/m -1,0 C 0,6 C 4,8 km/h (1 Bft) 96,15 %
11.02.2018 08:13 0,6 C 3,9 C 89 % 1012,2 hPa 0,0 l/m 3,4 km/h (1 Bft) SW 234 0 min 0,000 mm 0,0 UV-I 43 W/m -1,0 C 0,6 C 4,8 km/h (1 Bft) 95,83 %
11.02.2018 08:14 0,6 C 3,9 C 90 % 1012,2 hPa 0,0 l/m 3,2 km/h (1 Bft) W-SW 238 0 min 0,000 mm 0,0 UV-I 44 W/m -0,8 C 0,6 C 4,8 km/h (1 Bft) 100,00 %
11.02.2018 08:15 0,6 C 3,9 C 89 % 1012,2 hPa 0,0 l/m 4,2 km/h (1 Bft) SW 235 0 min 0,000 mm 0,0 UV-I 44 W/m -1,0 C 0,6 C 4,8 km/h (1 Bft) 100,00 %
11.02.2018 08:16 0,6 C 3,9 C 89 % 1012,2 hPa 0,0 l/m 4,2 km/h (1 Bft) SW 234 0 min 0,000 mm 0,0 UV-I 44 W/m -1,0 C 0,6 C 6,4 km/h (2 Bft) 100,00 %
11.02.2018 08:17 0,7 C 3,9 C 89 % 1012,2 hPa 0,0 l/m 4,3 km/h (1 Bft) SW 234 0 min 0,000 mm 0,0 UV-I 46 W/m -0,9 C 0,7 C 6,4 km/h (2 Bft) 100,00 %
11.02.2018 08:18 0,7 C 3,9 C 89 % 1012,2 hPa 0,0 l/m 3,6 km/h (1 Bft) SW 234 0 min 0,000 mm 0,0 UV-I 46 W/m -0,9 C 0,7 C 4,8 km/h (1 Bft) 100,00 %
11.02.2018 08:19 0,7 C 3,9 C 89 % 1012,2 hPa 0,0 l/m 3,4 km/h (1 Bft) SW 234 0 min 0,000 mm 0,0 UV-I 48 W/m -0,9 C 0,7 C 4,8 km/h (1 Bft) 91,30 %
11.02.2018 08:20 0,7 C 3,9 C 89 % 1012,2 hPa 0,0 l/m 3,4 km/h (1 Bft) SW 234 0 min 0,000 mm 0,0 UV-I 50 W/m -0,9 C 0,7 C 4,8 km/h (1 Bft) 100,00 %
11.02.2018 08:21 0,7 C 3,9 C 89 % 1012,2 hPa 0,0 l/m 3,9 km/h (1 Bft) SW 235 0 min 0,000 mm 0,0 UV-I 51 W/m -0,9 C 0,7 C 6,4 km/h (2 Bft) 96,15 %
11.02.2018 08:22 0,7 C 3,9 C 89 % 1012,2 hPa 0,0 l/m 3,5 km/h (1 Bft) SW 234 0 min 0,000 mm 0,0 UV-I 53 W/m -0,9 C 0,7 C 4,8 km/h (1 Bft) 100,00 %
11.02.2018 08:23 0,7 C 3,9 C 89 % 1012,2 hPa 0,0 l/m 4,1 km/h (1 Bft) SW 226 0 min 0,000 mm 0,0 UV-I 53 W/m -0,9 C 0,7 C 6,4 km/h (2 Bft) 100,00 %
11.02.2018 08:24 0,7 C 3,9 C 89 % 1012,2 hPa 0,0 l/m 4,0 km/h (1 Bft) SW 227 0 min 0,000 mm 0,0 UV-I 54 W/m -0,9 C 0,7 C 6,4 km/h (2 Bft) 95,83 %
11.02.2018 08:25 0,7 C 3,9 C 89 % 1012,2 hPa 0,0 l/m 4,7 km/h (1 Bft) SW 227 0 min 0,000 mm 0,0 UV-I 55 W/m -0,9 C 0,7 C 6,4 km/h (2 Bft) 100,00 %
11.02.2018 08:26 0,7 C 3,9 C 89 % 1012,2 hPa 0,0 l/m 3,6 km/h (1 Bft) SW 235 0 min 0,000 mm 0,0 UV-I 56 W/m -0,9 C 0,7 C 4,8 km/h (1 Bft) 100,00 %
11.02.2018 08:27 0,8 C 3,9 C 89 % 1012,2 hPa 0,0 l/m 3,7 km/h (1 Bft) SW 234 0 min 0,000 mm 0,0 UV-I 56 W/m -0,8 C 0,8 C 4,8 km/h (1 Bft) 96,15 %
11.02.2018 08:28 0,8 C 3,9 C 89 % 1012,2 hPa 0,0 l/m 4,3 km/h (1 Bft) SW 236 0 min 0,000 mm 0,0 UV-I 56 W/m -0,8 C 0,8 C 4,8 km/h (1 Bft) 100,00 %
11.02.2018 08:29 0,8 C 3,9 C 89 % 1012,2 hPa 0,0 l/m 4,7 km/h (1 Bft) SW 236 0 min 0,000 mm 0,0 UV-I 57 W/m -0,8 C 0,8 C 6,4 km/h (2 Bft) 95,65 %
11.02.2018 08:30 0,8 C 3,9 C 89 % 1012,1 hPa 0,0 l/m 4,2 km/h (1 Bft) SW 224 0 min 0,000 mm 0,0 UV-I 61 W/m -0,8 C 0,8 C 4,8 km/h (1 Bft) 100,00 %
11.02.2018 08:31 0,8 C 3,9 C 89 % 1012,1 hPa 0,0 l/m 4,9 km/h (1 Bft) W-SW 246 0 min 0,000 mm 0,0 UV-I 64 W/m -0,8 C 0,8 C 6,4 km/h (2 Bft) 100,00 %
11.02.2018 08:32 0,8 C 3,9 C 89 % 1012,1 hPa 0,0 l/m 3,9 km/h (1 Bft) W-SW 246 0 min 0,000 mm 0,0 UV-I 68 W/m -0,8 C 0,8 C 4,8 km/h (1 Bft) 100,00 %
11.02.2018 08:33 0,8 C 3,9 C 89 % 1012,1 hPa 0,0 l/m 2,8 km/h (1 Bft) W-SW 246 0 min 0,000 mm 0,0 UV-I 70 W/m -0,8 C 0,8 C 4,8 km/h (1 Bft) 100,00 %
11.02.2018 08:34 0,8 C 3,9 C 89 % 1012,1 hPa 0,0 l/m 2,3 km/h (1 Bft) W-SW 246 0 min 0,000 mm 0,0 UV-I 72 W/m -0,8 C 0,8 C 3,2 km/h (1 Bft) 96,15 %
11.02.2018 08:35 0,8 C 3,9 C 89 % 1012,1 hPa 0,0 l/m 4,1 km/h (1 Bft) W-SW 246 0 min 0,000 mm 0,0 UV-I 75 W/m -0,8 C 0,8 C 6,4 km/h (2 Bft) 100,00 %
11.02.2018 08:36 0,8 C 3,9 C 88 % 1012,1 hPa 0,0 l/m 4,1 km/h (1 Bft) W-SW 255 0 min 0,000 mm 0,0 UV-I 75 W/m -1,0 C 0,8 C 4,8 km/h (1 Bft) 100,00 %
11.02.2018 08:37 0,8 C 3,9 C 88 % 1012,1 hPa 0,0 l/m 2,8 km/h (1 Bft) W-SW 245 0 min 0,000 mm 0,0 UV-I 74 W/m -1,0 C 0,8 C 4,8 km/h (1 Bft) 100,00 %
11.02.2018 08:38 0,8 C 3,9 C 88 % 1012,0 hPa 0,0 l/m 3,1 km/h (1 Bft) W-SW 243 0 min 0,000 mm 0,0 UV-I 72 W/m -1,0 C 0,8 C 4,8 km/h (1 Bft) 100,00 %
11.02.2018 08:39 0,8 C 3,9 C 88 % 1012,0 hPa 0,0 l/m 4,1 km/h (1 Bft) W-SW 242 0 min 0,000 mm 0,0 UV-I 70 W/m -1,0 C 0,8 C 4,8 km/h (1 Bft) 100,00 %
11.02.2018 08:40 0,8 C 3,9 C 88 % 1012,0 hPa 0,0 l/m 3,1 km/h (1 Bft) W-SW 243 0 min 0,000 mm 0,0 UV-I 66 W/m -1,0 C 0,8 C 4,8 km/h (1 Bft) 100,00 %
11.02.2018 08:41 0,8 C 3,9 C 88 % 1012,0 hPa 0,0 l/m 3,3 km/h (1 Bft) W-SW 242 0 min 0,000 mm 0,0 UV-I 61 W/m -1,0 C 0,8 C 4,8 km/h (1 Bft) 100,00 %
11.02.2018 08:42 0,8 C 3,9 C 88 % 1012,0 hPa 0,0 l/m 3,8 km/h (1 Bft) W-SW 242 0 min 0,000 mm 0,0 UV-I 54 W/m -1,0 C 0,8 C 4,8 km/h (1 Bft) 100,00 %
11.02.2018 08:43 0,8 C 3,9 C 88 % 1012,0 hPa 0,0 l/m 4,2 km/h (1 Bft) W-SW 242 0 min 0,000 mm 0,0 UV-I 48 W/m -1,0 C 0,8 C 4,8 km/h (1 Bft) 100,00 %
11.02.2018 08:44 0,7 C 3,9 C 88 % 1012,0 hPa 0,0 l/m 3,1 km/h (1 Bft) W-SW 242 0 min 0,000 mm 0,0 UV-I 45 W/m -1,1 C 0,7 C 4,8 km/h (1 Bft) 100,00 %
11.02.2018 08:45 0,7 C 3,9 C 88 % 1012,0 hPa 0,0 l/m 3,4 km/h (1 Bft) W-SW 237 0 min 0,000 mm 0,0 UV-I 42 W/m -1,1 C 0,7 C 4,8 km/h (1 Bft) 100,00 %
11.02.2018 08:46 0,7 C 3,9 C 88 % 1012,0 hPa 0,0 l/m 3,8 km/h (1 Bft) W-SW 237 0 min 0,000 mm 0,0 UV-I 44 W/m -1,1 C 0,7 C 4,8 km/h (1 Bft) 100,00 %
11.02.2018 08:47 0,7 C 3,9 C 88 % 1012,0 hPa 0,0 l/m 4,0 km/h (1 Bft) SW 231 0 min 0,000 mm 0,0 UV-I 47 W/m -1,1 C 0,7 C 6,4 km/h (2 Bft) 100,00 %
11.02.2018 08:48 0,7 C 3,9 C 88 % 1012,0 hPa 0,0 l/m 3,8 km/h (1 Bft) SW 230 0 min 0,000 mm 0,0 UV-I 52 W/m -1,1 C 0,7 C 4,8 km/h (1 Bft) 100,00 %
11.02.2018 08:49 0,7 C 3,9 C 88 % 1012,0 hPa 0,0 l/m 3,4 km/h (1 Bft) SW 229 0 min 0,000 mm 0,0 UV-I 60 W/m -1,1 C 0,7 C 4,8 km/h (1 Bft) 100,00 %
11.02.2018 08:50 0,7 C 3,9 C 88 % 1011,9 hPa 0,0 l/m 3,2 km/h (1 Bft) SW 229 0 min 0,000 mm 0,0 UV-I 66 W/m -1,1 C 0,7 C 4,8 km/h (1 Bft) 92,31 %
11.02.2018 08:51 0,7 C 3,9 C 88 % 1011,9 hPa 0,0 l/m 3,0 km/h (1 Bft) SW 229 0 min 0,000 mm 0,0 UV-I 72 W/m -1,1 C 0,7 C 4,8 km/h (1 Bft) 95,83 %
11.02.2018 08:52 0,6 C 3,9 C 88 % 1011,9 hPa 0,0 l/m 2,7 km/h (1 Bft) SW 229 0 min 0,000 mm 0,0 UV-I 87 W/m -1,2 C 0,6 C 3,2 km/h (1 Bft) 91,30 %
11.02.2018 08:53 0,6 C 3,9 C 88 % 1011,9 hPa 0,0 l/m 1,5 km/h (1 Bft) SW 229 1 min 0,000 mm 0,0 UV-I 157 W/m -1,2 C 0,6 C 3,2 km/h (1 Bft) 100,00 %
11.02.2018 08:54 0,6 C 3,9 C 88 % 1011,9 hPa 0,0 l/m 1,5 km/h (1 Bft) SW 229 1 min 0,000 mm 0,0 UV-I 174 W/m -1,2 C 0,6 C 3,2 km/h (1 Bft) 95,65 %
11.02.2018 08:55 0,6 C 3,9 C 88 % 1011,9 hPa 0,0 l/m 2,4 km/h (1 Bft) SW 229 1 min 0,000 mm 0,0 UV-I 196 W/m -1,2 C 0,6 C 4,8 km/h (1 Bft) 100,00 %
11.02.2018 08:56 0,6 C 3,9 C 88 % 1011,8 hPa 0,0 l/m 2,0 km/h (1 Bft) SW 229 1 min 0,000 mm 0,0 UV-I 200 W/m -1,2 C 0,6 C 3,2 km/h (1 Bft) 95,65 %
11.02.2018 08:57 0,6 C 3,9 C 88 % 1011,8 hPa 0,0 l/m 1,6 km/h (1 Bft) SW 229 1 min 0,000 mm 0,0 UV-I 197 W/m -1,2 C 0,6 C 3,2 km/h (1 Bft) 95,83 %
11.02.2018 08:58 0,7 C 3,9 C 88 % 1011,8 hPa 0,0 l/m 2,4 km/h (1 Bft) SW 229 1 min 0,000 mm 0,0 UV-I 201 W/m -1,1 C 0,7 C 3,2 km/h (1 Bft) 95,83 %
11.02.2018 08:59 0,7 C 3,9 C 88 % 1011,8 hPa 0,0 l/m 3,2 km/h (1 Bft) SW 229 1 min 0,000 mm 0,0 UV-I 210 W/m -1,1 C 0,7 C 4,8 km/h (1 Bft) 95,65 %
11.02.2018 09:00 0,8 C 3,9 C 88 % 1011,8 hPa 0,0 l/m 1,2 km/h (1 Bft) SW 229 1 min 0,000 mm 0,0 UV-I 217 W/m -1,0 C 0,8 C 1,6 km/h (1 Bft) 100,00 %
11.02.2018 09:01 0,8 C 3,9 C 88 % 1011,8 hPa 0,0 l/m 2,9 km/h (1 Bft) SW 229 1 min 0,025 mm 0,0 UV-I 217 W/m -1,0 C 0,8 C 4,8 km/h (1 Bft) 100,00 %
11.02.2018 09:02 0,8 C 3,9 C 88 % 1011,8 hPa 0,0 l/m 2,2 km/h (1 Bft) SW 229 1 min 0,000 mm 0,0 UV-I 218 W/m -1,0 C 0,8 C 4,8 km/h (1 Bft) 95,83 %
11.02.2018 09:03 0,9 C 3,9 C 87 % 1011,8 hPa 0,0 l/m 3,3 km/h (1 Bft) SW 229 1 min 0,000 mm 0,0 UV-I 220 W/m -1,0 C 0,9 C 4,8 km/h (1 Bft) 91,30 %
11.02.2018 09:04 0,9 C 3,9 C 87 % 1011,8 hPa 0,0 l/m 1,9 km/h (1 Bft) SW 228 1 min 0,000 mm 0,0 UV-I 222 W/m -1,0 C 0,9 C 4,8 km/h (1 Bft) 100,00 %
11.02.2018 09:05 0,9 C 3,9 C 87 % 1011,7 hPa 0,0 l/m 2,8 km/h (1 Bft) S-SW 202 1 min 0,000 mm 0,0 UV-I 230 W/m -1,0 C 0,9 C 4,8 km/h (1 Bft) 96,55 %
11.02.2018 09:06 0,9 C 3,9 C 87 % 1011,6 hPa 0,0 l/m 4,3 km/h (1 Bft) S-SW 201 1 min 0,000 mm 0,0 UV-I 231 W/m -1,0 C 0,9 C 6,4 km/h (2 Bft) 100,00 %
11.02.2018 09:07 0,9 C 3,9 C 87 % 1011,7 hPa 0,0 l/m 3,0 km/h (1 Bft) S-SW 201 1 min 0,000 mm 0,0 UV-I 230 W/m -1,0 C 0,9 C 4,8 km/h (1 Bft) 96,15 %
11.02.2018 09:08 1,0 C 3,9 C 87 % 1011,6 hPa 0,0 l/m 2,0 km/h (1 Bft) S-SW 201 1 min 0,000 mm 0,0 UV-I 233 W/m -0,9 C 1,0 C 3,2 km/h (1 Bft) 100,00 %
11.02.2018 09:09 1,0 C 3,9 C 86 % 1011,6 hPa 0,0 l/m 1,9 km/h (1 Bft) S-SW 201 1 min 0,000 mm 0,0 UV-I 239 W/m -1,1 C 1,0 C 4,8 km/h (1 Bft) 95,65 %
11.02.2018 09:10 1,1 C 3,9 C 87 % 1011,6 hPa 0,0 l/m 0,9 km/h (0 Bft) S-SW 201 1 min 0,000 mm 0,0 UV-I 244 W/m -0,8 C 1,1 C 1,6 km/h (1 Bft) 95,83 %
11.02.2018 09:11 1,1 C 3,9 C 86 % 1011,6 hPa 0,0 l/m 2,4 km/h (1 Bft) S-SW 201 1 min 0,000 mm 0,0 UV-I 247 W/m -1,0 C 1,1 C 4,8 km/h (1 Bft) 100,00 %
11.02.2018 09:12 1,1 C 3,9 C 86 % 1011,6 hPa 0,0 l/m 3,8 km/h (1 Bft) S-SW 201 1 min 0,000 mm 0,0 UV-I 252 W/m -1,0 C 1,1 C 4,8 km/h (1 Bft) 96,55 %
11.02.2018 09:13 1,2 C 3,9 C 86 % 1011,5 hPa 0,0 l/m 2,0 km/h (1 Bft) S-SW 201 1 min 0,000 mm 0,0 UV-I 254 W/m -0,9 C 1,2 C 3,2 km/h (1 Bft) 100,00 %
11.02.2018 09:14 1,3 C 3,9 C 86 % 1011,5 hPa 0,0 l/m 1,0 km/h (0 Bft) S-SW 201 1 min 0,000 mm 0,0 UV-I 255 W/m -0,8 C 1,3 C 3,2 km/h (1 Bft) 93,75 %
11.02.2018 09:15 1,3 C 3,9 C 85 % 1011,5 hPa 0,0 l/m 0,5 km/h (0 Bft) S-SW 201 1 min 0,000 mm 0,0 UV-I 262 W/m -0,9 C 1,3 C 1,6 km/h (1 Bft) 100,00 %
11.02.2018 09:16 1,3 C 3,9 C 85 % 1011,5 hPa 0,0 l/m 2,5 km/h (1 Bft) S-SW 200 1 min 0,000 mm 0,0 UV-I 264 W/m -0,9 C 1,3 C 4,8 km/h (1 Bft) 95,65 %
11.02.2018 09:17 1,4 C 3,9 C 85 % 1011,5 hPa 0,0 l/m 4,7 km/h (1 Bft) S-SW 197 1 min 0,000 mm 0,0 UV-I 265 W/m -0,8 C 1,4 C 6,4 km/h (2 Bft) 100,00 %
11.02.2018 09:18 1,4 C 3,9 C 85 % 1011,5 hPa 0,0 l/m 1,1 km/h (1 Bft) S-SW 197 1 min 0,000 mm 0,0 UV-I 268 W/m -0,8 C 1,4 C 3,2 km/h (1 Bft) 96,55 %
11.02.2018 09:19 1,4 C 3,9 C 84 % 1011,5 hPa 0,0 l/m 2,6 km/h (1 Bft) S-SW 197 1 min 0,000 mm 0,0 UV-I 270 W/m -1,0 C 1,4 C 4,8 km/h (1 Bft) 100,00 %
11.02.2018 09:20 1,4 C 3,9 C 84 % 1011,5 hPa 0,0 l/m 3,4 km/h (1 Bft) S-SW 197 1 min 0,000 mm 0,0 UV-I 272 W/m -1,0 C 1,4 C 4,8 km/h (1 Bft) 94,74 %
11.02.2018 09:21 1,4 C 3,9 C 84 % 1011,5 hPa 0,0 l/m 3,2 km/h (1 Bft) S-SW 198 1 min 0,000 mm 0,0 UV-I 274 W/m -1,0 C 1,4 C 4,8 km/h (1 Bft) 91,67 %
11.02.2018 09:22 1,4 C 3,9 C 84 % 1011,5 hPa 0,0 l/m 4,6 km/h (1 Bft) S-SW 195 1 min 0,000 mm 0,0 UV-I 278 W/m -1,0 C 1,4 C 4,8 km/h (1 Bft) 95,65 %
11.02.2018 09:23 1,5 C 3,9 C 84 % 1011,5 hPa 0,0 l/m 4,3 km/h (1 Bft) S-SW 198 1 min 0,000 mm 0,0 UV-I 278 W/m -0,9 C 1,5 C 4,8 km/h (1 Bft) 100,00 %
11.02.2018 09:24 1,6 C 3,9 C 84 % 1011,5 hPa 0,0 l/m 4,2 km/h (1 Bft) S-SW 198 1 min 0,000 mm 0,0 UV-I 282 W/m -0,8 C 1,6 C 6,4 km/h (2 Bft) 100,00 %
11.02.2018 09:25 1,7 C 3,9 C 84 % 1011,5 hPa 0,0 l/m 2,9 km/h (1 Bft) S-SW 198 1 min 0,000 mm 0,0 UV-I 284 W/m -0,7 C 1,7 C 4,8 km/h (1 Bft) 100,00 %
11.02.2018 09:26 1,7 C 3,9 C 84 % 1011,4 hPa 0,0 l/m 2,5 km/h (1 Bft) S-SW 198 1 min 0,000 mm 0,0 UV-I 287 W/m -0,7 C 1,7 C 4,8 km/h (1 Bft) 100,00 %
11.02.2018 09:27 1,7 C 3,9 C 84 % 1011,5 hPa 0,0 l/m 3,9 km/h (1 Bft) S-SW 202 1 min 0,000 mm 0,0 UV-I 288 W/m -0,7 C 1,7 C 4,8 km/h (1 Bft) 100,00 %
11.02.2018 09:28 1,8 C 3,9 C 84 % 1011,4 hPa 0,0 l/m 4,8 km/h (1 Bft) S 175 1 min 0,000 mm 0,0 UV-I 289 W/m -0,6 C 1,8 C 6,4 km/h (2 Bft) 100,00 %
11.02.2018 09:29 1,8 C 3,9 C 84 % 1011,5 hPa 0,0 l/m 4,8 km/h (1 Bft) S-SW 203 1 min 0,000 mm 0,0 UV-I 293 W/m -0,6 C 1,8 C 6,4 km/h (2 Bft) 100,00 %
11.02.2018 09:30 1,8 C 3,9 C 83 % 1011,5 hPa 0,0 l/m 4,2 km/h (1 Bft) S-SW 198 1 min 0,000 mm 0,0 UV-I 296 W/m -0,8 C 1,8 C 6,4 km/h (2 Bft) 100,00 %
11.02.2018 09:31 1,8 C 3,9 C 83 % 1011,5 hPa 0,0 l/m 4,9 km/h (1 Bft) SW 225 1 min 0,000 mm 0,0 UV-I 297 W/m -0,8 C 1,8 C 6,4 km/h (2 Bft) 100,00 %
11.02.2018 09:32 1,8 C 3,9 C 83 % 1011,4 hPa 0,0 l/m 5,1 km/h (1 Bft) SW 214 1 min 0,000 mm 0,0 UV-I 300 W/m -0,8 C 1,8 C 6,4 km/h (2 Bft) 100,00 %
11.02.2018 09:33 1,8 C 3,9 C 83 % 1011,5 hPa 0,0 l/m 4,7 km/h (1 Bft) S-SW 197 1 min 0,000 mm 0,0 UV-I 302 W/m -0,8 C 1,8 C 8,0 km/h (2 Bft) 100,00 %
11.02.2018 09:34 1,8 C 3,9 C 83 % 1011,5 hPa 0,0 l/m 4,3 km/h (1 Bft) S 177 1 min 0,000 mm 0,0 UV-I 305 W/m -0,8 C 1,8 C 6,4 km/h (2 Bft) 100,00 %
11.02.2018 09:35 1,7 C 3,9 C 83 % 1011,4 hPa 0,0 l/m 4,3 km/h (1 Bft) SW 217 1 min 0,000 mm 0,0 UV-I 307 W/m -0,9 C 1,7 C 6,4 km/h (2 Bft) 100,00 %
11.02.2018 09:36 1,7 C 3,9 C 83 % 1011,4 hPa 0,0 l/m 6,1 km/h (2 Bft) S-SW 213 1 min 0,000 mm 0,3 UV-I 308 W/m -0,9 C 1,7 C 8,0 km/h (2 Bft) 100,00 %
11.02.2018 09:37 1,8 C 3,9 C 83 % 1011,5 hPa 0,0 l/m 5,4 km/h (1 Bft) S-SW 211 1 min 0,000 mm 0,5 UV-I 309 W/m -0,8 C 1,8 C 6,4 km/h (2 Bft) 100,00 %
11.02.2018 09:38 1,8 C 3,9 C 83 % 1011,4 hPa 0,0 l/m 2,7 km/h (1 Bft) S-SW 211 1 min 0,000 mm 0,5 UV-I 312 W/m -0,8 C 1,8 C 3,2 km/h (1 Bft) 100,00 %
11.02.2018 09:39 1,8 C 3,9 C 83 % 1011,4 hPa 0,0 l/m 2,1 km/h (1 Bft) S-SW 212 1 min 0,000 mm 0,5 UV-I 315 W/m -0,8 C 1,8 C 3,2 km/h (1 Bft) 100,00 %
11.02.2018 09:40 1,8 C 3,9 C 83 % 1011,3 hPa 0,0 l/m 3,7 km/h (1 Bft) SW 227 1 min 0,000 mm 0,5 UV-I 315 W/m -0,8 C 1,8 C 6,4 km/h (2 Bft) 100,00 %
11.02.2018 09:41 1,8 C 3,9 C 83 % 1011,3 hPa 0,0 l/m 3,7 km/h (1 Bft) S-SW 198 1 min 0,000 mm 0,5 UV-I 318 W/m -0,8 C 1,8 C 4,8 km/h (1 Bft) 100,00 %
11.02.2018 09:42 1,9 C 3,9 C 83 % 1011,3 hPa 0,0 l/m 5,0 km/h (1 Bft) S-SW 198 1 min 0,000 mm 0,5 UV-I 321 W/m -0,7 C 1,9 C 8,0 km/h (2 Bft) 96,30 %
11.02.2018 09:43 1,9 C 3,9 C 82 % 1011,3 hPa 0,0 l/m 5,0 km/h (1 Bft) S-SW 200 1 min 0,000 mm 0,5 UV-I 323 W/m -0,8 C 1,9 C 8,0 km/h (2 Bft) 100,00 %
11.02.2018 09:44 2,0 C 3,9 C 82 % 1011,3 hPa 0,0 l/m 5,2 km/h (1 Bft) S-SW 200 1 min 0,000 mm 0,5 UV-I 325 W/m -0,7 C 2,0 C 8,0 km/h (2 Bft) 95,83 %
11.02.2018 09:45 2,0 C 3,9 C 82 % 1011,3 hPa 0,0 l/m 3,3 km/h (1 Bft) S 169 1 min 0,000 mm 0,5 UV-I 327 W/m -0,7 C 2,0 C 6,4 km/h (2 Bft) 100,00 %
11.02.2018 09:46 2,1 C 3,9 C 82 % 1011,3 hPa 0,0 l/m 5,3 km/h (1 Bft) S-SW 203 1 min 0,000 mm 0,5 UV-I 329 W/m -0,6 C 2,1 C 8,0 km/h (2 Bft) 100,00 %
11.02.2018 09:47 2,1 C 3,9 C 82 % 1011,3 hPa 0,0 l/m 1,9 km/h (1 Bft) S-SW 202 1 min 0,000 mm 0,5 UV-I 330 W/m -0,6 C 2,1 C 4,8 km/h (1 Bft) 100,00 %
11.02.2018 09:48 2,0 C 3,9 C 81 % 1011,2 hPa 0,0 l/m 3,8 km/h (1 Bft) S 178 1 min 0,000 mm 0,5 UV-I 333 W/m -0,9 C 2,0 C 6,4 km/h (2 Bft) 93,33 %
11.02.2018 09:49 2,0 C 3,9 C 81 % 1011,2 hPa 0,0 l/m 5,3 km/h (1 Bft) S 174 1 min 0,000 mm 0,5 UV-I 336 W/m -0,9 C 2,0 C 9,7 km/h (2 Bft) 100,00 %
11.02.2018 09:50 1,9 C 3,9 C 82 % 1011,2 hPa 0,0 l/m 4,3 km/h (1 Bft) S 175 1 min 0,000 mm 0,5 UV-I 338 W/m -0,8 C 1,9 C 6,4 km/h (2 Bft) 100,00 %
11.02.2018 09:51 1,9 C 3,9 C 81 % 1011,2 hPa 0,0 l/m 3,2 km/h (1 Bft) S 178 1 min 0,000 mm 0,5 UV-I 341 W/m -1,0 C 1,9 C 4,8 km/h (1 Bft) 100,00 %
11.02.2018 09:52 1,9 C 3,9 C 82 % 1011,2 hPa 0,0 l/m 2,6 km/h (1 Bft) S 177 1 min 0,000 mm 0,5 UV-I 345 W/m -0,8 C 1,9 C 4,8 km/h (1 Bft) 100,00 %
11.02.2018 09:53 1,9 C 3,9 C 81 % 1011,2 hPa 0,0 l/m 2,5 km/h (1 Bft) S-SW 208 1 min 0,000 mm 0,5 UV-I 346 W/m -1,0 C 1,9 C 4,8 km/h (1 Bft) 100,00 %
11.02.2018 09:54 1,9 C 3,9 C 82 % 1011,2 hPa 0,0 l/m 2,6 km/h (1 Bft) S-SW 208 1 min 0,000 mm 0,6 UV-I 347 W/m -0,8 C 1,9 C 4,8 km/h (1 Bft) 100,00 %
11.02.2018 09:55 2,0 C 3,9 C 82 % 1011,1 hPa 0,0 l/m 1,3 km/h (1 Bft) S-SW 208 1 min 0,000 mm 0,6 UV-I 350 W/m -0,7 C 2,0 C 1,6 km/h (1 Bft) 100,00 %
11.02.2018 09:56 2,0 C 3,9 C 81 % 1011,1 hPa 0,0 l/m 1,5 km/h (1 Bft) S-SW 202 1 min 0,000 mm 0,6 UV-I 348 W/m -0,9 C 2,0 C 4,8 km/h (1 Bft) 95,65 %
11.02.2018 09:57 2,0 C 3,9 C 81 % 1011,1 hPa 0,0 l/m 4,6 km/h (1 Bft) S-SW 205 1 min 0,000 mm 0,6 UV-I 349 W/m -0,9 C 2,0 C 8,0 km/h (2 Bft) 100,00 %
11.02.2018 09:58 2,1 C 3,9 C 81 % 1011,1 hPa 0,0 l/m 3,7 km/h (1 Bft) S-SW 208 1 min 0,000 mm 0,6 UV-I 348 W/m -0,8 C 2,1 C 6,4 km/h (2 Bft) 100,00 %
11.02.2018 09:59 2,2 C 3,9 C 81 % 1011,1 hPa 0,0 l/m 4,9 km/h (1 Bft) S-SW 207 1 min 0,000 mm 0,6 UV-I 352 W/m -0,7 C 2,2 C 8,0 km/h (2 Bft) 100,00 %
11.02.2018 10:00 2,3 C 3,9 C 80 % 1011,1 hPa 0,0 l/m 3,1 km/h (1 Bft) S-SW 207 1 min 0,000 mm 0,6 UV-I 355 W/m -0,8 C 2,3 C 4,8 km/h (1 Bft) 96,55 %
11.02.2018 10:01 2,3 C 3,9 C 80 % 1011,1 hPa 0,0 l/m 3,4 km/h (1 Bft) S-SW 207 1 min 0,102 mm 0,6 UV-I 361 W/m -0,8 C 2,3 C 4,8 km/h (1 Bft) 100,00 %
11.02.2018 10:02 2,3 C 3,9 C 79 % 1011,1 hPa 0,0 l/m 2,5 km/h (1 Bft) S-SW 203 1 min 0,000 mm 0,6 UV-I 364 W/m -1,0 C 2,3 C 4,8 km/h (1 Bft) 95,65 %
11.02.2018 10:03 2,3 C 3,9 C 80 % 1011,1 hPa 0,0 l/m 2,1 km/h (1 Bft) S-SW 202 1 min 0,000 mm 0,6 UV-I 366 W/m -0,8 C 2,3 C 4,8 km/h (1 Bft) 100,00 %
11.02.2018 10:04 2,2 C 3,9 C 79 % 1011,1 hPa 0,0 l/m 3,2 km/h (1 Bft) S-SW 200 1 min 0,000 mm 0,6 UV-I 368 W/m -1,1 C 2,2 C 4,8 km/h (1 Bft) 100,00 %
11.02.2018 10:05 2,3 C 3,9 C 80 % 1011,0 hPa 0,0 l/m 5,0 km/h (1 Bft) S-SW 200 1 min 0,000 mm 0,6 UV-I 371 W/m -0,8 C 2,3 C 6,4 km/h (2 Bft) 95,83 %
11.02.2018 10:06 2,3 C 3,9 C 80 % 1011,0 hPa 0,0 l/m 3,6 km/h (1 Bft) S-SW 195 1 min 0,000 mm 0,6 UV-I 373 W/m -0,8 C 2,3 C 4,8 km/h (1 Bft) 100,00 %
11.02.2018 10:07 2,4 C 3,9 C 79 % 1011,0 hPa 0,0 l/m 3,5 km/h (1 Bft) S 170 1 min 0,000 mm 0,6 UV-I 374 W/m -0,9 C 2,4 C 6,4 km/h (2 Bft) 100,00 %
11.02.2018 10:08 2,4 C 3,9 C 79 % 1011,0 hPa 0,0 l/m 4,1 km/h (1 Bft) SW 223 1 min 0,000 mm 0,6 UV-I 376 W/m -0,9 C 2,4 C 6,4 km/h (2 Bft) 100,00 %
11.02.2018 10:09 2,4 C 3,9 C 78 % 1011,0 hPa 0,0 l/m 5,3 km/h (1 Bft) W 280 1 min 0,000 mm 0,6 UV-I 379 W/m -1,0 C 2,4 C 6,4 km/h (2 Bft) 95,65 %
11.02.2018 10:10 2,4 C 3,9 C 78 % 1011,0 hPa 0,0 l/m 6,2 km/h (2 Bft) W-SW 240 1 min 0,000 mm 0,7 UV-I 380 W/m -1,0 C 2,4 C 8,0 km/h (2 Bft) 100,00 %
11.02.2018 10:11 2,5 C 3,9 C 79 % 1010,9 hPa 0,0 l/m 4,6 km/h (1 Bft) SW 236 1 min 0,000 mm 0,7 UV-I 381 W/m -0,8 C 2,5 C 6,4 km/h (2 Bft) 100,00 %
11.02.2018 10:12 2,6 C 3,9 C 78 % 1010,9 hPa 0,0 l/m 4,2 km/h (1 Bft) SW 216 1 min 0,000 mm 0,7 UV-I 383 W/m -0,8 C 2,6 C 6,4 km/h (2 Bft) 100,00 %
11.02.2018 10:13 2,6 C 3,9 C 78 % 1010,9 hPa 0,0 l/m 7,1 km/h (2 Bft) W-SW 244 1 min 0,000 mm 0,7 UV-I 385 W/m -0,8 C 1,9 C 9,7 km/h (2 Bft) 100,00 %
11.02.2018 10:14 2,6 C 3,9 C 77 % 1010,9 hPa 0,0 l/m 6,7 km/h (2 Bft) SW 223 1 min 0,000 mm 0,7 UV-I 388 W/m -1,0 C 2,3 C 8,0 km/h (2 Bft) 100,00 %
11.02.2018 10:15 2,6 C 3,9 C 77 % 1010,9 hPa 0,0 l/m 4,7 km/h (1 Bft) SW 229 1 min 0,000 mm 0,7 UV-I 392 W/m -1,0 C 2,6 C 6,4 km/h (2 Bft) 100,00 %
11.02.2018 10:16 2,6 C 3,9 C 77 % 1010,9 hPa 0,0 l/m 3,6 km/h (1 Bft) W-SW 246 1 min 0,000 mm 0,7 UV-I 392 W/m -1,0 C 2,6 C 4,8 km/h (1 Bft) 100,00 %
11.02.2018 10:17 2,6 C 3,9 C 78 % 1010,8 hPa 0,0 l/m 3,3 km/h (1 Bft) W-SW 246 1 min 0,000 mm 0,7 UV-I 393 W/m -0,8 C 2,6 C 4,8 km/h (1 Bft) 100,00 %
11.02.2018 10:18 2,7 C 3,9 C 79 % 1010,9 hPa 0,0 l/m 2,7 km/h (1 Bft) W-SW 246 1 min 0,000 mm 0,7 UV-I 396 W/m -0,6 C 2,7 C 4,8 km/h (1 Bft) 100,00 %
11.02.2018 10:19 2,7 C 3,9 C 78 % 1010,8 hPa 0,0 l/m 2,8 km/h (1 Bft) W-SW 257 1 min 0,000 mm 0,7 UV-I 396 W/m -0,7 C 2,7 C 8,0 km/h (2 Bft) 95,65 %
11.02.2018 10:20 2,7 C 3,9 C 78 % 1010,8 hPa 0,0 l/m 7,6 km/h (2 Bft) SW 236 1 min 0,000 mm 0,7 UV-I 396 W/m -0,7 C 1,6 C 9,7 km/h (2 Bft) 96,30 %
11.02.2018 10:21 2,7 C 3,9 C 77 % 1010,8 hPa 0,0 l/m 6,8 km/h (2 Bft) S-SW 209 1 min 0,000 mm 0,7 UV-I 396 W/m -0,9 C 2,3 C 8,0 km/h (2 Bft) 98,02 %
11.02.2018 10:22 2,7 C 3,9 C 78 % 1010,8 hPa 0,0 l/m 5,5 km/h (1 Bft) SW 221 1 min 0,000 mm 0,7 UV-I 398 W/m -0,7 C 2,7 C 8,0 km/h (2 Bft) 97,87 %
11.02.2018 10:23 2,7 C 3,9 C 77 % 1010,8 hPa 0,0 l/m 6,8 km/h (2 Bft) S-SW 207 1 min 0,000 mm 0,7 UV-I 400 W/m -0,9 C 2,3 C 9,7 km/h (2 Bft) 100,00 %
11.02.2018 10:24 2,7 C 3,9 C 76 % 1010,8 hPa 0,0 l/m 7,9 km/h (2 Bft) S-SW 209 1 min 0,000 mm 0,7 UV-I 399 W/m -1,1 C 1,3 C 9,7 km/h (2 Bft) 91,67 %
11.02.2018 10:25 2,7 C 3,9 C 77 % 1010,8 hPa 0,0 l/m 5,6 km/h (1 Bft) S-SW 202 1 min 0,000 mm 0,7 UV-I 401 W/m -0,9 C 2,7 C 9,7 km/h (2 Bft) 98,00 %
11.02.2018 10:26 2,7 C 3,9 C 76 % 1010,8 hPa 0,0 l/m 1,7 km/h (1 Bft) S-SW 199 1 min 0,000 mm 0,7 UV-I 405 W/m -1,1 C 2,7 C 3,2 km/h (1 Bft) 97,37 %
11.02.2018 10:27 2,7 C 3,9 C 76 % 1010,8 hPa 0,0 l/m 1,9 km/h (1 Bft) S-SW 199 1 min 0,000 mm 0,8 UV-I 411 W/m -1,1 C 2,7 C 4,8 km/h (1 Bft) 100,00 %
11.02.2018 10:28 2,6 C 3,9 C 76 % 1010,8 hPa 0,0 l/m 1,7 km/h (1 Bft) S-SW 200 1 min 0,000 mm 0,8 UV-I 413 W/m -1,2 C 2,6 C 3,2 km/h (1 Bft) 93,10 %
11.02.2018 10:29 2,7 C 3,9 C 77 % 1010,7 hPa 0,0 l/m 3,3 km/h (1 Bft) S-SW 200 1 min 0,000 mm 0,8 UV-I 412 W/m -0,9 C 2,7 C 4,8 km/h (1 Bft) 92,31 %
11.02.2018 10:30 2,8 C 3,9 C 77 % 1010,7 hPa 0,0 l/m 4,4 km/h (1 Bft) W-SW 250 1 min 0,000 mm 0,8 UV-I 416 W/m -0,8 C 2,8 C 6,4 km/h (2 Bft) 95,83 %
11.02.2018 10:31 2,8 C 3,9 C 76 % 1010,7 hPa 0,0 l/m 6,4 km/h (2 Bft) SW 233 1 min 0,000 mm 0,8 UV-I 422 W/m -1,0 C 2,8 C 8,0 km/h (2 Bft) 91,67 %
11.02.2018 10:32 2,8 C 3,9 C 76 % 1010,7 hPa 0,0 l/m 5,1 km/h (1 Bft) SW 223 1 min 0,000 mm 0,8 UV-I 423 W/m -1,0 C 2,8 C 6,4 km/h (2 Bft) 96,55 %
11.02.2018 10:33 2,8 C 3,9 C 76 % 1010,7 hPa 0,0 l/m 3,2 km/h (1 Bft) SW 223 1 min 0,000 mm 0,8 UV-I 422 W/m -1,0 C 2,8 C 4,8 km/h (1 Bft) 91,67 %
11.02.2018 10:34 3,0 C 3,9 C 77 % 1010,7 hPa 0,0 l/m 2,9 km/h (1 Bft) W-SW 244 1 min 0,000 mm 0,8 UV-I 408 W/m -0,6 C 3,0 C 4,8 km/h (1 Bft) 96,15 %
11.02.2018 10:35 3,0 C 3,9 C 77 % 1010,6 hPa 0,0 l/m 6,0 km/h (2 Bft) S 180 1 min 0,000 mm 0,8 UV-I 397 W/m -0,6 C 3,0 C 9,7 km/h (2 Bft) 88,89 %
11.02.2018 10:36 3,0 C 3,9 C 76 % 1010,7 hPa 0,0 l/m 6,3 km/h (2 Bft) W 265 1 min 0,000 mm 0,8 UV-I 365 W/m -0,8 C 3,0 C 9,7 km/h (2 Bft) 94,12 %
11.02.2018 10:37 3,0 C 3,9 C 75 % 1010,7 hPa 0,0 l/m 6,9 km/h (2 Bft) W-SW 243 1 min 0,000 mm 0,8 UV-I 374 W/m -1,0 C 2,5 C 9,7 km/h (2 Bft) 96,30 %
11.02.2018 10:38 2,9 C 3,9 C 75 % 1010,7 hPa 0,0 l/m 7,0 km/h (2 Bft) W-SW 254 1 min 0,000 mm 0,8 UV-I 329 W/m -1,1 C 2,3 C 9,7 km/h (2 Bft) 95,65 %
11.02.2018 10:39 2,9 C 3,9 C 74 % 1010,6 hPa 0,0 l/m 6,1 km/h (2 Bft) W-SW 246 1 min 0,000 mm 0,8 UV-I 392 W/m -1,3 C 2,9 C 11,3 km/h (2 Bft) 95,83 %
11.02.2018 10:40 2,9 C 3,9 C 75 % 1010,6 hPa 0,0 l/m 9,2 km/h (2 Bft) SW 234 1 min 0,000 mm 0,8 UV-I 390 W/m -1,1 C 0,4 C 11,3 km/h (2 Bft) 100,00 %
11.02.2018 10:41 2,8 C 3,9 C 74 % 1010,6 hPa 0,0 l/m 7,2 km/h (2 Bft) W-SW 244 1 min 0,000 mm 0,8 UV-I 376 W/m -1,4 C 2,0 C 9,7 km/h (2 Bft) 92,59 %
11.02.2018 10:42 2,8 C 3,9 C 75 % 1010,5 hPa 0,0 l/m 5,7 km/h (1 Bft) SW 232 1 min 0,000 mm 0,8 UV-I 413 W/m -1,2 C 2,8 C 9,7 km/h (2 Bft) 92,86 %
11.02.2018 10:43 2,8 C 3,9 C 76 % 1010,6 hPa 0,0 l/m 6,1 km/h (2 Bft) S-SW 205 1 min 0,000 mm 0,8 UV-I 333 W/m -1,0 C 2,8 C 8,0 km/h (2 Bft) 96,67 %
11.02.2018 10:44 2,8 C 3,9 C 75 % 1010,5 hPa 0,0 l/m 6,8 km/h (2 Bft) S-SW 198 1 min 0,000 mm 0,8 UV-I 370 W/m -1,2 C 2,4 C 8,0 km/h (2 Bft) 100,00 %
11.02.2018 10:45 2,8 C 3,9 C 75 % 1010,5 hPa 0,0 l/m 4,1 km/h (1 Bft) W-SW 249 1 min 0,000 mm 0,8 UV-I 432 W/m -1,2 C 2,8 C 6,4 km/h (2 Bft) 95,65 %
11.02.2018 10:46 2,8 C 3,9 C 76 % 1010,6 hPa 0,0 l/m 5,8 km/h (2 Bft) S-SW 205 1 min 0,000 mm 0,8 UV-I 441 W/m -1,0 C 2,8 C 8,0 km/h (2 Bft) 95,83 %
11.02.2018 10:47 2,9 C 3,9 C 76 % 1010,6 hPa 0,0 l/m 6,5 km/h (2 Bft) W-SW 240 1 min 0,000 mm 0,9 UV-I 439 W/m -0,9 C 2,8 C 8,0 km/h (2 Bft) 100,00 %
11.02.2018 10:48 2,9 C 3,9 C 74 % 1010,6 hPa 0,0 l/m 5,7 km/h (1 Bft) W-SW 251 1 min 0,000 mm 0,9 UV-I 405 W/m -1,3 C 2,9 C 8,0 km/h (2 Bft) 91,67 %
11.02.2018 10:49 2,9 C 3,9 C 74 % 1010,5 hPa 0,0 l/m 4,2 km/h (1 Bft) S 190 1 min 0,000 mm 0,9 UV-I 445 W/m -1,3 C 2,9 C 8,0 km/h (2 Bft) 91,30 %
11.02.2018 10:50 2,9 C 3,9 C 74 % 1010,5 hPa 0,0 l/m 4,0 km/h (1 Bft) S-SW 198 1 min 0,000 mm 0,9 UV-I 446 W/m -1,3 C 2,9 C 6,4 km/h (2 Bft) 95,83 %
11.02.2018 10:51 2,9 C 3,9 C 74 % 1010,5 hPa 0,0 l/m 3,4 km/h (1 Bft) S-SW 207 1 min 0,000 mm 0,9 UV-I 446 W/m -1,3 C 2,9 C 8,0 km/h (2 Bft) 95,65 %
11.02.2018 10:52 2,9 C 3,9 C 75 % 1010,5 hPa 0,0 l/m 4,3 km/h (1 Bft) SW 226 1 min 0,000 mm 0,9 UV-I 447 W/m -1,1 C 2,9 C 6,4 km/h (2 Bft) 96,30 %
11.02.2018 10:53 2,9 C 3,9 C 75 % 1010,5 hPa 0,0 l/m 4,7 km/h (1 Bft) S-SW 206 1 min 0,000 mm 0,9 UV-I 449 W/m -1,1 C 2,9 C 8,0 km/h (2 Bft) 95,65 %
11.02.2018 10:54 3,0 C 3,9 C 74 % 1010,5 hPa 0,0 l/m 4,8 km/h (1 Bft) SW 217 1 min 0,000 mm 0,9 UV-I 452 W/m -1,2 C 3,0 C 8,0 km/h (2 Bft) 91,67 %
11.02.2018 10:55 2,9 C 3,9 C 74 % 1010,5 hPa 0,0 l/m 6,0 km/h (2 Bft) W-SW 238 1 min 0,000 mm 0,9 UV-I 454 W/m -1,3 C 2,9 C 8,0 km/h (2 Bft) 92,31 %
11.02.2018 10:56 2,9 C 3,9 C 74 % 1010,5 hPa 0,0 l/m 7,6 km/h (2 Bft) S 181 1 min 0,000 mm 0,9 UV-I 455 W/m -1,3 C 1,8 C 9,7 km/h (2 Bft) 96,67 %
11.02.2018 10:57 2,9 C 3,9 C 74 % 1010,5 hPa 0,0 l/m 4,8 km/h (1 Bft) SW 219 1 min 0,000 mm 0,9 UV-I 457 W/m -1,3 C 2,9 C 6,4 km/h (2 Bft) 96,55 %
11.02.2018 10:58 2,9 C 3,9 C 75 % 1010,5 hPa 0,0 l/m 5,9 km/h (2 Bft) SW 226 1 min 0,000 mm 0,9 UV-I 456 W/m -1,1 C 2,9 C 8,0 km/h (2 Bft) 100,00 %
11.02.2018 10:59 2,9 C 3,9 C 75 % 1010,5 hPa 0,0 l/m 6,2 km/h (2 Bft) W 261 1 min 0,000 mm 0,9 UV-I 456 W/m -1,1 C 2,9 C 8,0 km/h (2 Bft) 95,65 %
11.02.2018 11:00 3,0 C 3,9 C 75 % 1010,5 hPa 0,0 l/m 3,4 km/h (1 Bft) W-SW 257 1 min 0,000 mm 0,9 UV-I 455 W/m -1,0 C 3,0 C 6,4 km/h (2 Bft) 100,00 %
11.02.2018 11:01 3,2 C 3,9 C 76 % 1010,5 hPa 0,0 l/m 4,8 km/h (1 Bft) SW 235 1 min 0,152 mm 0,9 UV-I 457 W/m -0,6 C 3,2 C 6,4 km/h (2 Bft) 91,30 %
11.02.2018 11:02 3,3 C 3,9 C 75 % 1010,4 hPa 0,0 l/m 7,5 km/h (2 Bft) SW 236 1 min 0,000 mm 0,9 UV-I 460 W/m -0,7 C 2,3 C 9,7 km/h (2 Bft) 95,83 %
11.02.2018 11:03 3,2 C 3,9 C 74 % 1010,4 hPa 0,0 l/m 5,7 km/h (1 Bft) W-SW 240 1 min 0,000 mm 0,9 UV-I 461 W/m -1,0 C 3,2 C 9,7 km/h (2 Bft) 95,83 %
11.02.2018 11:04 3,2 C 3,9 C 72 % 1010,4 hPa 0,0 l/m 3,9 km/h (1 Bft) W-SW 240 1 min 0,000 mm 0,9 UV-I 444 W/m -1,3 C 3,2 C 6,4 km/h (2 Bft) 100,00 %
11.02.2018 11:05 3,0 C 3,9 C 73 % 1010,4 hPa 0,0 l/m 2,8 km/h (1 Bft) W-SW 252 1 min 0,000 mm 0,9 UV-I 454 W/m -1,4 C 3,0 C 6,4 km/h (2 Bft) 96,15 %
11.02.2018 11:06 2,9 C 3,9 C 74 % 1010,4 hPa 0,0 l/m 3,6 km/h (1 Bft) W-NW 287 1 min 0,000 mm 1,0 UV-I 462 W/m -1,3 C 2,9 C 4,8 km/h (1 Bft) 91,67 %
11.02.2018 11:07 2,9 C 3,9 C 74 % 1010,4 hPa 0,0 l/m 2,3 km/h (1 Bft) W-NW 288 1 min 0,000 mm 1,0 UV-I 464 W/m -1,3 C 2,9 C 3,2 km/h (1 Bft) 96,15 %
11.02.2018 11:08 2,9 C 3,9 C 74 % 1010,3 hPa 0,0 l/m 1,6 km/h (1 Bft) W-NW 288 1 min 0,000 mm 1,0 UV-I 464 W/m -1,3 C 2,9 C 3,2 km/h (1 Bft) 93,33 %
11.02.2018 11:09 2,9 C 3,9 C 75 % 1010,3 hPa 0,0 l/m 2,3 km/h (1 Bft) W 268 1 min 0,000 mm 1,0 UV-I 464 W/m -1,1 C 2,9 C 4,8 km/h (1 Bft) 100,00 %
11.02.2018 11:10 2,9 C 3,9 C 75 % 1010,3 hPa 0,0 l/m 4,4 km/h (1 Bft) W 261 1 min 0,000 mm 1,0 UV-I 464 W/m -1,1 C 2,9 C 6,4 km/h (2 Bft) 96,15 %
11.02.2018 11:11 3,0 C 3,9 C 75 % 1010,3 hPa 0,0 l/m 3,6 km/h (1 Bft) W 269 1 min 0,000 mm 1,0 UV-I 464 W/m -1,0 C 3,0 C 4,8 km/h (1 Bft) 100,00 %
11.02.2018 11:12 3,0 C 3,9 C 75 % 1010,3 hPa 0,0 l/m 7,0 km/h (2 Bft) W-SW 250 1 min 0,000 mm 1,0 UV-I 465 W/m -1,0 C 2,4 C 9,7 km/h (2 Bft) 94,12 %
11.02.2018 11:13 3,1 C 3,9 C 74 % 1010,3 hPa 0,0 l/m 5,2 km/h (1 Bft) W-SW 257 1 min 0,000 mm 1,0 UV-I 469 W/m -1,1 C 3,1 C 6,4 km/h (2 Bft) 100,00 %
11.02.2018 11:14 3,1 C 3,9 C 75 % 1010,3 hPa 0,0 l/m 4,0 km/h (1 Bft) W-SW 256 1 min 0,000 mm 1,0 UV-I 470 W/m -0,9 C 3,1 C 6,4 km/h (2 Bft) 91,30 %
11.02.2018 11:15 3,2 C 3,9 C 74 % 1010,2 hPa 0,0 l/m 2,3 km/h (1 Bft) W-NW 302 1 min 0,000 mm 1,0 UV-I 471 W/m -1,0 C 3,2 C 3,2 km/h (1 Bft) 100,00 %
11.02.2018 11:16 3,2 C 3,9 C 74 % 1010,3 hPa 0,0 l/m 2,7 km/h (1 Bft) W-NW 296 1 min 0,000 mm 1,0 UV-I 471 W/m -1,0 C 3,2 C 4,8 km/h (1 Bft) 96,15 %
11.02.2018 11:17 3,2 C 3,9 C 74 % 1010,3 hPa 0,0 l/m 2,6 km/h (1 Bft) W-NW 292 1 min 0,000 mm 1,0 UV-I 474 W/m -1,0 C 3,2 C 4,8 km/h (1 Bft) 100,00 %
11.02.2018 11:18 3,2 C 3,9 C 73 % 1010,2 hPa 0,0 l/m 2,2 km/h (1 Bft) W-NW 292 1 min 0,000 mm 1,0 UV-I 473 W/m -1,2 C 3,2 C 4,8 km/h (1 Bft) 96,00 %
11.02.2018 11:19 3,2 C 3,9 C 74 % 1010,1 hPa 0,0 l/m 4,6 km/h (1 Bft) W 263 1 min 0,000 mm 1,0 UV-I 471 W/m -1,0 C 3,2 C 6,4 km/h (2 Bft) 95,83 %
11.02.2018 11:20 3,2 C 3,9 C 73 % 1010,1 hPa 0,0 l/m 5,2 km/h (1 Bft) SW 229 1 min 0,000 mm 1,0 UV-I 471 W/m -1,2 C 3,2 C 6,4 km/h (2 Bft) 96,15 %
11.02.2018 11:21 3,2 C 3,9 C 73 % 1010,2 hPa 0,0 l/m 6,1 km/h (2 Bft) W-SW 247 1 min 0,000 mm 1,0 UV-I 473 W/m -1,2 C 3,2 C 8,0 km/h (2 Bft) 96,30 %
11.02.2018 11:22 3,2 C 3,9 C 72 % 1010,1 hPa 0,0 l/m 2,7 km/h (1 Bft) W-SW 247 1 min 0,000 mm 1,0 UV-I 475 W/m -1,3 C 3,2 C 4,8 km/h (1 Bft) 100,00 %
11.02.2018 11:23 3,1 C 3,9 C 73 % 1010,1 hPa 0,0 l/m 4,1 km/h (1 Bft) W 266 1 min 0,000 mm 1,0 UV-I 475 W/m -1,3 C 3,1 C 4,8 km/h (1 Bft) 93,33 %
11.02.2018 11:24 3,2 C 3,9 C 74 % 1010,1 hPa 0,0 l/m 3,0 km/h (1 Bft) W-NW 282 1 min 0,000 mm 1,0 UV-I 473 W/m -1,0 C 3,2 C 4,8 km/h (1 Bft) 100,00 %
11.02.2018 11:25 3,2 C 3,9 C 73 % 1010,1 hPa 0,0 l/m 0,4 km/h (0 Bft) W-NW 282 1 min 0,000 mm 1,0 UV-I 478 W/m -1,2 C 3,2 C 1,6 km/h (1 Bft) 96,15 %
11.02.2018 11:26 3,2 C 3,9 C 73 % 1010,0 hPa 0,0 l/m 0,0 km/h (0 Bft) W-NW 282 1 min 0,000 mm 1,0 UV-I 478 W/m -1,2 C 3,2 C 0,0 km/h (0 Bft) 96,15 %
11.02.2018 11:27 3,2 C 3,9 C 72 % 1010,1 hPa 0,0 l/m 0,3 km/h (0 Bft) W-NW 282 1 min 0,000 mm 1,0 UV-I 478 W/m -1,3 C 3,2 C 3,2 km/h (1 Bft) 91,67 %
11.02.2018 11:28 3,1 C 3,9 C 72 % 1010,1 hPa 0,0 l/m 3,0 km/h (1 Bft) W 278 1 min 0,000 mm 1,0 UV-I 479 W/m -1,4 C 3,1 C 4,8 km/h (1 Bft) 100,00 %
11.02.2018 11:29 3,1 C 3,9 C 73 % 1010,0 hPa 0,0 l/m 3,5 km/h (1 Bft) SW 227 1 min 0,000 mm 1,1 UV-I 480 W/m -1,3 C 3,1 C 4,8 km/h (1 Bft) 96,88 %
11.02.2018 11:30 3,2 C 3,9 C 74 % 1010,0 hPa 0,0 l/m 2,7 km/h (1 Bft) SW 227 1 min 0,000 mm 1,1 UV-I 482 W/m -1,0 C 3,2 C 3,2 km/h (1 Bft) 100,00 %
11.02.2018 11:31 3,2 C 3,9 C 73 % 1010,0 hPa 0,0 l/m 2,6 km/h (1 Bft) SW 230 1 min 0,000 mm 1,1 UV-I 481 W/m -1,2 C 3,2 C 3,2 km/h (1 Bft) 100,00 %
11.02.2018 11:32 3,2 C 3,9 C 73 % 1010,0 hPa 0,0 l/m 2,5 km/h (1 Bft) SW 230 1 min 0,000 mm 1,1 UV-I 481 W/m -1,2 C 3,2 C 3,2 km/h (1 Bft) 95,83 %
11.02.2018 11:33 3,1 C 3,9 C 72 % 1010,0 hPa 0,0 l/m 3,0 km/h (1 Bft) SW 230 1 min 0,000 mm 1,1 UV-I 481 W/m -1,4 C 3,1 C 4,8 km/h (1 Bft) 100,00 %
11.02.2018 11:34 3,1 C 3,9 C 72 % 1009,9 hPa 0,0 l/m 3,0 km/h (1 Bft) SW 230 1 min 0,000 mm 1,1 UV-I 480 W/m -1,4 C 3,1 C 4,8 km/h (1 Bft) 95,83 %
11.02.2018 11:35 3,1 C 3,9 C 72 % 1009,9 hPa 0,0 l/m 1,3 km/h (1 Bft) SW 230 1 min 0,000 mm 1,1 UV-I 483 W/m -1,4 C 3,1 C 4,8 km/h (1 Bft) 100,00 %
11.02.2018 11:36 3,2 C 3,9 C 72 % 1009,9 hPa 0,0 l/m 3,4 km/h (1 Bft) W-NW 284 1 min 0,000 mm 1,1 UV-I 485 W/m -1,3 C 3,2 C 6,4 km/h (2 Bft) 92,68 %
11.02.2018 11:37 3,2 C 3,9 C 73 % 1009,9 hPa 0,0 l/m 3,1 km/h (1 Bft) W-NW 284 1 min 0,000 mm 1,1 UV-I 488 W/m -1,2 C 3,2 C 4,8 km/h (1 Bft) 91,30 %
11.02.2018 11:38 3,3 C 3,9 C 72 % 1009,8 hPa 0,0 l/m 1,7 km/h (1 Bft) W-NW 284 1 min 0,000 mm 1,1 UV-I 489 W/m -1,3 C 3,3 C 3,2 km/h (1 Bft) 100,00 %
11.02.2018 11:39 3,3 C 3,9 C 73 % 1009,9 hPa 0,0 l/m 5,0 km/h (1 Bft) W 276 1 min 0,000 mm 1,1 UV-I 489 W/m -1,1 C 3,3 C 6,4 km/h (2 Bft) 92,31 %
11.02.2018 11:40 3,3 C 3,9 C 73 % 1009,9 hPa 0,0 l/m 3,3 km/h (1 Bft) W-NW 286 1 min 0,000 mm 1,1 UV-I 488 W/m -1,1 C 3,3 C 4,8 km/h (1 Bft) 100,00 %
11.02.2018 11:41 3,3 C 3,9 C 73 % 1009,9 hPa 0,0 l/m 2,1 km/h (1 Bft) W-NW 286 1 min 0,000 mm 1,1 UV-I 487 W/m -1,1 C 3,3 C 3,2 km/h (1 Bft) 96,30 %
11.02.2018 11:42 3,3 C 3,9 C 73 % 1009,9 hPa 0,0 l/m 2,0 km/h (1 Bft) W-NW 286 1 min 0,000 mm 1,1 UV-I 489 W/m -1,1 C 3,3 C 3,2 km/h (1 Bft) 100,00 %
11.02.2018 11:43 3,3 C 3,9 C 72 % 1009,8 hPa 0,0 l/m 1,5 km/h (1 Bft) W-NW 286 1 min 0,000 mm 1,1 UV-I 488 W/m -1,3 C 3,3 C 3,2 km/h (1 Bft) 91,30 %
11.02.2018 11:44 3,4 C 3,9 C 72 % 1009,8 hPa 0,0 l/m 2,3 km/h (1 Bft) W-NW 290 1 min 0,000 mm 1,1 UV-I 489 W/m -1,2 C 3,4 C 4,8 km/h (1 Bft) 95,83 %
11.02.2018 11:45 3,4 C 3,9 C 72 % 1009,8 hPa 0,0 l/m 4,6 km/h (1 Bft) W-NW 283 1 min 0,000 mm 1,1 UV-I 490 W/m -1,2 C 3,4 C 6,4 km/h (2 Bft) 100,00 %
11.02.2018 11:46 3,4 C 3,9 C 72 % 1009,8 hPa 0,0 l/m 3,7 km/h (1 Bft) NW 306 1 min 0,000 mm 1,1 UV-I 490 W/m -1,2 C 3,4 C 4,8 km/h (1 Bft) 100,00 %
11.02.2018 11:47 3,6 C 3,9 C 73 % 1009,7 hPa 0,0 l/m 3,4 km/h (1 Bft) W 271 1 min 0,000 mm 1,1 UV-I 492 W/m -0,8 C 3,6 C 4,8 km/h (1 Bft) 96,30 %
11.02.2018 11:48 3,6 C 3,9 C 72 % 1009,7 hPa 0,0 l/m 3,8 km/h (1 Bft) SW 226 1 min 0,000 mm 1,1 UV-I 490 W/m -1,0 C 3,6 C 4,8 km/h (1 Bft) 95,65 %
11.02.2018 11:49 3,6 C 3,9 C 71 % 1009,7 hPa 0,0 l/m 3,6 km/h (1 Bft) SW 225 1 min 0,000 mm 1,1 UV-I 489 W/m -1,2 C 3,6 C 4,8 km/h (1 Bft) 100,00 %
11.02.2018 11:50 3,6 C 3,9 C 71 % 1009,7 hPa 0,0 l/m 3,4 km/h (1 Bft) SW 225 1 min 0,000 mm 1,1 UV-I 490 W/m -1,2 C 3,6 C 6,4 km/h (2 Bft) 91,30 %
11.02.2018 11:51 3,5 C 3,9 C 70 % 1009,7 hPa 0,0 l/m 0,8 km/h (0 Bft) SW 225 1 min 0,000 mm 1,1 UV-I 492 W/m -1,4 C 3,5 C 1,6 km/h (1 Bft) 100,00 %
11.02.2018 11:52 3,5 C 3,9 C 72 % 1009,7 hPa 0,0 l/m 3,8 km/h (1 Bft) S-SW 209 1 min 0,000 mm 1,1 UV-I 491 W/m -1,1 C 3,5 C 8,0 km/h (2 Bft) 95,65 %
11.02.2018 11:53 3,6 C 3,9 C 72 % 1009,7 hPa 0,0 l/m 4,6 km/h (1 Bft) S-SW 200 1 min 0,000 mm 1,1 UV-I 494 W/m -1,0 C 3,6 C 6,4 km/h (2 Bft) 100,00 %
11.02.2018 11:54 3,5 C 3,9 C 71 % 1009,7 hPa 0,0 l/m 3,4 km/h (1 Bft) W-SW 250 1 min 0,000 mm 1,1 UV-I 494 W/m -1,3 C 3,5 C 8,0 km/h (2 Bft) 96,15 %
11.02.2018 11:55 3,5 C 3,9 C 71 % 1009,7 hPa 0,0 l/m 0,6 km/h (0 Bft) W-SW 250 1 min 0,000 mm 1,1 UV-I 492 W/m -1,3 C 3,5 C 1,6 km/h (1 Bft) 100,00 %
11.02.2018 11:56 3,4 C 3,9 C 70 % 1009,7 hPa 0,0 l/m 5,4 km/h (1 Bft) W-SW 239 1 min 0,000 mm 1,1 UV-I 494 W/m -1,5 C 3,4 C 6,4 km/h (2 Bft) 96,15 %
11.02.2018 11:57 3,4 C 3,9 C 71 % 1009,7 hPa 0,0 l/m 4,9 km/h (1 Bft) W-SW 256 1 min 0,000 mm 1,1 UV-I 494 W/m -1,3 C 3,4 C 11,3 km/h (2 Bft) 100,00 %
11.02.2018 11:58 3,4 C 3,9 C 71 % 1009,6 hPa 0,0 l/m 4,8 km/h (1 Bft) W 261 1 min 0,000 mm 1,1 UV-I 494 W/m -1,3 C 3,4 C 11,3 km/h (2 Bft) 100,00 %
11.02.2018 11:59 3,4 C 3,9 C 71 % 1009,6 hPa 0,0 l/m 2,1 km/h (1 Bft) SW 233 1 min 0,000 mm 1,1 UV-I 494 W/m -1,3 C 3,4 C 6,4 km/h (2 Bft) 100,00 %
11.02.2018 12:00 3,6 C 3,9 C 72 % 1009,6 hPa 0,0 l/m 4,4 km/h (1 Bft) W-SW 254 1 min 0,178 mm 1,1 UV-I 496 W/m -1,0 C 3,6 C 6,4 km/h (2 Bft) 100,00 %
11.02.2018 12:01 3,5 C 3,9 C 71 % 1009,6 hPa 0,0 l/m 2,6 km/h (1 Bft) W-SW 254 1 min 0,000 mm 1,1 UV-I 494 W/m -1,3 C 3,5 C 4,8 km/h (1 Bft) 100,00 %
11.02.2018 12:02 3,4 C 3,9 C 69 % 1009,5 hPa 0,0 l/m 2,1 km/h (1 Bft) S-SW 194 1 min 0,000 mm 1,1 UV-I 495 W/m -1,7 C 3,4 C 6,4 km/h (2 Bft) 91,30 %
11.02.2018 12:03 3,5 C 3,9 C 70 % 1009,5 hPa 0,0 l/m 5,0 km/h (1 Bft) SW 223 1 min 0,000 mm 1,1 UV-I 496 W/m -1,4 C 3,5 C 6,4 km/h (2 Bft) 95,83 %
11.02.2018 12:04 3,6 C 3,9 C 72 % 1009,5 hPa 0,0 l/m 4,2 km/h (1 Bft) W-SW 250 1 min 0,000 mm 1,1 UV-I 497 W/m -1,0 C 3,6 C 6,4 km/h (2 Bft) 100,00 %
11.02.2018 12:05 3,7 C 3,9 C 72 % 1009,5 hPa 0,0 l/m 4,8 km/h (1 Bft) S-SW 202 1 min 0,000 mm 1,1 UV-I 496 W/m -0,9 C 3,7 C 6,4 km/h (2 Bft) 100,00 %
11.02.2018 12:06 3,8 C 3,9 C 71 % 1009,5 hPa 0,0 l/m 4,2 km/h (1 Bft) S-SO 161 1 min 0,000 mm 1,1 UV-I 495 W/m -1,0 C 3,8 C 8,0 km/h (2 Bft) 100,00 %
11.02.2018 12:07 3,8 C 3,9 C 69 % 1009,4 hPa 0,0 l/m 5,2 km/h (1 Bft) S-SW 203 1 min 0,000 mm 1,1 UV-I 496 W/m -1,4 C 3,8 C 8,0 km/h (2 Bft) 100,00 %
11.02.2018 12:08 3,8 C 3,9 C 69 % 1009,5 hPa 0,0 l/m 5,7 km/h (1 Bft) SW 221 1 min 0,000 mm 1,1 UV-I 497 W/m -1,4 C 3,8 C 8,0 km/h (2 Bft) 95,65 %
11.02.2018 12:09 3,9 C 3,9 C 69 % 1009,4 hPa 0,0 l/m 4,9 km/h (1 Bft) W-SW 254 1 min 0,000 mm 1,1 UV-I 498 W/m -1,3 C 3,9 C 6,4 km/h (2 Bft) 100,00 %
11.02.2018 12:10 3,8 C 3,9 C 69 % 1009,4 hPa 0,0 l/m 3,5 km/h (1 Bft) W-SW 257 1 min 0,000 mm 1,1 UV-I 497 W/m -1,4 C 3,8 C 4,8 km/h (1 Bft) 100,00 %
11.02.2018 12:11 3,8 C 3,9 C 69 % 1009,4 hPa 0,0 l/m 3,1 km/h (1 Bft) S-SW 200 1 min 0,000 mm 1,1 UV-I 497 W/m -1,4 C 3,8 C 4,8 km/h (1 Bft) 96,15 %
11.02.2018 12:12 3,8 C 3,9 C 70 % 1009,4 hPa 0,0 l/m 4,0 km/h (1 Bft) S 189 1 min 0,000 mm 1,1 UV-I 496 W/m -1,2 C 3,8 C 6,4 km/h (2 Bft) 96,30 %
11.02.2018 12:13 3,8 C 3,9 C 69 % 1009,4 hPa 0,0 l/m 5,6 km/h (1 Bft) S-SW 193 1 min 0,000 mm 1,1 UV-I 498 W/m -1,4 C 3,8 C 8,0 km/h (2 Bft) 100,00 %
11.02.2018 12:14 3,7 C 3,9 C 70 % 1009,3 hPa 0,0 l/m 3,3 km/h (1 Bft) S-SO 157 1 min 0,000 mm 1,1 UV-I 499 W/m -1,3 C 3,7 C 4,8 km/h (1 Bft) 96,30 %
11.02.2018 12:15 3,7 C 3,9 C 69 % 1009,3 hPa 0,0 l/m 4,4 km/h (1 Bft) S-SO 167 1 min 0,000 mm 1,1 UV-I 499 W/m -1,4 C 3,7 C 6,4 km/h (2 Bft) 100,00 %
11.02.2018 12:16 3,7 C 3,9 C 69 % 1009,2 hPa 0,0 l/m 2,3 km/h (1 Bft) S-SO 166 1 min 0,000 mm 1,1 UV-I 496 W/m -1,4 C 3,7 C 4,8 km/h (1 Bft) 100,00 %
11.02.2018 12:17 3,7 C 3,9 C 68 % 1009,3 hPa 0,0 l/m 2,1 km/h (1 Bft) S-SO 160 1 min 0,000 mm 1,1 UV-I 496 W/m -1,6 C 3,7 C 3,2 km/h (1 Bft) 94,12 %
11.02.2018 12:18 3,7 C 3,9 C 69 % 1009,2 hPa 0,0 l/m 3,1 km/h (1 Bft) S-SO 159 1 min 0,000 mm 1,1 UV-I 496 W/m -1,4 C 3,7 C 6,4 km/h (2 Bft) 100,00 %
11.02.2018 12:19 3,7 C 3,9 C 69 % 1009,2 hPa 0,0 l/m 1,7 km/h (1 Bft) S-SO 159 1 min 0,000 mm 1,1 UV-I 495 W/m -1,4 C 3,7 C 3,2 km/h (1 Bft) 100,00 %
11.02.2018 12:20 3,6 C 3,9 C 68 % 1009,2 hPa 0,0 l/m 2,1 km/h (1 Bft) S-SW 194 1 min 0,000 mm 1,1 UV-I 495 W/m -1,7 C 3,6 C 3,2 km/h (1 Bft) 100,00 %
11.02.2018 12:21 3,7 C 3,9 C 69 % 1009,2 hPa 0,0 l/m 2,3 km/h (1 Bft) S-SW 211 1 min 0,000 mm 1,1 UV-I 496 W/m -1,4 C 3,7 C 4,8 km/h (1 Bft) 100,00 %
11.02.2018 12:22 3,7 C 3,9 C 70 % 1009,2 hPa 0,0 l/m 5,4 km/h (1 Bft) S 186 1 min 0,000 mm 1,1 UV-I 496 W/m -1,3 C 3,7 C 6,4 km/h (2 Bft) 100,00 %
11.02.2018 12:23 3,8 C 3,9 C 70 % 1009,2 hPa 0,0 l/m 5,5 km/h (1 Bft) S-SW 201 1 min 0,000 mm 1,1 UV-I 497 W/m -1,2 C 3,8 C 8,0 km/h (2 Bft) 100,00 %
11.02.2018 12:24 4,0 C 3,9 C 70 % 1009,2 hPa 0,0 l/m 5,3 km/h (1 Bft) S-SW 201 1 min 0,000 mm 1,1 UV-I 498 W/m -1,0 C 4,0 C 6,4 km/h (2 Bft) 100,00 %
11.02.2018 12:25 4,0 C 3,9 C 69 % 1009,2 hPa 0,0 l/m 1,5 km/h (1 Bft) S-SW 201 1 min 0,000 mm 1,1 UV-I 499 W/m -1,2 C 4,0 C 3,2 km/h (1 Bft) 100,00 %
11.02.2018 12:26 4,0 C 3,9 C 67 % 1009,2 hPa 0,0 l/m 0,2 km/h (0 Bft) S-SW 201 1 min 0,000 mm 1,1 UV-I 500 W/m -1,6 C 4,0 C 1,6 km/h (1 Bft) 100,00 %
11.02.2018 12:27 4,0 C 3,9 C 68 % 1009,2 hPa 0,0 l/m 0,8 km/h (0 Bft) S-SW 201 1 min 0,000 mm 1,1 UV-I 498 W/m -1,4 C 4,0 C 1,6 km/h (1 Bft) 100,00 %
11.02.2018 12:28 4,0 C 3,9 C 67 % 1009,1 hPa 0,0 l/m 1,0 km/h (0 Bft) S-SW 201 1 min 0,000 mm 1,1 UV-I 499 W/m -1,6 C 4,0 C 1,6 km/h (1 Bft) 100,00 %
11.02.2018 12:29 4,0 C 3,9 C 68 % 1009,1 hPa 0,0 l/m 0,6 km/h (0 Bft) S-SW 201 1 min 0,000 mm 1,1 UV-I 496 W/m -1,4 C 4,0 C 1,6 km/h (1 Bft) 100,00 %
11.02.2018 12:30 4,0 C 3,9 C 68 % 1009,1 hPa 0,0 l/m 0,9 km/h (0 Bft) S-SW 201 1 min 0,000 mm 1,1 UV-I 494 W/m -1,4 C 4,0 C 3,2 km/h (1 Bft) 100,00 %
11.02.2018 12:31 4,1 C 3,9 C 68 % 1009,0 hPa 0,0 l/m 2,3 km/h (1 Bft) S-SW 201 1 min 0,000 mm 1,1 UV-I 492 W/m -1,3 C 4,1 C 3,2 km/h (1 Bft) 100,00 %
11.02.2018 12:32 4,2 C 3,9 C 68 % 1009,0 hPa 0,0 l/m 0,4 km/h (0 Bft) W 273 1 min 0,000 mm 1,1 UV-I 491 W/m -1,2 C 4,2 C 1,6 km/h (1 Bft) 100,00 %
11.02.2018 12:33 4,1 C 3,9 C 68 % 1009,0 hPa 0,0 l/m 1,8 km/h (1 Bft) W 273 1 min 0,000 mm 1,1 UV-I 492 W/m -1,3 C 4,1 C 3,2 km/h (1 Bft) 100,00 %
11.02.2018 12:34 4,1 C 3,9 C 67 % 1009,0 hPa 0,0 l/m 2,1 km/h (1 Bft) W 273 1 min 0,000 mm 1,1 UV-I 490 W/m -1,5 C 4,1 C 3,2 km/h (1 Bft) 100,00 %
11.02.2018 12:35 4,1 C 3,9 C 66 % 1009,0 hPa 0,0 l/m 2,7 km/h (1 Bft) W 274 1 min 0,000 mm 1,1 UV-I 487 W/m -1,7 C 4,1 C 3,2 km/h (1 Bft) 100,00 %
11.02.2018 12:36 4,1 C 3,9 C 66 % 1009,0 hPa 0,0 l/m 3,9 km/h (1 Bft) W 276 1 min 0,000 mm 1,1 UV-I 487 W/m -1,7 C 4,1 C 4,8 km/h (1 Bft) 100,00 %
11.02.2018 12:37 4,1 C 3,9 C 67 % 1008,9 hPa 0,0 l/m 3,9 km/h (1 Bft) W-NW 292 1 min 0,000 mm 1,1 UV-I 488 W/m -1,5 C 4,1 C 4,8 km/h (1 Bft) 100,00 %
11.02.2018 12:38 4,1 C 3,9 C 65 % 1008,9 hPa 0,0 l/m 2,8 km/h (1 Bft) W-NW 294 1 min 0,000 mm 1,1 UV-I 489 W/m -1,9 C 4,1 C 3,2 km/h (1 Bft) 100,00 %
11.02.2018 12:39 4,1 C 3,9 C 66 % 1008,9 hPa 0,0 l/m 1,0 km/h (0 Bft) W-NW 294 1 min 0,000 mm 1,1 UV-I 487 W/m -1,7 C 4,1 C 3,2 km/h (1 Bft) 100,00 %
11.02.2018 12:40 4,1 C 3,9 C 66 % 1008,9 hPa 0,0 l/m 2,0 km/h (1 Bft) NW 320 1 min 0,000 mm 1,1 UV-I 489 W/m -1,7 C 4,1 C 4,8 km/h (1 Bft) 100,00 %
11.02.2018 12:41 4,1 C 3,9 C 66 % 1008,9 hPa 0,0 l/m 3,0 km/h (1 Bft) S-SO 157 1 min 0,000 mm 1,1 UV-I 489 W/m -1,7 C 4,1 C 4,8 km/h (1 Bft) 95,83 %
11.02.2018 12:42 4,1 C 3,9 C 65 % 1008,9 hPa 0,0 l/m 4,4 km/h (1 Bft) SW 214 1 min 0,000 mm 1,1 UV-I 489 W/m -1,9 C 4,1 C 6,4 km/h (2 Bft) 100,00 %
11.02.2018 12:43 4,2 C 3,9 C 68 % 1008,9 hPa 0,0 l/m 4,1 km/h (1 Bft) W-SW 249 1 min 0,000 mm 1,1 UV-I 488 W/m -1,2 C 4,2 C 6,4 km/h (2 Bft) 100,00 %
11.02.2018 12:44 4,3 C 3,9 C 65 % 1008,9 hPa 0,0 l/m 5,7 km/h (1 Bft) SW 221 1 min 0,000 mm 1,1 UV-I 487 W/m -1,7 C 4,3 C 8,0 km/h (2 Bft) 100,00 %
11.02.2018 12:45 4,3 C 3,9 C 64 % 1008,9 hPa 0,0 l/m 2,1 km/h (1 Bft) SW 227 1 min 0,000 mm 1,1 UV-I 485 W/m -1,9 C 4,3 C 4,8 km/h (1 Bft) 100,00 %
11.02.2018 12:46 4,3 C 3,9 C 63 % 1008,9 hPa 0,0 l/m 1,1 km/h (1 Bft) SW 227 1 min 0,000 mm 1,1 UV-I 485 W/m -2,1 C 4,3 C 3,2 km/h (1 Bft) 96,30 %
11.02.2018 12:47 4,2 C 3,9 C 63 % 1008,8 hPa 0,0 l/m 1,7 km/h (1 Bft) SW 227 1 min 0,000 mm 1,1 UV-I 485 W/m -2,2 C 4,2 C 3,2 km/h (1 Bft) 100,00 %
11.02.2018 12:48 4,2 C 3,9 C 63 % 1008,8 hPa 0,0 l/m 0,7 km/h (0 Bft) SW 227 1 min 0,000 mm 1,1 UV-I 484 W/m -2,2 C 4,2 C 3,2 km/h (1 Bft) 100,00 %
11.02.2018 12:49 4,2 C 3,9 C 63 % 1008,8 hPa 0,0 l/m 0,2 km/h (0 Bft) SW 227 1 min 0,000 mm 1,1 UV-I 484 W/m -2,2 C 4,2 C 1,6 km/h (1 Bft) 100,00 %
11.02.2018 12:50 4,2 C 3,9 C 63 % 1008,7 hPa 0,0 l/m 1,1 km/h (1 Bft) SW 227 1 min 0,000 mm 1,1 UV-I 485 W/m -2,2 C 4,2 C 1,6 km/h (1 Bft) 100,00 %
11.02.2018 12:51 4,1 C 3,9 C 65 % 1008,7 hPa 0,0 l/m 3,9 km/h (1 Bft) S 175 1 min 0,000 mm 1,1 UV-I 483 W/m -1,9 C 4,1 C 6,4 km/h (2 Bft) 100,00 %
11.02.2018 12:52 4,1 C 3,9 C 65 % 1008,6 hPa 0,0 l/m 3,1 km/h (1 Bft) S 188 1 min 0,000 mm 1,1 UV-I 483 W/m -1,9 C 4,1 C 6,4 km/h (2 Bft) 100,00 %
11.02.2018 12:53 4,2 C 3,9 C 65 % 1008,6 hPa 0,0 l/m 4,7 km/h (1 Bft) S-SW 192 1 min 0,000 mm 1,1 UV-I 483 W/m -1,8 C 4,2 C 6,4 km/h (2 Bft) 100,00 %
11.02.2018 12:54 4,2 C 3,9 C 65 % 1008,5 hPa 0,0 l/m 2,4 km/h (1 Bft) S-SW 192 1 min 0,000 mm 1,1 UV-I 481 W/m -1,8 C 4,2 C 4,8 km/h (1 Bft) 96,67 %
11.02.2018 12:55 4,1 C 3,9 C 62 % 1008,5 hPa 0,0 l/m 1,5 km/h (1 Bft) S-SW 192 1 min 0,000 mm 1,1 UV-I 481 W/m -2,5 C 4,1 C 3,2 km/h (1 Bft) 100,00 %
11.02.2018 12:56 4,1 C 3,9 C 62 % 1008,5 hPa 0,0 l/m 0,9 km/h (0 Bft) S-SW 192 1 min 0,000 mm 1,1 UV-I 481 W/m -2,5 C 4,1 C 3,2 km/h (1 Bft) 91,67 %
11.02.2018 12:57 4,1 C 3,9 C 64 % 1008,5 hPa 0,0 l/m 2,0 km/h (1 Bft) NW 309 1 min 0,000 mm 1,1 UV-I 480 W/m -2,1 C 4,1 C 3,2 km/h (1 Bft) 100,00 %
11.02.2018 12:58 4,3 C 3,9 C 65 % 1008,5 hPa 0,0 l/m 5,2 km/h (1 Bft) W 271 1 min 0,000 mm 1,1 UV-I 478 W/m -1,7 C 4,3 C 6,4 km/h (2 Bft) 96,15 %
11.02.2018 12:59 4,3 C 3,9 C 62 % 1008,5 hPa 0,0 l/m 2,5 km/h (1 Bft) W 275 1 min 0,000 mm 1,1 UV-I 478 W/m -2,3 C 4,3 C 4,8 km/h (1 Bft) 100,00 %
11.02.2018 13:00 4,3 C 3,9 C 62 % 1008,4 hPa 0,0 l/m 4,1 km/h (1 Bft) W-NW 300 1 min 0,000 mm 1,1 UV-I 476 W/m -2,3 C 4,3 C 8,0 km/h (2 Bft) 94,44 %
11.02.2018 13:01 4,3 C 3,9 C 62 % 1008,4 hPa 0,0 l/m 3,4 km/h (1 Bft) W-NW 300 1 min 0,203 mm 1,1 UV-I 476 W/m -2,3 C 4,3 C 6,4 km/h (2 Bft) 96,67 %
11.02.2018 13:02 4,3 C 3,9 C 63 % 1008,4 hPa 0,0 l/m 3,1 km/h (1 Bft) W-NW 302 1 min 0,000 mm 1,1 UV-I 476 W/m -2,1 C 4,3 C 4,8 km/h (1 Bft) 96,15 %
11.02.2018 13:03 4,3 C 3,9 C 63 % 1008,5 hPa 0,0 l/m 2,3 km/h (1 Bft) W 260 1 min 0,000 mm 1,1 UV-I 476 W/m -2,1 C 4,3 C 4,8 km/h (1 Bft) 100,00 %
11.02.2018 13:04 4,4 C 3,9 C 64 % 1008,5 hPa 0,0 l/m 4,6 km/h (1 Bft) W-SW 248 1 min 0,000 mm 1,1 UV-I 475 W/m -1,8 C 4,4 C 6,4 km/h (2 Bft) 93,10 %
11.02.2018 13:05 4,5 C 3,9 C 65 % 1008,5 hPa 0,0 l/m 6,1 km/h (2 Bft) SW 229 1 min 0,000 mm 1,0 UV-I 473 W/m -1,5 C 4,5 C 9,7 km/h (2 Bft) 95,83 %
11.02.2018 13:06 4,5 C 3,9 C 64 % 1008,4 hPa 0,0 l/m 6,0 km/h (2 Bft) S-SW 194 1 min 0,000 mm 1,0 UV-I 471 W/m -1,7 C 4,5 C 8,0 km/h (2 Bft) 100,00 %
11.02.2018 13:07 4,5 C 3,9 C 64 % 1008,4 hPa 0,0 l/m 2,7 km/h (1 Bft) S-SW 208 1 min 0,000 mm 1,0 UV-I 468 W/m -1,7 C 4,5 C 6,4 km/h (2 Bft) 92,59 %
11.02.2018 13:08 4,6 C 3,9 C 65 % 1008,4 hPa 0,0 l/m 4,5 km/h (1 Bft) SW 236 1 min 0,000 mm 1,0 UV-I 471 W/m -1,4 C 4,6 C 6,4 km/h (2 Bft) 100,00 %
11.02.2018 13:09 4,5 C 3,9 C 63 % 1008,4 hPa 0,0 l/m 4,5 km/h (1 Bft) SW 236 1 min 0,000 mm 1,0 UV-I 469 W/m -1,9 C 4,5 C 6,4 km/h (2 Bft) 91,67 %
11.02.2018 13:10 4,4 C 3,9 C 63 % 1008,4 hPa 0,0 l/m 3,4 km/h (1 Bft) SW 236 1 min 0,000 mm 1,0 UV-I 467 W/m -2,0 C 4,4 C 4,8 km/h (1 Bft) 100,00 %
11.02.2018 13:11 4,4 C 3,9 C 62 % 1008,4 hPa 0,0 l/m 2,9 km/h (1 Bft) SW 231 1 min 0,000 mm 1,0 UV-I 459 W/m -2,2 C 4,4 C 4,8 km/h (1 Bft) 96,55 %
11.02.2018 13:12 4,4 C 3,9 C 64 % 1008,4 hPa 0,0 l/m 3,1 km/h (1 Bft) W-SW 258 1 min 0,000 mm 1,0 UV-I 459 W/m -1,8 C 4,4 C 6,4 km/h (2 Bft) 88,46 %
11.02.2018 13:13 4,4 C 3,9 C 64 % 1008,4 hPa 0,0 l/m 5,6 km/h (1 Bft) SW 228 1 min 0,000 mm 1,0 UV-I 464 W/m -1,8 C 4,4 C 6,4 km/h (2 Bft) 97,78 %
11.02.2018 13:14 4,4 C 3,9 C 63 % 1008,4 hPa 0,0 l/m 4,6 km/h (1 Bft) SW 222 1 min 0,000 mm 1,0 UV-I 464 W/m -2,0 C 4,4 C 6,4 km/h (2 Bft) 97,37 %
11.02.2018 13:15 4,4 C 3,9 C 62 % 1008,4 hPa 0,0 l/m 2,1 km/h (1 Bft) SW 222 1 min 0,000 mm 1,0 UV-I 464 W/m -2,2 C 4,4 C 4,8 km/h (1 Bft) 100,00 %
11.02.2018 13:16 4,4 C 3,9 C 64 % 1008,4 hPa 0,0 l/m 0,3 km/h (0 Bft) SW 222 1 min 0,000 mm 1,0 UV-I 464 W/m -1,8 C 4,4 C 1,6 km/h (1 Bft) 96,15 %
11.02.2018 13:17 4,4 C 3,9 C 63 % 1008,4 hPa 0,0 l/m 0,1 km/h (0 Bft) SW 222 1 min 0,000 mm 1,0 UV-I 462 W/m -2,0 C 4,4 C 1,6 km/h (1 Bft) 100,00 %
11.02.2018 13:18 4,3 C 3,9 C 63 % 1008,3 hPa 0,0 l/m 2,8 km/h (1 Bft) S 174 1 min 0,000 mm 1,0 UV-I 462 W/m -2,1 C 4,3 C 8,0 km/h (2 Bft) 95,65 %
11.02.2018 13:19 4,4 C 3,9 C 63 % 1008,3 hPa 0,0 l/m 3,8 km/h (1 Bft) S 174 1 min 0,000 mm 1,0 UV-I 462 W/m -2,0 C 4,4 C 8,0 km/h (2 Bft) 100,00 %
11.02.2018 13:20 4,3 C 3,9 C 63 % 1008,3 hPa 0,0 l/m 3,4 km/h (1 Bft) W-SW 244 1 min 0,000 mm 1,0 UV-I 462 W/m -2,1 C 4,3 C 6,4 km/h (2 Bft) 100,00 %
11.02.2018 13:21 4,3 C 3,9 C 64 % 1008,3 hPa 0,0 l/m 2,4 km/h (1 Bft) W 261 1 min 0,000 mm 1,0 UV-I 462 W/m -1,9 C 4,3 C 3,2 km/h (1 Bft) 100,00 %
11.02.2018 13:22 4,3 C 3,9 C 63 % 1008,2 hPa 0,0 l/m 2,3 km/h (1 Bft) S-SW 211 1 min 0,000 mm 1,0 UV-I 461 W/m -2,1 C 4,3 C 4,8 km/h (1 Bft) 100,00 %
11.02.2018 13:23 4,4 C 3,9 C 64 % 1008,2 hPa 0,0 l/m 2,7 km/h (1 Bft) S-SW 210 1 min 0,000 mm 1,0 UV-I 458 W/m -1,8 C 4,4 C 4,8 km/h (1 Bft) 96,15 %
11.02.2018 13:24 4,4 C 3,9 C 63 % 1008,2 hPa 0,0 l/m 4,5 km/h (1 Bft) W-SW 257 1 min 0,000 mm 1,0 UV-I 455 W/m -2,0 C 4,4 C 6,4 km/h (2 Bft) 100,00 %
11.02.2018 13:25 4,6 C 3,9 C 63 % 1008,2 hPa 0,0 l/m 5,7 km/h (1 Bft) W 281 1 min 0,000 mm 1,0 UV-I 454 W/m -1,8 C 4,6 C 8,0 km/h (2 Bft) 100,00 %
11.02.2018 13:26 4,6 C 3,9 C 63 % 1008,2 hPa 0,0 l/m 6,6 km/h (2 Bft) W-SW 248 1 min 0,000 mm 1,0 UV-I 454 W/m -1,8 C 4,4 C 8,0 km/h (2 Bft) 100,00 %
11.02.2018 13:27 4,4 C 3,9 C 61 % 1008,2 hPa 0,0 l/m 3,1 km/h (1 Bft) W-NW 290 1 min 0,000 mm 1,0 UV-I 452 W/m -2,4 C 4,4 C 4,8 km/h (1 Bft) 100,00 %
11.02.2018 13:28 4,4 C 3,9 C 62 % 1008,2 hPa 0,0 l/m 2,8 km/h (1 Bft) W-NW 294 1 min 0,000 mm 1,0 UV-I 451 W/m -2,2 C 4,4 C 3,2 km/h (1 Bft) 100,00 %
11.02.2018 13:29 4,3 C 3,9 C 63 % 1008,2 hPa 0,0 l/m 2,4 km/h (1 Bft) W-NW 294 1 min 0,000 mm 1,0 UV-I 449 W/m -2,1 C 4,3 C 3,2 km/h (1 Bft) 95,65 %
11.02.2018 13:30 4,4 C 3,9 C 64 % 1008,2 hPa 0,0 l/m 6,1 km/h (2 Bft) S-SW 205 1 min 0,000 mm 0,9 UV-I 446 W/m -1,8 C 4,4 C 8,0 km/h (2 Bft) 100,00 %
11.02.2018 13:31 4,4 C 3,9 C 64 % 1008,2 hPa 0,0 l/m 6,3 km/h (2 Bft) W-SW 238 1 min 0,000 mm 0,9 UV-I 447 W/m -1,8 C 4,4 C 8,0 km/h (2 Bft) 86,96 %
11.02.2018 13:32 4,4 C 3,9 C 62 % 1008,1 hPa 0,0 l/m 3,4 km/h (1 Bft) SW 223 1 min 0,000 mm 0,9 UV-I 438 W/m -2,2 C 4,4 C 6,4 km/h (2 Bft) 100,00 %
11.02.2018 13:33 4,4 C 3,9 C 63 % 1008,1 hPa 0,0 l/m 3,6 km/h (1 Bft) S-SO 150 1 min 0,000 mm 0,9 UV-I 419 W/m -2,0 C 4,4 C 8,0 km/h (2 Bft) 100,00 %
11.02.2018 13:34 4,4 C 3,9 C 62 % 1008,2 hPa 0,0 l/m 4,6 km/h (1 Bft) W 264 1 min 0,000 mm 0,9 UV-I 421 W/m -2,2 C 4,4 C 11,3 km/h (2 Bft) 100,00 %
11.02.2018 13:35 4,4 C 3,9 C 64 % 1008,1 hPa 0,0 l/m 5,1 km/h (1 Bft) SW 229 1 min 0,000 mm 0,9 UV-I 463 W/m -1,8 C 4,4 C 8,0 km/h (2 Bft) 100,00 %
11.02.2018 13:36 4,5 C 3,9 C 63 % 1008,2 hPa 0,0 l/m 6,0 km/h (2 Bft) W-SW 256 1 min 0,000 mm 0,9 UV-I 465 W/m -1,9 C 4,5 C 8,0 km/h (2 Bft) 95,83 %
11.02.2018 13:37 4,6 C 3,9 C 64 % 1008,1 hPa 0,0 l/m 5,6 km/h (1 Bft) W-SW 244 1 min 0,000 mm 0,9 UV-I 468 W/m -1,6 C 4,6 C 8,0 km/h (2 Bft) 95,65 %
11.02.2018 13:38 4,6 C 3,9 C 64 % 1008,1 hPa 0,0 l/m 3,9 km/h (1 Bft) W-SW 238 1 min 0,000 mm 0,9 UV-I 472 W/m -1,6 C 4,6 C 4,8 km/h (1 Bft) 95,83 %
11.02.2018 13:39 4,7 C 3,9 C 67 % 1008,1 hPa 0,0 l/m 2,9 km/h (1 Bft) W-SW 238 1 min 0,000 mm 0,9 UV-I 476 W/m -0,9 C 4,7 C 3,2 km/h (1 Bft) 100,00 %
11.02.2018 13:40 4,9 C 3,9 C 64 % 1008,0 hPa 0,0 l/m 7,3 km/h (2 Bft) S-SW 200 1 min 0,000 mm 0,9 UV-I 419 W/m -1,3 C 4,1 C 9,7 km/h (2 Bft) 96,55 %
11.02.2018 13:41 4,8 C 3,9 C 64 % 1008,0 hPa 0,0 l/m 3,5 km/h (1 Bft) S-SW 192 1 min 0,000 mm 0,9 UV-I 410 W/m -1,4 C 4,8 C 6,4 km/h (2 Bft) 100,00 %
11.02.2018 13:42 4,7 C 3,9 C 62 % 1008,0 hPa 0,0 l/m 4,7 km/h (1 Bft) W 270 1 min 0,000 mm 0,9 UV-I 472 W/m -1,9 C 4,7 C 6,4 km/h (2 Bft) 92,86 %
11.02.2018 13:43 4,7 C 3,9 C 62 % 1008,0 hPa 0,0 l/m 1,3 km/h (1 Bft) SW 236 1 min 0,000 mm 0,9 UV-I 458 W/m -1,9 C 4,7 C 3,2 km/h (1 Bft) 100,00 %
11.02.2018 13:44 4,6 C 3,9 C 61 % 1008,0 hPa 0,0 l/m 5,1 km/h (1 Bft) S-SW 202 1 min 0,000 mm 0,9 UV-I 423 W/m -2,3 C 4,6 C 8,0 km/h (2 Bft) 95,65 %
11.02.2018 13:45 4,6 C 3,9 C 63 % 1007,9 hPa 0,0 l/m 2,1 km/h (1 Bft) SW 236 1 min 0,000 mm 0,9 UV-I 413 W/m -1,8 C 4,6 C 4,8 km/h (1 Bft) 95,83 %
11.02.2018 13:46 4,7 C 3,9 C 63 % 1007,9 hPa 0,0 l/m 2,6 km/h (1 Bft) SW 235 1 min 0,000 mm 0,9 UV-I 377 W/m -1,7 C 4,7 C 6,4 km/h (2 Bft) 96,15 %
11.02.2018 13:47 4,7 C 3,9 C 63 % 1007,9 hPa 0,0 l/m 6,9 km/h (2 Bft) W-SW 242 1 min 0,000 mm 0,8 UV-I 346 W/m -1,7 C 4,3 C 9,7 km/h (2 Bft) 96,30 %
11.02.2018 13:48 4,8 C 3,9 C 63 % 1007,9 hPa 0,0 l/m 2,7 km/h (1 Bft) W-SW 242 0 min 0,000 mm 0,7 UV-I 223 W/m -1,6 C 4,8 C 4,8 km/h (1 Bft) 100,00 %
11.02.2018 13:49 4,7 C 3,9 C 62 % 1007,9 hPa 0,0 l/m 3,6 km/h (1 Bft) SW 235 0 min 0,000 mm 0,8 UV-I 209 W/m -1,9 C 4,7 C 8,0 km/h (2 Bft) 95,83 %
11.02.2018 13:50 4,7 C 3,9 C 63 % 1007,8 hPa 0,0 l/m 5,4 km/h (1 Bft) W-SW 242 0 min 0,000 mm 0,8 UV-I 217 W/m -1,7 C 4,7 C 9,7 km/h (2 Bft) 95,65 %
11.02.2018 13:51 4,7 C 3,9 C 63 % 1007,8 hPa 0,0 l/m 4,7 km/h (1 Bft) S 190 1 min 0,000 mm 0,8 UV-I 315 W/m -1,7 C 4,7 C 6,4 km/h (2 Bft) 95,83 %
11.02.2018 13:52 4,7 C 3,9 C 62 % 1007,8 hPa 0,0 l/m 4,7 km/h (1 Bft) SW 229 1 min 0,000 mm 0,8 UV-I 413 W/m -1,9 C 4,7 C 6,4 km/h (2 Bft) 93,75 %
11.02.2018 13:53 4,7 C 3,9 C 63 % 1007,8 hPa 0,0 l/m 5,6 km/h (1 Bft) S-SW 203 1 min 0,000 mm 0,9 UV-I 406 W/m -1,7 C 4,7 C 8,0 km/h (2 Bft) 100,00 %
11.02.2018 13:54 4,7 C 3,9 C 63 % 1007,8 hPa 0,0 l/m 6,3 km/h (2 Bft) W-SW 240 1 min 0,000 mm 0,8 UV-I 336 W/m -1,7 C 4,7 C 8,0 km/h (2 Bft) 100,00 %
11.02.2018 13:55 4,6 C 3,9 C 62 % 1007,8 hPa 0,0 l/m 5,6 km/h (1 Bft) SW 220 1 min 0,000 mm 0,7 UV-I 268 W/m -2,0 C 4,6 C 9,7 km/h (2 Bft) 96,30 %
11.02.2018 13:56 4,6 C 3,9 C 62 % 1007,8 hPa 0,0 l/m 5,1 km/h (1 Bft) W-SW 257 1 min 0,000 mm 0,7 UV-I 259 W/m -2,0 C 4,6 C 9,7 km/h (2 Bft) 95,65 %
11.02.2018 13:57 4,6 C 3,9 C 63 % 1007,8 hPa 0,0 l/m 5,2 km/h (1 Bft) W-SW 244 1 min 0,000 mm 0,7 UV-I 238 W/m -1,8 C 4,6 C 8,0 km/h (2 Bft) 100,00 %
11.02.2018 13:58 4,5 C 3,9 C 62 % 1007,8 hPa 0,0 l/m 6,3 km/h (2 Bft) W-SW 237 1 min 0,000 mm 0,7 UV-I 249 W/m -2,1 C 4,5 C 8,0 km/h (2 Bft) 95,65 %
11.02.2018 13:59 4,4 C 3,9 C 62 % 1007,8 hPa 0,0 l/m 5,5 km/h (1 Bft) W-SW 240 1 min 0,000 mm 0,7 UV-I 275 W/m -2,2 C 4,4 C 8,0 km/h (2 Bft) 100,00 %
11.02.2018 14:00 4,4 C 3,9 C 63 % 1007,7 hPa 0,0 l/m 4,7 km/h (1 Bft) W-SW 237 1 min 0,000 mm 0,8 UV-I 350 W/m -2,0 C 4,4 C 6,4 km/h (2 Bft) 91,67 %
11.02.2018 14:01 4,4 C 3,9 C 64 % 1007,7 hPa 0,0 l/m 4,0 km/h (1 Bft) W-SW 242 1 min 0,178 mm 0,7 UV-I 332 W/m -1,8 C 4,4 C 4,8 km/h (1 Bft) 100,00 %
11.02.2018 14:02 4,4 C 3,9 C 62 % 1007,7 hPa 0,0 l/m 2,1 km/h (1 Bft) W-SW 242 1 min 0,000 mm 0,7 UV-I 311 W/m -2,2 C 4,4 C 3,2 km/h (1 Bft) 95,83 %
11.02.2018 14:03 4,4 C 3,9 C 63 % 1007,7 hPa 0,0 l/m 3,8 km/h (1 Bft) W-SW 242 1 min 0,000 mm 0,7 UV-I 266 W/m -2,0 C 4,4 C 6,4 km/h (2 Bft) 100,00 %
11.02.2018 14:04 4,4 C 3,9 C 64 % 1007,7 hPa 0,0 l/m 3,8 km/h (1 Bft) W-SW 242 1 min 0,000 mm 0,7 UV-I 309 W/m -1,8 C 4,4 C 4,8 km/h (1 Bft) 95,83 %
11.02.2018 14:05 4,4 C 3,9 C 63 % 1007,7 hPa 0,0 l/m 4,8 km/h (1 Bft) W 261 1 min 0,000 mm 0,7 UV-I 377 W/m -2,0 C 4,4 C 9,7 km/h (2 Bft) 92,31 %
11.02.2018 14:06 4,4 C 3,9 C 64 % 1007,7 hPa 0,0 l/m 5,2 km/h (1 Bft) W-SW 252 1 min 0,000 mm 0,8 UV-I 458 W/m -1,8 C 4,4 C 8,0 km/h (2 Bft) 95,83 %
11.02.2018 14:07 4,5 C 3,9 C 63 % 1007,7 hPa 0,0 l/m 2,7 km/h (1 Bft) W-SW 252 1 min 0,000 mm 0,8 UV-I 517 W/m -1,9 C 4,5 C 3,2 km/h (1 Bft) 94,12 %
11.02.2018 14:08 4,6 C 3,9 C 63 % 1007,6 hPa 0,0 l/m 2,7 km/h (1 Bft) S-SW 198 1 min 0,000 mm 0,8 UV-I 492 W/m -1,8 C 4,6 C 6,4 km/h (2 Bft) 92,59 %
11.02.2018 14:09 4,6 C 3,9 C 63 % 1007,6 hPa 0,0 l/m 4,2 km/h (1 Bft) SW 215 1 min 0,000 mm 0,8 UV-I 476 W/m -1,8 C 4,6 C 4,8 km/h (1 Bft) 96,55 %
11.02.2018 14:10 4,7 C 3,9 C 63 % 1007,6 hPa 0,0 l/m 5,0 km/h (1 Bft) W-SW 249 1 min 0,000 mm 0,8 UV-I 403 W/m -1,7 C 4,7 C 6,4 km/h (2 Bft) 100,00 %
11.02.2018 14:11 4,7 C 3,9 C 62 % 1007,6 hPa 0,0 l/m 5,2 km/h (1 Bft) W 262 1 min 0,000 mm 0,8 UV-I 381 W/m -1,9 C 4,7 C 6,4 km/h (2 Bft) 96,55 %
11.02.2018 14:12 4,7 C 3,9 C 62 % 1007,6 hPa 0,0 l/m 4,2 km/h (1 Bft) W-NW 284 1 min 0,000 mm 0,7 UV-I 426 W/m -1,9 C 4,7 C 4,8 km/h (1 Bft) 100,00 %
11.02.2018 14:13 4,7 C 3,9 C 63 % 1007,6 hPa 0,0 l/m 3,6 km/h (1 Bft) NW 306 1 min 0,000 mm 0,7 UV-I 389 W/m -1,7 C 4,7 C 4,8 km/h (1 Bft) 95,65 %
11.02.2018 14:14 4,7 C 3,9 C 62 % 1007,6 hPa 0,0 l/m 3,1 km/h (1 Bft) NW 320 1 min 0,000 mm 0,7 UV-I 445 W/m -1,9 C 4,7 C 4,8 km/h (1 Bft) 96,30 %
11.02.2018 14:15 4,7 C 3,9 C 63 % 1007,5 hPa 0,0 l/m 0,3 km/h (0 Bft) NW 320 1 min 0,000 mm 0,7 UV-I 373 W/m -1,7 C 4,7 C 1,6 km/h (1 Bft) 100,00 %
11.02.2018 14:16 4,7 C 3,9 C 63 % 1007,5 hPa 0,0 l/m 0,2 km/h (0 Bft) NW 320 1 min 0,000 mm 0,6 UV-I 225 W/m -1,7 C 4,7 C 1,6 km/h (1 Bft) 100,00 %
11.02.2018 14:18 4,7 C 3,9 C 63 % 1007,5 hPa 0,0 l/m 2,7 km/h (1 Bft) SW 236 0 min 0,000 mm 0,6 UV-I 184 W/m -1,7 C 4,7 C 4,8 km/h (1 Bft) 96,23 %
11.02.2018 14:19 4,7 C 3,9 C 65 % 1007,5 hPa 0,0 l/m 3,2 km/h (1 Bft) S-SW 211 0 min 0,000 mm 0,5 UV-I 169 W/m -1,3 C 4,7 C 4,8 km/h (1 Bft) 95,83 %
11.02.2018 14:20 4,7 C 3,9 C 65 % 1007,5 hPa 0,0 l/m 2,5 km/h (1 Bft) S-SW 212 0 min 0,000 mm 0,5 UV-I 176 W/m -1,3 C 4,7 C 4,8 km/h (1 Bft) 95,65 %
11.02.2018 14:21 4,7 C 3,9 C 64 % 1007,4 hPa 0,0 l/m 4,3 km/h (1 Bft) S-SW 211 0 min 0,000 mm 0,5 UV-I 194 W/m -1,5 C 4,7 C 6,4 km/h (2 Bft) 97,73 %
11.02.2018 14:22 4,7 C 3,9 C 65 % 1007,4 hPa 0,0 l/m 4,8 km/h (1 Bft) S-SW 206 0 min 0,000 mm 0,5 UV-I 209 W/m -1,3 C 4,7 C 8,0 km/h (2 Bft) 95,12 %
11.02.2018 14:23 4,6 C 3,9 C 63 % 1007,4 hPa 0,0 l/m 2,5 km/h (1 Bft) S-SW 206 1 min 0,000 mm 0,5 UV-I 267 W/m -1,8 C 4,6 C 3,2 km/h (1 Bft) 100,00 %
11.02.2018 14:24 4,6 C 3,9 C 64 % 1007,4 hPa 0,0 l/m 1,1 km/h (1 Bft) SO 135 1 min 0,000 mm 0,5 UV-I 255 W/m -1,6 C 4,6 C 4,8 km/h (1 Bft) 91,30 %
11.02.2018 14:25 4,6 C 3,9 C 64 % 1007,3 hPa 0,0 l/m 2,9 km/h (1 Bft) SO 135 1 min 0,000 mm 0,5 UV-I 231 W/m -1,6 C 4,6 C 4,8 km/h (1 Bft) 100,00 %
11.02.2018 14:26 4,7 C 3,9 C 64 % 1007,4 hPa 0,0 l/m 3,2 km/h (1 Bft) SO 138 1 min 0,000 mm 0,5 UV-I 266 W/m -1,5 C 4,7 C 4,8 km/h (1 Bft) 91,30 %
11.02.2018 14:27 4,7 C 3,9 C 65 % 1007,4 hPa 0,0 l/m 2,8 km/h (1 Bft) S-SW 193 1 min 0,000 mm 0,5 UV-I 285 W/m -1,3 C 4,7 C 4,8 km/h (1 Bft) 93,33 %
11.02.2018 14:28 4,7 C 3,9 C 65 % 1007,4 hPa 0,0 l/m 1,3 km/h (1 Bft) S-SO 161 1 min 0,000 mm 0,6 UV-I 266 W/m -1,3 C 4,7 C 3,2 km/h (1 Bft) 100,00 %
11.02.2018 14:29 4,7 C 3,9 C 65 % 1007,3 hPa 0,0 l/m 2,5 km/h (1 Bft) SW 218 1 min 0,000 mm 0,5 UV-I 228 W/m -1,3 C 4,7 C 6,4 km/h (2 Bft) 100,00 %
11.02.2018 14:30 4,8 C 3,9 C 65 % 1007,3 hPa 0,0 l/m 2,9 km/h (1 Bft) S-SO 157 1 min 0,000 mm 0,5 UV-I 225 W/m -1,2 C 4,8 C 4,8 km/h (1 Bft) 89,66 %
11.02.2018 14:31 4,8 C 3,9 C 63 % 1007,3 hPa 0,0 l/m 3,1 km/h (1 Bft) S 173 1 min 0,000 mm 0,5 UV-I 230 W/m -1,6 C 4,8 C 6,4 km/h (2 Bft) 92,59 %
11.02.2018 14:32 4,7 C 3,9 C 63 % 1007,3 hPa 0,0 l/m 3,1 km/h (1 Bft) S-SO 165 1 min 0,000 mm 0,5 UV-I 239 W/m -1,7 C 4,7 C 6,4 km/h (2 Bft) 100,00 %
11.02.2018 14:33 4,7 C 3,9 C 64 % 1007,3 hPa 0,0 l/m 5,6 km/h (1 Bft) S-SO 147 1 min 0,000 mm 0,5 UV-I 240 W/m -1,5 C 4,7 C 8,0 km/h (2 Bft) 91,67 %
11.02.2018 14:34 4,6 C 3,9 C 62 % 1007,3 hPa 0,0 l/m 2,1 km/h (1 Bft) S-SO 148 1 min 0,000 mm 0,5 UV-I 238 W/m -2,0 C 4,6 C 3,2 km/h (1 Bft) 96,55 %
11.02.2018 14:35 4,6 C 3,9 C 63 % 1007,3 hPa 0,0 l/m 1,0 km/h (0 Bft) S-SO 148 1 min 0,000 mm 0,5 UV-I 236 W/m -1,8 C 4,6 C 1,6 km/h (1 Bft) 93,33 %
11.02.2018 14:36 4,5 C 3,9 C 65 % 1007,3 hPa 0,0 l/m 3,0 km/h (1 Bft) S 190 1 min 0,000 mm 0,5 UV-I 244 W/m -1,5 C 4,5 C 4,8 km/h (1 Bft) 100,00 %
11.02.2018 14:37 4,6 C 3,9 C 65 % 1007,3 hPa 0,0 l/m 5,4 km/h (1 Bft) W-SW 237 1 min 0,000 mm 0,5 UV-I 237 W/m -1,4 C 4,6 C 8,0 km/h (2 Bft) 92,31 %
11.02.2018 14:38 4,7 C 3,9 C 65 % 1007,3 hPa 0,0 l/m 6,1 km/h (2 Bft) S-SW 213 1 min 0,000 mm 0,5 UV-I 244 W/m -1,3 C 4,7 C 8,0 km/h (2 Bft) 93,10 %
11.02.2018 14:39 4,7 C 3,9 C 64 % 1007,2 hPa 0,0 l/m 2,3 km/h (1 Bft) S-SW 201 1 min 0,000 mm 0,0 UV-I 225 W/m -1,5 C 4,7 C 3,2 km/h (1 Bft) 100,00 %
11.02.2018 14:40 4,7 C 3,9 C 64 % 1007,2 hPa 0,0 l/m 3,1 km/h (1 Bft) S-SW 202 0 min 0,000 mm 0,0 UV-I 193 W/m -1,5 C 4,7 C 4,8 km/h (1 Bft) 86,67 %
11.02.2018 14:41 4,6 C 3,9 C 64 % 1007,2 hPa 0,0 l/m 2,9 km/h (1 Bft) S 184 0 min 0,000 mm 0,0 UV-I 187 W/m -1,6 C 4,6 C 4,8 km/h (1 Bft) 100,00 %
11.02.2018 14:42 4,6 C 3,9 C 65 % 1007,2 hPa 0,0 l/m 3,3 km/h (1 Bft) S 186 0 min 0,000 mm 0,0 UV-I 181 W/m -1,4 C 4,6 C 4,8 km/h (1 Bft) 83,33 %
11.02.2018 14:43 4,6 C 3,9 C 65 % 1007,2 hPa 0,0 l/m 4,9 km/h (1 Bft) S 178 0 min 0,000 mm 0,0 UV-I 176 W/m -1,4 C 4,6 C 8,0 km/h (2 Bft) 100,00 %
11.02.2018 14:44 4,6 C 3,9 C 64 % 1007,2 hPa 0,0 l/m 2,8 km/h (1 Bft) S 173 0 min 0,000 mm 0,0 UV-I 168 W/m -1,6 C 4,6 C 4,8 km/h (1 Bft) 93,33 %
11.02.2018 14:45 4,6 C 3,9 C 64 % 1007,2 hPa 0,0 l/m 4,3 km/h (1 Bft) SW 234 0 min 0,000 mm 0,0 UV-I 160 W/m -1,6 C 4,6 C 8,0 km/h (2 Bft) 92,68 %
11.02.2018 14:46 4,6 C 3,9 C 65 % 1007,1 hPa 0,0 l/m 4,7 km/h (1 Bft) SW 225 0 min 0,000 mm 0,0 UV-I 153 W/m -1,4 C 4,6 C 6,4 km/h (2 Bft) 95,83 %
11.02.2018 14:47 4,6 C 3,9 C 65 % 1007,1 hPa 0,0 l/m 4,8 km/h (1 Bft) S-SO 160 0 min 0,000 mm 0,0 UV-I 149 W/m -1,4 C 4,6 C 6,4 km/h (2 Bft) 100,00 %
11.02.2018 14:48 4,6 C 3,9 C 64 % 1007,1 hPa 0,0 l/m 3,4 km/h (1 Bft) S 169 0 min 0,000 mm 0,0 UV-I 143 W/m -1,6 C 4,6 C 6,4 km/h (2 Bft) 92,31 %
11.02.2018 14:49 4,6 C 3,9 C 64 % 1007,1 hPa 0,0 l/m 3,1 km/h (1 Bft) S-SO 162 0 min 0,000 mm 0,0 UV-I 141 W/m -1,6 C 4,6 C 6,4 km/h (2 Bft) 96,15 %
11.02.2018 14:50 4,6 C 3,9 C 65 % 1007,1 hPa 0,0 l/m 3,1 km/h (1 Bft) S-SO 163 0 min 0,000 mm 0,0 UV-I 141 W/m -1,4 C 4,6 C 6,4 km/h (2 Bft) 95,83 %
11.02.2018 14:51 4,6 C 3,9 C 65 % 1007,1 hPa 0,0 l/m 4,4 km/h (1 Bft) S-SW 207 0 min 0,000 mm 0,0 UV-I 141 W/m -1,4 C 4,6 C 8,0 km/h (2 Bft) 91,30 %
11.02.2018 14:52 4,6 C 3,9 C 65 % 1007,1 hPa 0,0 l/m 5,6 km/h (1 Bft) S-SW 197 0 min 0,000 mm 0,0 UV-I 141 W/m -1,4 C 4,6 C 6,4 km/h (2 Bft) 100,00 %
11.02.2018 14:53 4,6 C 3,9 C 64 % 1007,1 hPa 0,0 l/m 2,2 km/h (1 Bft) S-SW 199 0 min 0,000 mm 0,0 UV-I 140 W/m -1,6 C 4,6 C 4,8 km/h (1 Bft) 91,67 %
11.02.2018 14:54 4,6 C 3,9 C 66 % 1007,2 hPa 0,0 l/m 4,1 km/h (1 Bft) S-SW 199 0 min 0,000 mm 0,0 UV-I 139 W/m -1,2 C 4,6 C 6,4 km/h (2 Bft) 100,00 %
11.02.2018 14:55 4,6 C 3,9 C 66 % 1007,1 hPa 0,0 l/m 3,6 km/h (1 Bft) S-SW 199 0 min 0,000 mm 0,0 UV-I 139 W/m -1,2 C 4,6 C 4,8 km/h (1 Bft) 95,83 %
11.02.2018 14:56 4,7 C 3,9 C 67 % 1007,1 hPa 0,0 l/m 5,9 km/h (2 Bft) S-SW 212 0 min 0,000 mm 0,0 UV-I 136 W/m -0,9 C 4,7 C 8,0 km/h (2 Bft) 100,00 %
11.02.2018 14:57 4,7 C 3,9 C 65 % 1007,1 hPa 0,0 l/m 3,3 km/h (1 Bft) S-SW 211 0 min 0,000 mm 0,0 UV-I 132 W/m -1,3 C 4,7 C 6,4 km/h (2 Bft) 95,83 %
11.02.2018 14:58 4,6 C 3,9 C 66 % 1007,1 hPa 0,0 l/m 2,5 km/h (1 Bft) S-SW 211 0 min 0,000 mm 0,0 UV-I 128 W/m -1,2 C 4,6 C 4,8 km/h (1 Bft) 95,65 %
11.02.2018 14:59 4,6 C 3,9 C 67 % 1007,1 hPa 0,0 l/m 4,5 km/h (1 Bft) S-SO 159 0 min 0,000 mm 0,0 UV-I 124 W/m -1,0 C 4,6 C 9,7 km/h (2 Bft) 91,67 %
11.02.2018 15:00 4,6 C 3,9 C 67 % 1007,1 hPa 0,0 l/m 2,7 km/h (1 Bft) S-SO 161 0 min 0,000 mm 0,0 UV-I 121 W/m -1,0 C 4,6 C 6,4 km/h (2 Bft) 96,55 %
11.02.2018 15:01 4,6 C 3,9 C 66 % 1007,1 hPa 0,0 l/m 3,4 km/h (1 Bft) S-SO 157 0 min 0,102 mm 0,0 UV-I 119 W/m -1,2 C 4,6 C 6,4 km/h (2 Bft) 100,00 %
11.02.2018 15:02 4,6 C 3,9 C 66 % 1007,1 hPa 0,0 l/m 1,9 km/h (1 Bft) S 188 0 min 0,000 mm 0,0 UV-I 115 W/m -1,2 C 4,6 C 4,8 km/h (1 Bft) 88,24 %
11.02.2018 15:03 4,6 C 3,9 C 66 % 1007,1 hPa 0,0 l/m 2,1 km/h (1 Bft) S-SW 202 0 min 0,000 mm 0,0 UV-I 113 W/m -1,2 C 4,6 C 4,8 km/h (1 Bft) 100,00 %
11.02.2018 15:04 4,5 C 3,9 C 65 % 1007,1 hPa 0,0 l/m 1,7 km/h (1 Bft) S-SW 201 0 min 0,000 mm 0,0 UV-I 110 W/m -1,5 C 4,5 C 3,2 km/h (1 Bft) 95,65 %
11.02.2018 15:05 4,5 C 3,9 C 65 % 1007,1 hPa 0,0 l/m 3,0 km/h (1 Bft) S 170 0 min 0,000 mm 0,0 UV-I 107 W/m -1,5 C 4,5 C 6,4 km/h (2 Bft) 100,00 %
11.02.2018 15:06 4,5 C 3,9 C 65 % 1007,1 hPa 0,0 l/m 3,0 km/h (1 Bft) S-SO 157 0 min 0,000 mm 0,0 UV-I 105 W/m -1,5 C 4,5 C 6,4 km/h (2 Bft) 96,15 %
11.02.2018 15:07 4,4 C 3,9 C 66 % 1007,1 hPa 0,0 l/m 2,3 km/h (1 Bft) S-SO 158 0 min 0,000 mm 0,0 UV-I 104 W/m -1,4 C 4,4 C 4,8 km/h (1 Bft) 100,00 %
11.02.2018 15:08 4,5 C 3,9 C 66 % 1007,1 hPa 0,0 l/m 2,6 km/h (1 Bft) S-SO 161 0 min 0,000 mm 0,0 UV-I 102 W/m -1,3 C 4,5 C 6,4 km/h (2 Bft) 95,83 %
11.02.2018 15:09 4,4 C 4,4 C 66 % 1007,1 hPa 0,0 l/m 3,2 km/h (1 Bft) S 169 0 min 0,000 mm 0,0 UV-I 103 W/m -1,4 C 4,4 C 8,0 km/h (2 Bft) 100,00 %
11.02.2018 15:10 4,4 C 3,9 C 66 % 1007,0 hPa 0,0 l/m 4,5 km/h (1 Bft) S 178 0 min 0,000 mm 0,0 UV-I 105 W/m -1,4 C 4,4 C 6,4 km/h (2 Bft) 96,30 %
11.02.2018 15:11 4,4 C 4,4 C 66 % 1007,0 hPa 0,0 l/m 5,2 km/h (1 Bft) SW 218 0 min 0,000 mm 0,0 UV-I 108 W/m -1,4 C 4,4 C 8,0 km/h (2 Bft) 100,00 %
11.02.2018 15:12 4,4 C 3,9 C 66 % 1007,0 hPa 0,0 l/m 2,7 km/h (1 Bft) SW 214 0 min 0,000 mm 0,0 UV-I 113 W/m -1,4 C 4,4 C 4,8 km/h (1 Bft) 92,59 %
11.02.2018 15:13 4,4 C 3,9 C 66 % 1007,0 hPa 0,0 l/m 1,5 km/h (1 Bft) SW 214 0 min 0,000 mm 0,0 UV-I 117 W/m -1,4 C 4,4 C 3,2 km/h (1 Bft) 100,00 %
11.02.2018 15:14 4,4 C 3,9 C 67 % 1007,0 hPa 0,0 l/m 3,5 km/h (1 Bft) SW 214 0 min 0,000 mm 0,0 UV-I 122 W/m -1,2 C 4,4 C 4,8 km/h (1 Bft) 96,30 %
11.02.2018 15:15 4,5 C 3,9 C 67 % 1007,0 hPa 0,0 l/m 4,7 km/h (1 Bft) SW 214 0 min 0,000 mm 0,0 UV-I 125 W/m -1,1 C 4,5 C 6,4 km/h (2 Bft) 96,15 %
11.02.2018 15:16 4,5 C 3,9 C 68 % 1007,0 hPa 0,0 l/m 5,4 km/h (1 Bft) S-SW 201 0 min 0,000 mm 0,0 UV-I 131 W/m -0,9 C 4,5 C 8,0 km/h (2 Bft) 100,00 %
11.02.2018 15:17 4,6 C 3,9 C 67 % 1007,0 hPa 0,0 l/m 3,8 km/h (1 Bft) S 169 0 min 0,000 mm 0,0 UV-I 138 W/m -1,0 C 4,6 C 6,4 km/h (2 Bft) 95,65 %
11.02.2018 15:18 4,6 C 3,9 C 67 % 1007,0 hPa 0,0 l/m 2,6 km/h (1 Bft) S 171 0 min 0,000 mm 0,0 UV-I 140 W/m -1,0 C 4,6 C 6,4 km/h (2 Bft) 100,00 %
11.02.2018 15:19 4,5 C 4,4 C 67 % 1007,0 hPa 0,0 l/m 2,9 km/h (1 Bft) S 172 0 min 0,000 mm 0,0 UV-I 137 W/m -1,1 C 4,5 C 4,8 km/h (1 Bft) 95,65 %
11.02.2018 15:20 4,5 C 4,4 C 67 % 1007,0 hPa 0,0 l/m 2,6 km/h (1 Bft) S 187 0 min 0,000 mm 0,0 UV-I 134 W/m -1,1 C 4,5 C 4,8 km/h (1 Bft) 95,83 %
11.02.2018 15:21 4,5 C 3,9 C 66 % 1007,0 hPa 0,0 l/m 5,1 km/h (1 Bft) S-SW 194 0 min 0,000 mm 0,0 UV-I 130 W/m -1,3 C 4,5 C 6,4 km/h (2 Bft) 96,15 %
11.02.2018 15:22 4,5 C 3,9 C 68 % 1007,0 hPa 0,0 l/m 4,9 km/h (1 Bft) S-SW 201 0 min 0,000 mm 0,0 UV-I 127 W/m -0,9 C 4,5 C 6,4 km/h (2 Bft) 95,83 %
11.02.2018 15:23 4,5 C 3,9 C 66 % 1006,9 hPa 0,0 l/m 4,8 km/h (1 Bft) SW 219 0 min 0,000 mm 0,0 UV-I 125 W/m -1,3 C 4,5 C 6,4 km/h (2 Bft) 100,00 %
11.02.2018 15:24 4,6 C 3,9 C 68 % 1007,0 hPa 0,0 l/m 7,8 km/h (2 Bft) S-SW 194 0 min 0,000 mm 0,0 UV-I 125 W/m -0,8 C 3,4 C 9,7 km/h (2 Bft) 95,83 %
11.02.2018 15:25 4,6 C 3,9 C 66 % 1007,0 hPa 0,0 l/m 5,5 km/h (1 Bft) SW 219 0 min 0,000 mm 0,0 UV-I 125 W/m -1,2 C 4,6 C 8,0 km/h (2 Bft) 100,00 %
11.02.2018 15:26 4,6 C 4,4 C 66 % 1007,0 hPa 0,0 l/m 3,4 km/h (1 Bft) S 173 0 min 0,000 mm 0,0 UV-I 126 W/m -1,2 C 4,6 C 6,4 km/h (2 Bft) 93,33 %
11.02.2018 15:27 4,6 C 4,4 C 66 % 1007,0 hPa 0,0 l/m 4,2 km/h (1 Bft) SW 219 0 min 0,000 mm 0,0 UV-I 128 W/m -1,2 C 4,6 C 6,4 km/h (2 Bft) 100,00 %
11.02.2018 15:28 4,6 C 4,4 C 66 % 1007,0 hPa 0,0 l/m 6,5 km/h (2 Bft) W-SW 250 0 min 0,000 mm 0,0 UV-I 129 W/m -1,2 C 4,5 C 8,0 km/h (2 Bft) 96,15 %
11.02.2018 15:29 4,6 C 4,4 C 66 % 1007,0 hPa 0,0 l/m 5,3 km/h (1 Bft) W-SW 237 0 min 0,000 mm 0,0 UV-I 132 W/m -1,2 C 4,6 C 8,0 km/h (2 Bft) 100,00 %
11.02.2018 15:30 4,6 C 3,9 C 66 % 1007,0 hPa 0,0 l/m 4,8 km/h (1 Bft) W-SW 244 0 min 0,000 mm 0,0 UV-I 132 W/m -1,2 C 4,6 C 6,4 km/h (2 Bft) 88,89 %
11.02.2018 15:31 4,6 C 3,9 C 67 % 1006,9 hPa 0,0 l/m 7,7 km/h (2 Bft) SW 218 0 min 0,000 mm 0,0 UV-I 131 W/m -1,0 C 3,4 C 11,3 km/h (2 Bft) 100,00 %
11.02.2018 15:32 4,6 C 3,9 C 67 % 1007,0 hPa 0,0 l/m 8,1 km/h (2 Bft) S-SW 213 0 min 0,000 mm 0,0 UV-I 130 W/m -1,0 C 3,1 C 11,3 km/h (2 Bft) 95,65 %
11.02.2018 15:33 4,6 C 3,9 C 67 % 1007,0 hPa 0,0 l/m 5,9 km/h (2 Bft) W-SW 251 0 min 0,000 mm 0,0 UV-I 130 W/m -1,0 C 4,6 C 17,7 km/h (3 Bft) 100,00 %
11.02.2018 15:34 4,6 C 3,9 C 66 % 1006,9 hPa 0,0 l/m 10,9 km/h (2 Bft) SW 219 0 min 0,000 mm 0,0 UV-I 131 W/m -1,2 C 1,0 C 16,1 km/h (3 Bft) 100,00 %
11.02.2018 15:35 4,5 C 3,9 C 67 % 1007,0 hPa 0,0 l/m 11,9 km/h (2 Bft) W-SW 244 0 min 0,000 mm 0,0 UV-I 132 W/m -1,1 C 0,2 C 19,3 km/h (3 Bft) 100,00 %
11.02.2018 15:36 4,5 C 3,9 C 67 % 1006,9 hPa 0,0 l/m 10,0 km/h (2 Bft) SW 218 0 min 0,000 mm 0,0 UV-I 132 W/m -1,1 C 1,5 C 14,5 km/h (3 Bft) 96,15 %
11.02.2018 15:37 4,5 C 3,9 C 67 % 1006,9 hPa 0,0 l/m 8,4 km/h (2 Bft) S 190 0 min 0,000 mm 0,0 UV-I 131 W/m -1,1 C 2,7 C 12,9 km/h (3 Bft) 100,00 %
11.02.2018 15:38 4,4 C 3,9 C 67 % 1006,9 hPa 0,0 l/m 7,7 km/h (2 Bft) SW 234 0 min 0,000 mm 0,0 UV-I 128 W/m -1,2 C 3,2 C 9,7 km/h (2 Bft) 92,31 %
11.02.2018 15:39 4,4 C 3,9 C 67 % 1006,9 hPa 0,0 l/m 8,8 km/h (2 Bft) S 182 0 min 0,000 mm 0,0 UV-I 122 W/m -1,2 C 2,3 C 12,9 km/h (3 Bft) 100,00 %
11.02.2018 15:40 4,4 C 3,9 C 67 % 1006,9 hPa 0,0 l/m 9,4 km/h (2 Bft) W-SW 250 0 min 0,000 mm 0,0 UV-I 116 W/m -1,2 C 1,9 C 12,9 km/h (3 Bft) 100,00 %
11.02.2018 15:41 4,4 C 3,9 C 68 % 1006,8 hPa 0,0 l/m 10,5 km/h (2 Bft) W 259 0 min 0,000 mm 0,0 UV-I 112 W/m -1,0 C 1,1 C 14,5 km/h (3 Bft) 95,83 %
11.02.2018 15:42 4,4 C 3,9 C 68 % 1006,8 hPa 0,0 l/m 12,9 km/h (3 Bft) SW 234 0 min 0,000 mm 0,0 UV-I 104 W/m -1,0 C -0,5 C 17,7 km/h (3 Bft) 100,00 %
11.02.2018 15:43 4,4 C 3,9 C 67 % 1006,9 hPa 0,0 l/m 16,6 km/h (3 Bft) W-SW 246 0 min 0,000 mm 0,0 UV-I 99 W/m -1,2 C -2,5 C 19,3 km/h (3 Bft) 100,00 %
11.02.2018 15:44 4,4 C 3,9 C 67 % 1006,8 hPa 0,0 l/m 13,4 km/h (3 Bft) SW 220 0 min 0,000 mm 0,0 UV-I 96 W/m -1,2 C -0,8 C 24,1 km/h (4 Bft) 100,00 %
11.02.2018 15:45 4,4 C 3,9 C 68 % 1006,8 hPa 0,0 l/m 15,0 km/h (3 Bft) W-SW 250 0 min 0,000 mm 0,0 UV-I 94 W/m -1,0 C -1,7 C 22,5 km/h (4 Bft) 88,46 %
11.02.2018 15:46 4,3 C 3,9 C 68 % 1006,8 hPa 0,0 l/m 11,2 km/h (2 Bft) W-SW 237 0 min 0,000 mm 0,0 UV-I 93 W/m -1,1 C 0,5 C 20,9 km/h (4 Bft) 100,00 %
11.02.2018 15:47 4,3 C 3,9 C 69 % 1006,8 hPa 0,0 l/m 15,3 km/h (3 Bft) SW 234 0 min 0,000 mm 0,0 UV-I 93 W/m -0,9 C -1,9 C 22,5 km/h (4 Bft) 96,15 %
11.02.2018 15:48 4,3 C 4,4 C 70 % 1006,8 hPa 0,0 l/m 20,1 km/h (4 Bft) SW 235 0 min 0,000 mm 0,0 UV-I 93 W/m -0,7 C -4,1 C 27,4 km/h (4 Bft) 100,00 %
11.02.2018 15:49 4,2 C 4,4 C 71 % 1006,9 hPa 0,0 l/m 19,7 km/h (3 Bft) SW 234 0 min 0,000 mm 0,0 UV-I 92 W/m -0,6 C -4,1 C 27,4 km/h (4 Bft) 100,00 %
11.02.2018 15:50 4,2 C 4,4 C 71 % 1006,8 hPa 0,0 l/m 14,4 km/h (3 Bft) S 170 0 min 0,000 mm 0,0 UV-I 91 W/m -0,6 C -1,6 C 22,5 km/h (4 Bft) 100,00 %
11.02.2018 15:51 4,1 C 4,4 C 72 % 1006,8 hPa 0,0 l/m 13,9 km/h (3 Bft) W-SW 257 0 min 0,000 mm 0,0 UV-I 91 W/m -0,5 C -1,4 C 17,7 km/h (3 Bft) 100,00 %
11.02.2018 15:52 4,0 C 3,9 C 73 % 1006,9 hPa 0,0 l/m 13,9 km/h (3 Bft) W-SW 248 0 min 0,000 mm 0,0 UV-I 91 W/m -0,4 C -1,5 C 17,7 km/h (3 Bft) 100,00 %
11.02.2018 15:53 3,9 C 4,4 C 73 % 1006,8 hPa 0,0 l/m 17,2 km/h (3 Bft) W-SW 249 0 min 0,000 mm 0,0 UV-I 91 W/m -0,5 C -3,4 C 22,5 km/h (4 Bft) 100,00 %
11.02.2018 15:54 3,8 C 4,4 C 73 % 1006,9 hPa 0,0 l/m 17,6 km/h (3 Bft) W-SW 250 0 min 0,000 mm 0,0 UV-I 91 W/m -0,6 C -3,7 C 24,1 km/h (4 Bft) 100,00 %
11.02.2018 15:55 3,8 C 4,4 C 74 % 1006,9 hPa 0,0 l/m 18,4 km/h (3 Bft) W-SW 252 0 min 0,000 mm 0,0 UV-I 92 W/m -0,4 C -4,0 C 24,1 km/h (4 Bft) 100,00 %
11.02.2018 15:56 3,8 C 3,9 C 74 % 1007,0 hPa 0,0 l/m 11,6 km/h (2 Bft) SW 229 0 min 0,000 mm 0,0 UV-I 92 W/m -0,4 C -0,4 C 19,3 km/h (3 Bft) 100,00 %
11.02.2018 15:57 3,7 C 3,9 C 75 % 1006,9 hPa 0,0 l/m 16,3 km/h (3 Bft) W-SW 238 0 min 0,000 mm 0,0 UV-I 91 W/m -0,3 C -3,2 C 19,3 km/h (3 Bft) 92,86 %
11.02.2018 15:58 3,7 C 3,9 C 75 % 1006,9 hPa 0,0 l/m 11,0 km/h (2 Bft) SW 221 0 min 0,000 mm 0,0 UV-I 90 W/m -0,3 C -0,1 C 19,3 km/h (3 Bft) 100,00 %
11.02.2018 15:59 3,7 C 3,9 C 75 % 1006,9 hPa 0,0 l/m 10,5 km/h (2 Bft) SW 215 0 min 0,000 mm 0,0 UV-I 88 W/m -0,3 C 0,3 C 14,5 km/h (3 Bft) 100,00 %
11.02.2018 16:00 3,7 C 3,9 C 76 % 1007,0 hPa 0,0 l/m 7,9 km/h (2 Bft) SW 234 0 min 0,000 mm 0,0 UV-I 85 W/m -0,1 C 2,3 C 11,3 km/h (2 Bft) 100,00 %
11.02.2018 16:01 3,6 C 3,9 C 76 % 1006,9 hPa 0,0 l/m 11,6 km/h (2 Bft) SW 236 0 min 0,076 mm 0,0 UV-I 84 W/m -0,2 C -0,6 C 16,1 km/h (3 Bft) 96,15 %
11.02.2018 16:02 3,6 C 3,9 C 76 % 1006,9 hPa 0,0 l/m 9,9 km/h (2 Bft) SW 219 0 min 0,000 mm 0,0 UV-I 82 W/m -0,2 C 0,6 C 16,1 km/h (3 Bft) 100,00 %
11.02.2018 16:03 3,6 C 3,9 C 77 % 1006,9 hPa 0,0 l/m 9,7 km/h (2 Bft) W-SW 242 0 min 0,000 mm 0,0 UV-I 81 W/m -0,0 C 0,8 C 16,1 km/h (3 Bft) 100,00 %
11.02.2018 16:04 3,6 C 3,9 C 77 % 1006,9 hPa 0,0 l/m 7,2 km/h (2 Bft) W-SW 239 0 min 0,000 mm 0,0 UV-I 80 W/m -0,0 C 2,9 C 8,0 km/h (2 Bft) 96,55 %
11.02.2018 16:05 3,6 C 4,4 C 77 % 1006,9 hPa 0,0 l/m 10,4 km/h (2 Bft) S-SW 212 0 min 0,000 mm 0,0 UV-I 79 W/m -0,0 C 0,2 C 16,1 km/h (3 Bft) 91,67 %
11.02.2018 16:06 3,6 C 4,4 C 77 % 1006,9 hPa 0,0 l/m 11,1 km/h (2 Bft) W 259 0 min 0,000 mm 0,0 UV-I 80 W/m -0,0 C -0,3 C 16,1 km/h (3 Bft) 96,88 %
11.02.2018 16:07 3,6 C 4,4 C 77 % 1006,9 hPa 0,0 l/m 8,3 km/h (2 Bft) W-SW 244 0 min 0,000 mm 0,0 UV-I 84 W/m -0,0 C 1,9 C 11,3 km/h (2 Bft) 100,00 %
11.02.2018 16:08 3,6 C 4,4 C 77 % 1006,9 hPa 0,0 l/m 10,6 km/h (2 Bft) SW 235 0 min 0,000 mm 0,0 UV-I 85 W/m -0,0 C 0,1 C 14,5 km/h (3 Bft) 100,00 %
11.02.2018 16:09 3,6 C 4,4 C 77 % 1006,9 hPa 0,0 l/m 7,2 km/h (2 Bft) W-SW 241 0 min 0,000 mm 0,0 UV-I 86 W/m -0,0 C 2,9 C 11,3 km/h (2 Bft) 92,59 %
11.02.2018 16:10 3,5 C 3,9 C 77 % 1006,9 hPa 0,0 l/m 5,8 km/h (2 Bft) W 260 0 min 0,000 mm 0,0 UV-I 84 W/m -0,1 C 3,5 C 6,4 km/h (2 Bft) 100,00 %
11.02.2018 16:11 3,5 C 3,9 C 77 % 1006,9 hPa 0,0 l/m 5,9 km/h (2 Bft) W-SW 252 0 min 0,000 mm 0,0 UV-I 83 W/m -0,1 C 3,5 C 6,4 km/h (2 Bft) 100,00 %
11.02.2018 16:12 3,5 C 3,9 C 78 % 1006,9 hPa 0,0 l/m 6,4 km/h (2 Bft) W-SW 240 0 min 0,000 mm 0,0 UV-I 80 W/m 0,0 C 3,5 C 9,7 km/h (2 Bft) 96,15 %
11.02.2018 16:13 3,5 C 3,9 C 77 % 1006,9 hPa 0,0 l/m 6,8 km/h (2 Bft) S-SW 213 0 min 0,000 mm 0,0 UV-I 78 W/m -0,1 C 3,1 C 11,3 km/h (2 Bft) 100,00 %
11.02.2018 16:14 3,5 C 3,9 C 77 % 1006,9 hPa 0,0 l/m 5,9 km/h (2 Bft) SW 236 0 min 0,000 mm 0,0 UV-I 77 W/m -0,1 C 3,5 C 8,0 km/h (2 Bft) 100,00 %
11.02.2018 16:15 3,5 C 3,9 C 77 % 1006,9 hPa 0,0 l/m 5,8 km/h (2 Bft) SW 215 0 min 0,000 mm 0,0 UV-I 76 W/m -0,1 C 3,5 C 8,0 km/h (2 Bft) 100,00 %
11.02.2018 16:16 3,5 C 3,9 C 78 % 1006,8 hPa 0,0 l/m 8,5 km/h (2 Bft) W-SW 244 0 min 0,000 mm 0,0 UV-I 76 W/m 0,0 C 1,6 C 12,9 km/h (3 Bft) 96,15 %
11.02.2018 16:17 3,5 C 3,9 C 78 % 1006,8 hPa 0,0 l/m 7,4 km/h (2 Bft) W-SW 241 0 min 0,000 mm 0,0 UV-I 74 W/m 0,0 C 2,6 C 11,3 km/h (2 Bft) 100,00 %
11.02.2018 16:18 3,5 C 4,4 C 78 % 1006,8 hPa 0,0 l/m 6,7 km/h (2 Bft) W 270 0 min 0,000 mm 0,0 UV-I 74 W/m 0,0 C 3,2 C 9,7 km/h (2 Bft) 100,00 %
11.02.2018 16:19 3,4 C 4,4 C 78 % 1006,7 hPa 0,0 l/m 6,9 km/h (2 Bft) W-SW 248 0 min 0,000 mm 0,0 UV-I 74 W/m -0,1 C 2,9 C 11,3 km/h (2 Bft) 100,00 %
11.02.2018 16:20 3,4 C 4,4 C 77 % 1006,7 hPa 0,0 l/m 6,5 km/h (2 Bft) W 263 0 min 0,000 mm 0,0 UV-I 75 W/m -0,2 C 3,3 C 9,7 km/h (2 Bft) 96,55 %
11.02.2018 16:21 3,4 C 4,4 C 78 % 1006,7 hPa 0,0 l/m 3,7 km/h (1 Bft) W 263 1 min 0,000 mm 0,0 UV-I 77 W/m -0,1 C 3,4 C 6,4 km/h (2 Bft) 96,30 %
11.02.2018 16:22 3,4 C 4,4 C 79 % 1006,6 hPa 0,0 l/m 1,3 km/h (1 Bft) W 263 1 min 0,000 mm 0,0 UV-I 77 W/m 0,1 C 3,4 C 3,2 km/h (1 Bft) 96,55 %
11.02.2018 16:23 3,4 C 4,4 C 79 % 1006,6 hPa 0,0 l/m 3,2 km/h (1 Bft) W 263 1 min 0,000 mm 0,0 UV-I 77 W/m 0,1 C 3,4 C 4,8 km/h (1 Bft) 100,00 %
11.02.2018 16:24 3,4 C 4,4 C 79 % 1006,6 hPa 0,0 l/m 5,2 km/h (1 Bft) W 263 1 min 0,000 mm 0,0 UV-I 75 W/m 0,1 C 3,4 C 6,4 km/h (2 Bft) 91,67 %
11.02.2018 16:25 3,4 C 4,4 C 78 % 1006,6 hPa 0,0 l/m 4,1 km/h (1 Bft) W-SW 242 0 min 0,000 mm 0,0 UV-I 70 W/m -0,1 C 3,4 C 4,8 km/h (1 Bft) 100,00 %
11.02.2018 16:26 3,4 C 3,9 C 79 % 1006,6 hPa 0,0 l/m 3,9 km/h (1 Bft) W-SW 242 0 min 0,000 mm 0,0 UV-I 64 W/m 0,1 C 3,4 C 4,8 km/h (1 Bft) 96,30 %
11.02.2018 16:27 3,4 C 3,9 C 79 % 1006,6 hPa 0,0 l/m 3,0 km/h (1 Bft) W-SW 242 0 min 0,000 mm 0,0 UV-I 58 W/m 0,1 C 3,4 C 4,8 km/h (1 Bft) 100,00 %
11.02.2018 16:28 3,4 C 3,9 C 79 % 1006,6 hPa 0,0 l/m 4,7 km/h (1 Bft) W-SW 242 0 min 0,000 mm 0,0 UV-I 52 W/m 0,1 C 3,4 C 6,4 km/h (2 Bft) 91,67 %
11.02.2018 16:29 3,4 C 3,9 C 79 % 1006,5 hPa 0,0 l/m 3,1 km/h (1 Bft) W-SW 242 0 min 0,000 mm 0,0 UV-I 50 W/m 0,1 C 3,4 C 4,8 km/h (1 Bft) 96,55 %
11.02.2018 16:30 3,3 C 3,9 C 79 % 1006,5 hPa 0,0 l/m 2,8 km/h (1 Bft) W-SW 242 0 min 0,000 mm 0,0 UV-I 46 W/m 0,0 C 3,3 C 4,8 km/h (1 Bft) 95,83 %
11.02.2018 16:31 3,4 C 3,9 C 79 % 1006,5 hPa 0,0 l/m 4,3 km/h (1 Bft) W-SW 237 0 min 0,000 mm 0,0 UV-I 46 W/m 0,1 C 3,4 C 6,4 km/h (2 Bft) 95,83 %
11.02.2018 16:32 3,3 C 3,9 C 78 % 1006,5 hPa 0,0 l/m 3,4 km/h (1 Bft) W-SW 238 0 min 0,000 mm 0,0 UV-I 50 W/m -0,2 C 3,3 C 4,8 km/h (1 Bft) 100,00 %
11.02.2018 16:33 3,3 C 3,9 C 78 % 1006,5 hPa 0,0 l/m 2,4 km/h (1 Bft) W-SW 238 0 min 0,000 mm 0,0 UV-I 52 W/m -0,2 C 3,3 C 4,8 km/h (1 Bft) 91,30 %
11.02.2018 16:34 3,3 C 3,9 C 78 % 1006,4 hPa 0,0 l/m 0,0 km/h (0 Bft) W-SW 238 0 min 0,000 mm 0,0 UV-I 54 W/m -0,2 C 3,3 C 0,0 km/h (0 Bft) 100,00 %
11.02.2018 16:35 3,3 C 4,4 C 79 % 1006,4 hPa 0,0 l/m 0,0 km/h (0 Bft) W-SW 238 0 min 0,000 mm 0,0 UV-I 56 W/m 0,0 C 3,3 C 0,0 km/h (0 Bft) 91,30 %
11.02.2018 16:36 3,3 C 4,4 C 79 % 1006,4 hPa 0,0 l/m 1,1 km/h (1 Bft) W-SW 238 1 min 0,000 mm 0,0 UV-I 59 W/m 0,0 C 3,3 C 3,2 km/h (1 Bft) 100,00 %
11.02.2018 16:37 3,4 C 4,4 C 79 % 1006,4 hPa 0,0 l/m 1,7 km/h (1 Bft) W-SW 238 1 min 0,000 mm 0,0 UV-I 61 W/m 0,1 C 3,4 C 3,2 km/h (1 Bft) 96,15 %
11.02.2018 16:38 3,4 C 4,4 C 79 % 1006,4 hPa 0,0 l/m 1,3 km/h (1 Bft) W-SW 238 1 min 0,000 mm 0,0 UV-I 62 W/m 0,1 C 3,4 C 3,2 km/h (1 Bft) 95,83 %
11.02.2018 16:39 3,4 C 4,4 C 78 % 1006,4 hPa 0,0 l/m 2,3 km/h (1 Bft) W-SW 243 1 min 0,000 mm 0,0 UV-I 62 W/m -0,1 C 3,4 C 3,2 km/h (1 Bft) 100,00 %
11.02.2018 16:40 3,4 C 4,4 C 78 % 1006,4 hPa 0,0 l/m 2,7 km/h (1 Bft) W-SW 243 1 min 0,000 mm 0,0 UV-I 60 W/m -0,1 C 3,4 C 3,2 km/h (1 Bft) 94,44 %
11.02.2018 16:41 3,4 C 4,4 C 79 % 1006,4 hPa 0,0 l/m 1,0 km/h (0 Bft) W-SW 243 1 min 0,000 mm 0,0 UV-I 56 W/m 0,1 C 3,4 C 1,6 km/h (1 Bft) 95,65 %
11.02.2018 16:42 3,4 C 4,4 C 79 % 1006,4 hPa 0,0 l/m 0,0 km/h (0 Bft) W-SW 243 1 min 0,000 mm 0,0 UV-I 53 W/m 0,1 C 3,4 C 0,0 km/h (0 Bft) 96,30 %
11.02.2018 16:43 3,4 C 3,9 C 79 % 1006,4 hPa 0,0 l/m 0,1 km/h (0 Bft) W-SW 243 1 min 0,000 mm 0,0 UV-I 50 W/m 0,1 C 3,4 C 1,6 km/h (1 Bft) 95,65 %
11.02.2018 16:44 3,4 C 4,4 C 79 % 1006,4 hPa 0,0 l/m 1,9 km/h (1 Bft) W-SW 243 1 min 0,000 mm 0,0 UV-I 49 W/m 0,1 C 3,4 C 3,2 km/h (1 Bft) 95,83 %
11.02.2018 16:45 3,4 C 3,9 C 79 % 1006,4 hPa 0,0 l/m 2,5 km/h (1 Bft) W-SW 243 1 min 0,000 mm 0,0 UV-I 47 W/m 0,1 C 3,4 C 4,8 km/h (1 Bft) 100,00 %
11.02.2018 16:46 3,3 C 3,9 C 79 % 1006,4 hPa 0,0 l/m 0,4 km/h (0 Bft) W-SW 243 1 min 0,000 mm 0,0 UV-I 46 W/m 0,0 C 3,3 C 1,6 km/h (1 Bft) 93,33 %
11.02.2018 16:47 3,3 C 3,9 C 79 % 1006,4 hPa 0,0 l/m 0,0 km/h (0 Bft) W-SW 243 1 min 0,000 mm 0,0 UV-I 44 W/m 0,0 C 3,3 C 0,0 km/h (0 Bft) 100,00 %
11.02.2018 16:48 3,3 C 3,9 C 78 % 1006,4 hPa 0,0 l/m 1,5 km/h (1 Bft) W-SW 243 1 min 0,000 mm 0,0 UV-I 44 W/m -0,2 C 3,3 C 3,2 km/h (1 Bft) 95,65 %
11.02.2018 16:49 3,3 C 3,9 C 78 % 1006,4 hPa 0,0 l/m 0,9 km/h (0 Bft) W-SW 243 1 min 0,000 mm 0,0 UV-I 43 W/m -0,2 C 3,3 C 1,6 km/h (1 Bft) 95,83 %
11.02.2018 16:50 3,3 C 3,9 C 79 % 1006,4 hPa 0,0 l/m 0,8 km/h (0 Bft) W-SW 243 1 min 0,000 mm 0,0 UV-I 40 W/m 0,0 C 3,3 C 1,6 km/h (1 Bft) 96,15 %
11.02.2018 16:51 3,3 C 4,4 C 79 % 1006,4 hPa 0,0 l/m 0,4 km/h (0 Bft) W-SW 243 1 min 0,000 mm 0,0 UV-I 37 W/m 0,0 C 3,3 C 1,6 km/h (1 Bft) 92,59 %
11.02.2018 16:52 3,3 C 4,4 C 78 % 1006,4 hPa 0,0 l/m 0,8 km/h (0 Bft) W-SW 243 1 min 0,000 mm 0,0 UV-I 35 W/m -0,2 C 3,3 C 1,6 km/h (1 Bft) 100,00 %
11.02.2018 16:53 3,3 C 4,4 C 79 % 1006,4 hPa 0,0 l/m 1,0 km/h (0 Bft) W-SW 243 1 min 0,000 mm 0,0 UV-I 33 W/m 0,0 C 3,3 C 1,6 km/h (1 Bft) 91,67 %
11.02.2018 16:54 3,3 C 4,4 C 79 % 1006,4 hPa 0,0 l/m 1,7 km/h (1 Bft) W-SW 243 1 min 0,000 mm 0,0 UV-I 32 W/m 0,0 C 3,3 C 3,2 km/h (1 Bft) 96,88 %
11.02.2018 16:55 3,3 C 4,4 C 80 % 1006,4 hPa 0,0 l/m 2,1 km/h (1 Bft) W-SW 243 1 min 0,000 mm 0,0 UV-I 31 W/m 0,2 C 3,3 C 3,2 km/h (1 Bft) 95,83 %
11.02.2018 16:56 3,3 C 4,4 C 79 % 1006,5 hPa 0,0 l/m 2,6 km/h (1 Bft) W-SW 243 1 min 0,000 mm 0,0 UV-I 29 W/m 0,0 C 3,3 C 4,8 km/h (1 Bft) 97,57 %
11.02.2018 16:57 3,3 C 4,4 C 79 % 1006,5 hPa 0,0 l/m 3,6 km/h (1 Bft) W-SW 243 1 min 0,000 mm 0,0 UV-I 28 W/m 0,0 C 3,3 C 4,8 km/h (1 Bft) 97,73 %
11.02.2018 16:58 3,3 C 4,4 C 79 % 1006,5 hPa 0,0 l/m 1,9 km/h (1 Bft) W-SW 243 1 min 0,000 mm 0,0 UV-I 28 W/m 0,0 C 3,3 C 3,2 km/h (1 Bft) 95,65 %
11.02.2018 16:59 3,3 C 4,4 C 79 % 1006,4 hPa 0,0 l/m 2,4 km/h (1 Bft) W-SW 243 1 min 0,000 mm 0,0 UV-I 27 W/m 0,0 C 3,3 C 3,2 km/h (1 Bft) 100,00 %
11.02.2018 17:00 3,3 C 4,4 C 79 % 1006,4 hPa 0,0 l/m 2,3 km/h (1 Bft) W-SW 243 1 min 0,000 mm 0,0 UV-I 26 W/m 0,0 C 3,3 C 3,2 km/h (1 Bft) 100,00 %
11.02.2018 17:01 3,3 C 4,4 C 79 % 1006,4 hPa 0,0 l/m 0,3 km/h (0 Bft) W-SW 243 1 min 0,025 mm 0,0 UV-I 25 W/m 0,0 C 3,3 C 1,6 km/h (1 Bft) 100,00 %
11.02.2018 17:02 3,3 C 4,4 C 79 % 1006,4 hPa 0,0 l/m 0,8 km/h (0 Bft) W-SW 243 1 min 0,000 mm 0,0 UV-I 25 W/m 0,0 C 3,3 C 1,6 km/h (1 Bft) 100,00 %
11.02.2018 17:03 3,3 C 4,4 C 79 % 1006,4 hPa 0,0 l/m 1,9 km/h (1 Bft) W-SW 243 1 min 0,000 mm 0,0 UV-I 23 W/m 0,0 C 3,3 C 3,2 km/h (1 Bft) 100,00 %
11.02.2018 17:04 3,3 C 4,4 C 79 % 1006,4 hPa 0,0 l/m 0,3 km/h (0 Bft) W-SW 243 1 min 0,000 mm 0,0 UV-I 21 W/m 0,0 C 3,3 C 1,6 km/h (1 Bft) 100,00 %
11.02.2018 17:05 3,3 C 4,4 C 79 % 1006,5 hPa 0,0 l/m 0,0 km/h (0 Bft) W-SW 243 1 min 0,000 mm 0,0 UV-I 20 W/m 0,0 C 3,3 C 0,0 km/h (0 Bft) 100,00 %
11.02.2018 17:06 3,3 C 4,4 C 79 % 1006,5 hPa 0,0 l/m 0,2 km/h (0 Bft) W-SW 243 1 min 0,000 mm 0,0 UV-I 19 W/m 0,0 C 3,3 C 1,6 km/h (1 Bft) 100,00 %
11.02.2018 17:07 3,2 C 4,4 C 79 % 1006,5 hPa 0,0 l/m 1,0 km/h (0 Bft) W-SW 243 1 min 0,000 mm 0,0 UV-I 17 W/m -0,1 C 3,2 C 1,6 km/h (1 Bft) 96,15 %
11.02.2018 17:08 3,2 C 4,4 C 79 % 1006,5 hPa 0,0 l/m 1,4 km/h (1 Bft) W-SW 243 1 min 0,000 mm 0,0 UV-I 14 W/m -0,1 C 3,2 C 3,2 km/h (1 Bft) 100,00 %
11.02.2018 17:09 3,2 C 4,4 C 80 % 1006,5 hPa 0,0 l/m 1,4 km/h (1 Bft) W-SW 243 0 min 0,000 mm 0,0 UV-I 12 W/m 0,1 C 3,2 C 3,2 km/h (1 Bft) 100,00 %
11.02.2018 17:10 3,2 C 3,9 C 80 % 1006,4 hPa 0,0 l/m 0,6 km/h (0 Bft) W-SW 243 0 min 0,000 mm 0,0 UV-I 12 W/m 0,1 C 3,2 C 1,6 km/h (1 Bft) 100,00 %
11.02.2018 17:11 3,3 C 4,4 C 79 % 1006,4 hPa 0,0 l/m 0,9 km/h (0 Bft) W-SW 243 0 min 0,000 mm 0,0 UV-I 11 W/m 0,0 C 3,3 C 1,6 km/h (1 Bft) 100,00 %
11.02.2018 17:12 3,3 C 3,9 C 80 % 1006,5 hPa 0,0 l/m 0,5 km/h (0 Bft) W-SW 243 0 min 0,000 mm 0,0 UV-I 10 W/m 0,2 C 3,3 C 1,6 km/h (1 Bft) 100,00 %
11.02.2018 17:13 3,2 C 3,9 C 80 % 1006,4 hPa 0,0 l/m 0,0 km/h (0 Bft) W-SW 243 0 min 0,000 mm 0,0 UV-I 8 W/m 0,1 C 3,2 C 0,0 km/h (0 Bft) 100,00 %
11.02.2018 17:14 3,2 C 3,9 C 80 % 1006,5 hPa 0,0 l/m 0,0 km/h (0 Bft) W-SW 243 0 min 0,000 mm 0,0 UV-I 7 W/m 0,1 C 3,2 C 0,0 km/h (0 Bft) 100,00 %
11.02.2018 17:15 3,2 C 3,9 C 80 % 1006,5 hPa 0,0 l/m 0,1 km/h (0 Bft) W-SW 243 0 min 0,000 mm 0,0 UV-I 7 W/m 0,1 C 3,2 C 1,6 km/h (1 Bft) 100,00 %
11.02.2018 17:16 3,2 C 3,9 C 80 % 1006,5 hPa 0,0 l/m 0,0 km/h (0 Bft) W-SW 243 0 min 0,000 mm 0,0 UV-I 7 W/m 0,1 C 3,2 C 0,0 km/h (0 Bft) 100,00 %
11.02.2018 17:17 3,2 C 4,4 C 80 % 1006,5 hPa 0,0 l/m 1,6 km/h (1 Bft) W-SW 243 0 min 0,000 mm 0,0 UV-I 6 W/m 0,1 C 3,2 C 3,2 km/h (1 Bft) 95,65 %
11.02.2018 17:18 3,2 C 3,9 C 80 % 1006,5 hPa 0,0 l/m 1,3 km/h (1 Bft) W-SW 243 0 min 0,000 mm 0,0 UV-I 5 W/m 0,1 C 3,2 C 1,6 km/h (1 Bft) 96,30 %
11.02.2018 17:19 3,2 C 3,9 C 80 % 1006,5 hPa 0,0 l/m 2,0 km/h (1 Bft) W-SW 243 0 min 0,000 mm 0,0 UV-I 5 W/m 0,1 C 3,2 C 3,2 km/h (1 Bft) 100,00 %
11.02.2018 17:20 3,2 C 3,9 C 81 % 1006,5 hPa 0,0 l/m 1,7 km/h (1 Bft) W-SW 243 0 min 0,000 mm 0,0 UV-I 5 W/m 0,3 C 3,2 C 3,2 km/h (1 Bft) 100,00 %
11.02.2018 17:21 3,1 C 4,4 C 80 % 1006,6 hPa 0,0 l/m 0,8 km/h (0 Bft) W-SW 243 0 min 0,000 mm 0,0 UV-I 5 W/m -0,0 C 3,1 C 1,6 km/h (1 Bft) 96,30 %
11.02.2018 17:22 3,1 C 4,4 C 81 % 1006,5 hPa 0,0 l/m 0,0 km/h (0 Bft) W-SW 243 0 min 0,000 mm 0,0 UV-I 5 W/m 0,2 C 3,1 C 0,0 km/h (0 Bft) 100,00 %
11.02.2018 17:23 3,1 C 4,4 C 81 % 1006,6 hPa 0,0 l/m 0,0 km/h (0 Bft) W-SW 243 0 min 0,000 mm 0,0 UV-I 5 W/m 0,2 C 3,1 C 0,0 km/h (0 Bft) 100,00 %
11.02.2018 17:24 3,1 C 4,4 C 81 % 1006,6 hPa 0,0 l/m 0,0 km/h (0 Bft) W-SW 243 0 min 0,000 mm 0,0 UV-I 5 W/m 0,2 C 3,1 C 0,0 km/h (0 Bft) 100,00 %
11.02.2018 17:25 3,1 C 4,4 C 82 % 1006,6 hPa 0,0 l/m 0,2 km/h (0 Bft) W-SW 243 0 min 0,000 mm 0,0 UV-I 5 W/m 0,3 C 3,1 C 1,6 km/h (1 Bft) 100,00 %
11.02.2018 17:26 3,0 C 4,4 C 83 % 1006,5 hPa 0,0 l/m 1,0 km/h (0 Bft) W-SW 243 0 min 0,000 mm 0,0 UV-I 5 W/m 0,4 C 3,0 C 1,6 km/h (1 Bft) 100,00 %
11.02.2018 17:27 3,0 C 4,4 C 83 % 1006,6 hPa 0,0 l/m 0,6 km/h (0 Bft) W-SW 243 0 min 0,000 mm 0,0 UV-I 0 W/m 0,4 C 3,0 C 1,6 km/h (1 Bft) 100,00 %
11.02.2018 17:28 3,0 C 4,4 C 83 % 1006,5 hPa 0,0 l/m 0,0 km/h (0 Bft) W-SW 243 0 min 0,000 mm 0,0 UV-I 0 W/m 0,4 C 3,0 C 0,0 km/h (0 Bft) 100,00 %
11.02.2018 17:29 2,9 C 4,4 C 84 % 1006,5 hPa 0,0 l/m 0,0 km/h (0 Bft) W-SW 243 0 min 0,000 mm 0,0 UV-I 0 W/m 0,5 C 2,9 C 0,0 km/h (0 Bft) 100,00 %
11.02.2018 17:30 2,9 C 3,9 C 84 % 1006,5 hPa 0,0 l/m 0,0 km/h (0 Bft) W-SW 243 0 min 0,000 mm 0,0 UV-I 0 W/m 0,5 C 2,9 C 0,0 km/h (0 Bft) 95,65 %
11.02.2018 17:31 2,8 C 4,4 C 84 % 1006,5 hPa 0,0 l/m 1,5 km/h (1 Bft) W-SW 243 0 min 0,000 mm 0,0 UV-I 0 W/m 0,4 C 2,8 C 3,2 km/h (1 Bft) 97,64 %
11.02.2018 17:32 2,8 C 4,4 C 85 % 1006,6 hPa 0,0 l/m 0,5 km/h (0 Bft) W-SW 243 0 min 0,000 mm 0,0 UV-I 0 W/m 0,5 C 2,8 C 1,6 km/h (1 Bft) 100,00 %
11.02.2018 17:33 2,8 C 4,4 C 85 % 1006,6 hPa 0,0 l/m 0,0 km/h (0 Bft) W-SW 243 0 min 0,000 mm 0,0 UV-I 0 W/m 0,5 C 2,8 C 0,0 km/h (0 Bft) 100,00 %
11.02.2018 17:34 2,8 C 4,4 C 84 % 1006,6 hPa 0,0 l/m 0,2 km/h (0 Bft) W-SW 243 0 min 0,000 mm 0,0 UV-I 0 W/m 0,4 C 2,8 C 1,6 km/h (1 Bft) 100,00 %
11.02.2018 17:35 2,8 C 4,4 C 83 % 1006,6 hPa 0,0 l/m 2,0 km/h (1 Bft) W-SW 243 0 min 0,000 mm 0,0 UV-I 0 W/m 0,2 C 2,8 C 3,2 km/h (1 Bft) 100,00 %
11.02.2018 17:36 2,9 C 4,4 C 82 % 1006,6 hPa 0,0 l/m 1,1 km/h (1 Bft) W-SW 243 0 min 0,000 mm 0,0 UV-I 0 W/m 0,1 C 2,9 C 1,6 km/h (1 Bft) 100,00 %
11.02.2018 17:37 2,9 C 4,4 C 82 % 1006,6 hPa 0,0 l/m 1,2 km/h (1 Bft) W-SW 243 0 min 0,000 mm 0,0 UV-I 0 W/m 0,1 C 2,9 C 1,6 km/h (1 Bft) 100,00 %
11.02.2018 17:38 2,9 C 4,4 C 82 % 1006,6 hPa 0,0 l/m 1,8 km/h (1 Bft) W-SW 243 0 min 0,000 mm 0,0 UV-I 0 W/m 0,1 C 2,9 C 3,2 km/h (1 Bft) 100,00 %
11.02.2018 17:39 2,9 C 4,4 C 82 % 1006,6 hPa 0,0 l/m 1,9 km/h (1 Bft) W-SW 243 0 min 0,000 mm 0,0 UV-I 0 W/m 0,1 C 2,9 C 3,2 km/h (1 Bft) 100,00 %
11.02.2018 17:40 2,9 C 4,4 C 82 % 1006,6 hPa 0,0 l/m 0,9 km/h (0 Bft) W-SW 243 0 min 0,000 mm 0,0 UV-I 0 W/m 0,1 C 2,9 C 1,6 km/h (1 Bft) 96,15 %
11.02.2018 17:41 2,9 C 4,4 C 82 % 1006,6 hPa 0,0 l/m 0,8 km/h (0 Bft) W-SW 243 0 min 0,000 mm 0,0 UV-I 0 W/m 0,1 C 2,9 C 1,6 km/h (1 Bft) 91,67 %
11.02.2018 17:42 2,9 C 4,4 C 83 % 1006,6 hPa 0,0 l/m 1,5 km/h (1 Bft) W-SW 243 0 min 0,000 mm 0,0 UV-I 0 W/m 0,3 C 2,9 C 1,6 km/h (1 Bft) 100,00 %
11.02.2018 17:43 2,9 C 4,4 C 83 % 1006,6 hPa 0,0 l/m 1,7 km/h (1 Bft) W-SW 243 0 min 0,000 mm 0,0 UV-I 0 W/m 0,3 C 2,9 C 3,2 km/h (1 Bft) 100,00 %
11.02.2018 17:44 2,9 C 4,4 C 83 % 1006,6 hPa 0,0 l/m 1,3 km/h (1 Bft) W-SW 243 0 min 0,000 mm 0,0 UV-I 0 W/m 0,3 C 2,9 C 3,2 km/h (1 Bft) 100,00 %
11.02.2018 17:45 2,8 C 4,4 C 84 % 1006,6 hPa 0,0 l/m 1,3 km/h (1 Bft) W-SW 243 0 min 0,000 mm 0,0 UV-I 0 W/m 0,4 C 2,8 C 3,2 km/h (1 Bft) 100,00 %
11.02.2018 17:46 2,8 C 4,4 C 85 % 1006,6 hPa 0,0 l/m 2,0 km/h (1 Bft) W-SW 243 0 min 0,000 mm 0,0 UV-I 0 W/m 0,5 C 2,8 C 4,8 km/h (1 Bft) 100,00 %
11.02.2018 17:47 2,7 C 4,4 C 85 % 1006,6 hPa 0,0 l/m 2,6 km/h (1 Bft) W-SW 243 0 min 0,000 mm 0,0 UV-I 0 W/m 0,4 C 2,7 C 3,2 km/h (1 Bft) 100,00 %
11.02.2018 17:48 2,7 C 4,4 C 85 % 1006,6 hPa 0,0 l/m 3,3 km/h (1 Bft) W-SW 243 0 min 0,000 mm 0,0 UV-I 0 W/m 0,4 C 2,7 C 4,8 km/h (1 Bft) 100,00 %
11.02.2018 17:49 2,7 C 4,4 C 85 % 1006,7 hPa 0,0 l/m 2,6 km/h (1 Bft) W-SW 243 0 min 0,000 mm 0,0 UV-I 0 W/m 0,4 C 2,7 C 3,2 km/h (1 Bft) 100,00 %
11.02.2018 17:50 2,7 C 4,4 C 85 % 1006,7 hPa 0,0 l/m 1,6 km/h (1 Bft) W-SW 243 0 min 0,000 mm 0,0 UV-I 0 W/m 0,4 C 2,7 C 3,2 km/h (1 Bft) 96,67 %
11.02.2018 17:51 2,7 C 4,4 C 86 % 1006,7 hPa 0,0 l/m 2,1 km/h (1 Bft) W-SW 243 0 min 0,000 mm 0,0 UV-I 0 W/m 0,6 C 2,7 C 3,2 km/h (1 Bft) 100,00 %
11.02.2018 17:52 2,7 C 4,4 C 86 % 1006,7 hPa 0,0 l/m 2,9 km/h (1 Bft) W-SW 243 0 min 0,000 mm 0,0 UV-I 0 W/m 0,6 C 2,7 C 3,2 km/h (1 Bft) 100,00 %
11.02.2018 17:53 2,7 C 4,4 C 86 % 1006,7 hPa 0,0 l/m 3,7 km/h (1 Bft) W-SW 243 0 min 0,000 mm 0,0 UV-I 0 W/m 0,6 C 2,7 C 4,8 km/h (1 Bft) 100,00 %
11.02.2018 17:54 2,7 C 4,4 C 86 % 1006,7 hPa 0,0 l/m 3,4 km/h (1 Bft) W-SW 240 0 min 0,000 mm 0,0 UV-I 0 W/m 0,6 C 2,7 C 4,8 km/h (1 Bft) 96,30 %
11.02.2018 17:55 2,6 C 4,4 C 85 % 1006,7 hPa 0,0 l/m 3,2 km/h (1 Bft) W-SW 240 0 min 0,000 mm 0,0 UV-I 0 W/m 0,3 C 2,6 C 4,8 km/h (1 Bft) 100,00 %
11.02.2018 17:56 2,7 C 4,4 C 85 % 1006,6 hPa 0,0 l/m 3,4 km/h (1 Bft) W-SW 240 0 min 0,000 mm 0,0 UV-I 0 W/m 0,4 C 2,7 C 4,8 km/h (1 Bft) 95,83 %
11.02.2018 17:57 2,7 C 4,4 C 85 % 1006,7 hPa 0,0 l/m 1,1 km/h (1 Bft) W-SW 240 0 min 0,000 mm 0,0 UV-I 0 W/m 0,4 C 2,7 C 3,2 km/h (1 Bft) 100,00 %
11.02.2018 17:58 2,7 C 4,4 C 85 % 1006,7 hPa 0,0 l/m 1,8 km/h (1 Bft) W-SW 240 0 min 0,000 mm 0,0 UV-I 0 W/m 0,4 C 2,7 C 3,2 km/h (1 Bft) 100,00 %
11.02.2018 17:59 2,6 C 4,4 C 85 % 1006,7 hPa 0,0 l/m 2,4 km/h (1 Bft) W-SW 240 0 min 0,000 mm 0,0 UV-I 0 W/m 0,3 C 2,6 C 3,2 km/h (1 Bft) 92,31 %
11.02.2018 18:00 2,6 C 4,4 C 85 % 1006,7 hPa 0,0 l/m 3,2 km/h (1 Bft) W-SW 240 0 min 0,000 mm 0,0 UV-I 0 W/m 0,3 C 2,6 C 4,8 km/h (1 Bft) 91,67 %
11.02.2018 18:01 2,6 C 4,4 C 85 % 1006,7 hPa 0,0 l/m 3,5 km/h (1 Bft) W-SW 240 0 min 0,000 mm 0,0 UV-I 0 W/m 0,3 C 2,6 C 4,8 km/h (1 Bft) 100,00 %
11.02.2018 18:02 2,7 C 4,4 C 84 % 1006,7 hPa 0,0 l/m 3,9 km/h (1 Bft) W-SW 241 0 min 0,000 mm 0,0 UV-I 0 W/m 0,3 C 2,7 C 6,4 km/h (2 Bft) 100,00 %
11.02.2018 18:03 2,7 C 4,4 C 84 % 1006,6 hPa 0,0 l/m 4,4 km/h (1 Bft) W-SW 241 0 min 0,000 mm 0,0 UV-I 0 W/m 0,3 C 2,7 C 4,8 km/h (1 Bft) 97,68 %
11.02.2018 18:04 2,7 C 4,4 C 83 % 1006,7 hPa 0,0 l/m 3,0 km/h (1 Bft) W-SW 241 0 min 0,000 mm 0,0 UV-I 0 W/m 0,1 C 2,7 C 4,8 km/h (1 Bft) 100,00 %
11.02.2018 18:05 2,7 C 4,4 C 83 % 1006,6 hPa 0,0 l/m 2,1 km/h (1 Bft) W-SW 241 0 min 0,000 mm 0,0 UV-I 0 W/m 0,1 C 2,7 C 3,2 km/h (1 Bft) 100,00 %
11.02.2018 18:06 2,7 C 4,4 C 83 % 1006,6 hPa 0,0 l/m 1,7 km/h (1 Bft) W-SW 241 0 min 0,000 mm 0,0 UV-I 0 W/m 0,1 C 2,7 C 3,2 km/h (1 Bft) 100,00 %
11.02.2018 18:07 2,7 C 4,4 C 83 % 1006,6 hPa 0,0 l/m 2,3 km/h (1 Bft) W-SW 241 0 min 0,000 mm 0,0 UV-I 0 W/m 0,1 C 2,7 C 4,8 km/h (1 Bft) 91,67 %
11.02.2018 18:08 2,7 C 4,4 C 83 % 1006,6 hPa 0,0 l/m 2,1 km/h (1 Bft) W-SW 241 0 min 0,000 mm 0,0 UV-I 0 W/m 0,1 C 2,7 C 3,2 km/h (1 Bft) 100,00 %
11.02.2018 18:09 2,7 C 4,4 C 83 % 1006,5 hPa 0,0 l/m 1,4 km/h (1 Bft) W-SW 241 0 min 0,000 mm 0,0 UV-I 0 W/m 0,1 C 2,7 C 3,2 km/h (1 Bft) 100,00 %
11.02.2018 18:10 2,7 C 4,4 C 83 % 1006,5 hPa 0,0 l/m 3,1 km/h (1 Bft) W-SW 241 0 min 0,000 mm 0,0 UV-I 0 W/m 0,1 C 2,7 C 4,8 km/h (1 Bft) 96,15 %
11.02.2018 18:11 2,7 C 4,4 C 83 % 1006,6 hPa 0,0 l/m 2,4 km/h (1 Bft) W-SW 241 0 min 0,000 mm 0,0 UV-I 0 W/m 0,1 C 2,7 C 3,2 km/h (1 Bft) 100,00 %
11.02.2018 18:12 2,7 C 4,4 C 84 % 1006,5 hPa 0,0 l/m 2,0 km/h (1 Bft) W-SW 241 0 min 0,000 mm 0,0 UV-I 0 W/m 0,3 C 2,7 C 3,2 km/h (1 Bft) 100,00 %
11.02.2018 18:13 2,7 C 4,4 C 84 % 1006,5 hPa 0,0 l/m 1,3 km/h (1 Bft) W-SW 241 0 min 0,000 mm 0,0 UV-I 0 W/m 0,3 C 2,7 C 3,2 km/h (1 Bft) 100,00 %
11.02.2018 18:14 2,7 C 4,4 C 84 % 1006,5 hPa 0,0 l/m 0,0 km/h (0 Bft) W-SW 241 0 min 0,000 mm 0,0 UV-I 0 W/m 0,3 C 2,7 C 0,0 km/h (0 Bft) 100,00 %
11.02.2018 18:15 2,7 C 4,4 C 84 % 1006,5 hPa 0,0 l/m 0,0 km/h (0 Bft) W-SW 241 0 min 0,000 mm 0,0 UV-I 0 W/m 0,3 C 2,7 C 0,0 km/h (0 Bft) 100,00 %
11.02.2018 18:16 2,7 C 4,4 C 84 % 1006,5 hPa 0,0 l/m 1,9 km/h (1 Bft) W-SW 241 0 min 0,000 mm 0,0 UV-I 0 W/m 0,3 C 2,7 C 3,2 km/h (1 Bft) 96,55 %
11.02.2018 18:17 2,6 C 4,4 C 85 % 1006,5 hPa 0,0 l/m 0,4 km/h (0 Bft) W-SW 241 0 min 0,000 mm 0,0 UV-I 0 W/m 0,3 C 2,6 C 1,6 km/h (1 Bft) 95,83 %
11.02.2018 18:18 2,6 C 4,4 C 85 % 1006,5 hPa 0,0 l/m 0,8 km/h (0 Bft) W-SW 241 0 min 0,000 mm 0,0 UV-I 0 W/m 0,3 C 2,6 C 1,6 km/h (1 Bft) 100,00 %
11.02.2018 18:19 2,5 C 4,4 C 85 % 1006,5 hPa 0,0 l/m 0,2 km/h (0 Bft) W-SW 241 0 min 0,000 mm 0,0 UV-I 0 W/m 0,2 C 2,5 C 1,6 km/h (1 Bft) 100,00 %
11.02.2018 18:20 2,4 C 4,4 C 86 % 1006,5 hPa 0,0 l/m 0,2 km/h (0 Bft) W-SW 241 0 min 0,000 mm 0,0 UV-I 0 W/m 0,3 C 2,4 C 1,6 km/h (1 Bft) 100,00 %
11.02.2018 18:21 2,4 C 4,4 C 86 % 1006,6 hPa 0,0 l/m 1,0 km/h (0 Bft) W-SW 241 0 min 0,000 mm 0,0 UV-I 0 W/m 0,3 C 2,4 C 1,6 km/h (1 Bft) 95,65 %
11.02.2018 18:22 2,3 C 4,4 C 86 % 1006,6 hPa 0,0 l/m 2,8 km/h (1 Bft) W-SW 241 0 min 0,000 mm 0,0 UV-I 0 W/m 0,2 C 2,3 C 4,8 km/h (1 Bft) 100,00 %
11.02.2018 18:23 2,3 C 4,4 C 87 % 1006,6 hPa 0,0 l/m 1,9 km/h (1 Bft) W-SW 240 0 min 0,000 mm 0,0 UV-I 0 W/m 0,4 C 2,3 C 3,2 km/h (1 Bft) 100,00 %
11.02.2018 18:24 2,3 C 4,4 C 87 % 1006,6 hPa 0,0 l/m 1,3 km/h (1 Bft) SW 230 0 min 0,000 mm 0,0 UV-I 0 W/m 0,4 C 2,3 C 3,2 km/h (1 Bft) 100,00 %
11.02.2018 18:25 2,4 C 4,4 C 86 % 1006,6 hPa 0,0 l/m 2,0 km/h (1 Bft) SW 229 0 min 0,000 mm 0,0 UV-I 0 W/m 0,3 C 2,4 C 3,2 km/h (1 Bft) 95,65 %
11.02.2018 18:26 2,4 C 4,4 C 86 % 1006,6 hPa 0,0 l/m 2,1 km/h (1 Bft) SW 229 0 min 0,000 mm 0,0 UV-I 0 W/m 0,3 C 2,4 C 3,2 km/h (1 Bft) 100,00 %
11.02.2018 18:27 2,5 C 4,4 C 85 % 1006,6 hPa 0,0 l/m 1,3 km/h (1 Bft) SW 229 0 min 0,000 mm 0,0 UV-I 0 W/m 0,2 C 2,5 C 3,2 km/h (1 Bft) 100,00 %
11.02.2018 18:28 2,5 C 4,4 C 85 % 1006,6 hPa 0,0 l/m 1,9 km/h (1 Bft) SW 229 0 min 0,000 mm 0,0 UV-I 0 W/m 0,2 C 2,5 C 3,2 km/h (1 Bft) 100,00 %
11.02.2018 18:29 2,5 C 4,4 C 85 % 1006,6 hPa 0,0 l/m 1,1 km/h (1 Bft) SW 229 0 min 0,000 mm 0,0 UV-I 0 W/m 0,2 C 2,5 C 1,6 km/h (1 Bft) 100,00 %
11.02.2018 18:30 2,5 C 4,4 C 85 % 1006,6 hPa 0,0 l/m 2,4 km/h (1 Bft) SW 229 0 min 0,000 mm 0,0 UV-I 0 W/m 0,2 C 2,5 C 4,8 km/h (1 Bft) 100,00 %
11.02.2018 18:31 2,5 C 4,4 C 85 % 1006,6 hPa 0,0 l/m 2,2 km/h (1 Bft) SW 229 0 min 0,000 mm 0,0 UV-I 0 W/m 0,2 C 2,5 C 4,8 km/h (1 Bft) 100,00 %
11.02.2018 18:32 2,5 C 4,4 C 84 % 1006,7 hPa 0,0 l/m 1,8 km/h (1 Bft) SW 229 0 min 0,000 mm 0,0 UV-I 0 W/m 0,1 C 2,5 C 3,2 km/h (1 Bft) 93,33 %
11.02.2018 18:33 2,6 C 4,4 C 85 % 1006,6 hPa 0,0 l/m 1,0 km/h (0 Bft) SW 229 0 min 0,000 mm 0,0 UV-I 0 W/m 0,3 C 2,6 C 1,6 km/h (1 Bft) 92,50 %
11.02.2018 18:34 2,6 C 4,4 C 85 % 1006,6 hPa 0,0 l/m 1,3 km/h (1 Bft) SW 229 0 min 0,000 mm 0,0 UV-I 0 W/m 0,3 C 2,6 C 3,2 km/h (1 Bft) 100,00 %
11.02.2018 18:35 2,5 C 4,4 C 85 % 1006,6 hPa 0,0 l/m 1,4 km/h (1 Bft) SW 229 0 min 0,000 mm 0,0 UV-I 0 W/m 0,2 C 2,5 C 3,2 km/h (1 Bft) 95,65 %
11.02.2018 18:36 2,5 C 4,4 C 85 % 1006,6 hPa 0,0 l/m 1,7 km/h (1 Bft) SW 229 0 min 0,000 mm 0,0 UV-I 0 W/m 0,2 C 2,5 C 3,2 km/h (1 Bft) 100,00 %
11.02.2018 18:37 2,4 C 4,4 C 86 % 1006,6 hPa 0,0 l/m 1,0 km/h (0 Bft) SW 229 0 min 0,000 mm 0,0 UV-I 0 W/m 0,3 C 2,4 C 3,2 km/h (1 Bft) 91,67 %
11.02.2018 18:38 2,4 C 4,4 C 86 % 1006,6 hPa 0,0 l/m 0,6 km/h (0 Bft) SW 229 0 min 0,000 mm 0,0 UV-I 0 W/m 0,3 C 2,4 C 3,2 km/h (1 Bft) 100,00 %
11.02.2018 18:39 2,3 C 4,4 C 86 % 1006,6 hPa 0,0 l/m 1,0 km/h (0 Bft) SW 229 0 min 0,000 mm 0,0 UV-I 0 W/m 0,2 C 2,3 C 1,6 km/h (1 Bft) 96,30 %
11.02.2018 18:40 2,3 C 4,4 C 86 % 1006,6 hPa 0,0 l/m 0,7 km/h (0 Bft) SW 229 0 min 0,000 mm 0,0 UV-I 0 W/m 0,2 C 2,3 C 1,6 km/h (1 Bft) 95,65 %
11.02.2018 18:41 2,3 C 4,4 C 86 % 1006,6 hPa 0,0 l/m 0,7 km/h (0 Bft) SW 229 0 min 0,000 mm 0,0 UV-I 0 W/m 0,2 C 2,3 C 1,6 km/h (1 Bft) 100,00 %
11.02.2018 18:42 2,3 C 4,4 C 86 % 1006,5 hPa 0,0 l/m 1,3 km/h (1 Bft) SW 229 0 min 0,000 mm 0,0 UV-I 0 W/m 0,2 C 2,3 C 3,2 km/h (1 Bft) 88,46 %
11.02.2018 18:43 2,3 C 4,4 C 86 % 1006,5 hPa 0,0 l/m 2,6 km/h (1 Bft) SW 229 0 min 0,000 mm 0,0 UV-I 0 W/m 0,2 C 2,3 C 3,2 km/h (1 Bft) 95,83 %
11.02.2018 18:44 2,3 C 4,4 C 86 % 1006,5 hPa 0,0 l/m 0,9 km/h (0 Bft) SW 229 0 min 0,000 mm 0,0 UV-I 0 W/m 0,2 C 2,3 C 1,6 km/h (1 Bft) 91,30 %
11.02.2018 18:45 2,3 C 4,4 C 86 % 1006,5 hPa 0,0 l/m 0,4 km/h (0 Bft) SW 229 0 min 0,000 mm 0,0 UV-I 0 W/m 0,2 C 2,3 C 1,6 km/h (1 Bft) 100,00 %
11.02.2018 18:46 2,3 C 4,4 C 86 % 1006,5 hPa 0,0 l/m 0,5 km/h (0 Bft) SW 229 0 min 0,000 mm 0,0 UV-I 0 W/m 0,2 C 2,3 C 1,6 km/h (1 Bft) 94,12 %
11.02.2018 18:47 2,3 C 4,4 C 86 % 1006,5 hPa 0,0 l/m 1,4 km/h (1 Bft) SW 229 0 min 0,000 mm 0,0 UV-I 0 W/m 0,2 C 2,3 C 3,2 km/h (1 Bft) 100,00 %
11.02.2018 18:48 2,3 C 4,4 C 85 % 1006,5 hPa 0,0 l/m 0,7 km/h (0 Bft) SW 229 0 min 0,000 mm 0,0 UV-I 0 W/m 0,0 C 2,3 C 1,6 km/h (1 Bft) 86,96 %
11.02.2018 18:49 2,4 C 4,4 C 85 % 1006,5 hPa 0,0 l/m 1,5 km/h (1 Bft) SW 229 0 min 0,000 mm 0,0 UV-I 0 W/m 0,1 C 2,4 C 3,2 km/h (1 Bft) 95,83 %
11.02.2018 18:50 2,4 C 4,4 C 85 % 1006,5 hPa 0,0 l/m 2,0 km/h (1 Bft) SW 229 0 min 0,000 mm 0,0 UV-I 0 W/m 0,1 C 2,4 C 3,2 km/h (1 Bft) 96,15 %
11.02.2018 18:51 2,4 C 4,4 C 85 % 1006,5 hPa 0,0 l/m 1,8 km/h (1 Bft) SW 229 0 min 0,000 mm 0,0 UV-I 0 W/m 0,1 C 2,4 C 3,2 km/h (1 Bft) 91,67 %
11.02.2018 18:52 2,5 C 4,4 C 84 % 1006,5 hPa 0,0 l/m 2,1 km/h (1 Bft) SW 229 0 min 0,000 mm 0,0 UV-I 0 W/m 0,1 C 2,5 C 3,2 km/h (1 Bft) 100,00 %
11.02.2018 18:53 2,5 C 4,4 C 84 % 1006,5 hPa 0,0 l/m 2,3 km/h (1 Bft) SW 229 0 min 0,000 mm 0,0 UV-I 0 W/m 0,1 C 2,5 C 3,2 km/h (1 Bft) 96,30 %
11.02.2018 18:54 2,6 C 4,4 C 84 % 1006,6 hPa 0,0 l/m 2,8 km/h (1 Bft) SW 229 0 min 0,000 mm 0,0 UV-I 0 W/m 0,2 C 2,6 C 4,8 km/h (1 Bft) 100,00 %
11.02.2018 18:55 2,5 C 4,4 C 84 % 1006,6 hPa 0,0 l/m 0,7 km/h (0 Bft) SW 229 0 min 0,000 mm 0,0 UV-I 0 W/m 0,1 C 2,5 C 3,2 km/h (1 Bft) 83,33 %
11.02.2018 18:56 2,6 C 4,4 C 84 % 1006,6 hPa 0,0 l/m 1,9 km/h (1 Bft) SW 229 0 min 0,000 mm 0,0 UV-I 0 W/m 0,2 C 2,6 C 3,2 km/h (1 Bft) 100,00 %
11.02.2018 18:57 2,5 C 4,4 C 84 % 1006,6 hPa 0,0 l/m 1,7 km/h (1 Bft) SW 229 0 min 0,000 mm 0,0 UV-I 0 W/m 0,1 C 2,5 C 3,2 km/h (1 Bft) 92,31 %
11.02.2018 18:58 2,5 C 4,4 C 84 % 1006,6 hPa 0,0 l/m 2,0 km/h (1 Bft) SW 229 0 min 0,000 mm 0,0 UV-I 0 W/m 0,1 C 2,5 C 3,2 km/h (1 Bft) 91,67 %
11.02.2018 18:59 2,5 C 4,4 C 84 % 1006,6 hPa 0,0 l/m 2,1 km/h (1 Bft) SW 229 0 min 0,000 mm 0,0 UV-I 0 W/m 0,1 C 2,5 C 3,2 km/h (1 Bft) 100,00 %
11.02.2018 19:00 2,6 C 4,4 C 84 % 1006,6 hPa 0,0 l/m 2,5 km/h (1 Bft) SW 229 0 min 0,000 mm 0,0 UV-I 0 W/m 0,2 C 2,6 C 3,2 km/h (1 Bft) 95,83 %
11.02.2018 19:01 2,6 C 4,4 C 84 % 1006,6 hPa 0,0 l/m 2,4 km/h (1 Bft) SW 229 0 min 0,000 mm 0,0 UV-I 0 W/m 0,2 C 2,6 C 3,2 km/h (1 Bft) 92,86 %
11.02.2018 19:02 2,6 C 4,4 C 83 % 1006,6 hPa 0,0 l/m 2,1 km/h (1 Bft) SW 229 0 min 0,000 mm 0,0 UV-I 0 W/m 0,0 C 2,6 C 3,2 km/h (1 Bft) 85,19 %
11.02.2018 19:03 2,6 C 4,4 C 83 % 1006,6 hPa 0,0 l/m 2,4 km/h (1 Bft) SW 229 0 min 0,000 mm 0,0 UV-I 0 W/m 0,0 C 2,6 C 3,2 km/h (1 Bft) 100,00 %
11.02.2018 19:04 2,5 C 4,4 C 83 % 1006,6 hPa 0,0 l/m 1,6 km/h (1 Bft) SW 229 0 min 0,000 mm 0,0 UV-I 0 W/m -0,1 C 2,5 C 1,6 km/h (1 Bft) 92,59 %
11.02.2018 19:05 2,5 C 4,4 C 83 % 1006,6 hPa 0,0 l/m 1,6 km/h (1 Bft) SW 229 0 min 0,000 mm 0,0 UV-I 0 W/m -0,1 C 2,5 C 3,2 km/h (1 Bft) 100,00 %
11.02.2018 19:06 2,5 C 4,4 C 84 % 1006,6 hPa 0,0 l/m 1,6 km/h (1 Bft) SW 229 0 min 0,000 mm 0,0 UV-I 0 W/m 0,1 C 2,5 C 1,6 km/h (1 Bft) 92,59 %
11.02.2018 19:07 2,5 C 4,4 C 84 % 1006,6 hPa 0,0 l/m 1,7 km/h (1 Bft) SW 229 0 min 0,000 mm 0,0 UV-I 0 W/m 0,1 C 2,5 C 3,2 km/h (1 Bft) 91,30 %
11.02.2018 19:08 2,5 C 4,4 C 84 % 1006,6 hPa 0,0 l/m 1,6 km/h (1 Bft) SW 229 0 min 0,000 mm 0,0 UV-I 0 W/m 0,1 C 2,5 C 3,2 km/h (1 Bft) 93,33 %
11.02.2018 19:09 2,4 C 4,4 C 84 % 1006,7 hPa 0,0 l/m 1,7 km/h (1 Bft) SW 229 0 min 0,000 mm 0,0 UV-I 0 W/m -0,0 C 2,4 C 3,2 km/h (1 Bft) 96,55 %
11.02.2018 19:10 2,4 C 4,4 C 85 % 1006,6 hPa 0,0 l/m 1,5 km/h (1 Bft) SW 229 0 min 0,000 mm 0,0 UV-I 0 W/m 0,1 C 2,4 C 1,6 km/h (1 Bft) 100,00 %
11.02.2018 19:11 2,4 C 4,4 C 85 % 1006,7 hPa 0,0 l/m 1,9 km/h (1 Bft) SW 229 0 min 0,000 mm 0,0 UV-I 0 W/m 0,1 C 2,4 C 3,2 km/h (1 Bft) 91,30 %
11.02.2018 19:12 2,4 C 4,4 C 85 % 1006,7 hPa 0,0 l/m 1,7 km/h (1 Bft) SW 229 0 min 0,000 mm 0,0 UV-I 0 W/m 0,1 C 2,4 C 3,2 km/h (1 Bft) 100,00 %
11.02.2018 19:13 2,3 C 4,4 C 86 % 1006,6 hPa 0,0 l/m 0,6 km/h (0 Bft) SW 229 0 min 0,000 mm 0,0 UV-I 0 W/m 0,2 C 2,3 C 1,6 km/h (1 Bft) 86,96 %
11.02.2018 19:14 2,3 C 4,4 C 86 % 1006,7 hPa 0,0 l/m 1,0 km/h (0 Bft) SW 229 0 min 0,000 mm 0,0 UV-I 0 W/m 0,2 C 2,3 C 1,6 km/h (1 Bft) 100,00 %
11.02.2018 19:15 2,3 C 4,4 C 86 % 1006,7 hPa 0,0 l/m 1,0 km/h (0 Bft) SW 229 0 min 0,000 mm 0,0 UV-I 0 W/m 0,2 C 2,3 C 3,2 km/h (1 Bft) 95,83 %
11.02.2018 19:16 2,3 C 4,4 C 86 % 1006,7 hPa 0,0 l/m 0,0 km/h (0 Bft) SW 229 0 min 0,000 mm 0,0 UV-I 0 W/m 0,2 C 2,3 C 0,0 km/h (0 Bft) 100,00 %
11.02.2018 19:17 2,3 C 4,4 C 86 % 1006,7 hPa 0,0 l/m 0,8 km/h (0 Bft) SW 229 0 min 0,000 mm 0,0 UV-I 0 W/m 0,2 C 2,3 C 1,6 km/h (1 Bft) 95,83 %
11.02.2018 19:18 2,3 C 4,4 C 86 % 1006,7 hPa 0,0 l/m 1,0 km/h (0 Bft) SW 229 0 min 0,000 mm 0,0 UV-I 0 W/m 0,2 C 2,3 C 1,6 km/h (1 Bft) 96,15 %
11.02.2018 19:19 2,3 C 4,4 C 86 % 1006,7 hPa 0,0 l/m 1,5 km/h (1 Bft) SW 229 0 min 0,000 mm 0,0 UV-I 0 W/m 0,2 C 2,3 C 3,2 km/h (1 Bft) 94,44 %
11.02.2018 19:20 2,3 C 4,4 C 86 % 1006,7 hPa 0,0 l/m 2,2 km/h (1 Bft) SW 229 0 min 0,000 mm 0,0 UV-I 0 W/m 0,2 C 2,3 C 3,2 km/h (1 Bft) 95,65 %
11.02.2018 19:21 2,3 C 4,4 C 86 % 1006,7 hPa 0,0 l/m 0,9 km/h (0 Bft) SW 229 0 min 0,000 mm 0,0 UV-I 0 W/m 0,2 C 2,3 C 1,6 km/h (1 Bft) 96,30 %
11.02.2018 19:22 2,3 C 4,4 C 86 % 1006,7 hPa 0,0 l/m 2,6 km/h (1 Bft) SW 231 0 min 0,000 mm 0,0 UV-I 0 W/m 0,2 C 2,3 C 4,8 km/h (1 Bft) 92,31 %
11.02.2018 19:23 2,3 C 4,4 C 86 % 1006,7 hPa 0,0 l/m 3,4 km/h (1 Bft) SW 231 0 min 0,000 mm 0,0 UV-I 0 W/m 0,2 C 2,3 C 4,8 km/h (1 Bft) 100,00 %
11.02.2018 19:24 2,4 C 4,4 C 86 % 1006,7 hPa 0,0 l/m 3,8 km/h (1 Bft) SW 229 0 min 0,000 mm 0,0 UV-I 0 W/m 0,3 C 2,4 C 4,8 km/h (1 Bft) 92,86 %
11.02.2018 19:25 2,4 C 4,4 C 86 % 1006,7 hPa 0,0 l/m 4,9 km/h (1 Bft) W-SW 240 0 min 0,000 mm 0,0 UV-I 0 W/m 0,3 C 2,4 C 6,4 km/h (2 Bft) 100,00 %
11.02.2018 19:26 2,4 C 4,4 C 86 % 1006,7 hPa 0,0 l/m 2,9 km/h (1 Bft) W-SW 240 0 min 0,000 mm 0,0 UV-I 0 W/m 0,3 C 2,4 C 4,8 km/h (1 Bft) 95,65 %
11.02.2018 19:27 2,4 C 4,4 C 85 % 1006,7 hPa 0,0 l/m 2,9 km/h (1 Bft) W-SW 240 0 min 0,000 mm 0,0 UV-I 0 W/m 0,1 C 2,4 C 4,8 km/h (1 Bft) 100,00 %
11.02.2018 19:28 2,4 C 4,4 C 86 % 1006,8 hPa 0,0 l/m 2,3 km/h (1 Bft) W-SW 240 0 min 0,000 mm 0,0 UV-I 0 W/m 0,3 C 2,4 C 3,2 km/h (1 Bft) 96,15 %
11.02.2018 19:29 2,4 C 4,4 C 86 % 1006,8 hPa 0,0 l/m 2,0 km/h (1 Bft) W-SW 240 0 min 0,000 mm 0,0 UV-I 0 W/m 0,3 C 2,4 C 3,2 km/h (1 Bft) 97,60 %
11.02.2018 19:30 2,4 C 4,4 C 86 % 1006,8 hPa 0,0 l/m 2,5 km/h (1 Bft) W-SW 240 0 min 0,000 mm 0,0 UV-I 0 W/m 0,3 C 2,4 C 4,8 km/h (1 Bft) 97,44 %
11.02.2018 19:31 2,4 C 4,4 C 86 % 1006,9 hPa 0,0 l/m 2,5 km/h (1 Bft) W-SW 240 0 min 0,000 mm 0,0 UV-I 0 W/m 0,3 C 2,4 C 4,8 km/h (1 Bft) 100,00 %
11.02.2018 19:32 2,4 C 4,4 C 86 % 1006,9 hPa 0,0 l/m 2,1 km/h (1 Bft) W-SW 240 0 min 0,000 mm 0,0 UV-I 0 W/m 0,3 C 2,4 C 3,2 km/h (1 Bft) 95,83 %
11.02.2018 19:33 2,4 C 4,4 C 86 % 1006,9 hPa 0,0 l/m 2,0 km/h (1 Bft) W-SW 240 0 min 0,000 mm 0,0 UV-I 0 W/m 0,3 C 2,4 C 3,2 km/h (1 Bft) 95,65 %
11.02.2018 19:34 2,3 C 4,4 C 86 % 1006,9 hPa 0,0 l/m 2,2 km/h (1 Bft) W-SW 240 0 min 0,000 mm 0,0 UV-I 0 W/m 0,2 C 2,3 C 4,8 km/h (1 Bft) 100,00 %
11.02.2018 19:35 2,3 C 4,4 C 86 % 1006,9 hPa 0,0 l/m 1,4 km/h (1 Bft) W-SW 240 0 min 0,000 mm 0,0 UV-I 0 W/m 0,2 C 2,3 C 3,2 km/h (1 Bft) 100,00 %
11.02.2018 19:36 2,3 C 4,4 C 87 % 1006,9 hPa 0,0 l/m 0,5 km/h (0 Bft) W-SW 240 0 min 0,000 mm 0,0 UV-I 0 W/m 0,4 C 2,3 C 1,6 km/h (1 Bft) 96,30 %
11.02.2018 19:37 2,3 C 4,4 C 87 % 1006,9 hPa 0,0 l/m 0,6 km/h (0 Bft) W-SW 240 0 min 0,000 mm 0,0 UV-I 0 W/m 0,4 C 2,3 C 1,6 km/h (1 Bft) 96,55 %
11.02.2018 19:38 2,3 C 4,4 C 87 % 1006,9 hPa 0,0 l/m 2,2 km/h (1 Bft) W-SW 240 0 min 0,000 mm 0,0 UV-I 0 W/m 0,4 C 2,3 C 3,2 km/h (1 Bft) 100,00 %
11.02.2018 19:39 2,3 C 4,4 C 87 % 1006,9 hPa 0,0 l/m 1,9 km/h (1 Bft) W-SW 240 0 min 0,000 mm 0,0 UV-I 0 W/m 0,4 C 2,3 C 3,2 km/h (1 Bft) 95,65 %
11.02.2018 19:40 2,3 C 4,4 C 87 % 1006,9 hPa 0,0 l/m 2,5 km/h (1 Bft) W-SW 240 0 min 0,000 mm 0,0 UV-I 0 W/m 0,4 C 2,3 C 3,2 km/h (1 Bft) 100,00 %
11.02.2018 19:41 2,3 C 4,4 C 87 % 1006,9 hPa 0,0 l/m 1,1 km/h (1 Bft) W-SW 240 0 min 0,000 mm 0,0 UV-I 0 W/m 0,4 C 2,3 C 3,2 km/h (1 Bft) 92,31 %
11.02.2018 19:42 2,3 C 4,4 C 87 % 1006,8 hPa 0,0 l/m 1,6 km/h (1 Bft) W-SW 240 0 min 0,000 mm 0,0 UV-I 0 W/m 0,4 C 2,3 C 3,2 km/h (1 Bft) 91,67 %
11.02.2018 19:43 2,3 C 4,4 C 86 % 1006,8 hPa 0,0 l/m 2,6 km/h (1 Bft) W-SW 240 0 min 0,000 mm 0,0 UV-I 0 W/m 0,2 C 2,3 C 3,2 km/h (1 Bft) 100,00 %
11.02.2018 19:44 2,3 C 4,4 C 86 % 1006,8 hPa 0,0 l/m 1,8 km/h (1 Bft) W-SW 240 0 min 0,000 mm 0,0 UV-I 0 W/m 0,2 C 2,3 C 3,2 km/h (1 Bft) 100,00 %
11.02.2018 19:45 2,3 C 4,4 C 86 % 1006,8 hPa 0,0 l/m 1,7 km/h (1 Bft) W-SW 240 0 min 0,000 mm 0,0 UV-I 0 W/m 0,2 C 2,3 C 3,2 km/h (1 Bft) 95,65 %
11.02.2018 19:46 2,3 C 4,4 C 86 % 1006,9 hPa 0,0 l/m 2,5 km/h (1 Bft) W-SW 240 0 min 0,000 mm 0,0 UV-I 0 W/m 0,2 C 2,3 C 3,2 km/h (1 Bft) 87,50 %
11.02.2018 19:47 2,3 C 4,4 C 86 % 1006,9 hPa 0,0 l/m 3,3 km/h (1 Bft) W-SW 240 0 min 0,000 mm 0,0 UV-I 0 W/m 0,2 C 2,3 C 4,8 km/h (1 Bft) 100,00 %
11.02.2018 19:48 2,3 C 4,4 C 86 % 1006,9 hPa 0,0 l/m 3,4 km/h (1 Bft) W-SW 240 0 min 0,000 mm 0,0 UV-I 0 W/m 0,2 C 2,3 C 4,8 km/h (1 Bft) 95,83 %
11.02.2018 19:49 2,3 C 4,4 C 86 % 1006,9 hPa 0,0 l/m 1,8 km/h (1 Bft) W-SW 240 0 min 0,000 mm 0,0 UV-I 0 W/m 0,2 C 2,3 C 3,2 km/h (1 Bft) 100,00 %
11.02.2018 19:50 2,3 C 4,4 C 86 % 1006,9 hPa 0,0 l/m 2,3 km/h (1 Bft) W-SW 240 0 min 0,000 mm 0,0 UV-I 0 W/m 0,2 C 2,3 C 3,2 km/h (1 Bft) 96,30 %
11.02.2018 19:51 2,3 C 4,4 C 86 % 1006,9 hPa 0,0 l/m 2,9 km/h (1 Bft) W-SW 240 0 min 0,000 mm 0,0 UV-I 0 W/m 0,2 C 2,3 C 4,8 km/h (1 Bft) 95,65 %
11.02.2018 19:52 2,3 C 4,4 C 86 % 1006,9 hPa 0,0 l/m 2,3 km/h (1 Bft) W-SW 240 0 min 0,000 mm 0,0 UV-I 0 W/m 0,2 C 2,3 C 3,2 km/h (1 Bft) 95,83 %
11.02.2018 19:53 2,3 C 4,4 C 86 % 1006,9 hPa 0,0 l/m 2,6 km/h (1 Bft) W-SW 240 0 min 0,000 mm 0,0 UV-I 0 W/m 0,2 C 2,3 C 4,8 km/h (1 Bft) 91,67 %
11.02.2018 19:54 2,3 C 4,4 C 86 % 1006,9 hPa 0,0 l/m 3,7 km/h (1 Bft) W-SW 240 0 min 0,000 mm 0,0 UV-I 0 W/m 0,2 C 2,3 C 4,8 km/h (1 Bft) 96,55 %
11.02.2018 19:55 2,3 C 4,4 C 86 % 1006,9 hPa 0,0 l/m 3,5 km/h (1 Bft) W-SW 240 0 min 0,000 mm 0,0 UV-I 0 W/m 0,2 C 2,3 C 4,8 km/h (1 Bft) 96,30 %
11.02.2018 19:56 2,3 C 4,4 C 86 % 1006,9 hPa 0,0 l/m 2,7 km/h (1 Bft) W-SW 240 0 min 0,000 mm 0,0 UV-I 0 W/m 0,2 C 2,3 C 4,8 km/h (1 Bft) 100,00 %
11.02.2018 19:57 2,3 C 4,4 C 86 % 1006,9 hPa 0,0 l/m 3,8 km/h (1 Bft) W-SW 240 0 min 0,000 mm 0,0 UV-I 0 W/m 0,2 C 2,3 C 6,4 km/h (2 Bft) 96,67 %
11.02.2018 19:58 2,3 C 4,4 C 86 % 1006,9 hPa 0,0 l/m 2,6 km/h (1 Bft) W-SW 240 0 min 0,000 mm 0,0 UV-I 0 W/m 0,2 C 2,3 C 4,8 km/h (1 Bft) 100,00 %
11.02.2018 19:59 2,3 C 4,4 C 86 % 1006,9 hPa 0,0 l/m 3,5 km/h (1 Bft) W-SW 240 0 min 0,000 mm 0,0 UV-I 0 W/m 0,2 C 2,3 C 4,8 km/h (1 Bft) 96,30 %
11.02.2018 20:00 2,3 C 4,4 C 86 % 1006,9 hPa 0,0 l/m 4,1 km/h (1 Bft) W-SW 240 0 min 0,000 mm 0,0 UV-I 0 W/m 0,2 C 2,3 C 4,8 km/h (1 Bft) 100,00 %
11.02.2018 20:01 2,3 C 4,4 C 86 % 1006,9 hPa 0,0 l/m 4,6 km/h (1 Bft) W-SW 239 0 min 0,000 mm 0,0 UV-I 0 W/m 0,2 C 2,3 C 6,4 km/h (2 Bft) 95,83 %
11.02.2018 20:02 2,3 C 4,4 C 86 % 1007,0 hPa 0,0 l/m 4,5 km/h (1 Bft) W-SW 240 0 min 0,000 mm 0,0 UV-I 0 W/m 0,2 C 2,3 C 4,8 km/h (1 Bft) 100,00 %
11.02.2018 20:03 2,3 C 4,4 C 86 % 1007,0 hPa 0,0 l/m 5,2 km/h (1 Bft) W-SW 240 0 min 0,000 mm 0,0 UV-I 0 W/m 0,2 C 2,3 C 6,4 km/h (2 Bft) 96,30 %
11.02.2018 20:04 2,3 C 4,4 C 86 % 1007,0 hPa 0,0 l/m 3,1 km/h (1 Bft) W-SW 240 0 min 0,000 mm 0,0 UV-I 0 W/m 0,2 C 2,3 C 4,8 km/h (1 Bft) 100,00 %
11.02.2018 20:05 2,3 C 4,4 C 86 % 1007,0 hPa 0,0 l/m 3,2 km/h (1 Bft) W-SW 240 0 min 0,000 mm 0,0 UV-I 0 W/m 0,2 C 2,3 C 4,8 km/h (1 Bft) 100,00 %
11.02.2018 20:06 2,3 C 4,4 C 86 % 1006,9 hPa 0,0 l/m 5,2 km/h (1 Bft) W-SW 240 0 min 0,000 mm 0,0 UV-I 0 W/m 0,2 C 2,3 C 6,4 km/h (2 Bft) 95,65 %
11.02.2018 20:07 2,3 C 4,4 C 87 % 1007,0 hPa 0,0 l/m 4,9 km/h (1 Bft) SW 234 0 min 0,000 mm 0,0 UV-I 0 W/m 0,4 C 2,3 C 6,4 km/h (2 Bft) 95,83 %
11.02.2018 20:08 2,3 C 4,4 C 87 % 1007,0 hPa 0,0 l/m 4,9 km/h (1 Bft) SW 234 0 min 0,000 mm 0,0 UV-I 0 W/m 0,4 C 2,3 C 6,4 km/h (2 Bft) 100,00 %
11.02.2018 20:09 2,2 C 4,4 C 87 % 1007,0 hPa 0,0 l/m 3,7 km/h (1 Bft) SW 234 0 min 0,000 mm 0,0 UV-I 0 W/m 0,3 C 2,2 C 6,4 km/h (2 Bft) 100,00 %
11.02.2018 20:10 2,3 C 4,4 C 87 % 1007,0 hPa 0,0 l/m 5,6 km/h (1 Bft) W-SW 239 0 min 0,000 mm 0,0 UV-I 0 W/m 0,4 C 2,3 C 8,0 km/h (2 Bft) 100,00 %
11.02.2018 20:11 2,3 C 4,4 C 87 % 1007,0 hPa 0,0 l/m 5,9 km/h (2 Bft) W-SW 239 0 min 0,000 mm 0,0 UV-I 0 W/m 0,4 C 2,3 C 8,0 km/h (2 Bft) 100,00 %
11.02.2018 20:12 2,3 C 4,4 C 87 % 1007,0 hPa 0,0 l/m 3,8 km/h (1 Bft) W-SW 239 0 min 0,000 mm 0,0 UV-I 0 W/m 0,4 C 2,3 C 4,8 km/h (1 Bft) 100,00 %
11.02.2018 20:13 2,3 C 4,4 C 87 % 1007,0 hPa 0,0 l/m 4,8 km/h (1 Bft) W-SW 242 0 min 0,000 mm 0,0 UV-I 0 W/m 0,4 C 2,3 C 6,4 km/h (2 Bft) 100,00 %
11.02.2018 20:14 2,3 C 4,4 C 86 % 1007,0 hPa 0,0 l/m 4,0 km/h (1 Bft) W-SW 242 0 min 0,000 mm 0,0 UV-I 0 W/m 0,2 C 2,3 C 4,8 km/h (1 Bft) 100,00 %
11.02.2018 20:15 2,3 C 4,4 C 86 % 1007,0 hPa 0,0 l/m 4,2 km/h (1 Bft) W-SW 241 0 min 0,000 mm 0,0 UV-I 0 W/m 0,2 C 2,3 C 6,4 km/h (2 Bft) 95,65 %
11.02.2018 20:16 2,3 C 4,4 C 87 % 1007,0 hPa 0,0 l/m 6,7 km/h (2 Bft) W-SW 254 0 min 0,000 mm 0,0 UV-I 0 W/m 0,4 C 2,0 C 11,3 km/h (2 Bft) 100,00 %
11.02.2018 20:17 2,3 C 4,4 C 87 % 1007,0 hPa 0,0 l/m 5,1 km/h (1 Bft) W-SW 241 0 min 0,000 mm 0,0 UV-I 0 W/m 0,4 C 2,3 C 6,4 km/h (2 Bft) 100,00 %
11.02.2018 20:18 2,3 C 4,4 C 86 % 1007,0 hPa 0,0 l/m 5,6 km/h (1 Bft) W-SW 243 0 min 0,000 mm 0,0 UV-I 0 W/m 0,2 C 2,3 C 6,4 km/h (2 Bft) 100,00 %
11.02.2018 20:19 2,3 C 4,4 C 86 % 1007,0 hPa 0,0 l/m 5,0 km/h (1 Bft) SW 236 0 min 0,000 mm 0,0 UV-I 0 W/m 0,2 C 2,3 C 6,4 km/h (2 Bft) 100,00 %
11.02.2018 20:20 2,3 C 4,4 C 86 % 1006,9 hPa 0,0 l/m 4,5 km/h (1 Bft) W-SW 239 0 min 0,000 mm 0,0 UV-I 0 W/m 0,2 C 2,3 C 6,4 km/h (2 Bft) 96,30 %
11.02.2018 20:21 2,3 C 4,4 C 87 % 1007,0 hPa 0,0 l/m 4,9 km/h (1 Bft) W 261 0 min 0,000 mm 0,0 UV-I 0 W/m 0,4 C 2,3 C 8,0 km/h (2 Bft) 95,65 %
11.02.2018 20:22 2,4 C 4,4 C 87 % 1007,0 hPa 0,0 l/m 7,4 km/h (2 Bft) SW 232 0 min 0,000 mm 0,0 UV-I 0 W/m 0,5 C 1,4 C 12,9 km/h (3 Bft) 100,00 %
11.02.2018 20:23 2,4 C 4,4 C 87 % 1007,0 hPa 0,0 l/m 7,0 km/h (2 Bft) W-SW 251 0 min 0,000 mm 0,0 UV-I 0 W/m 0,5 C 1,8 C 8,0 km/h (2 Bft) 100,00 %
11.02.2018 20:24 2,4 C 4,4 C 87 % 1007,0 hPa 0,0 l/m 5,8 km/h (2 Bft) SW 226 0 min 0,000 mm 0,0 UV-I 0 W/m 0,5 C 2,4 C 6,4 km/h (2 Bft) 100,00 %
11.02.2018 20:25 2,5 C 4,4 C 87 % 1007,0 hPa 0,0 l/m 5,1 km/h (1 Bft) SW 227 0 min 0,000 mm 0,0 UV-I 0 W/m 0,6 C 2,5 C 6,4 km/h (2 Bft) 100,00 %
11.02.2018 20:26 2,4 C 4,4 C 87 % 1007,0 hPa 0,0 l/m 4,8 km/h (1 Bft) W-SW 240 0 min 0,000 mm 0,0 UV-I 0 W/m 0,5 C 2,4 C 6,4 km/h (2 Bft) 100,00 %
11.02.2018 20:27 2,4 C 4,4 C 87 % 1006,9 hPa 0,0 l/m 2,7 km/h (1 Bft) W-SW 240 0 min 0,000 mm 0,0 UV-I 0 W/m 0,5 C 2,4 C 4,8 km/h (1 Bft) 100,00 %
11.02.2018 20:28 2,4 C 4,4 C 88 % 1007,0 hPa 0,0 l/m 3,2 km/h (1 Bft) W-SW 240 0 min 0,000 mm 0,0 UV-I 0 W/m 0,6 C 2,4 C 4,8 km/h (1 Bft) 96,15 %
11.02.2018 20:29 2,4 C 4,4 C 87 % 1007,0 hPa 0,0 l/m 4,0 km/h (1 Bft) SW 217 0 min 0,000 mm 0,0 UV-I 0 W/m 0,5 C 2,4 C 4,8 km/h (1 Bft) 97,61 %
11.02.2018 20:30 2,4 C 4,4 C 88 % 1007,0 hPa 0,0 l/m 5,0 km/h (1 Bft) SW 228 0 min 0,000 mm 0,0 UV-I 0 W/m 0,6 C 2,4 C 8,0 km/h (2 Bft) 100,00 %
11.02.2018 20:31 2,3 C 4,4 C 88 % 1007,0 hPa 0,0 l/m 6,3 km/h (2 Bft) SW 229 0 min 0,000 mm 0,0 UV-I 0 W/m 0,5 C 2,3 C 8,0 km/h (2 Bft) 100,00 %
11.02.2018 20:32 2,4 C 4,4 C 88 % 1007,0 hPa 0,0 l/m 5,8 km/h (2 Bft) SW 229 0 min 0,000 mm 0,0 UV-I 0 W/m 0,6 C 2,4 C 8,0 km/h (2 Bft) 100,00 %
11.02.2018 20:33 2,4 C 4,4 C 88 % 1007,0 hPa 0,0 l/m 4,2 km/h (1 Bft) SW 229 0 min 0,000 mm 0,0 UV-I 0 W/m 0,6 C 2,4 C 4,8 km/h (1 Bft) 100,00 %
11.02.2018 20:34 2,3 C 4,4 C 88 % 1007,0 hPa 0,0 l/m 4,1 km/h (1 Bft) W-SW 238 0 min 0,000 mm 0,0 UV-I 0 W/m 0,5 C 2,3 C 6,4 km/h (2 Bft) 100,00 %
11.02.2018 20:35 2,4 C 4,4 C 88 % 1007,0 hPa 0,0 l/m 6,0 km/h (2 Bft) W-SW 240 0 min 0,000 mm 0,0 UV-I 0 W/m 0,6 C 2,4 C 8,0 km/h (2 Bft) 96,30 %
11.02.2018 20:36 2,4 C 4,4 C 88 % 1007,0 hPa 0,0 l/m 6,2 km/h (2 Bft) SW 223 0 min 0,000 mm 0,0 UV-I 0 W/m 0,6 C 2,4 C 8,0 km/h (2 Bft) 100,00 %
11.02.2018 20:37 2,3 C 4,4 C 88 % 1007,0 hPa 0,0 l/m 6,4 km/h (2 Bft) S-SW 210 0 min 0,000 mm 0,0 UV-I 0 W/m 0,5 C 2,3 C 8,0 km/h (2 Bft) 100,00 %
11.02.2018 20:38 2,3 C 4,4 C 88 % 1007,0 hPa 0,0 l/m 4,8 km/h (1 Bft) SW 222 0 min 0,000 mm 0,0 UV-I 0 W/m 0,5 C 2,3 C 6,4 km/h (2 Bft) 96,15 %
11.02.2018 20:39 2,3 C 4,4 C 88 % 1006,9 hPa 0,0 l/m 3,7 km/h (1 Bft) W-SW 240 0 min 0,000 mm 0,0 UV-I 0 W/m 0,5 C 2,3 C 4,8 km/h (1 Bft) 100,00 %
11.02.2018 20:40 2,3 C 4,4 C 88 % 1007,0 hPa 0,0 l/m 3,8 km/h (1 Bft) W-SW 240 0 min 0,000 mm 0,0 UV-I 0 W/m 0,5 C 2,3 C 4,8 km/h (1 Bft) 100,00 %
11.02.2018 20:41 2,3 C 4,4 C 88 % 1007,0 hPa 0,0 l/m 6,8 km/h (2 Bft) W-SW 242 0 min 0,000 mm 0,0 UV-I 0 W/m 0,5 C 1,9 C 8,0 km/h (2 Bft) 91,67 %
11.02.2018 20:42 2,3 C 4,4 C 88 % 1007,0 hPa 0,0 l/m 6,0 km/h (2 Bft) SW 236 0 min 0,000 mm 0,0 UV-I 0 W/m 0,5 C 2,3 C 8,0 km/h (2 Bft) 95,65 %
11.02.2018 20:43 2,3 C 4,4 C 89 % 1007,0 hPa 0,0 l/m 4,2 km/h (1 Bft) SW 225 0 min 0,000 mm 0,0 UV-I 0 W/m 0,7 C 2,3 C 6,4 km/h (2 Bft) 96,67 %
11.02.2018 20:44 2,3 C 4,4 C 89 % 1007,0 hPa 0,0 l/m 3,8 km/h (1 Bft) SW 229 0 min 0,000 mm 0,0 UV-I 0 W/m 0,7 C 2,3 C 6,4 km/h (2 Bft) 91,67 %
11.02.2018 20:45 2,3 C 4,4 C 89 % 1007,0 hPa 0,0 l/m 5,5 km/h (1 Bft) W-SW 242 0 min 0,000 mm 0,0 UV-I 0 W/m 0,7 C 2,3 C 8,0 km/h (2 Bft) 100,00 %
11.02.2018 20:46 2,3 C 4,4 C 89 % 1007,0 hPa 0,0 l/m 6,9 km/h (2 Bft) W-SW 238 0 min 0,000 mm 0,0 UV-I 0 W/m 0,7 C 1,8 C 9,7 km/h (2 Bft) 95,12 %
11.02.2018 20:47 2,2 C 4,4 C 89 % 1007,0 hPa 0,0 l/m 6,8 km/h (2 Bft) W-SW 238 0 min 0,000 mm 0,0 UV-I 0 W/m 0,6 C 1,8 C 8,0 km/h (2 Bft) 100,00 %
11.02.2018 20:48 2,2 C 4,4 C 89 % 1007,0 hPa 0,0 l/m 7,6 km/h (2 Bft) SW 232 0 min 0,000 mm 0,0 UV-I 0 W/m 0,6 C 1,0 C 9,7 km/h (2 Bft) 97,61 %
11.02.2018 20:49 2,2 C 4,4 C 89 % 1007,0 hPa 0,0 l/m 6,6 km/h (2 Bft) SW 224 0 min 0,000 mm 0,0 UV-I 0 W/m 0,6 C 2,0 C 8,0 km/h (2 Bft) 97,56 %
11.02.2018 20:50 2,2 C 4,4 C 90 % 1007,0 hPa 0,0 l/m 6,6 km/h (2 Bft) W-SW 242 0 min 0,000 mm 0,0 UV-I 0 W/m 0,7 C 2,0 C 9,7 km/h (2 Bft) 96,30 %
11.02.2018 20:51 2,2 C 4,4 C 90 % 1007,0 hPa 0,0 l/m 6,8 km/h (2 Bft) W-SW 239 0 min 0,000 mm 0,0 UV-I 0 W/m 0,7 C 1,8 C 8,0 km/h (2 Bft) 96,15 %
11.02.2018 20:52 2,2 C 4,4 C 90 % 1006,9 hPa 0,0 l/m 3,8 km/h (1 Bft) S-SW 213 0 min 0,000 mm 0,0 UV-I 0 W/m 0,7 C 2,2 C 6,4 km/h (2 Bft) 100,00 %
11.02.2018 20:53 2,2 C 4,4 C 90 % 1006,9 hPa 0,0 l/m 5,2 km/h (1 Bft) W-SW 242 0 min 0,000 mm 0,0 UV-I 0 W/m 0,7 C 2,2 C 8,0 km/h (2 Bft) 96,15 %
11.02.2018 20:54 2,2 C 4,4 C 90 % 1006,9 hPa 0,0 l/m 5,2 km/h (1 Bft) W-SW 248 0 min 0,000 mm 0,0 UV-I 0 W/m 0,7 C 2,2 C 6,4 km/h (2 Bft) 100,00 %
11.02.2018 20:55 2,2 C 4,4 C 90 % 1006,9 hPa 0,0 l/m 8,2 km/h (2 Bft) W-SW 237 0 min 0,000 mm 0,0 UV-I 0 W/m 0,7 C 0,5 C 11,3 km/h (2 Bft) 95,65 %
11.02.2018 20:56 2,2 C 4,4 C 90 % 1006,9 hPa 0,0 l/m 6,4 km/h (2 Bft) W-SW 237 0 min 0,000 mm 0,0 UV-I 0 W/m 0,7 C 2,2 C 8,0 km/h (2 Bft) 100,00 %
11.02.2018 20:57 2,2 C 4,4 C 90 % 1006,9 hPa 0,0 l/m 6,0 km/h (2 Bft) SW 230 0 min 0,000 mm 0,0 UV-I 0 W/m 0,7 C 2,2 C 8,0 km/h (2 Bft) 96,55 %
11.02.2018 20:58 2,2 C 4,4 C 90 % 1006,9 hPa 0,0 l/m 6,4 km/h (2 Bft) SW 230 0 min 0,000 mm 0,0 UV-I 0 W/m 0,7 C 2,2 C 9,7 km/h (2 Bft) 100,00 %
11.02.2018 20:59 2,2 C 4,4 C 90 % 1007,0 hPa 0,0 l/m 5,6 km/h (1 Bft) SW 225 0 min 0,000 mm 0,0 UV-I 0 W/m 0,7 C 2,2 C 6,4 km/h (2 Bft) 96,15 %
11.02.2018 21:00 2,2 C 4,4 C 90 % 1006,9 hPa 0,0 l/m 5,6 km/h (1 Bft) SW 230 0 min 0,000 mm 0,0 UV-I 0 W/m 0,7 C 2,2 C 8,0 km/h (2 Bft) 95,83 %
11.02.2018 21:01 2,2 C 4,4 C 90 % 1007,0 hPa 0,0 l/m 6,1 km/h (2 Bft) W-SW 254 0 min 0,000 mm 0,0 UV-I 0 W/m 0,7 C 2,2 C 9,7 km/h (2 Bft) 95,65 %
11.02.2018 21:02 2,2 C 4,4 C 91 % 1006,9 hPa 0,0 l/m 5,8 km/h (2 Bft) W-SW 254 0 min 0,000 mm 0,0 UV-I 0 W/m 0,9 C 2,2 C 6,4 km/h (2 Bft) 92,59 %
11.02.2018 21:03 2,2 C 4,4 C 91 % 1007,0 hPa 0,0 l/m 7,2 km/h (2 Bft) W-SW 257 0 min 0,000 mm 0,0 UV-I 0 W/m 0,9 C 1,4 C 11,3 km/h (2 Bft) 100,00 %
11.02.2018 21:04 2,2 C 4,4 C 91 % 1007,0 hPa 0,0 l/m 8,2 km/h (2 Bft) W-SW 241 0 min 0,000 mm 0,0 UV-I 0 W/m 0,9 C 0,5 C 12,9 km/h (3 Bft) 96,15 %
11.02.2018 21:05 2,2 C 4,4 C 91 % 1007,1 hPa 0,0 l/m 7,6 km/h (2 Bft) W-SW 254 0 min 0,000 mm 0,0 UV-I 0 W/m 0,9 C 1,0 C 11,3 km/h (2 Bft) 100,00 %
11.02.2018 21:06 2,2 C 4,4 C 91 % 1007,1 hPa 0,0 l/m 8,3 km/h (2 Bft) W-SW 257 0 min 0,000 mm 0,0 UV-I 0 W/m 0,9 C 0,4 C 11,3 km/h (2 Bft) 95,83 %
11.02.2018 21:07 2,2 C 4,4 C 91 % 1007,1 hPa 0,0 l/m 9,5 km/h (2 Bft) W-SW 240 0 min 0,000 mm 0,0 UV-I 0 W/m 0,9 C -0,6 C 12,9 km/h (3 Bft) 92,31 %
11.02.2018 21:08 2,3 C 4,4 C 91 % 1007,1 hPa 0,0 l/m 9,0 km/h (2 Bft) W-SW 257 0 min 0,000 mm 0,0 UV-I 0 W/m 1,0 C -0,1 C 12,9 km/h (3 Bft) 100,00 %
11.02.2018 21:09 2,3 C 4,4 C 91 % 1007,1 hPa 0,0 l/m 10,7 km/h (2 Bft) W-SW 251 0 min 0,000 mm 0,0 UV-I 0 W/m 1,0 C -1,4 C 12,9 km/h (3 Bft) 95,83 %
11.02.2018 21:10 2,3 C 4,4 C 91 % 1007,1 hPa 0,0 l/m 8,5 km/h (2 Bft) W-SW 240 0 min 0,000 mm 0,0 UV-I 0 W/m 1,0 C 0,3 C 12,9 km/h (3 Bft) 100,00 %
11.02.2018 21:11 2,3 C 4,4 C 91 % 1007,1 hPa 0,0 l/m 10,0 km/h (2 Bft) W-NW 287 0 min 0,000 mm 0,0 UV-I 0 W/m 1,0 C -0,9 C 14,5 km/h (3 Bft) 96,30 %
11.02.2018 21:12 2,3 C 4,4 C 91 % 1007,1 hPa 0,0 l/m 9,2 km/h (2 Bft) W-SW 247 0 min 0,000 mm 0,0 UV-I 0 W/m 1,0 C -0,3 C 12,9 km/h (3 Bft) 100,00 %
11.02.2018 21:13 2,3 C 4,4 C 91 % 1007,1 hPa 0,0 l/m 8,6 km/h (2 Bft) W 267 0 min 0,000 mm 0,0 UV-I 0 W/m 1,0 C 0,2 C 12,9 km/h (3 Bft) 95,83 %
11.02.2018 21:14 2,3 C 4,4 C 91 % 1007,1 hPa 0,0 l/m 6,3 km/h (2 Bft) W-SW 251 0 min 0,000 mm 0,0 UV-I 0 W/m 1,0 C 2,3 C 8,0 km/h (2 Bft) 100,00 %
11.02.2018 21:15 2,4 C 4,4 C 91 % 1007,1 hPa 0,0 l/m 11,4 km/h (2 Bft) W-SW 243 0 min 0,000 mm 0,0 UV-I 0 W/m 1,1 C -1,8 C 14,5 km/h (3 Bft) 92,59 %
11.02.2018 21:16 2,4 C 4,4 C 91 % 1007,1 hPa 0,0 l/m 8,8 km/h (2 Bft) W-SW 243 0 min 0,000 mm 0,0 UV-I 0 W/m 1,1 C 0,2 C 12,9 km/h (3 Bft) 100,00 %
11.02.2018 21:17 2,4 C 4,4 C 91 % 1007,1 hPa 0,0 l/m 9,5 km/h (2 Bft) W-SW 257 0 min 0,000 mm 0,0 UV-I 0 W/m 1,1 C -0,4 C 11,3 km/h (2 Bft) 100,00 %
11.02.2018 21:18 2,4 C 4,4 C 91 % 1007,1 hPa 0,0 l/m 9,6 km/h (2 Bft) W-SW 244 0 min 0,000 mm 0,0 UV-I 0 W/m 1,1 C -0,5 C 16,1 km/h (3 Bft) 100,00 %
11.02.2018 21:19 2,4 C 4,4 C 91 % 1007,1 hPa 0,0 l/m 9,6 km/h (2 Bft) W 263 0 min 0,000 mm 0,0 UV-I 0 W/m 1,1 C -0,5 C 12,9 km/h (3 Bft) 96,88 %
11.02.2018 21:20 2,4 C 4,4 C 91 % 1007,1 hPa 0,0 l/m 10,1 km/h (2 Bft) W 265 0 min 0,000 mm 0,0 UV-I 0 W/m 1,1 C -0,9 C 12,9 km/h (3 Bft) 96,15 %
11.02.2018 21:21 2,4 C 4,4 C 91 % 1007,1 hPa 0,0 l/m 10,5 km/h (2 Bft) W 270 0 min 0,000 mm 0,0 UV-I 0 W/m 1,1 C -1,2 C 14,5 km/h (3 Bft) 100,00 %
11.02.2018 21:22 2,4 C 4,4 C 91 % 1007,1 hPa 0,0 l/m 8,8 km/h (2 Bft) W-SW 247 0 min 0,000 mm 0,0 UV-I 0 W/m 1,1 C 0,2 C 11,3 km/h (2 Bft) 97,60 %
11.02.2018 21:23 2,4 C 4,4 C 91 % 1007,1 hPa 0,0 l/m 7,2 km/h (2 Bft) W-SW 256 0 min 0,000 mm 0,0 UV-I 0 W/m 1,1 C 1,6 C 11,3 km/h (2 Bft) 94,74 %
11.02.2018 21:24 2,4 C 4,4 C 91 % 1007,1 hPa 0,0 l/m 8,9 km/h (2 Bft) W-SW 242 0 min 0,000 mm 0,0 UV-I 0 W/m 1,1 C 0,1 C 14,5 km/h (3 Bft) 100,00 %
11.02.2018 21:25 2,4 C 4,4 C 91 % 1007,1 hPa 0,0 l/m 10,7 km/h (2 Bft) W-SW 247 0 min 0,000 mm 0,0 UV-I 0 W/m 1,1 C -1,3 C 12,9 km/h (3 Bft) 96,55 %
11.02.2018 21:26 2,4 C 4,4 C 91 % 1007,1 hPa 0,0 l/m 8,6 km/h (2 Bft) W-SW 244 0 min 0,000 mm 0,0 UV-I 0 W/m 1,1 C 0,3 C 12,9 km/h (3 Bft) 100,00 %
11.02.2018 21:27 2,4 C 4,4 C 91 % 1007,1 hPa 0,0 l/m 4,8 km/h (1 Bft) W-SW 240 0 min 0,000 mm 0,0 UV-I 0 W/m 1,1 C 2,4 C 6,4 km/h (2 Bft) 96,15 %
11.02.2018 21:28 2,4 C 4,4 C 91 % 1007,1 hPa 0,0 l/m 7,0 km/h (2 Bft) W 281 0 min 0,000 mm 0,0 UV-I 0 W/m 1,1 C 1,8 C 11,3 km/h (2 Bft) 100,00 %
11.02.2018 21:29 2,4 C 4,4 C 91 % 1007,2 hPa 0,0 l/m 7,8 km/h (2 Bft) SW 222 0 min 0,000 mm 0,0 UV-I 0 W/m 1,1 C 1,1 C 11,3 km/h (2 Bft) 100,00 %
11.02.2018 21:30 2,4 C 4,4 C 91 % 1007,2 hPa 0,0 l/m 8,0 km/h (2 Bft) N 360 0 min 0,000 mm 0,0 UV-I 0 W/m 1,1 C 0,9 C 11,3 km/h (2 Bft) 100,00 %
11.02.2018 21:31 2,4 C 4,4 C 92 % 1007,2 hPa 0,0 l/m 7,4 km/h (2 Bft) W 263 0 min 0,000 mm 0,0 UV-I 0 W/m 1,2 C 1,4 C 11,3 km/h (2 Bft) 96,15 %
11.02.2018 21:32 2,4 C 4,4 C 92 % 1007,2 hPa 0,0 l/m 6,8 km/h (2 Bft) W 263 0 min 0,000 mm 0,0 UV-I 0 W/m 1,2 C 2,0 C 9,7 km/h (2 Bft) 100,00 %
11.02.2018 21:33 2,4 C 4,4 C 92 % 1007,2 hPa 0,0 l/m 5,5 km/h (1 Bft) W 265 0 min 0,000 mm 0,0 UV-I 0 W/m 1,2 C 2,4 C 8,0 km/h (2 Bft) 100,00 %
11.02.2018 21:34 2,4 C 4,4 C 92 % 1007,2 hPa 0,0 l/m 5,9 km/h (2 Bft) W-SW 244 0 min 0,000 mm 0,0 UV-I 0 W/m 1,2 C 2,4 C 9,7 km/h (2 Bft) 95,83 %
11.02.2018 21:35 2,4 C 4,4 C 92 % 1007,3 hPa 0,0 l/m 5,6 km/h (1 Bft) W-SW 257 0 min 0,000 mm 0,0 UV-I 0 W/m 1,2 C 2,4 C 8,0 km/h (2 Bft) 100,00 %
11.02.2018 21:36 2,4 C 4,4 C 92 % 1007,3 hPa 0,0 l/m 4,7 km/h (1 Bft) W-SW 255 0 min 0,000 mm 0,0 UV-I 0 W/m 1,2 C 2,4 C 6,4 km/h (2 Bft) 100,00 %
11.02.2018 21:37 2,3 C 4,4 C 92 % 1007,3 hPa 0,0 l/m 7,8 km/h (2 Bft) W 266 0 min 0,000 mm 0,0 UV-I 0 W/m 1,1 C 1,0 C 9,7 km/h (2 Bft) 97,61 %
11.02.2018 21:38 2,3 C 4,4 C 92 % 1007,3 hPa 0,0 l/m 6,4 km/h (2 Bft) W 263 0 min 0,000 mm 0,0 UV-I 0 W/m 1,1 C 2,3 C 11,3 km/h (2 Bft) 100,00 %
11.02.2018 21:39 2,3 C 4,4 C 92 % 1007,3 hPa 0,0 l/m 7,0 km/h (2 Bft) W-SW 246 0 min 0,000 mm 0,0 UV-I 0 W/m 1,1 C 1,7 C 11,3 km/h (2 Bft) 93,10 %
11.02.2018 21:40 2,3 C 4,4 C 92 % 1007,3 hPa 0,0 l/m 5,7 km/h (1 Bft) W 271 0 min 0,000 mm 0,0 UV-I 0 W/m 1,1 C 2,3 C 8,0 km/h (2 Bft) 100,00 %
11.02.2018 21:41 2,3 C 4,4 C 92 % 1007,3 hPa 0,0 l/m 6,0 km/h (2 Bft) SW 235 0 min 0,000 mm 0,0 UV-I 0 W/m 1,1 C 2,3 C 11,3 km/h (2 Bft) 100,00 %
11.02.2018 21:42 2,3 C 4,4 C 92 % 1007,3 hPa 0,0 l/m 4,7 km/h (1 Bft) W 265 0 min 0,000 mm 0,0 UV-I 0 W/m 1,1 C 2,3 C 6,4 km/h (2 Bft) 95,65 %
11.02.2018 21:43 2,3 C 4,4 C 92 % 1007,3 hPa 0,0 l/m 3,5 km/h (1 Bft) W-SW 256 0 min 0,000 mm 0,0 UV-I 0 W/m 1,1 C 2,3 C 4,8 km/h (1 Bft) 100,00 %
11.02.2018 21:44 2,4 C 4,4 C 92 % 1007,3 hPa 0,0 l/m 5,8 km/h (2 Bft) W-SW 248 0 min 0,000 mm 0,0 UV-I 0 W/m 1,2 C 2,4 C 9,7 km/h (2 Bft) 100,00 %
11.02.2018 21:45 2,3 C 4,4 C 92 % 1007,3 hPa 0,0 l/m 5,9 km/h (2 Bft) W 278 0 min 0,000 mm 0,0 UV-I 0 W/m 1,1 C 2,3 C 8,0 km/h (2 Bft) 100,00 %
11.02.2018 21:46 2,3 C 4,4 C 92 % 1007,3 hPa 0,0 l/m 6,0 km/h (2 Bft) SW 236 0 min 0,000 mm 0,0 UV-I 0 W/m 1,1 C 2,3 C 6,4 km/h (2 Bft) 100,00 %
11.02.2018 21:47 2,3 C 4,4 C 92 % 1007,3 hPa 0,0 l/m 4,4 km/h (1 Bft) W-SW 243 0 min 0,000 mm 0,0 UV-I 0 W/m 1,1 C 2,3 C 6,4 km/h (2 Bft) 100,00 %
11.02.2018 21:48 2,3 C 4,4 C 92 % 1007,3 hPa 0,0 l/m 5,9 km/h (2 Bft) W 273 0 min 0,000 mm 0,0 UV-I 0 W/m 1,1 C 2,3 C 9,7 km/h (2 Bft) 100,00 %
11.02.2018 21:49 2,3 C 4,4 C 92 % 1007,3 hPa 0,0 l/m 7,4 km/h (2 Bft) W 267 0 min 0,000 mm 0,0 UV-I 0 W/m 1,1 C 1,3 C 11,3 km/h (2 Bft) 100,00 %
11.02.2018 21:50 2,3 C 4,4 C 92 % 1007,3 hPa 0,0 l/m 8,8 km/h (2 Bft) W-SW 253 0 min 0,000 mm 0,0 UV-I 0 W/m 1,1 C 0,1 C 11,3 km/h (2 Bft) 100,00 %
11.02.2018 21:51 2,4 C 4,4 C 93 % 1007,3 hPa 0,0 l/m 8,9 km/h (2 Bft) W-SW 257 0 min 0,000 mm 0,0 UV-I 0 W/m 1,4 C 0,1 C 11,3 km/h (2 Bft) 100,00 %
11.02.2018 21:52 2,4 C 4,4 C 93 % 1007,4 hPa 0,0 l/m 7,7 km/h (2 Bft) SW 227 0 min 0,000 mm 0,0 UV-I 0 W/m 1,4 C 1,1 C 9,7 km/h (2 Bft) 100,00 %
11.02.2018 21:53 2,4 C 4,4 C 93 % 1007,3 hPa 0,0 l/m 7,4 km/h (2 Bft) W 265 0 min 0,000 mm 0,0 UV-I 0 W/m 1,4 C 1,4 C 11,3 km/h (2 Bft) 97,64 %
11.02.2018 21:54 2,4 C 4,4 C 92 % 1007,4 hPa 0,0 l/m 7,1 km/h (2 Bft) W 270 0 min 0,000 mm 0,0 UV-I 0 W/m 1,2 C 1,7 C 9,7 km/h (2 Bft) 100,00 %
11.02.2018 21:55 2,4 C 4,4 C 92 % 1007,4 hPa 0,0 l/m 6,4 km/h (2 Bft) W-SW 257 0 min 0,000 mm 0,0 UV-I 0 W/m 1,2 C 2,4 C 9,7 km/h (2 Bft) 100,00 %
11.02.2018 21:56 2,4 C 4,4 C 93 % 1007,4 hPa 0,0 l/m 4,7 km/h (1 Bft) W-NW 282 0 min 0,000 mm 0,0 UV-I 0 W/m 1,4 C 2,4 C 6,4 km/h (2 Bft) 100,00 %
11.02.2018 21:57 2,4 C 4,4 C 93 % 1007,4 hPa 0,0 l/m 7,1 km/h (2 Bft) W-SW 243 0 min 0,000 mm 0,0 UV-I 0 W/m 1,4 C 1,7 C 9,7 km/h (2 Bft) 100,00 %
11.02.2018 21:58 2,4 C 4,4 C 92 % 1007,4 hPa 0,0 l/m 5,9 km/h (2 Bft) W 264 0 min 0,000 mm 0,0 UV-I 0 W/m 1,2 C 2,4 C 9,7 km/h (2 Bft) 100,00 %
11.02.2018 21:59 2,4 C 4,4 C 92 % 1007,4 hPa 0,0 l/m 6,1 km/h (2 Bft) W-SW 254 0 min 0,000 mm 0,0 UV-I 0 W/m 1,2 C 2,4 C 8,0 km/h (2 Bft) 100,00 %
11.02.2018 22:00 2,4 C 4,4 C 92 % 1007,4 hPa 0,0 l/m 7,6 km/h (2 Bft) W 265 0 min 0,000 mm 0,0 UV-I 0 W/m 1,2 C 1,2 C 11,3 km/h (2 Bft) 100,00 %
11.02.2018 22:01 2,4 C 4,4 C 93 % 1007,5 hPa 0,0 l/m 6,6 km/h (2 Bft) W 259 0 min 0,000 mm 0,0 UV-I 0 W/m 1,4 C 2,2 C 9,7 km/h (2 Bft) 100,00 %
11.02.2018 22:02 2,4 C 4,4 C 92 % 1007,5 hPa 0,0 l/m 5,3 km/h (1 Bft) W 261 0 min 0,000 mm 0,0 UV-I 0 W/m 1,2 C 2,4 C 6,4 km/h (2 Bft) 100,00 %
11.02.2018 22:03 2,4 C 4,4 C 92 % 1007,5 hPa 0,0 l/m 8,9 km/h (2 Bft) W-SW 251 0 min 0,000 mm 0,0 UV-I 0 W/m 1,2 C 0,1 C 12,9 km/h (3 Bft) 95,83 %
11.02.2018 22:04 2,4 C 4,4 C 93 % 1007,5 hPa 0,0 l/m 9,4 km/h (2 Bft) W 259 0 min 0,000 mm 0,0 UV-I 0 W/m 1,4 C -0,3 C 12,9 km/h (3 Bft) 100,00 %
11.02.2018 22:05 2,4 C 4,4 C 93 % 1007,5 hPa 0,0 l/m 7,3 km/h (2 Bft) W-SW 255 0 min 0,000 mm 0,0 UV-I 0 W/m 1,4 C 1,5 C 9,7 km/h (2 Bft) 91,67 %
11.02.2018 22:06 2,4 C 4,4 C 93 % 1007,5 hPa 0,0 l/m 6,4 km/h (2 Bft) W-SW 256 0 min 0,000 mm 0,0 UV-I 0 W/m 1,4 C 2,4 C 9,7 km/h (2 Bft) 100,00 %
11.02.2018 22:07 2,4 C 4,4 C 93 % 1007,6 hPa 0,0 l/m 7,1 km/h (2 Bft) W 281 0 min 0,000 mm 0,0 UV-I 0 W/m 1,4 C 1,7 C 11,3 km/h (2 Bft) 100,00 %
11.02.2018 22:08 2,4 C 4,4 C 93 % 1007,5 hPa 0,0 l/m 8,6 km/h (2 Bft) W 266 0 min 0,000 mm 0,0 UV-I 0 W/m 1,4 C 0,3 C 12,9 km/h (3 Bft) 100,00 %
11.02.2018 22:09 2,4 C 4,4 C 93 % 1007,6 hPa 0,0 l/m 4,9 km/h (1 Bft) S-SW 213 0 min 0,000 mm 0,0 UV-I 0 W/m 1,4 C 2,4 C 6,4 km/h (2 Bft) 100,00 %
11.02.2018 22:10 2,4 C 4,4 C 93 % 1007,6 hPa 0,0 l/m 6,9 km/h (2 Bft) W-SW 246 0 min 0,000 mm 0,0 UV-I 0 W/m 1,4 C 1,9 C 8,0 km/h (2 Bft) 100,00 %
11.02.2018 22:11 2,4 C 4,4 C 93 % 1007,6 hPa 0,0 l/m 7,6 km/h (2 Bft) W-SW 248 0 min 0,000 mm 0,0 UV-I 0 W/m 1,4 C 1,2 C 11,3 km/h (2 Bft) 100,00 %
11.02.2018 22:12 2,4 C 4,4 C 93 % 1007,6 hPa 0,0 l/m 5,2 km/h (1 Bft) W-SW 257 0 min 0,000 mm 0,0 UV-I 0 W/m 1,4 C 2,4 C 6,4 km/h (2 Bft) 100,00 %
11.02.2018 22:13 2,4 C 4,4 C 93 % 1007,7 hPa 0,0 l/m 5,7 km/h (1 Bft) W 267 0 min 0,000 mm 0,0 UV-I 0 W/m 1,4 C 2,4 C 6,4 km/h (2 Bft) 100,00 %
11.02.2018 22:14 2,4 C 4,4 C 93 % 1007,7 hPa 0,0 l/m 7,7 km/h (2 Bft) W 259 0 min 0,000 mm 0,0 UV-I 0 W/m 1,4 C 1,1 C 11,3 km/h (2 Bft) 95,83 %
11.02.2018 22:15 2,4 C 4,4 C 93 % 1007,8 hPa 0,0 l/m 5,8 km/h (2 Bft) W 265 0 min 0,000 mm 0,0 UV-I 0 W/m 1,4 C 2,4 C 9,7 km/h (2 Bft) 100,00 %
11.02.2018 22:16 2,4 C 4,4 C 93 % 1007,7 hPa 0,0 l/m 6,6 km/h (2 Bft) SW 236 0 min 0,000 mm 0,0 UV-I 0 W/m 1,4 C 2,2 C 11,3 km/h (2 Bft) 100,00 %
11.02.2018 22:17 2,4 C 4,4 C 93 % 1007,7 hPa 0,0 l/m 6,4 km/h (2 Bft) SW 225 0 min 0,000 mm 0,0 UV-I 0 W/m 1,4 C 2,4 C 9,7 km/h (2 Bft) 100,00 %
11.02.2018 22:18 2,4 C 4,4 C 93 % 1007,7 hPa 0,2 l/m 6,2 km/h (2 Bft) W-SW 255 0 min 0,000 mm 0,0 UV-I 0 W/m 1,4 C 2,4 C 9,7 km/h (2 Bft) 100,00 %
11.02.2018 22:19 2,4 C 4,4 C 93 % 1007,7 hPa 0,0 l/m 8,4 km/h (2 Bft) SW 236 0 min 0,000 mm 0,0 UV-I 0 W/m 1,4 C 0,5 C 14,5 km/h (3 Bft) 100,00 %
11.02.2018 22:20 2,4 C 4,4 C 93 % 1007,8 hPa 0,0 l/m 6,4 km/h (2 Bft) W 259 0 min 0,000 mm 0,0 UV-I 0 W/m 1,4 C 2,4 C 9,7 km/h (2 Bft) 100,00 %
11.02.2018 22:21 2,4 C 4,4 C 93 % 1007,8 hPa 0,0 l/m 6,8 km/h (2 Bft) W 265 0 min 0,000 mm 0,0 UV-I 0 W/m 1,4 C 2,0 C 11,3 km/h (2 Bft) 96,30 %
11.02.2018 22:22 2,3 C 4,4 C 93 % 1007,8 hPa 0,0 l/m 6,4 km/h (2 Bft) W-SW 248 0 min 0,000 mm 0,0 UV-I 0 W/m 1,3 C 2,3 C 11,3 km/h (2 Bft) 100,00 %
11.02.2018 22:23 2,4 C 4,4 C 93 % 1007,9 hPa 0,0 l/m 6,9 km/h (2 Bft) W-SW 254 0 min 0,000 mm 0,0 UV-I 0 W/m 1,4 C 1,9 C 11,3 km/h (2 Bft) 100,00 %
11.02.2018 22:24 2,3 C 4,4 C 93 % 1007,9 hPa 0,0 l/m 8,0 km/h (2 Bft) W-SW 249 0 min 0,000 mm 0,0 UV-I 0 W/m 1,3 C 0,8 C 12,9 km/h (3 Bft) 100,00 %
11.02.2018 22:25 2,3 C 4,4 C 93 % 1007,9 hPa 0,0 l/m 7,7 km/h (2 Bft) W-SW 251 0 min 0,000 mm 0,0 UV-I 0 W/m 1,3 C 1,0 C 11,3 km/h (2 Bft) 100,00 %
11.02.2018 22:26 2,4 C 4,4 C 93 % 1007,9 hPa 0,0 l/m 6,3 km/h (2 Bft) W-SW 245 0 min 0,000 mm 0,0 UV-I 0 W/m 1,4 C 2,4 C 8,0 km/h (2 Bft) 100,00 %
11.02.2018 22:27 2,3 C 4,4 C 94 % 1007,9 hPa 0,0 l/m 6,4 km/h (2 Bft) W-SW 250 0 min 0,000 mm 0,0 UV-I 0 W/m 1,4 C 2,3 C 9,7 km/h (2 Bft) 100,00 %
11.02.2018 22:28 2,4 C 4,4 C 94 % 1007,8 hPa 0,0 l/m 6,0 km/h (2 Bft) SW 217 0 min 0,000 mm 0,0 UV-I 0 W/m 1,5 C 2,4 C 8,0 km/h (2 Bft) 100,00 %
11.02.2018 22:29 2,4 C 4,4 C 94 % 1008,0 hPa 0,0 l/m 7,6 km/h (2 Bft) W-SW 253 0 min 0,000 mm 0,0 UV-I 0 W/m 1,5 C 1,2 C 11,3 km/h (2 Bft) 100,00 %
11.02.2018 22:30 2,4 C 4,4 C 94 % 1007,9 hPa 0,0 l/m 6,6 km/h (2 Bft) W-SW 240 0 min 0,000 mm 0,0 UV-I 0 W/m 1,5 C 2,2 C 9,7 km/h (2 Bft) 95,65 %
11.02.2018 22:31 2,4 C 4,4 C 94 % 1008,0 hPa 0,0 l/m 7,0 km/h (2 Bft) W-SW 242 0 min 0,000 mm 0,0 UV-I 0 W/m 1,5 C 1,8 C 9,7 km/h (2 Bft) 100,00 %
11.02.2018 22:32 2,4 C 4,4 C 94 % 1007,9 hPa 0,0 l/m 8,5 km/h (2 Bft) W 266 0 min 0,000 mm 0,0 UV-I 0 W/m 1,5 C 0,4 C 12,9 km/h (3 Bft) 100,00 %
11.02.2018 22:33 2,4 C 4,4 C 94 % 1007,9 hPa 0,0 l/m 8,9 km/h (2 Bft) W-SW 251 0 min 0,000 mm 0,0 UV-I 0 W/m 1,5 C 0,1 C 14,5 km/h (3 Bft) 100,00 %
11.02.2018 22:34 2,4 C 4,4 C 94 % 1007,9 hPa 0,0 l/m 6,0 km/h (2 Bft) W 259 0 min 0,000 mm 0,0 UV-I 0 W/m 1,5 C 2,4 C 9,7 km/h (2 Bft) 100,00 %
11.02.2018 22:35 2,4 C 4,4 C 94 % 1007,9 hPa 0,0 l/m 7,1 km/h (2 Bft) W-SW 237 0 min 0,000 mm 0,0 UV-I 0 W/m 1,5 C 1,7 C 9,7 km/h (2 Bft) 100,00 %
11.02.2018 22:36 2,3 C 4,4 C 94 % 1007,9 hPa 0,0 l/m 7,2 km/h (2 Bft) W-SW 240 0 min 0,000 mm 0,0 UV-I 0 W/m 1,4 C 1,5 C 9,7 km/h (2 Bft) 100,00 %
11.02.2018 22:37 2,3 C 4,4 C 94 % 1007,9 hPa 0,0 l/m 10,5 km/h (2 Bft) SW 215 0 min 0,000 mm 0,0 UV-I 0 W/m 1,4 C -1,3 C 12,9 km/h (3 Bft) 96,15 %
11.02.2018 22:38 2,3 C 4,4 C 94 % 1008,0 hPa 0,0 l/m 7,9 km/h (2 Bft) SW 232 0 min 0,000 mm 0,0 UV-I 0 W/m 1,4 C 0,9 C 12,9 km/h (3 Bft) 100,00 %
11.02.2018 22:39 2,4 C 4,4 C 94 % 1007,9 hPa 0,0 l/m 6,1 km/h (2 Bft) SW 227 0 min 0,000 mm 0,0 UV-I 0 W/m 1,5 C 2,4 C 8,0 km/h (2 Bft) 100,00 %
11.02.2018 22:40 2,3 C 4,4 C 94 % 1008,0 hPa 0,0 l/m 7,2 km/h (2 Bft) S-SW 213 0 min 0,000 mm 0,0 UV-I 0 W/m 1,4 C 1,5 C 9,7 km/h (2 Bft) 100,00 %
11.02.2018 22:41 2,3 C 4,4 C 94 % 1008,0 hPa 0,0 l/m 12,6 km/h (3 Bft) W-SW 254 0 min 0,000 mm 0,0 UV-I 0 W/m 1,4 C -2,7 C 17,7 km/h (3 Bft) 100,00 %
11.02.2018 22:42 2,3 C 4,4 C 94 % 1008,0 hPa 0,0 l/m 9,7 km/h (2 Bft) SW 215 0 min 0,000 mm 0,0 UV-I 0 W/m 1,4 C -0,7 C 12,9 km/h (3 Bft) 100,00 %
11.02.2018 22:43 2,3 C 4,4 C 94 % 1008,1 hPa 0,0 l/m 7,9 km/h (2 Bft) W-SW 240 0 min 0,000 mm 0,0 UV-I 0 W/m 1,4 C 0,9 C 11,3 km/h (2 Bft) 100,00 %
11.02.2018 22:44 2,3 C 4,4 C 94 % 1008,1 hPa 0,0 l/m 9,2 km/h (2 Bft) SW 223 0 min 0,000 mm 0,0 UV-I 0 W/m 1,4 C -0,3 C 12,9 km/h (3 Bft) 100,00 %
11.02.2018 22:45 2,3 C 4,4 C 94 % 1008,1 hPa 0,0 l/m 8,8 km/h (2 Bft) W-SW 240 0 min 0,000 mm 0,0 UV-I 0 W/m 1,4 C 0,1 C 12,9 km/h (3 Bft) 100,00 %
11.02.2018 22:46 2,3 C 4,4 C 94 % 1008,1 hPa 0,0 l/m 9,0 km/h (2 Bft) SW 230 0 min 0,000 mm 0,0 UV-I 0 W/m 1,4 C -0,1 C 14,5 km/h (3 Bft) 100,00 %
11.02.2018 22:47 2,3 C 4,4 C 94 % 1008,1 hPa 0,0 l/m 6,3 km/h (2 Bft) SW 226 0 min 0,000 mm 0,0 UV-I 0 W/m 1,4 C 2,3 C 11,3 km/h (2 Bft) 100,00 %
11.02.2018 22:48 2,3 C 4,4 C 94 % 1008,2 hPa 0,0 l/m 5,5 km/h (1 Bft) SW 232 0 min 0,000 mm 0,0 UV-I 0 W/m 1,4 C 2,3 C 6,4 km/h (2 Bft) 95,83 %
11.02.2018 22:49 2,3 C 4,4 C 94 % 1008,2 hPa 0,0 l/m 7,5 km/h (2 Bft) W-SW 246 0 min 0,000 mm 0,0 UV-I 0 W/m 1,4 C 1,2 C 9,7 km/h (2 Bft) 96,15 %
11.02.2018 22:50 2,3 C 4,4 C 94 % 1008,2 hPa 0,0 l/m 5,7 km/h (1 Bft) W-SW 248 0 min 0,000 mm 0,0 UV-I 0 W/m 1,4 C 2,3 C 8,0 km/h (2 Bft) 96,30 %
11.02.2018 22:51 2,3 C 4,4 C 94 % 1008,2 hPa 0,0 l/m 7,3 km/h (2 Bft) W-SW 244 0 min 0,000 mm 0,0 UV-I 0 W/m 1,4 C 1,4 C 11,3 km/h (2 Bft) 95,65 %
11.02.2018 22:52 2,3 C 4,4 C 94 % 1008,1 hPa 0,0 l/m 6,9 km/h (2 Bft) W-SW 253 0 min 0,000 mm 0,0 UV-I 0 W/m 1,4 C 1,8 C 12,9 km/h (3 Bft) 100,00 %
11.02.2018 22:53 2,3 C 4,4 C 94 % 1008,2 hPa 0,0 l/m 8,1 km/h (2 Bft) W-SW 252 0 min 0,000 mm 0,0 UV-I 0 W/m 1,4 C 0,7 C 12,9 km/h (3 Bft) 96,15 %
11.02.2018 22:54 2,3 C 4,4 C 94 % 1008,2 hPa 0,0 l/m 6,4 km/h (2 Bft) SW 224 0 min 0,000 mm 0,0 UV-I 0 W/m 1,4 C 2,3 C 9,7 km/h (2 Bft) 96,30 %
11.02.2018 22:55 2,3 C 4,4 C 94 % 1008,2 hPa 0,0 l/m 7,8 km/h (2 Bft) W 259 0 min 0,000 mm 0,0 UV-I 0 W/m 1,4 C 1,0 C 14,5 km/h (3 Bft) 96,55 %
11.02.2018 22:56 2,3 C 4,4 C 94 % 1008,3 hPa 0,0 l/m 8,9 km/h (2 Bft) SW 234 0 min 0,000 mm 0,0 UV-I 0 W/m 1,4 C -0,0 C 12,9 km/h (3 Bft) 100,00 %
11.02.2018 22:57 2,3 C 4,4 C 94 % 1008,3 hPa 0,0 l/m 7,2 km/h (2 Bft) W-SW 244 0 min 0,000 mm 0,0 UV-I 0 W/m 1,4 C 1,5 C 9,7 km/h (2 Bft) 96,30 %
11.02.2018 22:58 2,3 C 4,4 C 94 % 1008,3 hPa 0,0 l/m 6,4 km/h (2 Bft) W-SW 237 0 min 0,000 mm 0,0 UV-I 0 W/m 1,4 C 2,3 C 8,0 km/h (2 Bft) 100,00 %
11.02.2018 22:59 2,3 C 4,4 C 94 % 1008,3 hPa 0,0 l/m 5,7 km/h (1 Bft) SW 221 0 min 0,000 mm 0,0 UV-I 0 W/m 1,4 C 2,3 C 8,0 km/h (2 Bft) 93,33 %
11.02.2018 23:00 2,3 C 4,4 C 94 % 1008,3 hPa 0,0 l/m 5,6 km/h (1 Bft) W-SW 246 0 min 0,000 mm 0,0 UV-I 0 W/m 1,4 C 2,3 C 8,0 km/h (2 Bft) 100,00 %
11.02.2018 23:01 2,3 C 4,4 C 94 % 1008,3 hPa 0,0 l/m 5,3 km/h (1 Bft) W-SW 247 0 min 0,000 mm 0,0 UV-I 0 W/m 1,4 C 2,3 C 6,4 km/h (2 Bft) 96,67 %
11.02.2018 23:02 2,3 C 4,4 C 94 % 1008,3 hPa 0,0 l/m 6,1 km/h (2 Bft) SW 232 0 min 0,000 mm 0,0 UV-I 0 W/m 1,4 C 2,3 C 9,7 km/h (2 Bft) 100,00 %
11.02.2018 23:03 2,3 C 4,4 C 94 % 1008,3 hPa 0,0 l/m 5,5 km/h (1 Bft) SW 234 0 min 0,000 mm 0,0 UV-I 0 W/m 1,4 C 2,3 C 8,0 km/h (2 Bft) 96,67 %
11.02.2018 23:04 2,3 C 4,4 C 94 % 1008,2 hPa 0,2 l/m 6,0 km/h (2 Bft) W-SW 245 0 min 0,000 mm 0,0 UV-I 0 W/m 1,4 C 2,3 C 9,7 km/h (2 Bft) 96,15 %
11.02.2018 23:05 2,3 C 4,4 C 94 % 1008,3 hPa 0,0 l/m 5,1 km/h (1 Bft) SW 231 0 min 0,000 mm 0,0 UV-I 0 W/m 1,4 C 2,3 C 8,0 km/h (2 Bft) 95,83 %
11.02.2018 23:06 2,3 C 4,4 C 94 % 1008,2 hPa 0,0 l/m 5,2 km/h (1 Bft) W-SW 246 0 min 0,000 mm 0,0 UV-I 0 W/m 1,4 C 2,3 C 8,0 km/h (2 Bft) 95,65 %
11.02.2018 23:07 2,3 C 4,4 C 94 % 1008,3 hPa 0,0 l/m 5,6 km/h (1 Bft) W-SW 239 0 min 0,000 mm 0,0 UV-I 0 W/m 1,4 C 2,3 C 8,0 km/h (2 Bft) 100,00 %
11.02.2018 23:08 2,2 C 4,4 C 94 % 1008,2 hPa 0,0 l/m 4,7 km/h (1 Bft) W-SW 238 0 min 0,000 mm 0,0 UV-I 0 W/m 1,3 C 2,2 C 6,4 km/h (2 Bft) 92,31 %
11.02.2018 23:09 2,2 C 4,4 C 94 % 1008,2 hPa 0,0 l/m 4,4 km/h (1 Bft) SW 234 0 min 0,000 mm 0,0 UV-I 0 W/m 1,3 C 2,2 C 6,4 km/h (2 Bft) 100,00 %
11.02.2018 23:10 2,2 C 4,4 C 94 % 1008,2 hPa 0,0 l/m 5,1 km/h (1 Bft) SW 235 0 min 0,000 mm 0,0 UV-I 0 W/m 1,3 C 2,2 C 6,4 km/h (2 Bft) 96,15 %
11.02.2018 23:11 2,2 C 4,4 C 95 % 1008,3 hPa 0,0 l/m 5,9 km/h (2 Bft) SW 234 0 min 0,000 mm 0,0 UV-I 0 W/m 1,5 C 2,2 C 8,0 km/h (2 Bft) 91,67 %
11.02.2018 23:12 2,2 C 4,4 C 95 % 1008,3 hPa 0,0 l/m 7,0 km/h (2 Bft) SW 233 0 min 0,000 mm 0,0 UV-I 0 W/m 1,5 C 1,6 C 8,0 km/h (2 Bft) 100,00 %
11.02.2018 23:13 2,2 C 4,4 C 95 % 1008,3 hPa 0,0 l/m 6,6 km/h (2 Bft) SW 234 0 min 0,000 mm 0,0 UV-I 0 W/m 1,5 C 2,0 C 8,0 km/h (2 Bft) 91,67 %
11.02.2018 23:14 2,2 C 4,4 C 95 % 1008,3 hPa 0,0 l/m 5,1 km/h (1 Bft) W-SW 249 0 min 0,000 mm 0,0 UV-I 0 W/m 1,5 C 2,2 C 6,4 km/h (2 Bft) 96,15 %
11.02.2018 23:15 2,2 C 4,4 C 95 % 1008,3 hPa 0,0 l/m 5,5 km/h (1 Bft) SW 228 0 min 0,000 mm 0,0 UV-I 0 W/m 1,5 C 2,2 C 8,0 km/h (2 Bft) 93,33 %
11.02.2018 23:16 2,2 C 4,4 C 95 % 1008,3 hPa 0,0 l/m 5,3 km/h (1 Bft) SW 232 0 min 0,000 mm 0,0 UV-I 0 W/m 1,5 C 2,2 C 6,4 km/h (2 Bft) 100,00 %
11.02.2018 23:17 2,2 C 4,4 C 95 % 1008,3 hPa 0,0 l/m 5,7 km/h (1 Bft) SW 226 0 min 0,000 mm 0,0 UV-I 0 W/m 1,5 C 2,2 C 8,0 km/h (2 Bft) 91,30 %
11.02.2018 23:18 2,2 C 4,4 C 95 % 1008,3 hPa 0,0 l/m 4,9 km/h (1 Bft) W-SW 257 0 min 0,000 mm 0,0 UV-I 0 W/m 1,5 C 2,2 C 6,4 km/h (2 Bft) 90,62 %
11.02.2018 23:19 2,2 C 4,4 C 95 % 1008,3 hPa 0,0 l/m 5,8 km/h (2 Bft) W-SW 250 0 min 0,000 mm 0,0 UV-I 0 W/m 1,5 C 2,2 C 9,7 km/h (2 Bft) 100,00 %
11.02.2018 23:20 2,2 C 4,4 C 95 % 1008,3 hPa 0,0 l/m 4,9 km/h (1 Bft) W-SW 250 0 min 0,000 mm 0,0 UV-I 0 W/m 1,5 C 2,2 C 6,4 km/h (2 Bft) 92,59 %
11.02.2018 23:21 2,1 C 4,4 C 95 % 1008,3 hPa 0,0 l/m 4,8 km/h (1 Bft) W-SW 250 0 min 0,000 mm 0,0 UV-I 0 W/m 1,4 C 2,1 C 6,4 km/h (2 Bft) 100,00 %
11.02.2018 23:22 2,1 C 4,4 C 95 % 1008,4 hPa 0,0 l/m 5,6 km/h (1 Bft) W-SW 258 0 min 0,000 mm 0,0 UV-I 0 W/m 1,4 C 2,1 C 8,0 km/h (2 Bft) 85,19 %
11.02.2018 23:23 2,1 C 4,4 C 95 % 1008,4 hPa 0,0 l/m 5,8 km/h (2 Bft) W 260 0 min 0,000 mm 0,0 UV-I 0 W/m 1,4 C 2,1 C 6,4 km/h (2 Bft) 100,00 %
11.02.2018 23:24 2,1 C 4,4 C 95 % 1008,4 hPa 0,0 l/m 6,0 km/h (2 Bft) W-SW 247 0 min 0,000 mm 0,0 UV-I 0 W/m 1,4 C 2,1 C 8,0 km/h (2 Bft) 86,67 %
11.02.2018 23:25 2,1 C 4,4 C 95 % 1008,4 hPa 0,0 l/m 7,1 km/h (2 Bft) W-SW 244 0 min 0,000 mm 0,0 UV-I 0 W/m 1,4 C 1,4 C 9,7 km/h (2 Bft) 100,00 %
11.02.2018 23:26 2,1 C 4,4 C 95 % 1008,4 hPa 0,0 l/m 7,0 km/h (2 Bft) W-SW 255 0 min 0,000 mm 0,0 UV-I 0 W/m 1,4 C 1,5 C 12,9 km/h (3 Bft) 93,33 %
11.02.2018 23:27 2,1 C 4,4 C 95 % 1008,3 hPa 0,0 l/m 6,9 km/h (2 Bft) W 271 0 min 0,000 mm 0,0 UV-I 0 W/m 1,4 C 1,6 C 9,7 km/h (2 Bft) 97,56 %
11.02.2018 23:28 2,1 C 4,4 C 95 % 1008,4 hPa 0,0 l/m 5,8 km/h (2 Bft) W 267 0 min 0,000 mm 0,0 UV-I 0 W/m 1,4 C 2,1 C 8,0 km/h (2 Bft) 100,00 %
11.02.2018 23:29 2,1 C 4,4 C 95 % 1008,3 hPa 0,0 l/m 7,2 km/h (2 Bft) W 263 0 min 0,000 mm 0,0 UV-I 0 W/m 1,4 C 1,3 C 12,9 km/h (3 Bft) 95,65 %
11.02.2018 23:30 2,1 C 4,4 C 95 % 1008,3 hPa 0,0 l/m 8,3 km/h (2 Bft) W-SW 245 0 min 0,000 mm 0,0 UV-I 0 W/m 1,4 C 0,3 C 11,3 km/h (2 Bft) 100,00 %
11.02.2018 23:31 2,1 C 4,4 C 95 % 1008,4 hPa 0,0 l/m 8,4 km/h (2 Bft) W-SW 254 0 min 0,000 mm 0,0 UV-I 0 W/m 1,4 C 0,2 C 12,9 km/h (3 Bft) 96,15 %
11.02.2018 23:32 2,1 C 4,4 C 95 % 1008,3 hPa 0,0 l/m 7,1 km/h (2 Bft) W-SW 254 0 min 0,000 mm 0,0 UV-I 0 W/m 1,4 C 1,4 C 11,3 km/h (2 Bft) 100,00 %
11.02.2018 23:33 2,1 C 4,4 C 95 % 1008,3 hPa 0,0 l/m 10,0 km/h (2 Bft) W-SW 250 0 min 0,000 mm 0,0 UV-I 0 W/m 1,4 C -1,1 C 14,5 km/h (3 Bft) 93,75 %
11.02.2018 23:34 2,1 C 4,4 C 95 % 1008,4 hPa 0,0 l/m 8,9 km/h (2 Bft) W 268 0 min 0,000 mm 0,0 UV-I 0 W/m 1,4 C -0,2 C 12,9 km/h (3 Bft) 100,00 %
11.02.2018 23:35 2,1 C 4,4 C 95 % 1008,4 hPa 0,0 l/m 7,6 km/h (2 Bft) W 269 0 min 0,000 mm 0,0 UV-I 0 W/m 1,4 C 0,9 C 11,3 km/h (2 Bft) 93,33 %
11.02.2018 23:36 2,1 C 4,4 C 95 % 1008,4 hPa 0,0 l/m 10,9 km/h (2 Bft) W-NW 284 0 min 0,000 mm 0,0 UV-I 0 W/m 1,4 C -1,8 C 12,9 km/h (3 Bft) 100,00 %
11.02.2018 23:37 2,1 C 4,4 C 95 % 1008,4 hPa 0,0 l/m 11,5 km/h (2 Bft) W-SW 246 0 min 0,000 mm 0,0 UV-I 0 W/m 1,4 C -2,2 C 14,5 km/h (3 Bft) 95,83 %
11.02.2018 23:38 2,1 C 4,4 C 95 % 1008,4 hPa 0,0 l/m 9,4 km/h (2 Bft) W-SW 244 0 min 0,000 mm 0,0 UV-I 0 W/m 1,4 C -0,7 C 12,9 km/h (3 Bft) 93,10 %
11.02.2018 23:39 2,1 C 4,4 C 95 % 1008,4 hPa 0,2 l/m 7,4 km/h (2 Bft) W-SW 241 0 min 0,000 mm 0,0 UV-I 0 W/m 1,4 C 1,1 C 11,3 km/h (2 Bft) 100,00 %
11.02.2018 23:40 2,1 C 4,4 C 95 % 1008,4 hPa 0,0 l/m 6,7 km/h (2 Bft) SW 234 0 min 0,000 mm 0,0 UV-I 0 W/m 1,4 C 1,8 C 9,7 km/h (2 Bft) 94,12 %
11.02.2018 23:41 2,1 C 4,4 C 95 % 1008,4 hPa 0,0 l/m 11,6 km/h (2 Bft) SW 232 0 min 0,000 mm 0,0 UV-I 0 W/m 1,4 C -2,3 C 17,7 km/h (3 Bft) 92,59 %
11.02.2018 23:42 2,1 C 4,4 C 95 % 1008,4 hPa 0,0 l/m 8,6 km/h (2 Bft) W-SW 240 0 min 0,000 mm 0,0 UV-I 0 W/m 1,4 C 0,0 C 11,3 km/h (2 Bft) 96,15 %
11.02.2018 23:43 2,1 C 4,4 C 95 % 1008,4 hPa 0,0 l/m 8,7 km/h (2 Bft) W-SW 237 0 min 0,000 mm 0,0 UV-I 0 W/m 1,4 C -0,1 C 11,3 km/h (2 Bft) 100,00 %
11.02.2018 23:44 2,1 C 4,4 C 95 % 1008,5 hPa 0,0 l/m 9,1 km/h (2 Bft) SW 227 0 min 0,000 mm 0,0 UV-I 0 W/m 1,4 C -0,4 C 12,9 km/h (3 Bft) 95,65 %
11.02.2018 23:45 2,1 C 4,4 C 95 % 1008,4 hPa 0,0 l/m 10,2 km/h (2 Bft) SW 219 0 min 0,000 mm 0,0 UV-I 0 W/m 1,4 C -1,3 C 12,9 km/h (3 Bft) 100,00 %
11.02.2018 23:46 2,1 C 4,4 C 95 % 1008,4 hPa 0,0 l/m 8,0 km/h (2 Bft) SW 217 0 min 0,000 mm 0,0 UV-I 0 W/m 1,4 C 0,6 C 11,3 km/h (2 Bft) 92,31 %
11.02.2018 23:47 2,1 C 4,4 C 95 % 1008,4 hPa 0,0 l/m 8,2 km/h (2 Bft) W-SW 240 0 min 0,000 mm 0,0 UV-I 0 W/m 1,4 C 0,4 C 14,5 km/h (3 Bft) 100,00 %
11.02.2018 23:48 2,1 C 4,4 C 95 % 1008,5 hPa 0,0 l/m 12,6 km/h (3 Bft) W-SW 238 0 min 0,000 mm 0,0 UV-I 0 W/m 1,4 C -3,0 C 16,1 km/h (3 Bft) 96,55 %
11.02.2018 23:49 2,1 C 4,4 C 95 % 1008,4 hPa 0,0 l/m 9,5 km/h (2 Bft) W-SW 239 0 min 0,000 mm 0,0 UV-I 0 W/m 1,4 C -0,7 C 12,9 km/h (3 Bft) 95,83 %
11.02.2018 23:50 2,1 C 4,4 C 95 % 1008,5 hPa 0,0 l/m 9,7 km/h (2 Bft) SW 215 0 min 0,000 mm 0,0 UV-I 0 W/m 1,4 C -0,9 C 12,9 km/h (3 Bft) 100,00 %
11.02.2018 23:51 2,1 C 4,4 C 95 % 1008,5 hPa 0,0 l/m 12,0 km/h (2 Bft) SW 219 0 min 0,000 mm 0,0 UV-I 0 W/m 1,4 C -2,6 C 16,1 km/h (3 Bft) 100,00 %
11.02.2018 23:52 2,1 C 4,4 C 95 % 1008,5 hPa 0,0 l/m 11,1 km/h (2 Bft) W-SW 246 0 min 0,000 mm 0,0 UV-I 0 W/m 1,4 C -2,0 C 14,5 km/h (3 Bft) 97,37 %
11.02.2018 23:53 2,1 C 4,4 C 95 % 1008,5 hPa 0,0 l/m 13,2 km/h (3 Bft) S-SW 205 0 min 0,000 mm 0,0 UV-I 0 W/m 1,4 C -3,4 C 16,1 km/h (3 Bft) 100,00 %
11.02.2018 23:54 2,1 C 4,4 C 95 % 1008,4 hPa 0,0 l/m 11,2 km/h (2 Bft) W-SW 238 0 min 0,000 mm 0,0 UV-I 0 W/m 1,4 C -2,0 C 14,5 km/h (3 Bft) 92,59 %
11.02.2018 23:55 2,1 C 4,4 C 95 % 1008,4 hPa 0,0 l/m 8,3 km/h (2 Bft) SW 226 0 min 0,000 mm 0,0 UV-I 0 W/m 1,4 C 0,3 C 12,9 km/h (3 Bft) 96,55 %
11.02.2018 23:56 2,1 C 4,4 C 95 % 1008,4 hPa 0,0 l/m 10,5 km/h (2 Bft) W-SW 255 0 min 0,000 mm 0,0 UV-I 0 W/m 1,4 C -1,5 C 14,5 km/h (3 Bft) 96,15 %
11.02.2018 23:57 2,1 C 4,4 C 95 % 1008,4 hPa 0,0 l/m 9,9 km/h (2 Bft) SW 229 0 min 0,000 mm 0,0 UV-I 0 W/m 1,4 C -1,1 C 14,5 km/h (3 Bft) 91,67 %
11.02.2018 23:58 2,1 C 4,4 C 95 % 1008,4 hPa 0,0 l/m 9,8 km/h (2 Bft) S-SW 198 0 min 0,000 mm 0,0 UV-I 0 W/m 1,4 C -1,0 C 16,1 km/h (3 Bft) 100,00 %
11.02.2018 23:59 2,1 C 4,4 C 95 % 1008,4 hPa 0,0 l/m 8,7 km/h (2 Bft) S-SW 200 0 min 0,000 mm 0,0 UV-I 0 W/m 1,4 C -0,1 C 12,9 km/h (3 Bft) 96,15 %
_ Min-Zeit 00:01 00:00 13:27 16:34 - 11:26 - - - - - - 12:55 15:48 11:26 02:36
Minimum _ 0,0 C 3,9 C 61 % 1006,4 hPa - 0,0 km/h (0 Bft) - - - - - - -2,5 C -4,1 C 0,0 km/h (0 Bft) 83,33 %
_ Max-Zeit 13:40 15:09 23:11 00:00 22:18 15:48 - - 08:53 13:01 11:29 14:07 22:28 13:41 15:48 00:00
Maximum _ 4,9 C 4,4 C 95 % 1015,8 hPa 0,2 l/m 20,1 km/h
SW (4 Bft)
- - 1 min 0,203 mm 1,1 UV-I 517 W/m 1,5 C 4,8 C 27,4 km/h
W-SW (4 Bft)
100,00 %
Durchschnitt _ 2,0 C 4,1 C 83 % 1010,1 hPa #0,6 l/m 4,8 km/h (1 Bft) W-SW - #6:15 h #1,041 mm 0,9 UV-I 253 W/m -0,6 C 1,7 C 7,0 km/h (2 Bft) 97,67 %